<?xml version="1.0" encoding="UTF-8" standalone="no" ?>
<gpx xmlns="http://www.topografix.com/GPX/1/1" xmlns:xsi="http://www.w3.org/2001/XMLSchema-instance" xsi:schemaLocation="http://www.topografix.com/GPX/1/1 http://www.topografix.com/GPX/1/1/gpx.xsd" version="1.1" creator="VisuGPX - https://www.visugpx.com">
  <metadata>
    <name>Sainte Victoire </name>
    <desc><![CDATA[grp_trc:[nouvelles]]]></desc>
  </metadata>
  <trk>
    <name><![CDATA[21 juil. 2022 à 06:30:27]]></name>
    <cmt><![CDATA[21 juil. 2022 à 06:30:27]]></cmt>
    <trkseg>
      <trkpt lat="45.99699" lon="6.83419">
        <ele>1943</ele>
        <time>2022-07-21T04:30:28Z</time>
      </trkpt>
      <trkpt lat="45.99699" lon="6.83419">
        <ele>1943</ele>
        <time>2022-07-21T04:30:29Z</time>
      </trkpt>
      <trkpt lat="45.99707" lon="6.83407">
        <ele>1939</ele>
        <time>2022-07-21T04:30:56Z</time>
      </trkpt>
      <trkpt lat="45.9971" lon="6.834">
        <ele>1945</ele>
        <time>2022-07-21T04:31:04Z</time>
      </trkpt>
      <trkpt lat="45.99714" lon="6.83397">
        <ele>1943</ele>
        <time>2022-07-21T04:31:09Z</time>
      </trkpt>
      <trkpt lat="45.99719" lon="6.83391">
        <ele>1943</ele>
        <time>2022-07-21T04:31:15Z</time>
      </trkpt>
      <trkpt lat="45.99719" lon="6.83382">
        <ele>1944</ele>
        <time>2022-07-21T04:31:24Z</time>
      </trkpt>
      <trkpt lat="45.99725" lon="6.83378">
        <ele>1944</ele>
        <time>2022-07-21T04:31:33Z</time>
      </trkpt>
      <trkpt lat="45.99731" lon="6.83378">
        <ele>1944</ele>
        <time>2022-07-21T04:31:35Z</time>
      </trkpt>
      <trkpt lat="45.99732" lon="6.83371">
        <ele>1945</ele>
        <time>2022-07-21T04:31:39Z</time>
      </trkpt>
      <trkpt lat="45.99736" lon="6.83367">
        <ele>1945</ele>
        <time>2022-07-21T04:31:42Z</time>
      </trkpt>
      <trkpt lat="45.99743" lon="6.83367">
        <ele>1945</ele>
        <time>2022-07-21T04:31:48Z</time>
      </trkpt>
      <trkpt lat="45.99747" lon="6.83369">
        <ele>1944</ele>
        <time>2022-07-21T04:31:51Z</time>
      </trkpt>
      <trkpt lat="45.99758" lon="6.83367">
        <ele>1943</ele>
        <time>2022-07-21T04:31:58Z</time>
      </trkpt>
      <trkpt lat="45.99767" lon="6.83366">
        <ele>1944</ele>
        <time>2022-07-21T04:32:07Z</time>
      </trkpt>
      <trkpt lat="45.99768" lon="6.83364">
        <ele>1942</ele>
        <time>2022-07-21T04:32:55Z</time>
      </trkpt>
      <trkpt lat="45.99762" lon="6.83364">
        <ele>1943</ele>
        <time>2022-07-21T04:33:02Z</time>
      </trkpt>
      <trkpt lat="45.99757" lon="6.83364">
        <ele>1943</ele>
        <time>2022-07-21T04:33:06Z</time>
      </trkpt>
      <trkpt lat="45.99749" lon="6.83368">
        <ele>1943</ele>
        <time>2022-07-21T04:33:13Z</time>
      </trkpt>
      <trkpt lat="45.99736" lon="6.83365">
        <ele>1944</ele>
        <time>2022-07-21T04:33:24Z</time>
      </trkpt>
      <trkpt lat="45.99732" lon="6.83367">
        <ele>1944</ele>
        <time>2022-07-21T04:33:28Z</time>
      </trkpt>
      <trkpt lat="45.99726" lon="6.83379">
        <ele>1944</ele>
        <time>2022-07-21T04:33:40Z</time>
      </trkpt>
      <trkpt lat="45.99723" lon="6.8339">
        <ele>1944</ele>
        <time>2022-07-21T04:33:50Z</time>
      </trkpt>
      <trkpt lat="45.99719" lon="6.83396">
        <ele>1943</ele>
        <time>2022-07-21T04:33:56Z</time>
      </trkpt>
      <trkpt lat="45.99714" lon="6.83401">
        <ele>1942</ele>
        <time>2022-07-21T04:34:02Z</time>
      </trkpt>
      <trkpt lat="45.9971" lon="6.83406">
        <ele>1942</ele>
        <time>2022-07-21T04:34:06Z</time>
      </trkpt>
      <trkpt lat="45.99705" lon="6.83408">
        <ele>1942</ele>
        <time>2022-07-21T04:34:11Z</time>
      </trkpt>
      <trkpt lat="45.99702" lon="6.83417">
        <ele>1941</ele>
        <time>2022-07-21T04:34:19Z</time>
      </trkpt>
      <trkpt lat="45.99707" lon="6.83421">
        <ele>1940</ele>
        <time>2022-07-21T04:38:03Z</time>
      </trkpt>
      <trkpt lat="45.99719" lon="6.83422">
        <ele>1941</ele>
        <time>2022-07-21T04:38:15Z</time>
      </trkpt>
      <trkpt lat="45.99733" lon="6.83412">
        <ele>1942</ele>
        <time>2022-07-21T04:38:31Z</time>
      </trkpt>
      <trkpt lat="45.99738" lon="6.83411">
        <ele>1942</ele>
        <time>2022-07-21T04:38:35Z</time>
      </trkpt>
      <trkpt lat="45.99745" lon="6.83412">
        <ele>1941</ele>
        <time>2022-07-21T04:38:42Z</time>
      </trkpt>
      <trkpt lat="45.9975" lon="6.8341">
        <ele>1942</ele>
        <time>2022-07-21T04:38:47Z</time>
      </trkpt>
      <trkpt lat="45.99767" lon="6.83408">
        <ele>1943</ele>
        <time>2022-07-21T04:39:05Z</time>
      </trkpt>
      <trkpt lat="45.99771" lon="6.83409">
        <ele>1943</ele>
        <time>2022-07-21T04:39:08Z</time>
      </trkpt>
      <trkpt lat="45.99776" lon="6.83409">
        <ele>1944</ele>
        <time>2022-07-21T04:39:13Z</time>
      </trkpt>
      <trkpt lat="45.9978" lon="6.83406">
        <ele>1944</ele>
        <time>2022-07-21T04:39:16Z</time>
      </trkpt>
      <trkpt lat="45.99791" lon="6.83407">
        <ele>1946</ele>
        <time>2022-07-21T04:39:28Z</time>
      </trkpt>
      <trkpt lat="45.99793" lon="6.83413">
        <ele>1946</ele>
        <time>2022-07-21T04:39:33Z</time>
      </trkpt>
      <trkpt lat="45.99798" lon="6.83418">
        <ele>1948</ele>
        <time>2022-07-21T04:39:40Z</time>
      </trkpt>
      <trkpt lat="45.99808" lon="6.83424">
        <ele>1950</ele>
        <time>2022-07-21T04:39:54Z</time>
      </trkpt>
      <trkpt lat="45.99813" lon="6.83424">
        <ele>1950</ele>
        <time>2022-07-21T04:39:59Z</time>
      </trkpt>
      <trkpt lat="45.99818" lon="6.83424">
        <ele>1951</ele>
        <time>2022-07-21T04:40:06Z</time>
      </trkpt>
      <trkpt lat="45.99822" lon="6.83427">
        <ele>1952</ele>
        <time>2022-07-21T04:40:11Z</time>
      </trkpt>
      <trkpt lat="45.99831" lon="6.83429">
        <ele>1953</ele>
        <time>2022-07-21T04:40:19Z</time>
      </trkpt>
      <trkpt lat="45.99861" lon="6.83424">
        <ele>1957</ele>
        <time>2022-07-21T04:40:57Z</time>
      </trkpt>
      <trkpt lat="45.99866" lon="6.83422">
        <ele>1959</ele>
        <time>2022-07-21T04:41:05Z</time>
      </trkpt>
      <trkpt lat="45.99871" lon="6.83423">
        <ele>1959</ele>
        <time>2022-07-21T04:41:10Z</time>
      </trkpt>
      <trkpt lat="45.99875" lon="6.83421">
        <ele>1960</ele>
        <time>2022-07-21T04:41:15Z</time>
      </trkpt>
      <trkpt lat="45.99879" lon="6.83421">
        <ele>1961</ele>
        <time>2022-07-21T04:41:20Z</time>
      </trkpt>
      <trkpt lat="45.99883" lon="6.83421">
        <ele>1962</ele>
        <time>2022-07-21T04:41:27Z</time>
      </trkpt>
      <trkpt lat="45.99891" lon="6.8343">
        <ele>1964</ele>
        <time>2022-07-21T04:41:36Z</time>
      </trkpt>
      <trkpt lat="45.999" lon="6.83436">
        <ele>1965</ele>
        <time>2022-07-21T04:41:46Z</time>
      </trkpt>
      <trkpt lat="45.99905" lon="6.83442">
        <ele>1966</ele>
        <time>2022-07-21T04:41:54Z</time>
      </trkpt>
      <trkpt lat="45.99916" lon="6.83451">
        <ele>1969</ele>
        <time>2022-07-21T04:42:12Z</time>
      </trkpt>
      <trkpt lat="45.99916" lon="6.83457">
        <ele>1970</ele>
        <time>2022-07-21T04:42:17Z</time>
      </trkpt>
      <trkpt lat="45.99925" lon="6.83464">
        <ele>1972</ele>
        <time>2022-07-21T04:42:29Z</time>
      </trkpt>
      <trkpt lat="45.99935" lon="6.8348">
        <ele>1975</ele>
        <time>2022-07-21T04:42:48Z</time>
      </trkpt>
      <trkpt lat="45.9998" lon="6.83529">
        <ele>1988</ele>
        <time>2022-07-21T04:44:22Z</time>
      </trkpt>
      <trkpt lat="45.99979" lon="6.83535">
        <ele>1988</ele>
        <time>2022-07-21T04:44:24Z</time>
      </trkpt>
      <trkpt lat="45.99979" lon="6.83539">
        <ele>1989</ele>
        <time>2022-07-21T04:44:27Z</time>
      </trkpt>
      <trkpt lat="45.99986" lon="6.83556">
        <ele>1992</ele>
        <time>2022-07-21T04:44:50Z</time>
      </trkpt>
      <trkpt lat="45.99991" lon="6.83565">
        <ele>1994</ele>
        <time>2022-07-21T04:45:00Z</time>
      </trkpt>
      <trkpt lat="46.00001" lon="6.83576">
        <ele>1997</ele>
        <time>2022-07-21T04:45:20Z</time>
      </trkpt>
      <trkpt lat="46.00011" lon="6.83587">
        <ele>2000</ele>
        <time>2022-07-21T04:45:36Z</time>
      </trkpt>
      <trkpt lat="46.00013" lon="6.83597">
        <ele>2001</ele>
        <time>2022-07-21T04:45:46Z</time>
      </trkpt>
      <trkpt lat="46.00015" lon="6.83602">
        <ele>2002</ele>
        <time>2022-07-21T04:45:52Z</time>
      </trkpt>
      <trkpt lat="46.00021" lon="6.83608">
        <ele>2004</ele>
        <time>2022-07-21T04:46:02Z</time>
      </trkpt>
      <trkpt lat="46.00027" lon="6.83614">
        <ele>2006</ele>
        <time>2022-07-21T04:46:13Z</time>
      </trkpt>
      <trkpt lat="46.00044" lon="6.83635">
        <ele>2009</ele>
        <time>2022-07-21T04:46:38Z</time>
      </trkpt>
      <trkpt lat="46.00048" lon="6.83637">
        <ele>2009</ele>
        <time>2022-07-21T04:46:42Z</time>
      </trkpt>
      <trkpt lat="46.00053" lon="6.8364">
        <ele>2009</ele>
        <time>2022-07-21T04:47:05Z</time>
      </trkpt>
      <trkpt lat="46.00057" lon="6.83643">
        <ele>2010</ele>
        <time>2022-07-21T04:47:15Z</time>
      </trkpt>
      <trkpt lat="46.00064" lon="6.8365">
        <ele>2011</ele>
        <time>2022-07-21T04:47:24Z</time>
      </trkpt>
      <trkpt lat="46.00083" lon="6.83666">
        <ele>2014</ele>
        <time>2022-07-21T04:47:44Z</time>
      </trkpt>
      <trkpt lat="46.00089" lon="6.83674">
        <ele>2014</ele>
        <time>2022-07-21T04:47:52Z</time>
      </trkpt>
      <trkpt lat="46.00099" lon="6.83686">
        <ele>2015</ele>
        <time>2022-07-21T04:48:08Z</time>
      </trkpt>
      <trkpt lat="46.00107" lon="6.83692">
        <ele>2016</ele>
        <time>2022-07-21T04:48:17Z</time>
      </trkpt>
      <trkpt lat="46.0011" lon="6.83697">
        <ele>2016</ele>
        <time>2022-07-21T04:48:21Z</time>
      </trkpt>
      <trkpt lat="46.00112" lon="6.83703">
        <ele>2016</ele>
        <time>2022-07-21T04:48:25Z</time>
      </trkpt>
      <trkpt lat="46.00115" lon="6.8371">
        <ele>2017</ele>
        <time>2022-07-21T04:48:32Z</time>
      </trkpt>
      <trkpt lat="46.00117" lon="6.83717">
        <ele>2018</ele>
        <time>2022-07-21T04:48:38Z</time>
      </trkpt>
      <trkpt lat="46.00119" lon="6.83723">
        <ele>2018</ele>
        <time>2022-07-21T04:48:42Z</time>
      </trkpt>
      <trkpt lat="46.00124" lon="6.83726">
        <ele>2018</ele>
        <time>2022-07-21T04:48:46Z</time>
      </trkpt>
      <trkpt lat="46.00128" lon="6.83727">
        <ele>2018</ele>
        <time>2022-07-21T04:48:50Z</time>
      </trkpt>
      <trkpt lat="46.00133" lon="6.83725">
        <ele>2018</ele>
        <time>2022-07-21T04:48:54Z</time>
      </trkpt>
      <trkpt lat="46.00137" lon="6.83729">
        <ele>2018</ele>
        <time>2022-07-21T04:48:58Z</time>
      </trkpt>
      <trkpt lat="46.00141" lon="6.83733">
        <ele>2018</ele>
        <time>2022-07-21T04:49:02Z</time>
      </trkpt>
      <trkpt lat="46.00153" lon="6.83745">
        <ele>2018</ele>
        <time>2022-07-21T04:49:14Z</time>
      </trkpt>
      <trkpt lat="46.00154" lon="6.83751">
        <ele>2018</ele>
        <time>2022-07-21T04:49:18Z</time>
      </trkpt>
      <trkpt lat="46.00154" lon="6.83758">
        <ele>2018</ele>
        <time>2022-07-21T04:49:22Z</time>
      </trkpt>
      <trkpt lat="46.00159" lon="6.83755">
        <ele>2019</ele>
        <time>2022-07-21T04:50:07Z</time>
      </trkpt>
      <trkpt lat="46.00166" lon="6.83756">
        <ele>2019</ele>
        <time>2022-07-21T04:50:17Z</time>
      </trkpt>
      <trkpt lat="46.00176" lon="6.83766">
        <ele>2021</ele>
        <time>2022-07-21T04:50:34Z</time>
      </trkpt>
      <trkpt lat="46.00196" lon="6.83779">
        <ele>2024</ele>
        <time>2022-07-21T04:51:09Z</time>
      </trkpt>
      <trkpt lat="46.002" lon="6.83786">
        <ele>2025</ele>
        <time>2022-07-21T04:51:16Z</time>
      </trkpt>
      <trkpt lat="46.00208" lon="6.83792">
        <ele>2027</ele>
        <time>2022-07-21T04:51:26Z</time>
      </trkpt>
      <trkpt lat="46.00219" lon="6.83797">
        <ele>2029</ele>
        <time>2022-07-21T04:51:44Z</time>
      </trkpt>
      <trkpt lat="46.00223" lon="6.83804">
        <ele>2031</ele>
        <time>2022-07-21T04:51:54Z</time>
      </trkpt>
      <trkpt lat="46.00228" lon="6.83815">
        <ele>2034</ele>
        <time>2022-07-21T04:52:09Z</time>
      </trkpt>
      <trkpt lat="46.0024" lon="6.8382">
        <ele>2037</ele>
        <time>2022-07-21T04:52:27Z</time>
      </trkpt>
      <trkpt lat="46.00244" lon="6.83829">
        <ele>2038</ele>
        <time>2022-07-21T04:52:39Z</time>
      </trkpt>
      <trkpt lat="46.00247" lon="6.83835">
        <ele>2040</ele>
        <time>2022-07-21T04:52:51Z</time>
      </trkpt>
      <trkpt lat="46.00251" lon="6.8384">
        <ele>2042</ele>
        <time>2022-07-21T04:52:57Z</time>
      </trkpt>
      <trkpt lat="46.00251" lon="6.83851">
        <ele>2044</ele>
        <time>2022-07-21T04:53:09Z</time>
      </trkpt>
      <trkpt lat="46.00251" lon="6.83857">
        <ele>2045</ele>
        <time>2022-07-21T04:53:15Z</time>
      </trkpt>
      <trkpt lat="46.00255" lon="6.83864">
        <ele>2046</ele>
        <time>2022-07-21T04:53:23Z</time>
      </trkpt>
      <trkpt lat="46.00259" lon="6.83875">
        <ele>2047</ele>
        <time>2022-07-21T04:53:32Z</time>
      </trkpt>
      <trkpt lat="46.00267" lon="6.83888">
        <ele>2050</ele>
        <time>2022-07-21T04:53:51Z</time>
      </trkpt>
      <trkpt lat="46.00268" lon="6.83896">
        <ele>2052</ele>
        <time>2022-07-21T04:54:03Z</time>
      </trkpt>
      <trkpt lat="46.00277" lon="6.83902">
        <ele>2056</ele>
        <time>2022-07-21T04:54:24Z</time>
      </trkpt>
      <trkpt lat="46.00285" lon="6.83912">
        <ele>2060</ele>
        <time>2022-07-21T04:54:44Z</time>
      </trkpt>
      <trkpt lat="46.00287" lon="6.83918">
        <ele>2061</ele>
        <time>2022-07-21T04:54:54Z</time>
      </trkpt>
      <trkpt lat="46.00291" lon="6.83924">
        <ele>2063</ele>
        <time>2022-07-21T04:55:05Z</time>
      </trkpt>
      <trkpt lat="46.00297" lon="6.83928">
        <ele>2064</ele>
        <time>2022-07-21T04:55:16Z</time>
      </trkpt>
      <trkpt lat="46.00303" lon="6.83925">
        <ele>2066</ele>
        <time>2022-07-21T04:55:26Z</time>
      </trkpt>
      <trkpt lat="46.00308" lon="6.83925">
        <ele>2066</ele>
        <time>2022-07-21T04:55:30Z</time>
      </trkpt>
      <trkpt lat="46.00315" lon="6.83927">
        <ele>2068</ele>
        <time>2022-07-21T04:55:42Z</time>
      </trkpt>
      <trkpt lat="46.00319" lon="6.83932">
        <ele>2070</ele>
        <time>2022-07-21T04:55:52Z</time>
      </trkpt>
      <trkpt lat="46.00328" lon="6.8393">
        <ele>2074</ele>
        <time>2022-07-21T04:56:12Z</time>
      </trkpt>
      <trkpt lat="46.00334" lon="6.8393">
        <ele>2076</ele>
        <time>2022-07-21T04:56:22Z</time>
      </trkpt>
      <trkpt lat="46.00337" lon="6.83921">
        <ele>2077</ele>
        <time>2022-07-21T04:56:32Z</time>
      </trkpt>
      <trkpt lat="46.00341" lon="6.83918">
        <ele>2079</ele>
        <time>2022-07-21T04:56:42Z</time>
      </trkpt>
      <trkpt lat="46.00346" lon="6.83916">
        <ele>2081</ele>
        <time>2022-07-21T04:56:52Z</time>
      </trkpt>
      <trkpt lat="46.00364" lon="6.83917">
        <ele>2085</ele>
        <time>2022-07-21T04:57:19Z</time>
      </trkpt>
      <trkpt lat="46.00384" lon="6.83926">
        <ele>2088</ele>
        <time>2022-07-21T04:57:42Z</time>
      </trkpt>
      <trkpt lat="46.00388" lon="6.83931">
        <ele>2089</ele>
        <time>2022-07-21T04:57:50Z</time>
      </trkpt>
      <trkpt lat="46.00403" lon="6.83938">
        <ele>2092</ele>
        <time>2022-07-21T04:58:09Z</time>
      </trkpt>
      <trkpt lat="46.00409" lon="6.83943">
        <ele>2094</ele>
        <time>2022-07-21T04:58:19Z</time>
      </trkpt>
      <trkpt lat="46.0042" lon="6.83952">
        <ele>2097</ele>
        <time>2022-07-21T04:58:39Z</time>
      </trkpt>
      <trkpt lat="46.00424" lon="6.83956">
        <ele>2099</ele>
        <time>2022-07-21T04:58:45Z</time>
      </trkpt>
      <trkpt lat="46.00431" lon="6.83973">
        <ele>2101</ele>
        <time>2022-07-21T04:59:02Z</time>
      </trkpt>
      <trkpt lat="46.00438" lon="6.83981">
        <ele>2102</ele>
        <time>2022-07-21T04:59:12Z</time>
      </trkpt>
      <trkpt lat="46.00444" lon="6.83984">
        <ele>2104</ele>
        <time>2022-07-21T04:59:20Z</time>
      </trkpt>
      <trkpt lat="46.00455" lon="6.83997">
        <ele>2105</ele>
        <time>2022-07-21T04:59:34Z</time>
      </trkpt>
      <trkpt lat="46.00482" lon="6.84012">
        <ele>2109</ele>
        <time>2022-07-21T05:00:06Z</time>
      </trkpt>
      <trkpt lat="46.00486" lon="6.84014">
        <ele>2110</ele>
        <time>2022-07-21T05:00:11Z</time>
      </trkpt>
      <trkpt lat="46.00491" lon="6.84013">
        <ele>2110</ele>
        <time>2022-07-21T05:00:16Z</time>
      </trkpt>
      <trkpt lat="46.00497" lon="6.84009">
        <ele>2111</ele>
        <time>2022-07-21T05:00:24Z</time>
      </trkpt>
      <trkpt lat="46.00503" lon="6.84007">
        <ele>2111</ele>
        <time>2022-07-21T05:00:30Z</time>
      </trkpt>
      <trkpt lat="46.0052" lon="6.84009">
        <ele>2113</ele>
        <time>2022-07-21T05:00:50Z</time>
      </trkpt>
      <trkpt lat="46.00547" lon="6.84031">
        <ele>2119</ele>
        <time>2022-07-21T05:01:29Z</time>
      </trkpt>
      <trkpt lat="46.0056" lon="6.84039">
        <ele>2121</ele>
        <time>2022-07-21T05:01:46Z</time>
      </trkpt>
      <trkpt lat="46.00564" lon="6.84044">
        <ele>2122</ele>
        <time>2022-07-21T05:01:56Z</time>
      </trkpt>
      <trkpt lat="46.0057" lon="6.84048">
        <ele>2123</ele>
        <time>2022-07-21T05:02:06Z</time>
      </trkpt>
      <trkpt lat="46.00577" lon="6.84059">
        <ele>2127</ele>
        <time>2022-07-21T05:02:26Z</time>
      </trkpt>
      <trkpt lat="46.00579" lon="6.84067">
        <ele>2128</ele>
        <time>2022-07-21T05:02:36Z</time>
      </trkpt>
      <trkpt lat="46.00584" lon="6.8407">
        <ele>2130</ele>
        <time>2022-07-21T05:02:46Z</time>
      </trkpt>
      <trkpt lat="46.00589" lon="6.84073">
        <ele>2131</ele>
        <time>2022-07-21T05:02:56Z</time>
      </trkpt>
      <trkpt lat="46.00594" lon="6.84076">
        <ele>2133</ele>
        <time>2022-07-21T05:03:06Z</time>
      </trkpt>
      <trkpt lat="46.0061" lon="6.84087">
        <ele>2136</ele>
        <time>2022-07-21T05:03:29Z</time>
      </trkpt>
      <trkpt lat="46.00616" lon="6.84093">
        <ele>2138</ele>
        <time>2022-07-21T05:03:41Z</time>
      </trkpt>
      <trkpt lat="46.00627" lon="6.84102">
        <ele>2141</ele>
        <time>2022-07-21T05:04:01Z</time>
      </trkpt>
      <trkpt lat="46.00636" lon="6.84114">
        <ele>2144</ele>
        <time>2022-07-21T05:04:21Z</time>
      </trkpt>
      <trkpt lat="46.00642" lon="6.84118">
        <ele>2145</ele>
        <time>2022-07-21T05:04:32Z</time>
      </trkpt>
      <trkpt lat="46.00641" lon="6.84125">
        <ele>2148</ele>
        <time>2022-07-21T05:04:47Z</time>
      </trkpt>
      <trkpt lat="46.00645" lon="6.84128">
        <ele>2150</ele>
        <time>2022-07-21T05:04:57Z</time>
      </trkpt>
      <trkpt lat="46.00647" lon="6.84135">
        <ele>2153</ele>
        <time>2022-07-21T05:05:12Z</time>
      </trkpt>
      <trkpt lat="46.00648" lon="6.84142">
        <ele>2154</ele>
        <time>2022-07-21T05:05:22Z</time>
      </trkpt>
      <trkpt lat="46.00652" lon="6.84151">
        <ele>2156</ele>
        <time>2022-07-21T05:05:34Z</time>
      </trkpt>
      <trkpt lat="46.00654" lon="6.84157">
        <ele>2158</ele>
        <time>2022-07-21T05:05:45Z</time>
      </trkpt>
      <trkpt lat="46.00656" lon="6.84164">
        <ele>2160</ele>
        <time>2022-07-21T05:05:55Z</time>
      </trkpt>
      <trkpt lat="46.00659" lon="6.84169">
        <ele>2160</ele>
        <time>2022-07-21T05:06:00Z</time>
      </trkpt>
      <trkpt lat="46.00663" lon="6.84177">
        <ele>2162</ele>
        <time>2022-07-21T05:06:27Z</time>
      </trkpt>
      <trkpt lat="46.00666" lon="6.84182">
        <ele>2162</ele>
        <time>2022-07-21T05:06:32Z</time>
      </trkpt>
      <trkpt lat="46.00669" lon="6.84185">
        <ele>2163</ele>
        <time>2022-07-21T05:06:37Z</time>
      </trkpt>
      <trkpt lat="46.00678" lon="6.84215">
        <ele>2168</ele>
        <time>2022-07-21T05:07:08Z</time>
      </trkpt>
      <trkpt lat="46.0069" lon="6.84242">
        <ele>2171</ele>
        <time>2022-07-21T05:07:37Z</time>
      </trkpt>
      <trkpt lat="46.00694" lon="6.84253">
        <ele>2172</ele>
        <time>2022-07-21T05:07:48Z</time>
      </trkpt>
      <trkpt lat="46.00691" lon="6.84263">
        <ele>2174</ele>
        <time>2022-07-21T05:07:59Z</time>
      </trkpt>
      <trkpt lat="46.00687" lon="6.84267">
        <ele>2175</ele>
        <time>2022-07-21T05:08:04Z</time>
      </trkpt>
      <trkpt lat="46.00682" lon="6.8427">
        <ele>2176</ele>
        <time>2022-07-21T05:08:12Z</time>
      </trkpt>
      <trkpt lat="46.00672" lon="6.8428">
        <ele>2178</ele>
        <time>2022-07-21T05:08:30Z</time>
      </trkpt>
      <trkpt lat="46.00668" lon="6.84286">
        <ele>2180</ele>
        <time>2022-07-21T05:08:40Z</time>
      </trkpt>
      <trkpt lat="46.00664" lon="6.8429">
        <ele>2182</ele>
        <time>2022-07-21T05:08:50Z</time>
      </trkpt>
      <trkpt lat="46.00659" lon="6.84292">
        <ele>2184</ele>
        <time>2022-07-21T05:09:05Z</time>
      </trkpt>
      <trkpt lat="46.00654" lon="6.84297">
        <ele>2187</ele>
        <time>2022-07-21T05:09:15Z</time>
      </trkpt>
      <trkpt lat="46.00651" lon="6.84306">
        <ele>2188</ele>
        <time>2022-07-21T05:09:25Z</time>
      </trkpt>
      <trkpt lat="46.00646" lon="6.84322">
        <ele>2191</ele>
        <time>2022-07-21T05:09:46Z</time>
      </trkpt>
      <trkpt lat="46.00651" lon="6.84328">
        <ele>2192</ele>
        <time>2022-07-21T05:09:57Z</time>
      </trkpt>
      <trkpt lat="46.00647" lon="6.84333">
        <ele>2194</ele>
        <time>2022-07-21T05:10:07Z</time>
      </trkpt>
      <trkpt lat="46.00646" lon="6.8434">
        <ele>2195</ele>
        <time>2022-07-21T05:10:17Z</time>
      </trkpt>
      <trkpt lat="46.0065" lon="6.84341">
        <ele>2197</ele>
        <time>2022-07-21T05:10:27Z</time>
      </trkpt>
      <trkpt lat="46.00656" lon="6.84339">
        <ele>2198</ele>
        <time>2022-07-21T05:10:37Z</time>
      </trkpt>
      <trkpt lat="46.00661" lon="6.84338">
        <ele>2200</ele>
        <time>2022-07-21T05:10:47Z</time>
      </trkpt>
      <trkpt lat="46.00664" lon="6.84343">
        <ele>2203</ele>
        <time>2022-07-21T05:11:02Z</time>
      </trkpt>
      <trkpt lat="46.00673" lon="6.84345">
        <ele>2208</ele>
        <time>2022-07-21T05:11:27Z</time>
      </trkpt>
      <trkpt lat="46.0068" lon="6.84355">
        <ele>2213</ele>
        <time>2022-07-21T05:12:00Z</time>
      </trkpt>
      <trkpt lat="46.00681" lon="6.84362">
        <ele>2214</ele>
        <time>2022-07-21T05:12:10Z</time>
      </trkpt>
      <trkpt lat="46.00685" lon="6.84363">
        <ele>2215</ele>
        <time>2022-07-21T05:12:15Z</time>
      </trkpt>
      <trkpt lat="46.0069" lon="6.84369">
        <ele>2216</ele>
        <time>2022-07-21T05:12:24Z</time>
      </trkpt>
      <trkpt lat="46.00695" lon="6.8437">
        <ele>2217</ele>
        <time>2022-07-21T05:12:34Z</time>
      </trkpt>
      <trkpt lat="46.00711" lon="6.84378">
        <ele>2223</ele>
        <time>2022-07-21T05:13:06Z</time>
      </trkpt>
      <trkpt lat="46.00718" lon="6.84381">
        <ele>2225</ele>
        <time>2022-07-21T05:13:21Z</time>
      </trkpt>
      <trkpt lat="46.00724" lon="6.84382">
        <ele>2227</ele>
        <time>2022-07-21T05:13:31Z</time>
      </trkpt>
      <trkpt lat="46.00728" lon="6.84387">
        <ele>2229</ele>
        <time>2022-07-21T05:13:46Z</time>
      </trkpt>
      <trkpt lat="46.0073" lon="6.84394">
        <ele>2231</ele>
        <time>2022-07-21T05:13:58Z</time>
      </trkpt>
      <trkpt lat="46.00724" lon="6.84398">
        <ele>2233</ele>
        <time>2022-07-21T05:14:09Z</time>
      </trkpt>
      <trkpt lat="46.00719" lon="6.84404">
        <ele>2235</ele>
        <time>2022-07-21T05:14:19Z</time>
      </trkpt>
      <trkpt lat="46.0072" lon="6.8441">
        <ele>2236</ele>
        <time>2022-07-21T05:14:29Z</time>
      </trkpt>
      <trkpt lat="46.00717" lon="6.84416">
        <ele>2239</ele>
        <time>2022-07-21T05:14:44Z</time>
      </trkpt>
      <trkpt lat="46.00709" lon="6.84424">
        <ele>2243</ele>
        <time>2022-07-21T05:15:04Z</time>
      </trkpt>
      <trkpt lat="46.00703" lon="6.84423">
        <ele>2244</ele>
        <time>2022-07-21T05:15:14Z</time>
      </trkpt>
      <trkpt lat="46.00699" lon="6.84429">
        <ele>2246</ele>
        <time>2022-07-21T05:15:29Z</time>
      </trkpt>
      <trkpt lat="46.00706" lon="6.84434">
        <ele>2248</ele>
        <time>2022-07-21T05:15:39Z</time>
      </trkpt>
      <trkpt lat="46.00715" lon="6.84441">
        <ele>2250</ele>
        <time>2022-07-21T05:15:58Z</time>
      </trkpt>
      <trkpt lat="46.00709" lon="6.84443">
        <ele>2252</ele>
        <time>2022-07-21T05:16:10Z</time>
      </trkpt>
      <trkpt lat="46.00708" lon="6.84449">
        <ele>2254</ele>
        <time>2022-07-21T05:16:20Z</time>
      </trkpt>
      <trkpt lat="46.00716" lon="6.84459">
        <ele>2258</ele>
        <time>2022-07-21T05:16:45Z</time>
      </trkpt>
      <trkpt lat="46.00715" lon="6.84465">
        <ele>2260</ele>
        <time>2022-07-21T05:17:00Z</time>
      </trkpt>
      <trkpt lat="46.00711" lon="6.84467">
        <ele>2262</ele>
        <time>2022-07-21T05:17:10Z</time>
      </trkpt>
      <trkpt lat="46.00706" lon="6.84472">
        <ele>2263</ele>
        <time>2022-07-21T05:17:20Z</time>
      </trkpt>
      <trkpt lat="46.00711" lon="6.84475">
        <ele>2265</ele>
        <time>2022-07-21T05:17:30Z</time>
      </trkpt>
      <trkpt lat="46.0071" lon="6.84481">
        <ele>2267</ele>
        <time>2022-07-21T05:17:45Z</time>
      </trkpt>
      <trkpt lat="46.00706" lon="6.84486">
        <ele>2270</ele>
        <time>2022-07-21T05:18:00Z</time>
      </trkpt>
      <trkpt lat="46.00711" lon="6.84489">
        <ele>2272</ele>
        <time>2022-07-21T05:18:12Z</time>
      </trkpt>
      <trkpt lat="46.00713" lon="6.84494">
        <ele>2274</ele>
        <time>2022-07-21T05:18:23Z</time>
      </trkpt>
      <trkpt lat="46.00711" lon="6.84501">
        <ele>2278</ele>
        <time>2022-07-21T05:18:43Z</time>
      </trkpt>
      <trkpt lat="46.00709" lon="6.84507">
        <ele>2279</ele>
        <time>2022-07-21T05:18:53Z</time>
      </trkpt>
      <trkpt lat="46.00707" lon="6.84515">
        <ele>2281</ele>
        <time>2022-07-21T05:19:08Z</time>
      </trkpt>
      <trkpt lat="46.00712" lon="6.84527">
        <ele>2284</ele>
        <time>2022-07-21T05:19:28Z</time>
      </trkpt>
      <trkpt lat="46.00714" lon="6.84534">
        <ele>2285</ele>
        <time>2022-07-21T05:19:38Z</time>
      </trkpt>
      <trkpt lat="46.00716" lon="6.84539">
        <ele>2287</ele>
        <time>2022-07-21T05:19:48Z</time>
      </trkpt>
      <trkpt lat="46.00721" lon="6.84545">
        <ele>2289</ele>
        <time>2022-07-21T05:19:58Z</time>
      </trkpt>
      <trkpt lat="46.00723" lon="6.84552">
        <ele>2290</ele>
        <time>2022-07-21T05:20:09Z</time>
      </trkpt>
      <trkpt lat="46.00724" lon="6.8456">
        <ele>2292</ele>
        <time>2022-07-21T05:20:20Z</time>
      </trkpt>
      <trkpt lat="46.00728" lon="6.84565">
        <ele>2294</ele>
        <time>2022-07-21T05:20:31Z</time>
      </trkpt>
      <trkpt lat="46.00698" lon="6.84564">
        <ele>2298</ele>
        <time>2022-07-21T05:21:05Z</time>
      </trkpt>
      <trkpt lat="46.0069" lon="6.84571">
        <ele>2299</ele>
        <time>2022-07-21T05:21:15Z</time>
      </trkpt>
      <trkpt lat="46.00677" lon="6.84573">
        <ele>2300</ele>
        <time>2022-07-21T05:21:29Z</time>
      </trkpt>
      <trkpt lat="46.00659" lon="6.84585">
        <ele>2306</ele>
        <time>2022-07-21T05:22:01Z</time>
      </trkpt>
      <trkpt lat="46.00655" lon="6.8459">
        <ele>2306</ele>
        <time>2022-07-21T05:22:06Z</time>
      </trkpt>
      <trkpt lat="46.00651" lon="6.84604">
        <ele>2309</ele>
        <time>2022-07-21T05:22:26Z</time>
      </trkpt>
      <trkpt lat="46.00645" lon="6.84602">
        <ele>2310</ele>
        <time>2022-07-21T05:22:37Z</time>
      </trkpt>
      <trkpt lat="46.00641" lon="6.84598">
        <ele>2310</ele>
        <time>2022-07-21T05:22:42Z</time>
      </trkpt>
      <trkpt lat="46.00638" lon="6.84602">
        <ele>2311</ele>
        <time>2022-07-21T05:22:50Z</time>
      </trkpt>
      <trkpt lat="46.00635" lon="6.84614">
        <ele>2312</ele>
        <time>2022-07-21T05:23:00Z</time>
      </trkpt>
      <trkpt lat="46.00636" lon="6.84623">
        <ele>2313</ele>
        <time>2022-07-21T05:23:10Z</time>
      </trkpt>
      <trkpt lat="46.00636" lon="6.84631">
        <ele>2315</ele>
        <time>2022-07-21T05:23:20Z</time>
      </trkpt>
      <trkpt lat="46.00637" lon="6.84644">
        <ele>2318</ele>
        <time>2022-07-21T05:23:40Z</time>
      </trkpt>
      <trkpt lat="46.00638" lon="6.84653">
        <ele>2321</ele>
        <time>2022-07-21T05:23:55Z</time>
      </trkpt>
      <trkpt lat="46.00637" lon="6.84659">
        <ele>2323</ele>
        <time>2022-07-21T05:24:05Z</time>
      </trkpt>
      <trkpt lat="46.00633" lon="6.84674">
        <ele>2326</ele>
        <time>2022-07-21T05:24:26Z</time>
      </trkpt>
      <trkpt lat="46.00633" lon="6.84681">
        <ele>2328</ele>
        <time>2022-07-21T05:24:36Z</time>
      </trkpt>
      <trkpt lat="46.00635" lon="6.84686">
        <ele>2330</ele>
        <time>2022-07-21T05:24:46Z</time>
      </trkpt>
      <trkpt lat="46.00635" lon="6.84693">
        <ele>2331</ele>
        <time>2022-07-21T05:24:56Z</time>
      </trkpt>
      <trkpt lat="46.00638" lon="6.84701">
        <ele>2333</ele>
        <time>2022-07-21T05:25:11Z</time>
      </trkpt>
      <trkpt lat="46.00635" lon="6.84708">
        <ele>2336</ele>
        <time>2022-07-21T05:25:26Z</time>
      </trkpt>
      <trkpt lat="46.00636" lon="6.84714">
        <ele>2338</ele>
        <time>2022-07-21T05:25:36Z</time>
      </trkpt>
      <trkpt lat="46.00631" lon="6.84733">
        <ele>2341</ele>
        <time>2022-07-21T05:25:57Z</time>
      </trkpt>
      <trkpt lat="46.00633" lon="6.84738">
        <ele>2341</ele>
        <time>2022-07-21T05:26:02Z</time>
      </trkpt>
      <trkpt lat="46.00633" lon="6.84747">
        <ele>2343</ele>
        <time>2022-07-21T05:26:12Z</time>
      </trkpt>
      <trkpt lat="46.00632" lon="6.84753">
        <ele>2343</ele>
        <time>2022-07-21T05:26:18Z</time>
      </trkpt>
      <trkpt lat="46.00634" lon="6.84766">
        <ele>2344</ele>
        <time>2022-07-21T05:26:28Z</time>
      </trkpt>
      <trkpt lat="46.00635" lon="6.84776">
        <ele>2345</ele>
        <time>2022-07-21T05:26:38Z</time>
      </trkpt>
      <trkpt lat="46.00633" lon="6.84782">
        <ele>2345</ele>
        <time>2022-07-21T05:26:44Z</time>
      </trkpt>
      <trkpt lat="46.00634" lon="6.84807">
        <ele>2349</ele>
        <time>2022-07-21T05:27:14Z</time>
      </trkpt>
      <trkpt lat="46.00629" lon="6.84816">
        <ele>2350</ele>
        <time>2022-07-21T05:27:24Z</time>
      </trkpt>
      <trkpt lat="46.00626" lon="6.84824">
        <ele>2351</ele>
        <time>2022-07-21T05:27:34Z</time>
      </trkpt>
      <trkpt lat="46.00622" lon="6.84833">
        <ele>2352</ele>
        <time>2022-07-21T05:27:44Z</time>
      </trkpt>
      <trkpt lat="46.00626" lon="6.84841">
        <ele>2353</ele>
        <time>2022-07-21T05:27:54Z</time>
      </trkpt>
      <trkpt lat="46.00628" lon="6.8485">
        <ele>2355</ele>
        <time>2022-07-21T05:28:04Z</time>
      </trkpt>
      <trkpt lat="46.0063" lon="6.84856">
        <ele>2357</ele>
        <time>2022-07-21T05:28:15Z</time>
      </trkpt>
      <trkpt lat="46.00633" lon="6.84864">
        <ele>2358</ele>
        <time>2022-07-21T05:28:25Z</time>
      </trkpt>
      <trkpt lat="46.00631" lon="6.84872">
        <ele>2359</ele>
        <time>2022-07-21T05:28:36Z</time>
      </trkpt>
      <trkpt lat="46.00632" lon="6.84881">
        <ele>2360</ele>
        <time>2022-07-21T05:28:48Z</time>
      </trkpt>
      <trkpt lat="46.00633" lon="6.8489">
        <ele>2362</ele>
        <time>2022-07-21T05:28:58Z</time>
      </trkpt>
      <trkpt lat="46.00636" lon="6.84906">
        <ele>2364</ele>
        <time>2022-07-21T05:29:18Z</time>
      </trkpt>
      <trkpt lat="46.00637" lon="6.84935">
        <ele>2367</ele>
        <time>2022-07-21T05:29:48Z</time>
      </trkpt>
      <trkpt lat="46.00636" lon="6.84947">
        <ele>2368</ele>
        <time>2022-07-21T05:29:58Z</time>
      </trkpt>
      <trkpt lat="46.00633" lon="6.84954">
        <ele>2368</ele>
        <time>2022-07-21T05:30:05Z</time>
      </trkpt>
      <trkpt lat="46.0063" lon="6.84963">
        <ele>2370</ele>
        <time>2022-07-21T05:30:17Z</time>
      </trkpt>
      <trkpt lat="46.00629" lon="6.84982">
        <ele>2373</ele>
        <time>2022-07-21T05:30:38Z</time>
      </trkpt>
      <trkpt lat="46.00631" lon="6.84993">
        <ele>2375</ele>
        <time>2022-07-21T05:30:50Z</time>
      </trkpt>
      <trkpt lat="46.00631" lon="6.85">
        <ele>2376</ele>
        <time>2022-07-21T05:30:56Z</time>
      </trkpt>
      <trkpt lat="46.00632" lon="6.85008">
        <ele>2377</ele>
        <time>2022-07-21T05:31:06Z</time>
      </trkpt>
      <trkpt lat="46.00635" lon="6.85013">
        <ele>2378</ele>
        <time>2022-07-21T05:31:11Z</time>
      </trkpt>
      <trkpt lat="46.00636" lon="6.85019">
        <ele>2379</ele>
        <time>2022-07-21T05:31:18Z</time>
      </trkpt>
      <trkpt lat="46.00636" lon="6.85027">
        <ele>2379</ele>
        <time>2022-07-21T05:31:28Z</time>
      </trkpt>
      <trkpt lat="46.00635" lon="6.85033">
        <ele>2381</ele>
        <time>2022-07-21T05:31:38Z</time>
      </trkpt>
      <trkpt lat="46.00632" lon="6.85041">
        <ele>2382</ele>
        <time>2022-07-21T05:31:48Z</time>
      </trkpt>
      <trkpt lat="46.00629" lon="6.85061">
        <ele>2387</ele>
        <time>2022-07-21T05:32:18Z</time>
      </trkpt>
      <trkpt lat="46.00628" lon="6.85074">
        <ele>2390</ele>
        <time>2022-07-21T05:32:38Z</time>
      </trkpt>
      <trkpt lat="46.00626" lon="6.85082">
        <ele>2391</ele>
        <time>2022-07-21T05:32:50Z</time>
      </trkpt>
      <trkpt lat="46.0063" lon="6.85087">
        <ele>2394</ele>
        <time>2022-07-21T05:33:07Z</time>
      </trkpt>
      <trkpt lat="46.00632" lon="6.85094">
        <ele>2396</ele>
        <time>2022-07-21T05:33:27Z</time>
      </trkpt>
      <trkpt lat="46.00634" lon="6.851">
        <ele>2398</ele>
        <time>2022-07-21T05:33:42Z</time>
      </trkpt>
      <trkpt lat="46.00633" lon="6.85109">
        <ele>2401</ele>
        <time>2022-07-21T05:33:57Z</time>
      </trkpt>
      <trkpt lat="46.00638" lon="6.85111">
        <ele>2403</ele>
        <time>2022-07-21T05:34:07Z</time>
      </trkpt>
      <trkpt lat="46.00641" lon="6.85118">
        <ele>2406</ele>
        <time>2022-07-21T05:34:27Z</time>
      </trkpt>
      <trkpt lat="46.00639" lon="6.85128">
        <ele>2408</ele>
        <time>2022-07-21T05:34:42Z</time>
      </trkpt>
      <trkpt lat="46.00645" lon="6.85129">
        <ele>2410</ele>
        <time>2022-07-21T05:34:53Z</time>
      </trkpt>
      <trkpt lat="46.00645" lon="6.85136">
        <ele>2413</ele>
        <time>2022-07-21T05:35:14Z</time>
      </trkpt>
      <trkpt lat="46.00648" lon="6.85143">
        <ele>2415</ele>
        <time>2022-07-21T05:35:29Z</time>
      </trkpt>
      <trkpt lat="46.00648" lon="6.85149">
        <ele>2417</ele>
        <time>2022-07-21T05:35:39Z</time>
      </trkpt>
      <trkpt lat="46.00649" lon="6.85157">
        <ele>2418</ele>
        <time>2022-07-21T05:35:49Z</time>
      </trkpt>
      <trkpt lat="46.00648" lon="6.85181">
        <ele>2424</ele>
        <time>2022-07-21T05:36:24Z</time>
      </trkpt>
      <trkpt lat="46.00649" lon="6.85186">
        <ele>2426</ele>
        <time>2022-07-21T05:36:34Z</time>
      </trkpt>
      <trkpt lat="46.00653" lon="6.8519">
        <ele>2427</ele>
        <time>2022-07-21T05:36:44Z</time>
      </trkpt>
      <trkpt lat="46.00653" lon="6.85197">
        <ele>2430</ele>
        <time>2022-07-21T05:37:00Z</time>
      </trkpt>
      <trkpt lat="46.00655" lon="6.85205">
        <ele>2432</ele>
        <time>2022-07-21T05:37:17Z</time>
      </trkpt>
      <trkpt lat="46.0066" lon="6.85207">
        <ele>2433</ele>
        <time>2022-07-21T05:37:27Z</time>
      </trkpt>
      <trkpt lat="46.00659" lon="6.85214">
        <ele>2435</ele>
        <time>2022-07-21T05:37:42Z</time>
      </trkpt>
      <trkpt lat="46.0066" lon="6.8522">
        <ele>2438</ele>
        <time>2022-07-21T05:37:58Z</time>
      </trkpt>
      <trkpt lat="46.00661" lon="6.85228">
        <ele>2440</ele>
        <time>2022-07-21T05:38:13Z</time>
      </trkpt>
      <trkpt lat="46.0066" lon="6.85237">
        <ele>2442</ele>
        <time>2022-07-21T05:38:28Z</time>
      </trkpt>
      <trkpt lat="46.00663" lon="6.85241">
        <ele>2443</ele>
        <time>2022-07-21T05:38:38Z</time>
      </trkpt>
      <trkpt lat="46.00665" lon="6.85249">
        <ele>2446</ele>
        <time>2022-07-21T05:38:53Z</time>
      </trkpt>
      <trkpt lat="46.00667" lon="6.85254">
        <ele>2448</ele>
        <time>2022-07-21T05:39:04Z</time>
      </trkpt>
      <trkpt lat="46.00669" lon="6.85267">
        <ele>2452</ele>
        <time>2022-07-21T05:39:26Z</time>
      </trkpt>
      <trkpt lat="46.00671" lon="6.85274">
        <ele>2455</ele>
        <time>2022-07-21T05:39:41Z</time>
      </trkpt>
      <trkpt lat="46.00673" lon="6.85281">
        <ele>2457</ele>
        <time>2022-07-21T05:39:56Z</time>
      </trkpt>
      <trkpt lat="46.00676" lon="6.85286">
        <ele>2459</ele>
        <time>2022-07-21T05:40:11Z</time>
      </trkpt>
      <trkpt lat="46.00675" lon="6.85294">
        <ele>2461</ele>
        <time>2022-07-21T05:40:22Z</time>
      </trkpt>
      <trkpt lat="46.00675" lon="6.85302">
        <ele>2462</ele>
        <time>2022-07-21T05:40:32Z</time>
      </trkpt>
      <trkpt lat="46.00673" lon="6.85311">
        <ele>2464</ele>
        <time>2022-07-21T05:40:47Z</time>
      </trkpt>
      <trkpt lat="46.00676" lon="6.85316">
        <ele>2466</ele>
        <time>2022-07-21T05:40:57Z</time>
      </trkpt>
      <trkpt lat="46.00679" lon="6.85324">
        <ele>2468</ele>
        <time>2022-07-21T05:41:08Z</time>
      </trkpt>
      <trkpt lat="46.00677" lon="6.85342">
        <ele>2472</ele>
        <time>2022-07-21T05:41:31Z</time>
      </trkpt>
      <trkpt lat="46.0068" lon="6.85348">
        <ele>2473</ele>
        <time>2022-07-21T05:41:41Z</time>
      </trkpt>
      <trkpt lat="46.0068" lon="6.85356">
        <ele>2476</ele>
        <time>2022-07-21T05:41:56Z</time>
      </trkpt>
      <trkpt lat="46.00682" lon="6.85363">
        <ele>2477</ele>
        <time>2022-07-21T05:42:06Z</time>
      </trkpt>
      <trkpt lat="46.00681" lon="6.85369">
        <ele>2478</ele>
        <time>2022-07-21T05:42:16Z</time>
      </trkpt>
      <trkpt lat="46.00679" lon="6.85375">
        <ele>2480</ele>
        <time>2022-07-21T05:42:26Z</time>
      </trkpt>
      <trkpt lat="46.0068" lon="6.85382">
        <ele>2482</ele>
        <time>2022-07-21T05:42:36Z</time>
      </trkpt>
      <trkpt lat="46.00682" lon="6.85388">
        <ele>2483</ele>
        <time>2022-07-21T05:42:46Z</time>
      </trkpt>
      <trkpt lat="46.00682" lon="6.85395">
        <ele>2485</ele>
        <time>2022-07-21T05:42:56Z</time>
      </trkpt>
      <trkpt lat="46.00681" lon="6.85401">
        <ele>2487</ele>
        <time>2022-07-21T05:43:06Z</time>
      </trkpt>
      <trkpt lat="46.00686" lon="6.85405">
        <ele>2490</ele>
        <time>2022-07-21T05:43:18Z</time>
      </trkpt>
      <trkpt lat="46.0069" lon="6.85418">
        <ele>2494</ele>
        <time>2022-07-21T05:43:46Z</time>
      </trkpt>
      <trkpt lat="46.00692" lon="6.85425">
        <ele>2496</ele>
        <time>2022-07-21T05:43:56Z</time>
      </trkpt>
      <trkpt lat="46.00694" lon="6.85431">
        <ele>2498</ele>
        <time>2022-07-21T05:44:07Z</time>
      </trkpt>
      <trkpt lat="46.00698" lon="6.85434">
        <ele>2500</ele>
        <time>2022-07-21T05:44:19Z</time>
      </trkpt>
      <trkpt lat="46.00695" lon="6.8544">
        <ele>2502</ele>
        <time>2022-07-21T05:44:30Z</time>
      </trkpt>
      <trkpt lat="46.00699" lon="6.85444">
        <ele>2504</ele>
        <time>2022-07-21T05:44:45Z</time>
      </trkpt>
      <trkpt lat="46.00699" lon="6.85451">
        <ele>2506</ele>
        <time>2022-07-21T05:45:00Z</time>
      </trkpt>
      <trkpt lat="46.00698" lon="6.85458">
        <ele>2508</ele>
        <time>2022-07-21T05:45:10Z</time>
      </trkpt>
      <trkpt lat="46.007" lon="6.85465">
        <ele>2511</ele>
        <time>2022-07-21T05:45:26Z</time>
      </trkpt>
      <trkpt lat="46.00703" lon="6.85478">
        <ele>2515</ele>
        <time>2022-07-21T05:45:56Z</time>
      </trkpt>
      <trkpt lat="46.00703" lon="6.85484">
        <ele>2517</ele>
        <time>2022-07-21T05:46:06Z</time>
      </trkpt>
      <trkpt lat="46.00706" lon="6.855">
        <ele>2522</ele>
        <time>2022-07-21T05:46:31Z</time>
      </trkpt>
      <trkpt lat="46.00712" lon="6.85513">
        <ele>2526</ele>
        <time>2022-07-21T05:46:56Z</time>
      </trkpt>
      <trkpt lat="46.00716" lon="6.85517">
        <ele>2528</ele>
        <time>2022-07-21T05:47:06Z</time>
      </trkpt>
      <trkpt lat="46.00719" lon="6.85524">
        <ele>2530</ele>
        <time>2022-07-21T05:47:21Z</time>
      </trkpt>
      <trkpt lat="46.00724" lon="6.85528">
        <ele>2532</ele>
        <time>2022-07-21T05:47:32Z</time>
      </trkpt>
      <trkpt lat="46.00726" lon="6.85538">
        <ele>2533</ele>
        <time>2022-07-21T05:47:45Z</time>
      </trkpt>
      <trkpt lat="46.00729" lon="6.85534">
        <ele>2533</ele>
        <time>2022-07-21T05:48:32Z</time>
      </trkpt>
      <trkpt lat="46.00726" lon="6.85528">
        <ele>2533</ele>
        <time>2022-07-21T05:51:45Z</time>
      </trkpt>
      <trkpt lat="46.00728" lon="6.85536">
        <ele>2529</ele>
        <time>2022-07-21T05:54:27Z</time>
      </trkpt>
      <trkpt lat="46.00733" lon="6.85533">
        <ele>2527</ele>
        <time>2022-07-21T05:55:02Z</time>
      </trkpt>
      <trkpt lat="46.00739" lon="6.85525">
        <ele>2524</ele>
        <time>2022-07-21T05:55:13Z</time>
      </trkpt>
      <trkpt lat="46.00746" lon="6.85519">
        <ele>2523</ele>
        <time>2022-07-21T05:55:25Z</time>
      </trkpt>
      <trkpt lat="46.00751" lon="6.85518">
        <ele>2522</ele>
        <time>2022-07-21T05:55:45Z</time>
      </trkpt>
      <trkpt lat="46.00755" lon="6.85519">
        <ele>2521</ele>
        <time>2022-07-21T05:55:50Z</time>
      </trkpt>
      <trkpt lat="46.00759" lon="6.85521">
        <ele>2520</ele>
        <time>2022-07-21T05:55:54Z</time>
      </trkpt>
      <trkpt lat="46.00765" lon="6.85521">
        <ele>2518</ele>
        <time>2022-07-21T05:56:08Z</time>
      </trkpt>
      <trkpt lat="46.00769" lon="6.85527">
        <ele>2519</ele>
        <time>2022-07-21T05:58:33Z</time>
      </trkpt>
      <trkpt lat="46.00774" lon="6.85533">
        <ele>2518</ele>
        <time>2022-07-21T05:58:39Z</time>
      </trkpt>
      <trkpt lat="46.00775" lon="6.85538">
        <ele>2518</ele>
        <time>2022-07-21T05:58:44Z</time>
      </trkpt>
      <trkpt lat="46.00787" lon="6.85568">
        <ele>2511</ele>
        <time>2022-07-21T05:59:16Z</time>
      </trkpt>
      <trkpt lat="46.00791" lon="6.85571">
        <ele>2510</ele>
        <time>2022-07-21T05:59:20Z</time>
      </trkpt>
      <trkpt lat="46.00796" lon="6.85574">
        <ele>2510</ele>
        <time>2022-07-21T05:59:26Z</time>
      </trkpt>
      <trkpt lat="46.008" lon="6.85577">
        <ele>2509</ele>
        <time>2022-07-21T05:59:33Z</time>
      </trkpt>
      <trkpt lat="46.00803" lon="6.85582">
        <ele>2508</ele>
        <time>2022-07-21T05:59:37Z</time>
      </trkpt>
      <trkpt lat="46.00809" lon="6.85587">
        <ele>2506</ele>
        <time>2022-07-21T05:59:46Z</time>
      </trkpt>
      <trkpt lat="46.00817" lon="6.85599">
        <ele>2504</ele>
        <time>2022-07-21T06:00:01Z</time>
      </trkpt>
      <trkpt lat="46.00826" lon="6.85601">
        <ele>2502</ele>
        <time>2022-07-21T06:00:20Z</time>
      </trkpt>
      <trkpt lat="46.00833" lon="6.85602">
        <ele>2501</ele>
        <time>2022-07-21T06:00:30Z</time>
      </trkpt>
      <trkpt lat="46.00841" lon="6.85606">
        <ele>2499</ele>
        <time>2022-07-21T06:00:41Z</time>
      </trkpt>
      <trkpt lat="46.00849" lon="6.85613">
        <ele>2497</ele>
        <time>2022-07-21T06:00:52Z</time>
      </trkpt>
      <trkpt lat="46.00853" lon="6.85616">
        <ele>2497</ele>
        <time>2022-07-21T06:00:56Z</time>
      </trkpt>
      <trkpt lat="46.00859" lon="6.85619">
        <ele>2497</ele>
        <time>2022-07-21T06:01:04Z</time>
      </trkpt>
      <trkpt lat="46.00863" lon="6.85621">
        <ele>2497</ele>
        <time>2022-07-21T06:01:31Z</time>
      </trkpt>
      <trkpt lat="46.00868" lon="6.85624">
        <ele>2496</ele>
        <time>2022-07-21T06:01:51Z</time>
      </trkpt>
      <trkpt lat="46.00876" lon="6.85625">
        <ele>2495</ele>
        <time>2022-07-21T06:02:18Z</time>
      </trkpt>
      <trkpt lat="46.0088" lon="6.85628">
        <ele>2494</ele>
        <time>2022-07-21T06:02:23Z</time>
      </trkpt>
      <trkpt lat="46.00883" lon="6.85633">
        <ele>2493</ele>
        <time>2022-07-21T06:02:28Z</time>
      </trkpt>
      <trkpt lat="46.00888" lon="6.85632">
        <ele>2491</ele>
        <time>2022-07-21T06:02:32Z</time>
      </trkpt>
      <trkpt lat="46.00893" lon="6.85633">
        <ele>2491</ele>
        <time>2022-07-21T06:02:39Z</time>
      </trkpt>
      <trkpt lat="46.00898" lon="6.85635">
        <ele>2491</ele>
        <time>2022-07-21T06:02:43Z</time>
      </trkpt>
      <trkpt lat="46.00902" lon="6.85633">
        <ele>2491</ele>
        <time>2022-07-21T06:02:47Z</time>
      </trkpt>
      <trkpt lat="46.0091" lon="6.85629">
        <ele>2491</ele>
        <time>2022-07-21T06:02:56Z</time>
      </trkpt>
      <trkpt lat="46.00915" lon="6.85624">
        <ele>2491</ele>
        <time>2022-07-21T06:03:02Z</time>
      </trkpt>
      <trkpt lat="46.00925" lon="6.85621">
        <ele>2491</ele>
        <time>2022-07-21T06:03:14Z</time>
      </trkpt>
      <trkpt lat="46.00931" lon="6.85618">
        <ele>2492</ele>
        <time>2022-07-21T06:03:25Z</time>
      </trkpt>
      <trkpt lat="46.00941" lon="6.85615">
        <ele>2490</ele>
        <time>2022-07-21T06:03:36Z</time>
      </trkpt>
      <trkpt lat="46.00945" lon="6.85611">
        <ele>2490</ele>
        <time>2022-07-21T06:03:40Z</time>
      </trkpt>
      <trkpt lat="46.00951" lon="6.85608">
        <ele>2490</ele>
        <time>2022-07-21T06:03:48Z</time>
      </trkpt>
      <trkpt lat="46.00955" lon="6.8561">
        <ele>2491</ele>
        <time>2022-07-21T06:03:55Z</time>
      </trkpt>
      <trkpt lat="46.0096" lon="6.85609">
        <ele>2490</ele>
        <time>2022-07-21T06:04:00Z</time>
      </trkpt>
      <trkpt lat="46.00964" lon="6.85608">
        <ele>2491</ele>
        <time>2022-07-21T06:04:05Z</time>
      </trkpt>
      <trkpt lat="46.00969" lon="6.85608">
        <ele>2491</ele>
        <time>2022-07-21T06:04:09Z</time>
      </trkpt>
      <trkpt lat="46.00975" lon="6.85611">
        <ele>2492</ele>
        <time>2022-07-21T06:04:18Z</time>
      </trkpt>
      <trkpt lat="46.00982" lon="6.85611">
        <ele>2493</ele>
        <time>2022-07-21T06:04:28Z</time>
      </trkpt>
      <trkpt lat="46.00988" lon="6.85613">
        <ele>2495</ele>
        <time>2022-07-21T06:04:38Z</time>
      </trkpt>
      <trkpt lat="46.00995" lon="6.8561">
        <ele>2496</ele>
        <time>2022-07-21T06:04:53Z</time>
      </trkpt>
      <trkpt lat="46.01002" lon="6.85609">
        <ele>2497</ele>
        <time>2022-07-21T06:05:03Z</time>
      </trkpt>
      <trkpt lat="46.01007" lon="6.85606">
        <ele>2499</ele>
        <time>2022-07-21T06:05:13Z</time>
      </trkpt>
      <trkpt lat="46.01015" lon="6.85606">
        <ele>2500</ele>
        <time>2022-07-21T06:05:23Z</time>
      </trkpt>
      <trkpt lat="46.01024" lon="6.8561">
        <ele>2500</ele>
        <time>2022-07-21T06:05:33Z</time>
      </trkpt>
      <trkpt lat="46.01029" lon="6.85609">
        <ele>2501</ele>
        <time>2022-07-21T06:05:40Z</time>
      </trkpt>
      <trkpt lat="46.01033" lon="6.85605">
        <ele>2503</ele>
        <time>2022-07-21T06:05:50Z</time>
      </trkpt>
      <trkpt lat="46.01041" lon="6.85603">
        <ele>2505</ele>
        <time>2022-07-21T06:06:01Z</time>
      </trkpt>
      <trkpt lat="46.01061" lon="6.85601">
        <ele>2505</ele>
        <time>2022-07-21T06:06:22Z</time>
      </trkpt>
      <trkpt lat="46.01074" lon="6.8559">
        <ele>2510</ele>
        <time>2022-07-21T06:06:54Z</time>
      </trkpt>
      <trkpt lat="46.01072" lon="6.85584">
        <ele>2511</ele>
        <time>2022-07-21T06:07:04Z</time>
      </trkpt>
      <trkpt lat="46.01077" lon="6.8557">
        <ele>2514</ele>
        <time>2022-07-21T06:07:24Z</time>
      </trkpt>
      <trkpt lat="46.01081" lon="6.85561">
        <ele>2515</ele>
        <time>2022-07-21T06:07:34Z</time>
      </trkpt>
      <trkpt lat="46.01081" lon="6.85555">
        <ele>2516</ele>
        <time>2022-07-21T06:07:39Z</time>
      </trkpt>
      <trkpt lat="46.01082" lon="6.85547">
        <ele>2516</ele>
        <time>2022-07-21T06:07:44Z</time>
      </trkpt>
      <trkpt lat="46.01086" lon="6.8553">
        <ele>2516</ele>
        <time>2022-07-21T06:07:57Z</time>
      </trkpt>
      <trkpt lat="46.01087" lon="6.85509">
        <ele>2517</ele>
        <time>2022-07-21T06:08:14Z</time>
      </trkpt>
      <trkpt lat="46.01084" lon="6.85499">
        <ele>2518</ele>
        <time>2022-07-21T06:08:23Z</time>
      </trkpt>
      <trkpt lat="46.01084" lon="6.85492">
        <ele>2518</ele>
        <time>2022-07-21T06:08:30Z</time>
      </trkpt>
      <trkpt lat="46.01085" lon="6.85478">
        <ele>2521</ele>
        <time>2022-07-21T06:08:50Z</time>
      </trkpt>
      <trkpt lat="46.01084" lon="6.85471">
        <ele>2522</ele>
        <time>2022-07-21T06:08:55Z</time>
      </trkpt>
      <trkpt lat="46.01086" lon="6.85459">
        <ele>2522</ele>
        <time>2022-07-21T06:09:04Z</time>
      </trkpt>
      <trkpt lat="46.01089" lon="6.85453">
        <ele>2521</ele>
        <time>2022-07-21T06:09:09Z</time>
      </trkpt>
      <trkpt lat="46.01092" lon="6.85443">
        <ele>2521</ele>
        <time>2022-07-21T06:09:18Z</time>
      </trkpt>
      <trkpt lat="46.01093" lon="6.85435">
        <ele>2522</ele>
        <time>2022-07-21T06:09:26Z</time>
      </trkpt>
      <trkpt lat="46.01097" lon="6.85421">
        <ele>2522</ele>
        <time>2022-07-21T06:09:38Z</time>
      </trkpt>
      <trkpt lat="46.01101" lon="6.85413">
        <ele>2522</ele>
        <time>2022-07-21T06:09:47Z</time>
      </trkpt>
      <trkpt lat="46.0111" lon="6.85391">
        <ele>2526</ele>
        <time>2022-07-21T06:10:12Z</time>
      </trkpt>
      <trkpt lat="46.0112" lon="6.85378">
        <ele>2527</ele>
        <time>2022-07-21T06:10:27Z</time>
      </trkpt>
      <trkpt lat="46.01122" lon="6.85371">
        <ele>2528</ele>
        <time>2022-07-21T06:10:35Z</time>
      </trkpt>
      <trkpt lat="46.01129" lon="6.85358">
        <ele>2532</ele>
        <time>2022-07-21T06:11:06Z</time>
      </trkpt>
      <trkpt lat="46.01131" lon="6.85351">
        <ele>2535</ele>
        <time>2022-07-21T06:17:29Z</time>
      </trkpt>
      <trkpt lat="46.01135" lon="6.85346">
        <ele>2535</ele>
        <time>2022-07-21T06:17:35Z</time>
      </trkpt>
      <trkpt lat="46.01139" lon="6.85345">
        <ele>2535</ele>
        <time>2022-07-21T06:17:39Z</time>
      </trkpt>
      <trkpt lat="46.01145" lon="6.85343">
        <ele>2536</ele>
        <time>2022-07-21T06:17:47Z</time>
      </trkpt>
      <trkpt lat="46.01147" lon="6.85337">
        <ele>2538</ele>
        <time>2022-07-21T06:17:58Z</time>
      </trkpt>
      <trkpt lat="46.01154" lon="6.85326">
        <ele>2543</ele>
        <time>2022-07-21T06:18:23Z</time>
      </trkpt>
      <trkpt lat="46.01161" lon="6.85322">
        <ele>2546</ele>
        <time>2022-07-21T06:18:37Z</time>
      </trkpt>
      <trkpt lat="46.0116" lon="6.85316">
        <ele>2547</ele>
        <time>2022-07-21T06:18:49Z</time>
      </trkpt>
      <trkpt lat="46.01169" lon="6.85302">
        <ele>2551</ele>
        <time>2022-07-21T06:19:14Z</time>
      </trkpt>
      <trkpt lat="46.01174" lon="6.85296">
        <ele>2553</ele>
        <time>2022-07-21T06:19:25Z</time>
      </trkpt>
      <trkpt lat="46.01179" lon="6.8529">
        <ele>2554</ele>
        <time>2022-07-21T06:19:35Z</time>
      </trkpt>
      <trkpt lat="46.01192" lon="6.85276">
        <ele>2556</ele>
        <time>2022-07-21T06:19:54Z</time>
      </trkpt>
      <trkpt lat="46.01201" lon="6.85263">
        <ele>2559</ele>
        <time>2022-07-21T06:20:15Z</time>
      </trkpt>
      <trkpt lat="46.01204" lon="6.8526">
        <ele>2559</ele>
        <time>2022-07-21T06:20:19Z</time>
      </trkpt>
      <trkpt lat="46.01207" lon="6.85254">
        <ele>2559</ele>
        <time>2022-07-21T06:20:26Z</time>
      </trkpt>
      <trkpt lat="46.01216" lon="6.8524">
        <ele>2562</ele>
        <time>2022-07-21T06:20:46Z</time>
      </trkpt>
      <trkpt lat="46.01217" lon="6.85234">
        <ele>2564</ele>
        <time>2022-07-21T06:20:56Z</time>
      </trkpt>
      <trkpt lat="46.01217" lon="6.85226">
        <ele>2565</ele>
        <time>2022-07-21T06:21:07Z</time>
      </trkpt>
      <trkpt lat="46.01218" lon="6.85218">
        <ele>2567</ele>
        <time>2022-07-21T06:21:22Z</time>
      </trkpt>
      <trkpt lat="46.0122" lon="6.85212">
        <ele>2569</ele>
        <time>2022-07-21T06:21:32Z</time>
      </trkpt>
      <trkpt lat="46.01225" lon="6.85205">
        <ele>2571</ele>
        <time>2022-07-21T06:21:42Z</time>
      </trkpt>
      <trkpt lat="46.01231" lon="6.85192">
        <ele>2574</ele>
        <time>2022-07-21T06:22:07Z</time>
      </trkpt>
      <trkpt lat="46.01236" lon="6.85184">
        <ele>2577</ele>
        <time>2022-07-21T06:22:22Z</time>
      </trkpt>
      <trkpt lat="46.0124" lon="6.85171">
        <ele>2580</ele>
        <time>2022-07-21T06:22:42Z</time>
      </trkpt>
      <trkpt lat="46.01245" lon="6.85165">
        <ele>2582</ele>
        <time>2022-07-21T06:22:57Z</time>
      </trkpt>
      <trkpt lat="46.01254" lon="6.85146">
        <ele>2587</ele>
        <time>2022-07-21T06:23:31Z</time>
      </trkpt>
      <trkpt lat="46.01258" lon="6.85141">
        <ele>2588</ele>
        <time>2022-07-21T06:23:41Z</time>
      </trkpt>
      <trkpt lat="46.0126" lon="6.85135">
        <ele>2590</ele>
        <time>2022-07-21T06:23:51Z</time>
      </trkpt>
      <trkpt lat="46.01266" lon="6.85124">
        <ele>2593</ele>
        <time>2022-07-21T06:24:12Z</time>
      </trkpt>
      <trkpt lat="46.01269" lon="6.85118">
        <ele>2595</ele>
        <time>2022-07-21T06:24:22Z</time>
      </trkpt>
      <trkpt lat="46.01275" lon="6.85118">
        <ele>2596</ele>
        <time>2022-07-21T06:24:37Z</time>
      </trkpt>
      <trkpt lat="46.01279" lon="6.85109">
        <ele>2598</ele>
        <time>2022-07-21T06:24:48Z</time>
      </trkpt>
      <trkpt lat="46.01283" lon="6.85107">
        <ele>2600</ele>
        <time>2022-07-21T06:24:58Z</time>
      </trkpt>
      <trkpt lat="46.01288" lon="6.85105">
        <ele>2601</ele>
        <time>2022-07-21T06:25:08Z</time>
      </trkpt>
      <trkpt lat="46.01301" lon="6.85099">
        <ele>2604</ele>
        <time>2022-07-21T06:25:25Z</time>
      </trkpt>
      <trkpt lat="46.01308" lon="6.85087">
        <ele>2607</ele>
        <time>2022-07-21T06:25:43Z</time>
      </trkpt>
      <trkpt lat="46.01314" lon="6.85083">
        <ele>2609</ele>
        <time>2022-07-21T06:26:03Z</time>
      </trkpt>
      <trkpt lat="46.01319" lon="6.85084">
        <ele>2610</ele>
        <time>2022-07-21T06:26:13Z</time>
      </trkpt>
      <trkpt lat="46.01324" lon="6.85082">
        <ele>2612</ele>
        <time>2022-07-21T06:26:23Z</time>
      </trkpt>
      <trkpt lat="46.01331" lon="6.85069">
        <ele>2616</ele>
        <time>2022-07-21T06:26:53Z</time>
      </trkpt>
      <trkpt lat="46.01341" lon="6.85061">
        <ele>2619</ele>
        <time>2022-07-21T06:27:13Z</time>
      </trkpt>
      <trkpt lat="46.01344" lon="6.85056">
        <ele>2621</ele>
        <time>2022-07-21T06:27:24Z</time>
      </trkpt>
      <trkpt lat="46.01349" lon="6.85052">
        <ele>2622</ele>
        <time>2022-07-21T06:27:36Z</time>
      </trkpt>
      <trkpt lat="46.01353" lon="6.85048">
        <ele>2624</ele>
        <time>2022-07-21T06:27:47Z</time>
      </trkpt>
      <trkpt lat="46.01357" lon="6.85041">
        <ele>2627</ele>
        <time>2022-07-21T06:28:02Z</time>
      </trkpt>
      <trkpt lat="46.01362" lon="6.85038">
        <ele>2628</ele>
        <time>2022-07-21T06:28:12Z</time>
      </trkpt>
      <trkpt lat="46.01371" lon="6.85033">
        <ele>2632</ele>
        <time>2022-07-21T06:28:42Z</time>
      </trkpt>
      <trkpt lat="46.0137" lon="6.85027">
        <ele>2633</ele>
        <time>2022-07-21T06:28:52Z</time>
      </trkpt>
      <trkpt lat="46.01379" lon="6.85016">
        <ele>2638</ele>
        <time>2022-07-21T06:29:17Z</time>
      </trkpt>
      <trkpt lat="46.01391" lon="6.85007">
        <ele>2642</ele>
        <time>2022-07-21T06:29:45Z</time>
      </trkpt>
      <trkpt lat="46.014" lon="6.84996">
        <ele>2646</ele>
        <time>2022-07-21T06:30:15Z</time>
      </trkpt>
      <trkpt lat="46.01406" lon="6.84992">
        <ele>2648</ele>
        <time>2022-07-21T06:30:30Z</time>
      </trkpt>
      <trkpt lat="46.01411" lon="6.84989">
        <ele>2649</ele>
        <time>2022-07-21T06:30:40Z</time>
      </trkpt>
      <trkpt lat="46.01421" lon="6.84987">
        <ele>2653</ele>
        <time>2022-07-21T06:31:05Z</time>
      </trkpt>
      <trkpt lat="46.01432" lon="6.84992">
        <ele>2655</ele>
        <time>2022-07-21T06:31:25Z</time>
      </trkpt>
      <trkpt lat="46.01437" lon="6.84992">
        <ele>2657</ele>
        <time>2022-07-21T06:31:36Z</time>
      </trkpt>
      <trkpt lat="46.0145" lon="6.84983">
        <ele>2661</ele>
        <time>2022-07-21T06:32:01Z</time>
      </trkpt>
      <trkpt lat="46.01461" lon="6.84983">
        <ele>2664</ele>
        <time>2022-07-21T06:32:26Z</time>
      </trkpt>
      <trkpt lat="46.01464" lon="6.84987">
        <ele>2665</ele>
        <time>2022-07-21T06:32:36Z</time>
      </trkpt>
      <trkpt lat="46.01469" lon="6.84991">
        <ele>2667</ele>
        <time>2022-07-21T06:32:51Z</time>
      </trkpt>
      <trkpt lat="46.01483" lon="6.85003">
        <ele>2672</ele>
        <time>2022-07-21T06:33:26Z</time>
      </trkpt>
      <trkpt lat="46.01494" lon="6.8501">
        <ele>2675</ele>
        <time>2022-07-21T06:33:49Z</time>
      </trkpt>
      <trkpt lat="46.01497" lon="6.85015">
        <ele>2677</ele>
        <time>2022-07-21T06:34:04Z</time>
      </trkpt>
      <trkpt lat="46.01506" lon="6.85023">
        <ele>2680</ele>
        <time>2022-07-21T06:34:24Z</time>
      </trkpt>
      <trkpt lat="46.01516" lon="6.85026">
        <ele>2682</ele>
        <time>2022-07-21T06:34:39Z</time>
      </trkpt>
      <trkpt lat="46.01533" lon="6.85036">
        <ele>2687</ele>
        <time>2022-07-21T06:35:16Z</time>
      </trkpt>
      <trkpt lat="46.01536" lon="6.8504">
        <ele>2688</ele>
        <time>2022-07-21T06:35:26Z</time>
      </trkpt>
      <trkpt lat="46.01541" lon="6.85046">
        <ele>2691</ele>
        <time>2022-07-21T06:35:41Z</time>
      </trkpt>
      <trkpt lat="46.01552" lon="6.85055">
        <ele>2693</ele>
        <time>2022-07-21T06:36:03Z</time>
      </trkpt>
      <trkpt lat="46.01561" lon="6.85062">
        <ele>2696</ele>
        <time>2022-07-21T06:36:23Z</time>
      </trkpt>
      <trkpt lat="46.01574" lon="6.85062">
        <ele>2699</ele>
        <time>2022-07-21T06:36:43Z</time>
      </trkpt>
      <trkpt lat="46.01578" lon="6.85063">
        <ele>2700</ele>
        <time>2022-07-21T06:36:53Z</time>
      </trkpt>
      <trkpt lat="46.01582" lon="6.85068">
        <ele>2702</ele>
        <time>2022-07-21T06:37:08Z</time>
      </trkpt>
      <trkpt lat="46.01586" lon="6.85069">
        <ele>2703</ele>
        <time>2022-07-21T06:37:18Z</time>
      </trkpt>
      <trkpt lat="46.01599" lon="6.85084">
        <ele>2708</ele>
        <time>2022-07-21T06:37:54Z</time>
      </trkpt>
      <trkpt lat="46.01603" lon="6.8509">
        <ele>2709</ele>
        <time>2022-07-21T06:38:06Z</time>
      </trkpt>
      <trkpt lat="46.01607" lon="6.85095">
        <ele>2710</ele>
        <time>2022-07-21T06:38:16Z</time>
      </trkpt>
      <trkpt lat="46.0161" lon="6.85102">
        <ele>2712</ele>
        <time>2022-07-21T06:38:31Z</time>
      </trkpt>
      <trkpt lat="46.01615" lon="6.85102">
        <ele>2714</ele>
        <time>2022-07-21T06:38:41Z</time>
      </trkpt>
      <trkpt lat="46.01619" lon="6.85108">
        <ele>2716</ele>
        <time>2022-07-21T06:38:56Z</time>
      </trkpt>
      <trkpt lat="46.01628" lon="6.85115">
        <ele>2718</ele>
        <time>2022-07-21T06:39:16Z</time>
      </trkpt>
      <trkpt lat="46.01632" lon="6.85118">
        <ele>2720</ele>
        <time>2022-07-21T06:39:26Z</time>
      </trkpt>
      <trkpt lat="46.01636" lon="6.85122">
        <ele>2721</ele>
        <time>2022-07-21T06:39:41Z</time>
      </trkpt>
      <trkpt lat="46.0164" lon="6.85125">
        <ele>2723</ele>
        <time>2022-07-21T06:39:51Z</time>
      </trkpt>
      <trkpt lat="46.01647" lon="6.85126">
        <ele>2724</ele>
        <time>2022-07-21T06:40:03Z</time>
      </trkpt>
      <trkpt lat="46.01665" lon="6.85143">
        <ele>2729</ele>
        <time>2022-07-21T06:40:38Z</time>
      </trkpt>
      <trkpt lat="46.0167" lon="6.85144">
        <ele>2730</ele>
        <time>2022-07-21T06:40:44Z</time>
      </trkpt>
      <trkpt lat="46.01675" lon="6.85146">
        <ele>2730</ele>
        <time>2022-07-21T06:40:51Z</time>
      </trkpt>
      <trkpt lat="46.01687" lon="6.85154">
        <ele>2732</ele>
        <time>2022-07-21T06:41:11Z</time>
      </trkpt>
      <trkpt lat="46.01689" lon="6.85161">
        <ele>2734</ele>
        <time>2022-07-21T06:41:21Z</time>
      </trkpt>
      <trkpt lat="46.01691" lon="6.8517">
        <ele>2736</ele>
        <time>2022-07-21T06:41:31Z</time>
      </trkpt>
      <trkpt lat="46.01702" lon="6.85166">
        <ele>2739</ele>
        <time>2022-07-21T06:41:56Z</time>
      </trkpt>
      <trkpt lat="46.01708" lon="6.85162">
        <ele>2741</ele>
        <time>2022-07-21T06:42:08Z</time>
      </trkpt>
      <trkpt lat="46.0171" lon="6.8517">
        <ele>2743</ele>
        <time>2022-07-21T06:42:25Z</time>
      </trkpt>
      <trkpt lat="46.01715" lon="6.85171">
        <ele>2745</ele>
        <time>2022-07-21T06:42:35Z</time>
      </trkpt>
      <trkpt lat="46.01719" lon="6.85178">
        <ele>2748</ele>
        <time>2022-07-21T06:42:50Z</time>
      </trkpt>
      <trkpt lat="46.01728" lon="6.85182">
        <ele>2752</ele>
        <time>2022-07-21T06:43:20Z</time>
      </trkpt>
      <trkpt lat="46.01738" lon="6.85175">
        <ele>2756</ele>
        <time>2022-07-21T06:43:50Z</time>
      </trkpt>
      <trkpt lat="46.01742" lon="6.85175">
        <ele>2758</ele>
        <time>2022-07-21T06:44:05Z</time>
      </trkpt>
      <trkpt lat="46.01746" lon="6.85173">
        <ele>2760</ele>
        <time>2022-07-21T06:44:17Z</time>
      </trkpt>
      <trkpt lat="46.01746" lon="6.8518">
        <ele>2761</ele>
        <time>2022-07-21T06:44:22Z</time>
      </trkpt>
      <trkpt lat="46.01749" lon="6.85185">
        <ele>2762</ele>
        <time>2022-07-21T06:44:29Z</time>
      </trkpt>
      <trkpt lat="46.01752" lon="6.8518">
        <ele>2763</ele>
        <time>2022-07-21T06:44:34Z</time>
      </trkpt>
      <trkpt lat="46.01756" lon="6.85186">
        <ele>2765</ele>
        <time>2022-07-21T06:44:46Z</time>
      </trkpt>
      <trkpt lat="46.01759" lon="6.85182">
        <ele>2766</ele>
        <time>2022-07-21T06:44:51Z</time>
      </trkpt>
      <trkpt lat="46.01762" lon="6.85189">
        <ele>2769</ele>
        <time>2022-07-21T06:45:07Z</time>
      </trkpt>
      <trkpt lat="46.01768" lon="6.85188">
        <ele>2772</ele>
        <time>2022-07-21T06:45:17Z</time>
      </trkpt>
      <trkpt lat="46.01773" lon="6.85183">
        <ele>2774</ele>
        <time>2022-07-21T06:45:27Z</time>
      </trkpt>
      <trkpt lat="46.01776" lon="6.85188">
        <ele>2776</ele>
        <time>2022-07-21T06:45:42Z</time>
      </trkpt>
      <trkpt lat="46.0178" lon="6.85185">
        <ele>2779</ele>
        <time>2022-07-21T06:45:52Z</time>
      </trkpt>
      <trkpt lat="46.01783" lon="6.85191">
        <ele>2782</ele>
        <time>2022-07-21T06:46:12Z</time>
      </trkpt>
      <trkpt lat="46.01792" lon="6.85208">
        <ele>2789</ele>
        <time>2022-07-21T06:46:45Z</time>
      </trkpt>
      <trkpt lat="46.01797" lon="6.85207">
        <ele>2791</ele>
        <time>2022-07-21T06:46:55Z</time>
      </trkpt>
      <trkpt lat="46.01803" lon="6.85219">
        <ele>2797</ele>
        <time>2022-07-21T06:47:20Z</time>
      </trkpt>
      <trkpt lat="46.01807" lon="6.85217">
        <ele>2798</ele>
        <time>2022-07-21T06:47:30Z</time>
      </trkpt>
      <trkpt lat="46.01812" lon="6.85222">
        <ele>2801</ele>
        <time>2022-07-21T06:48:00Z</time>
      </trkpt>
      <trkpt lat="46.01819" lon="6.8521">
        <ele>2808</ele>
        <time>2022-07-21T06:48:38Z</time>
      </trkpt>
      <trkpt lat="46.01825" lon="6.85205">
        <ele>2811</ele>
        <time>2022-07-21T06:49:03Z</time>
      </trkpt>
      <trkpt lat="46.01833" lon="6.85197">
        <ele>2816</ele>
        <time>2022-07-21T06:49:38Z</time>
      </trkpt>
      <trkpt lat="46.01838" lon="6.852">
        <ele>2821</ele>
        <time>2022-07-21T06:50:13Z</time>
      </trkpt>
      <trkpt lat="46.01847" lon="6.85203">
        <ele>2827</ele>
        <time>2022-07-21T06:50:55Z</time>
      </trkpt>
      <trkpt lat="46.01851" lon="6.85206">
        <ele>2831</ele>
        <time>2022-07-21T06:51:20Z</time>
      </trkpt>
      <trkpt lat="46.01856" lon="6.852">
        <ele>2832</ele>
        <time>2022-07-21T06:51:30Z</time>
      </trkpt>
      <trkpt lat="46.0186" lon="6.85202">
        <ele>2836</ele>
        <time>2022-07-21T06:52:00Z</time>
      </trkpt>
      <trkpt lat="46.01866" lon="6.85201">
        <ele>2838</ele>
        <time>2022-07-21T06:52:20Z</time>
      </trkpt>
      <trkpt lat="46.01869" lon="6.85196">
        <ele>2841</ele>
        <time>2022-07-21T06:52:30Z</time>
      </trkpt>
      <trkpt lat="46.01874" lon="6.85189">
        <ele>2843</ele>
        <time>2022-07-21T06:52:48Z</time>
      </trkpt>
      <trkpt lat="46.01878" lon="6.85191">
        <ele>2849</ele>
        <time>2022-07-21T06:53:23Z</time>
      </trkpt>
      <trkpt lat="46.01882" lon="6.85194">
        <ele>2851</ele>
        <time>2022-07-21T06:53:38Z</time>
      </trkpt>
      <trkpt lat="46.01887" lon="6.8519">
        <ele>2852</ele>
        <time>2022-07-21T06:53:54Z</time>
      </trkpt>
      <trkpt lat="46.0189" lon="6.85186">
        <ele>2856</ele>
        <time>2022-07-21T06:54:09Z</time>
      </trkpt>
      <trkpt lat="46.01896" lon="6.85183">
        <ele>2859</ele>
        <time>2022-07-21T06:54:40Z</time>
      </trkpt>
      <trkpt lat="46.01903" lon="6.85164">
        <ele>2865</ele>
        <time>2022-07-21T06:55:28Z</time>
      </trkpt>
      <trkpt lat="46.01907" lon="6.85167">
        <ele>2871</ele>
        <time>2022-07-21T06:55:58Z</time>
      </trkpt>
      <trkpt lat="46.0191" lon="6.85172">
        <ele>2872</ele>
        <time>2022-07-21T06:56:08Z</time>
      </trkpt>
      <trkpt lat="46.01914" lon="6.85176">
        <ele>2874</ele>
        <time>2022-07-21T06:56:18Z</time>
      </trkpt>
      <trkpt lat="46.0192" lon="6.85174">
        <ele>2875</ele>
        <time>2022-07-21T06:56:28Z</time>
      </trkpt>
      <trkpt lat="46.01926" lon="6.85164">
        <ele>2878</ele>
        <time>2022-07-21T06:56:56Z</time>
      </trkpt>
      <trkpt lat="46.01927" lon="6.85156">
        <ele>2881</ele>
        <time>2022-07-21T06:57:17Z</time>
      </trkpt>
      <trkpt lat="46.01932" lon="6.85162">
        <ele>2885</ele>
        <time>2022-07-21T06:57:52Z</time>
      </trkpt>
      <trkpt lat="46.01936" lon="6.85162">
        <ele>2887</ele>
        <time>2022-07-21T06:58:07Z</time>
      </trkpt>
      <trkpt lat="46.0194" lon="6.85158">
        <ele>2889</ele>
        <time>2022-07-21T06:58:17Z</time>
      </trkpt>
      <trkpt lat="46.01941" lon="6.85148">
        <ele>2891</ele>
        <time>2022-07-21T06:58:53Z</time>
      </trkpt>
      <trkpt lat="46.01945" lon="6.85148">
        <ele>2895</ele>
        <time>2022-07-21T06:59:14Z</time>
      </trkpt>
      <trkpt lat="46.01951" lon="6.85135">
        <ele>2899</ele>
        <time>2022-07-21T06:59:39Z</time>
      </trkpt>
      <trkpt lat="46.01953" lon="6.8514">
        <ele>2902</ele>
        <time>2022-07-21T07:00:04Z</time>
      </trkpt>
      <trkpt lat="46.01957" lon="6.85144">
        <ele>2904</ele>
        <time>2022-07-21T07:00:19Z</time>
      </trkpt>
      <trkpt lat="46.0196" lon="6.85151">
        <ele>2905</ele>
        <time>2022-07-21T07:00:29Z</time>
      </trkpt>
      <trkpt lat="46.01964" lon="6.85156">
        <ele>2906</ele>
        <time>2022-07-21T07:00:39Z</time>
      </trkpt>
      <trkpt lat="46.01968" lon="6.85156">
        <ele>2908</ele>
        <time>2022-07-21T07:00:54Z</time>
      </trkpt>
      <trkpt lat="46.01975" lon="6.85155">
        <ele>2911</ele>
        <time>2022-07-21T07:01:17Z</time>
      </trkpt>
      <trkpt lat="46.01981" lon="6.85158">
        <ele>2912</ele>
        <time>2022-07-21T07:01:27Z</time>
      </trkpt>
      <trkpt lat="46.01984" lon="6.85151">
        <ele>2913</ele>
        <time>2022-07-21T07:01:37Z</time>
      </trkpt>
      <trkpt lat="46.01983" lon="6.85144">
        <ele>2915</ele>
        <time>2022-07-21T07:01:47Z</time>
      </trkpt>
      <trkpt lat="46.01983" lon="6.85121">
        <ele>2917</ele>
        <time>2022-07-21T07:02:08Z</time>
      </trkpt>
      <trkpt lat="46.01985" lon="6.85116">
        <ele>2917</ele>
        <time>2022-07-21T07:02:15Z</time>
      </trkpt>
      <trkpt lat="46.01986" lon="6.85107">
        <ele>2919</ele>
        <time>2022-07-21T07:02:25Z</time>
      </trkpt>
      <trkpt lat="46.01986" lon="6.85098">
        <ele>2920</ele>
        <time>2022-07-21T07:02:35Z</time>
      </trkpt>
      <trkpt lat="46.01995" lon="6.85078">
        <ele>2925</ele>
        <time>2022-07-21T07:03:06Z</time>
      </trkpt>
      <trkpt lat="46.01995" lon="6.85071">
        <ele>2925</ele>
        <time>2022-07-21T07:03:12Z</time>
      </trkpt>
      <trkpt lat="46.01998" lon="6.85066">
        <ele>2925</ele>
        <time>2022-07-21T07:03:18Z</time>
      </trkpt>
      <trkpt lat="46.02" lon="6.85057">
        <ele>2925</ele>
        <time>2022-07-21T07:03:28Z</time>
      </trkpt>
      <trkpt lat="46.02003" lon="6.85052">
        <ele>2927</ele>
        <time>2022-07-21T07:03:38Z</time>
      </trkpt>
      <trkpt lat="46.02003" lon="6.85045">
        <ele>2928</ele>
        <time>2022-07-21T07:03:48Z</time>
      </trkpt>
      <trkpt lat="46.02004" lon="6.85031">
        <ele>2931</ele>
        <time>2022-07-21T07:04:08Z</time>
      </trkpt>
      <trkpt lat="46.02005" lon="6.85025">
        <ele>2932</ele>
        <time>2022-07-21T07:04:18Z</time>
      </trkpt>
      <trkpt lat="46.02006" lon="6.85016">
        <ele>2934</ele>
        <time>2022-07-21T07:04:33Z</time>
      </trkpt>
      <trkpt lat="46.02008" lon="6.8501">
        <ele>2935</ele>
        <time>2022-07-21T07:04:43Z</time>
      </trkpt>
      <trkpt lat="46.02008" lon="6.85002">
        <ele>2937</ele>
        <time>2022-07-21T07:04:58Z</time>
      </trkpt>
      <trkpt lat="46.02018" lon="6.85002">
        <ele>2943</ele>
        <time>2022-07-21T07:05:41Z</time>
      </trkpt>
      <trkpt lat="46.02021" lon="6.85006">
        <ele>2946</ele>
        <time>2022-07-21T07:05:56Z</time>
      </trkpt>
      <trkpt lat="46.02026" lon="6.85009">
        <ele>2948</ele>
        <time>2022-07-21T07:06:11Z</time>
      </trkpt>
      <trkpt lat="46.02031" lon="6.85009">
        <ele>2950</ele>
        <time>2022-07-21T07:06:26Z</time>
      </trkpt>
      <trkpt lat="46.02035" lon="6.85007">
        <ele>2952</ele>
        <time>2022-07-21T07:06:41Z</time>
      </trkpt>
      <trkpt lat="46.02035" lon="6.84999">
        <ele>2954</ele>
        <time>2022-07-21T07:06:56Z</time>
      </trkpt>
      <trkpt lat="46.0204" lon="6.85001">
        <ele>2958</ele>
        <time>2022-07-21T07:07:17Z</time>
      </trkpt>
      <trkpt lat="46.0205" lon="6.85006">
        <ele>2961</ele>
        <time>2022-07-21T07:07:48Z</time>
      </trkpt>
      <trkpt lat="46.02055" lon="6.85004">
        <ele>2964</ele>
        <time>2022-07-21T07:08:03Z</time>
      </trkpt>
      <trkpt lat="46.0206" lon="6.85005">
        <ele>2967</ele>
        <time>2022-07-21T07:08:23Z</time>
      </trkpt>
      <trkpt lat="46.02065" lon="6.85004">
        <ele>2969</ele>
        <time>2022-07-21T07:08:38Z</time>
      </trkpt>
      <trkpt lat="46.02064" lon="6.84995">
        <ele>2971</ele>
        <time>2022-07-21T07:08:53Z</time>
      </trkpt>
      <trkpt lat="46.0207" lon="6.84993">
        <ele>2975</ele>
        <time>2022-07-21T07:09:18Z</time>
      </trkpt>
      <trkpt lat="46.02073" lon="6.84987">
        <ele>2977</ele>
        <time>2022-07-21T07:09:36Z</time>
      </trkpt>
      <trkpt lat="46.02078" lon="6.84985">
        <ele>2982</ele>
        <time>2022-07-21T07:10:01Z</time>
      </trkpt>
      <trkpt lat="46.02087" lon="6.84987">
        <ele>2985</ele>
        <time>2022-07-21T07:10:36Z</time>
      </trkpt>
      <trkpt lat="46.02092" lon="6.8499">
        <ele>2987</ele>
        <time>2022-07-21T07:10:51Z</time>
      </trkpt>
      <trkpt lat="46.02098" lon="6.84987">
        <ele>2989</ele>
        <time>2022-07-21T07:11:06Z</time>
      </trkpt>
      <trkpt lat="46.02099" lon="6.8498">
        <ele>2991</ele>
        <time>2022-07-21T07:11:21Z</time>
      </trkpt>
      <trkpt lat="46.02105" lon="6.8498">
        <ele>2995</ele>
        <time>2022-07-21T07:11:44Z</time>
      </trkpt>
      <trkpt lat="46.02111" lon="6.84978">
        <ele>2996</ele>
        <time>2022-07-21T07:11:59Z</time>
      </trkpt>
      <trkpt lat="46.02116" lon="6.84977">
        <ele>2998</ele>
        <time>2022-07-21T07:12:14Z</time>
      </trkpt>
      <trkpt lat="46.02119" lon="6.84972">
        <ele>3001</ele>
        <time>2022-07-21T07:12:34Z</time>
      </trkpt>
      <trkpt lat="46.02123" lon="6.84968">
        <ele>3003</ele>
        <time>2022-07-21T07:12:49Z</time>
      </trkpt>
      <trkpt lat="46.02124" lon="6.84961">
        <ele>3007</ele>
        <time>2022-07-21T07:13:09Z</time>
      </trkpt>
      <trkpt lat="46.02123" lon="6.84954">
        <ele>3009</ele>
        <time>2022-07-21T07:13:24Z</time>
      </trkpt>
      <trkpt lat="46.02121" lon="6.84948">
        <ele>3010</ele>
        <time>2022-07-21T07:13:35Z</time>
      </trkpt>
      <trkpt lat="46.02123" lon="6.84933">
        <ele>3015</ele>
        <time>2022-07-21T07:13:56Z</time>
      </trkpt>
      <trkpt lat="46.02124" lon="6.84925">
        <ele>3015</ele>
        <time>2022-07-21T07:14:11Z</time>
      </trkpt>
      <trkpt lat="46.02127" lon="6.84918">
        <ele>3017</ele>
        <time>2022-07-21T07:14:26Z</time>
      </trkpt>
      <trkpt lat="46.02131" lon="6.84919">
        <ele>3022</ele>
        <time>2022-07-21T07:14:46Z</time>
      </trkpt>
      <trkpt lat="46.02136" lon="6.84924">
        <ele>3023</ele>
        <time>2022-07-21T07:14:56Z</time>
      </trkpt>
      <trkpt lat="46.02141" lon="6.84929">
        <ele>3023</ele>
        <time>2022-07-21T07:15:06Z</time>
      </trkpt>
      <trkpt lat="46.02143" lon="6.84935">
        <ele>3024</ele>
        <time>2022-07-21T07:15:12Z</time>
      </trkpt>
      <trkpt lat="46.02153" lon="6.84939">
        <ele>3027</ele>
        <time>2022-07-21T07:15:28Z</time>
      </trkpt>
      <trkpt lat="46.0216" lon="6.84945">
        <ele>3026</ele>
        <time>2022-07-21T07:15:39Z</time>
      </trkpt>
      <trkpt lat="46.02164" lon="6.84948">
        <ele>3027</ele>
        <time>2022-07-21T07:15:51Z</time>
      </trkpt>
      <trkpt lat="46.0217" lon="6.84953">
        <ele>3025</ele>
        <time>2022-07-21T07:16:11Z</time>
      </trkpt>
      <trkpt lat="46.0218" lon="6.84962">
        <ele>3026</ele>
        <time>2022-07-21T07:16:25Z</time>
      </trkpt>
      <trkpt lat="46.02183" lon="6.84968">
        <ele>3027</ele>
        <time>2022-07-21T07:16:33Z</time>
      </trkpt>
      <trkpt lat="46.02188" lon="6.84968">
        <ele>3027</ele>
        <time>2022-07-21T07:16:38Z</time>
      </trkpt>
      <trkpt lat="46.02193" lon="6.84971">
        <ele>3026</ele>
        <time>2022-07-21T07:16:44Z</time>
      </trkpt>
      <trkpt lat="46.02199" lon="6.84973">
        <ele>3026</ele>
        <time>2022-07-21T07:16:53Z</time>
      </trkpt>
      <trkpt lat="46.02203" lon="6.84973">
        <ele>3026</ele>
        <time>2022-07-21T07:17:03Z</time>
      </trkpt>
      <trkpt lat="46.02208" lon="6.84977">
        <ele>3026</ele>
        <time>2022-07-21T07:17:13Z</time>
      </trkpt>
      <trkpt lat="46.02213" lon="6.84982">
        <ele>3028</ele>
        <time>2022-07-21T07:17:28Z</time>
      </trkpt>
      <trkpt lat="46.02215" lon="6.84988">
        <ele>3029</ele>
        <time>2022-07-21T07:17:44Z</time>
      </trkpt>
      <trkpt lat="46.0222" lon="6.84994">
        <ele>3032</ele>
        <time>2022-07-21T07:17:54Z</time>
      </trkpt>
      <trkpt lat="46.02227" lon="6.84995">
        <ele>3034</ele>
        <time>2022-07-21T07:18:05Z</time>
      </trkpt>
      <trkpt lat="46.0223" lon="6.85">
        <ele>3037</ele>
        <time>2022-07-21T07:18:15Z</time>
      </trkpt>
      <trkpt lat="46.02236" lon="6.84996">
        <ele>3037</ele>
        <time>2022-07-21T07:18:25Z</time>
      </trkpt>
      <trkpt lat="46.02244" lon="6.84995">
        <ele>3038</ele>
        <time>2022-07-21T07:18:35Z</time>
      </trkpt>
      <trkpt lat="46.02246" lon="6.85005">
        <ele>3038</ele>
        <time>2022-07-21T07:18:45Z</time>
      </trkpt>
      <trkpt lat="46.02252" lon="6.85009">
        <ele>3037</ele>
        <time>2022-07-21T07:24:06Z</time>
      </trkpt>
      <trkpt lat="46.02256" lon="6.8501">
        <ele>3038</ele>
        <time>2022-07-21T07:24:11Z</time>
      </trkpt>
      <trkpt lat="46.02262" lon="6.8501">
        <ele>3039</ele>
        <time>2022-07-21T07:24:18Z</time>
      </trkpt>
      <trkpt lat="46.0228" lon="6.85013">
        <ele>3040</ele>
        <time>2022-07-21T07:24:40Z</time>
      </trkpt>
      <trkpt lat="46.02286" lon="6.85023">
        <ele>3041</ele>
        <time>2022-07-21T07:24:50Z</time>
      </trkpt>
      <trkpt lat="46.02291" lon="6.85027">
        <ele>3042</ele>
        <time>2022-07-21T07:24:57Z</time>
      </trkpt>
      <trkpt lat="46.02296" lon="6.85028">
        <ele>3042</ele>
        <time>2022-07-21T07:25:04Z</time>
      </trkpt>
      <trkpt lat="46.02305" lon="6.8503">
        <ele>3044</ele>
        <time>2022-07-21T07:25:15Z</time>
      </trkpt>
      <trkpt lat="46.02308" lon="6.85034">
        <ele>3044</ele>
        <time>2022-07-21T07:25:20Z</time>
      </trkpt>
      <trkpt lat="46.02315" lon="6.8504">
        <ele>3044</ele>
        <time>2022-07-21T07:25:30Z</time>
      </trkpt>
      <trkpt lat="46.02321" lon="6.85046">
        <ele>3045</ele>
        <time>2022-07-21T07:25:38Z</time>
      </trkpt>
      <trkpt lat="46.02327" lon="6.85047">
        <ele>3045</ele>
        <time>2022-07-21T07:25:45Z</time>
      </trkpt>
      <trkpt lat="46.02341" lon="6.85063">
        <ele>3048</ele>
        <time>2022-07-21T07:26:08Z</time>
      </trkpt>
      <trkpt lat="46.02344" lon="6.85069">
        <ele>3049</ele>
        <time>2022-07-21T07:26:14Z</time>
      </trkpt>
      <trkpt lat="46.02348" lon="6.85079">
        <ele>3050</ele>
        <time>2022-07-21T07:26:25Z</time>
      </trkpt>
      <trkpt lat="46.02351" lon="6.85086">
        <ele>3051</ele>
        <time>2022-07-21T07:26:33Z</time>
      </trkpt>
      <trkpt lat="46.02353" lon="6.85093">
        <ele>3052</ele>
        <time>2022-07-21T07:26:39Z</time>
      </trkpt>
      <trkpt lat="46.02357" lon="6.851">
        <ele>3053</ele>
        <time>2022-07-21T07:26:49Z</time>
      </trkpt>
      <trkpt lat="46.02362" lon="6.85106">
        <ele>3053</ele>
        <time>2022-07-21T07:26:59Z</time>
      </trkpt>
      <trkpt lat="46.02368" lon="6.85124">
        <ele>3055</ele>
        <time>2022-07-21T07:27:17Z</time>
      </trkpt>
      <trkpt lat="46.02373" lon="6.85129">
        <ele>3057</ele>
        <time>2022-07-21T07:27:27Z</time>
      </trkpt>
      <trkpt lat="46.02379" lon="6.85134">
        <ele>3058</ele>
        <time>2022-07-21T07:27:37Z</time>
      </trkpt>
      <trkpt lat="46.02383" lon="6.85142">
        <ele>3060</ele>
        <time>2022-07-21T07:27:47Z</time>
      </trkpt>
      <trkpt lat="46.0239" lon="6.85143">
        <ele>3062</ele>
        <time>2022-07-21T07:27:57Z</time>
      </trkpt>
      <trkpt lat="46.02395" lon="6.85147">
        <ele>3063</ele>
        <time>2022-07-21T07:28:07Z</time>
      </trkpt>
      <trkpt lat="46.02401" lon="6.85147">
        <ele>3065</ele>
        <time>2022-07-21T07:28:18Z</time>
      </trkpt>
      <trkpt lat="46.02411" lon="6.85155">
        <ele>3068</ele>
        <time>2022-07-21T07:28:40Z</time>
      </trkpt>
      <trkpt lat="46.02413" lon="6.85161">
        <ele>3069</ele>
        <time>2022-07-21T07:28:50Z</time>
      </trkpt>
      <trkpt lat="46.02414" lon="6.85167">
        <ele>3070</ele>
        <time>2022-07-21T07:29:15Z</time>
      </trkpt>
      <trkpt lat="46.02422" lon="6.8518">
        <ele>3073</ele>
        <time>2022-07-21T07:29:50Z</time>
      </trkpt>
      <trkpt lat="46.02423" lon="6.85187">
        <ele>3074</ele>
        <time>2022-07-21T07:30:00Z</time>
      </trkpt>
      <trkpt lat="46.02427" lon="6.85192">
        <ele>3075</ele>
        <time>2022-07-21T07:30:15Z</time>
      </trkpt>
      <trkpt lat="46.02432" lon="6.85201">
        <ele>3077</ele>
        <time>2022-07-21T07:30:26Z</time>
      </trkpt>
      <trkpt lat="46.02437" lon="6.85201">
        <ele>3079</ele>
        <time>2022-07-21T07:30:38Z</time>
      </trkpt>
      <trkpt lat="46.02441" lon="6.85203">
        <ele>3080</ele>
        <time>2022-07-21T07:30:48Z</time>
      </trkpt>
      <trkpt lat="46.02446" lon="6.85204">
        <ele>3080</ele>
        <time>2022-07-21T07:31:28Z</time>
      </trkpt>
      <trkpt lat="46.02452" lon="6.85208">
        <ele>3082</ele>
        <time>2022-07-21T07:31:38Z</time>
      </trkpt>
      <trkpt lat="46.02459" lon="6.85211">
        <ele>3084</ele>
        <time>2022-07-21T07:31:48Z</time>
      </trkpt>
      <trkpt lat="46.02467" lon="6.85221">
        <ele>3087</ele>
        <time>2022-07-21T07:32:18Z</time>
      </trkpt>
      <trkpt lat="46.02471" lon="6.85235">
        <ele>3090</ele>
        <time>2022-07-21T07:32:40Z</time>
      </trkpt>
      <trkpt lat="46.02475" lon="6.8524">
        <ele>3091</ele>
        <time>2022-07-21T07:32:50Z</time>
      </trkpt>
      <trkpt lat="46.02477" lon="6.85245">
        <ele>3093</ele>
        <time>2022-07-21T07:33:00Z</time>
      </trkpt>
      <trkpt lat="46.02481" lon="6.85247">
        <ele>3094</ele>
        <time>2022-07-21T07:33:10Z</time>
      </trkpt>
      <trkpt lat="46.02482" lon="6.85257">
        <ele>3095</ele>
        <time>2022-07-21T07:34:20Z</time>
      </trkpt>
      <trkpt lat="46.02481" lon="6.85252">
        <ele>3095</ele>
        <time>2022-07-21T07:37:01Z</time>
      </trkpt>
      <trkpt lat="46.02479" lon="6.85258">
        <ele>3094</ele>
        <time>2022-07-21T07:40:53Z</time>
      </trkpt>
      <trkpt lat="46.02476" lon="6.85264">
        <ele>3094</ele>
        <time>2022-07-21T07:40:58Z</time>
      </trkpt>
      <trkpt lat="46.02473" lon="6.85272">
        <ele>3094</ele>
        <time>2022-07-21T07:41:05Z</time>
      </trkpt>
      <trkpt lat="46.02467" lon="6.85293">
        <ele>3092</ele>
        <time>2022-07-21T07:41:22Z</time>
      </trkpt>
      <trkpt lat="46.02465" lon="6.85306">
        <ele>3091</ele>
        <time>2022-07-21T07:41:31Z</time>
      </trkpt>
      <trkpt lat="46.02464" lon="6.85313">
        <ele>3091</ele>
        <time>2022-07-21T07:41:36Z</time>
      </trkpt>
      <trkpt lat="46.02461" lon="6.85321">
        <ele>3091</ele>
        <time>2022-07-21T07:41:44Z</time>
      </trkpt>
      <trkpt lat="46.02447" lon="6.85349">
        <ele>3083</ele>
        <time>2022-07-21T07:42:14Z</time>
      </trkpt>
      <trkpt lat="46.02442" lon="6.8536">
        <ele>3082</ele>
        <time>2022-07-21T07:42:22Z</time>
      </trkpt>
      <trkpt lat="46.02436" lon="6.85373">
        <ele>3081</ele>
        <time>2022-07-21T07:42:31Z</time>
      </trkpt>
      <trkpt lat="46.02433" lon="6.85377">
        <ele>3081</ele>
        <time>2022-07-21T07:42:35Z</time>
      </trkpt>
      <trkpt lat="46.0243" lon="6.85383">
        <ele>3082</ele>
        <time>2022-07-21T07:42:40Z</time>
      </trkpt>
      <trkpt lat="46.0243" lon="6.85392">
        <ele>3082</ele>
        <time>2022-07-21T07:42:47Z</time>
      </trkpt>
      <trkpt lat="46.02428" lon="6.85399">
        <ele>3081</ele>
        <time>2022-07-21T07:42:54Z</time>
      </trkpt>
      <trkpt lat="46.02426" lon="6.85406">
        <ele>3079</ele>
        <time>2022-07-21T07:43:00Z</time>
      </trkpt>
      <trkpt lat="46.02426" lon="6.85412">
        <ele>3078</ele>
        <time>2022-07-21T07:43:04Z</time>
      </trkpt>
      <trkpt lat="46.02423" lon="6.85439">
        <ele>3075</ele>
        <time>2022-07-21T07:43:26Z</time>
      </trkpt>
      <trkpt lat="46.02421" lon="6.85443">
        <ele>3075</ele>
        <time>2022-07-21T07:46:37Z</time>
      </trkpt>
      <trkpt lat="46.02421" lon="6.85442">
        <ele>3073</ele>
        <time>2022-07-21T08:08:48Z</time>
      </trkpt>
      <trkpt lat="46.02425" lon="6.85447">
        <ele>3073</ele>
        <time>2022-07-21T08:34:46Z</time>
      </trkpt>
      <trkpt lat="46.02422" lon="6.85452">
        <ele>3069</ele>
        <time>2022-07-21T08:42:40Z</time>
      </trkpt>
      <trkpt lat="46.02421" lon="6.85444">
        <ele>3070</ele>
        <time>2022-07-21T08:42:50Z</time>
      </trkpt>
      <trkpt lat="46.02424" lon="6.8544">
        <ele>3071</ele>
        <time>2022-07-21T08:59:26Z</time>
      </trkpt>
      <trkpt lat="46.0242" lon="6.85435">
        <ele>3071</ele>
        <time>2022-07-21T08:59:56Z</time>
      </trkpt>
      <trkpt lat="46.02421" lon="6.85428">
        <ele>3074</ele>
        <time>2022-07-21T09:04:27Z</time>
      </trkpt>
      <trkpt lat="46.02423" lon="6.85421">
        <ele>3075</ele>
        <time>2022-07-21T09:04:37Z</time>
      </trkpt>
      <trkpt lat="46.02426" lon="6.85414">
        <ele>3076</ele>
        <time>2022-07-21T09:04:47Z</time>
      </trkpt>
      <trkpt lat="46.02427" lon="6.85405">
        <ele>3077</ele>
        <time>2022-07-21T09:04:59Z</time>
      </trkpt>
      <trkpt lat="46.02429" lon="6.85396">
        <ele>3079</ele>
        <time>2022-07-21T09:05:09Z</time>
      </trkpt>
      <trkpt lat="46.0243" lon="6.85387">
        <ele>3081</ele>
        <time>2022-07-21T09:05:19Z</time>
      </trkpt>
      <trkpt lat="46.02427" lon="6.85377">
        <ele>3080</ele>
        <time>2022-07-21T09:05:29Z</time>
      </trkpt>
      <trkpt lat="46.02414" lon="6.85354">
        <ele>3075</ele>
        <time>2022-07-21T09:06:00Z</time>
      </trkpt>
      <trkpt lat="46.02399" lon="6.85328">
        <ele>3070</ele>
        <time>2022-07-21T09:06:31Z</time>
      </trkpt>
      <trkpt lat="46.02392" lon="6.85312">
        <ele>3067</ele>
        <time>2022-07-21T09:06:49Z</time>
      </trkpt>
      <trkpt lat="46.02391" lon="6.85306">
        <ele>3067</ele>
        <time>2022-07-21T09:06:53Z</time>
      </trkpt>
      <trkpt lat="46.02386" lon="6.853">
        <ele>3065</ele>
        <time>2022-07-21T09:07:00Z</time>
      </trkpt>
      <trkpt lat="46.02384" lon="6.85292">
        <ele>3064</ele>
        <time>2022-07-21T09:07:07Z</time>
      </trkpt>
      <trkpt lat="46.02379" lon="6.85282">
        <ele>3063</ele>
        <time>2022-07-21T09:07:18Z</time>
      </trkpt>
      <trkpt lat="46.02374" lon="6.85265">
        <ele>3061</ele>
        <time>2022-07-21T09:07:31Z</time>
      </trkpt>
      <trkpt lat="46.02368" lon="6.85251">
        <ele>3058</ele>
        <time>2022-07-21T09:07:44Z</time>
      </trkpt>
      <trkpt lat="46.02364" lon="6.85215">
        <ele>3056</ele>
        <time>2022-07-21T09:08:09Z</time>
      </trkpt>
      <trkpt lat="46.02362" lon="6.85206">
        <ele>3056</ele>
        <time>2022-07-21T09:08:16Z</time>
      </trkpt>
      <trkpt lat="46.02362" lon="6.85197">
        <ele>3056</ele>
        <time>2022-07-21T09:08:23Z</time>
      </trkpt>
      <trkpt lat="46.0236" lon="6.85184">
        <ele>3057</ele>
        <time>2022-07-21T09:08:31Z</time>
      </trkpt>
      <trkpt lat="46.02358" lon="6.8517">
        <ele>3056</ele>
        <time>2022-07-21T09:08:39Z</time>
      </trkpt>
      <trkpt lat="46.02357" lon="6.85164">
        <ele>3056</ele>
        <time>2022-07-21T09:08:43Z</time>
      </trkpt>
      <trkpt lat="46.02345" lon="6.8514">
        <ele>3052</ele>
        <time>2022-07-21T09:08:57Z</time>
      </trkpt>
      <trkpt lat="46.02335" lon="6.85124">
        <ele>3050</ele>
        <time>2022-07-21T09:09:05Z</time>
      </trkpt>
      <trkpt lat="46.02327" lon="6.85109">
        <ele>3048</ele>
        <time>2022-07-21T09:09:15Z</time>
      </trkpt>
      <trkpt lat="46.02322" lon="6.85101">
        <ele>3047</ele>
        <time>2022-07-21T09:09:22Z</time>
      </trkpt>
      <trkpt lat="46.02317" lon="6.85091">
        <ele>3045</ele>
        <time>2022-07-21T09:09:32Z</time>
      </trkpt>
      <trkpt lat="46.0231" lon="6.8508">
        <ele>3044</ele>
        <time>2022-07-21T09:09:39Z</time>
      </trkpt>
      <trkpt lat="46.02288" lon="6.85051">
        <ele>3040</ele>
        <time>2022-07-21T09:10:03Z</time>
      </trkpt>
      <trkpt lat="46.02279" lon="6.85031">
        <ele>3041</ele>
        <time>2022-07-21T09:10:19Z</time>
      </trkpt>
      <trkpt lat="46.02274" lon="6.85027">
        <ele>3042</ele>
        <time>2022-07-21T09:10:24Z</time>
      </trkpt>
      <trkpt lat="46.0227" lon="6.85022">
        <ele>3042</ele>
        <time>2022-07-21T09:10:28Z</time>
      </trkpt>
      <trkpt lat="46.02267" lon="6.85018">
        <ele>3040</ele>
        <time>2022-07-21T09:10:32Z</time>
      </trkpt>
      <trkpt lat="46.02263" lon="6.85015">
        <ele>3040</ele>
        <time>2022-07-21T09:10:36Z</time>
      </trkpt>
      <trkpt lat="46.02254" lon="6.85009">
        <ele>3040</ele>
        <time>2022-07-21T09:10:45Z</time>
      </trkpt>
      <trkpt lat="46.02249" lon="6.85009">
        <ele>3040</ele>
        <time>2022-07-21T09:10:49Z</time>
      </trkpt>
      <trkpt lat="46.0224" lon="6.85004">
        <ele>3039</ele>
        <time>2022-07-21T09:10:57Z</time>
      </trkpt>
      <trkpt lat="46.02234" lon="6.85005">
        <ele>3038</ele>
        <time>2022-07-21T09:11:04Z</time>
      </trkpt>
      <trkpt lat="46.0223" lon="6.85002">
        <ele>3037</ele>
        <time>2022-07-21T09:11:09Z</time>
      </trkpt>
      <trkpt lat="46.02227" lon="6.84997">
        <ele>3037</ele>
        <time>2022-07-21T09:11:14Z</time>
      </trkpt>
      <trkpt lat="46.0221" lon="6.84981">
        <ele>3031</ele>
        <time>2022-07-21T09:11:35Z</time>
      </trkpt>
      <trkpt lat="46.02205" lon="6.84973">
        <ele>3028</ele>
        <time>2022-07-21T09:11:43Z</time>
      </trkpt>
      <trkpt lat="46.02201" lon="6.84972">
        <ele>3028</ele>
        <time>2022-07-21T09:11:47Z</time>
      </trkpt>
      <trkpt lat="46.02197" lon="6.84972">
        <ele>3027</ele>
        <time>2022-07-21T09:11:52Z</time>
      </trkpt>
      <trkpt lat="46.02192" lon="6.84969">
        <ele>3027</ele>
        <time>2022-07-21T09:11:57Z</time>
      </trkpt>
      <trkpt lat="46.02185" lon="6.84965">
        <ele>3027</ele>
        <time>2022-07-21T09:12:04Z</time>
      </trkpt>
      <trkpt lat="46.02179" lon="6.8496">
        <ele>3028</ele>
        <time>2022-07-21T09:12:13Z</time>
      </trkpt>
      <trkpt lat="46.02174" lon="6.84958">
        <ele>3027</ele>
        <time>2022-07-21T09:12:23Z</time>
      </trkpt>
      <trkpt lat="46.02156" lon="6.8495">
        <ele>3021</ele>
        <time>2022-07-21T09:12:48Z</time>
      </trkpt>
      <trkpt lat="46.02151" lon="6.8495">
        <ele>3020</ele>
        <time>2022-07-21T09:12:52Z</time>
      </trkpt>
      <trkpt lat="46.02147" lon="6.84948">
        <ele>3019</ele>
        <time>2022-07-21T09:12:56Z</time>
      </trkpt>
      <trkpt lat="46.02136" lon="6.84947">
        <ele>3018</ele>
        <time>2022-07-21T09:13:06Z</time>
      </trkpt>
      <trkpt lat="46.02132" lon="6.84947">
        <ele>3018</ele>
        <time>2022-07-21T09:13:09Z</time>
      </trkpt>
      <trkpt lat="46.02125" lon="6.84949">
        <ele>3016</ele>
        <time>2022-07-21T09:13:18Z</time>
      </trkpt>
      <trkpt lat="46.0212" lon="6.84949">
        <ele>3014</ele>
        <time>2022-07-21T09:13:23Z</time>
      </trkpt>
      <trkpt lat="46.02123" lon="6.84965">
        <ele>3010</ele>
        <time>2022-07-21T09:13:39Z</time>
      </trkpt>
      <trkpt lat="46.02118" lon="6.84978">
        <ele>3004</ele>
        <time>2022-07-21T09:13:54Z</time>
      </trkpt>
      <trkpt lat="46.02102" lon="6.84979">
        <ele>2999</ele>
        <time>2022-07-21T09:14:10Z</time>
      </trkpt>
      <trkpt lat="46.02097" lon="6.84979">
        <ele>2997</ele>
        <time>2022-07-21T09:14:17Z</time>
      </trkpt>
      <trkpt lat="46.02097" lon="6.84986">
        <ele>2995</ele>
        <time>2022-07-21T09:14:21Z</time>
      </trkpt>
      <trkpt lat="46.02083" lon="6.84986">
        <ele>2989</ele>
        <time>2022-07-21T09:14:40Z</time>
      </trkpt>
      <trkpt lat="46.02078" lon="6.84984">
        <ele>2987</ele>
        <time>2022-07-21T09:14:46Z</time>
      </trkpt>
      <trkpt lat="46.02073" lon="6.84985">
        <ele>2983</ele>
        <time>2022-07-21T09:14:53Z</time>
      </trkpt>
      <trkpt lat="46.0207" lon="6.84994">
        <ele>2980</ele>
        <time>2022-07-21T09:15:03Z</time>
      </trkpt>
      <trkpt lat="46.02065" lon="6.84993">
        <ele>2977</ele>
        <time>2022-07-21T09:15:10Z</time>
      </trkpt>
      <trkpt lat="46.02063" lon="6.85002">
        <ele>2974</ele>
        <time>2022-07-21T09:15:18Z</time>
      </trkpt>
      <trkpt lat="46.02058" lon="6.85003">
        <ele>2971</ele>
        <time>2022-07-21T09:15:26Z</time>
      </trkpt>
      <trkpt lat="46.02053" lon="6.85006">
        <ele>2967</ele>
        <time>2022-07-21T09:15:34Z</time>
      </trkpt>
      <trkpt lat="46.02049" lon="6.85004">
        <ele>2965</ele>
        <time>2022-07-21T09:15:39Z</time>
      </trkpt>
      <trkpt lat="46.02044" lon="6.85">
        <ele>2963</ele>
        <time>2022-07-21T09:15:43Z</time>
      </trkpt>
      <trkpt lat="46.02034" lon="6.84996">
        <ele>2959</ele>
        <time>2022-07-21T09:15:53Z</time>
      </trkpt>
      <trkpt lat="46.02033" lon="6.85004">
        <ele>2957</ele>
        <time>2022-07-21T09:15:57Z</time>
      </trkpt>
      <trkpt lat="46.02028" lon="6.85008">
        <ele>2953</ele>
        <time>2022-07-21T09:16:06Z</time>
      </trkpt>
      <trkpt lat="46.02022" lon="6.85004">
        <ele>2951</ele>
        <time>2022-07-21T09:16:13Z</time>
      </trkpt>
      <trkpt lat="46.02017" lon="6.85005">
        <ele>2948</ele>
        <time>2022-07-21T09:16:20Z</time>
      </trkpt>
      <trkpt lat="46.02011" lon="6.85002">
        <ele>2945</ele>
        <time>2022-07-21T09:16:30Z</time>
      </trkpt>
      <trkpt lat="46.02007" lon="6.85004">
        <ele>2942</ele>
        <time>2022-07-21T09:16:35Z</time>
      </trkpt>
      <trkpt lat="46.02005" lon="6.8501">
        <ele>2940</ele>
        <time>2022-07-21T09:16:39Z</time>
      </trkpt>
      <trkpt lat="46.02005" lon="6.85018">
        <ele>2938</ele>
        <time>2022-07-21T09:16:46Z</time>
      </trkpt>
      <trkpt lat="46.02002" lon="6.85025">
        <ele>2937</ele>
        <time>2022-07-21T09:16:53Z</time>
      </trkpt>
      <trkpt lat="46.02" lon="6.85032">
        <ele>2935</ele>
        <time>2022-07-21T09:16:57Z</time>
      </trkpt>
      <trkpt lat="46.02001" lon="6.85039">
        <ele>2934</ele>
        <time>2022-07-21T09:17:01Z</time>
      </trkpt>
      <trkpt lat="46.01999" lon="6.85052">
        <ele>2932</ele>
        <time>2022-07-21T09:17:09Z</time>
      </trkpt>
      <trkpt lat="46.01996" lon="6.85058">
        <ele>2930</ele>
        <time>2022-07-21T09:17:14Z</time>
      </trkpt>
      <trkpt lat="46.01992" lon="6.85071">
        <ele>2928</ele>
        <time>2022-07-21T09:17:22Z</time>
      </trkpt>
      <trkpt lat="46.01992" lon="6.85078">
        <ele>2928</ele>
        <time>2022-07-21T09:17:31Z</time>
      </trkpt>
      <trkpt lat="46.01985" lon="6.85094">
        <ele>2925</ele>
        <time>2022-07-21T09:17:46Z</time>
      </trkpt>
      <trkpt lat="46.0198" lon="6.85135">
        <ele>2920</ele>
        <time>2022-07-21T09:18:09Z</time>
      </trkpt>
      <trkpt lat="46.01981" lon="6.85142">
        <ele>2919</ele>
        <time>2022-07-21T09:18:13Z</time>
      </trkpt>
      <trkpt lat="46.01983" lon="6.85149">
        <ele>2918</ele>
        <time>2022-07-21T09:18:20Z</time>
      </trkpt>
      <trkpt lat="46.01981" lon="6.85156">
        <ele>2918</ele>
        <time>2022-07-21T09:18:24Z</time>
      </trkpt>
      <trkpt lat="46.0197" lon="6.85152">
        <ele>2915</ele>
        <time>2022-07-21T09:18:35Z</time>
      </trkpt>
      <trkpt lat="46.01963" lon="6.8514">
        <ele>2912</ele>
        <time>2022-07-21T09:18:47Z</time>
      </trkpt>
      <trkpt lat="46.01961" lon="6.85146">
        <ele>2910</ele>
        <time>2022-07-21T09:18:54Z</time>
      </trkpt>
      <trkpt lat="46.01957" lon="6.85143">
        <ele>2907</ele>
        <time>2022-07-21T09:19:09Z</time>
      </trkpt>
      <trkpt lat="46.01952" lon="6.85137">
        <ele>2905</ele>
        <time>2022-07-21T09:19:19Z</time>
      </trkpt>
      <trkpt lat="46.01949" lon="6.85132">
        <ele>2903</ele>
        <time>2022-07-21T09:19:24Z</time>
      </trkpt>
      <trkpt lat="46.01945" lon="6.85138">
        <ele>2901</ele>
        <time>2022-07-21T09:19:32Z</time>
      </trkpt>
      <trkpt lat="46.01943" lon="6.85147">
        <ele>2898</ele>
        <time>2022-07-21T09:19:39Z</time>
      </trkpt>
      <trkpt lat="46.01938" lon="6.85145">
        <ele>2896</ele>
        <time>2022-07-21T09:21:17Z</time>
      </trkpt>
      <trkpt lat="46.01935" lon="6.85155">
        <ele>2894</ele>
        <time>2022-07-21T09:21:38Z</time>
      </trkpt>
      <trkpt lat="46.01933" lon="6.85163">
        <ele>2891</ele>
        <time>2022-07-21T09:21:50Z</time>
      </trkpt>
      <trkpt lat="46.0193" lon="6.85156">
        <ele>2888</ele>
        <time>2022-07-21T09:22:01Z</time>
      </trkpt>
      <trkpt lat="46.01925" lon="6.85155">
        <ele>2886</ele>
        <time>2022-07-21T09:22:11Z</time>
      </trkpt>
      <trkpt lat="46.01922" lon="6.85161">
        <ele>2884</ele>
        <time>2022-07-21T09:22:21Z</time>
      </trkpt>
      <trkpt lat="46.01917" lon="6.85175">
        <ele>2879</ele>
        <time>2022-07-21T09:22:41Z</time>
      </trkpt>
      <trkpt lat="46.01903" lon="6.85161">
        <ele>2871</ele>
        <time>2022-07-21T09:23:03Z</time>
      </trkpt>
      <trkpt lat="46.019" lon="6.85166">
        <ele>2869</ele>
        <time>2022-07-21T09:23:07Z</time>
      </trkpt>
      <trkpt lat="46.01895" lon="6.85182">
        <ele>2865</ele>
        <time>2022-07-21T09:23:19Z</time>
      </trkpt>
      <trkpt lat="46.01891" lon="6.85181">
        <ele>2862</ele>
        <time>2022-07-21T09:23:27Z</time>
      </trkpt>
      <trkpt lat="46.01887" lon="6.85186">
        <ele>2859</ele>
        <time>2022-07-21T09:23:32Z</time>
      </trkpt>
      <trkpt lat="46.01886" lon="6.85193">
        <ele>2858</ele>
        <time>2022-07-21T09:23:36Z</time>
      </trkpt>
      <trkpt lat="46.01876" lon="6.8519">
        <ele>2852</ele>
        <time>2022-07-21T09:23:49Z</time>
      </trkpt>
      <trkpt lat="46.01869" lon="6.85192">
        <ele>2848</ele>
        <time>2022-07-21T09:23:57Z</time>
      </trkpt>
      <trkpt lat="46.01864" lon="6.85203">
        <ele>2844</ele>
        <time>2022-07-21T09:24:07Z</time>
      </trkpt>
      <trkpt lat="46.01858" lon="6.85202">
        <ele>2840</ele>
        <time>2022-07-21T09:24:18Z</time>
      </trkpt>
      <trkpt lat="46.01853" lon="6.85206">
        <ele>2836</ele>
        <time>2022-07-21T09:24:27Z</time>
      </trkpt>
      <trkpt lat="46.0184" lon="6.85203">
        <ele>2828</ele>
        <time>2022-07-21T09:24:50Z</time>
      </trkpt>
      <trkpt lat="46.01837" lon="6.85197">
        <ele>2826</ele>
        <time>2022-07-21T09:24:56Z</time>
      </trkpt>
      <trkpt lat="46.01832" lon="6.85191">
        <ele>2824</ele>
        <time>2022-07-21T09:25:01Z</time>
      </trkpt>
      <trkpt lat="46.01827" lon="6.85204">
        <ele>2820</ele>
        <time>2022-07-21T09:25:11Z</time>
      </trkpt>
      <trkpt lat="46.01822" lon="6.85208">
        <ele>2816</ele>
        <time>2022-07-21T09:25:20Z</time>
      </trkpt>
      <trkpt lat="46.01818" lon="6.8521">
        <ele>2812</ele>
        <time>2022-07-21T09:25:26Z</time>
      </trkpt>
      <trkpt lat="46.01812" lon="6.85216">
        <ele>2809</ele>
        <time>2022-07-21T09:25:36Z</time>
      </trkpt>
      <trkpt lat="46.01808" lon="6.85214">
        <ele>2805</ele>
        <time>2022-07-21T09:25:46Z</time>
      </trkpt>
      <trkpt lat="46.01805" lon="6.8522">
        <ele>2803</ele>
        <time>2022-07-21T09:25:51Z</time>
      </trkpt>
      <trkpt lat="46.018" lon="6.85207">
        <ele>2799</ele>
        <time>2022-07-21T09:26:02Z</time>
      </trkpt>
      <trkpt lat="46.01793" lon="6.85203">
        <ele>2794</ele>
        <time>2022-07-21T09:26:12Z</time>
      </trkpt>
      <trkpt lat="46.01787" lon="6.85198">
        <ele>2792</ele>
        <time>2022-07-21T09:26:21Z</time>
      </trkpt>
      <trkpt lat="46.01778" lon="6.85182">
        <ele>2786</ele>
        <time>2022-07-21T09:26:31Z</time>
      </trkpt>
      <trkpt lat="46.01775" lon="6.85188">
        <ele>2784</ele>
        <time>2022-07-21T09:26:34Z</time>
      </trkpt>
      <trkpt lat="46.01773" lon="6.85182">
        <ele>2781</ele>
        <time>2022-07-21T09:26:40Z</time>
      </trkpt>
      <trkpt lat="46.01769" lon="6.85188">
        <ele>2778</ele>
        <time>2022-07-21T09:26:44Z</time>
      </trkpt>
      <trkpt lat="46.01765" lon="6.85191">
        <ele>2777</ele>
        <time>2022-07-21T09:26:48Z</time>
      </trkpt>
      <trkpt lat="46.0176" lon="6.85176">
        <ele>2773</ele>
        <time>2022-07-21T09:26:56Z</time>
      </trkpt>
      <trkpt lat="46.01757" lon="6.85183">
        <ele>2772</ele>
        <time>2022-07-21T09:26:59Z</time>
      </trkpt>
      <trkpt lat="46.01754" lon="6.85187">
        <ele>2771</ele>
        <time>2022-07-21T09:27:02Z</time>
      </trkpt>
      <trkpt lat="46.01753" lon="6.85179">
        <ele>2769</ele>
        <time>2022-07-21T09:27:05Z</time>
      </trkpt>
      <trkpt lat="46.01745" lon="6.85183">
        <ele>2766</ele>
        <time>2022-07-21T09:27:12Z</time>
      </trkpt>
      <trkpt lat="46.01744" lon="6.85175">
        <ele>2765</ele>
        <time>2022-07-21T09:27:15Z</time>
      </trkpt>
      <trkpt lat="46.01737" lon="6.85175">
        <ele>2762</ele>
        <time>2022-07-21T09:27:25Z</time>
      </trkpt>
      <trkpt lat="46.01727" lon="6.85183">
        <ele>2757</ele>
        <time>2022-07-21T09:27:36Z</time>
      </trkpt>
      <trkpt lat="46.0172" lon="6.8518">
        <ele>2754</ele>
        <time>2022-07-21T09:27:44Z</time>
      </trkpt>
      <trkpt lat="46.01714" lon="6.8517">
        <ele>2751</ele>
        <time>2022-07-21T09:27:51Z</time>
      </trkpt>
      <trkpt lat="46.01709" lon="6.85166">
        <ele>2748</ele>
        <time>2022-07-21T09:27:58Z</time>
      </trkpt>
      <trkpt lat="46.01703" lon="6.85165">
        <ele>2745</ele>
        <time>2022-07-21T09:28:05Z</time>
      </trkpt>
      <trkpt lat="46.01694" lon="6.85166">
        <ele>2742</ele>
        <time>2022-07-21T09:28:23Z</time>
      </trkpt>
      <trkpt lat="46.01689" lon="6.85171">
        <ele>2740</ele>
        <time>2022-07-21T09:28:28Z</time>
      </trkpt>
      <trkpt lat="46.0168" lon="6.85174">
        <ele>2738</ele>
        <time>2022-07-21T09:28:37Z</time>
      </trkpt>
      <trkpt lat="46.01676" lon="6.85172">
        <ele>2738</ele>
        <time>2022-07-21T09:28:40Z</time>
      </trkpt>
      <trkpt lat="46.0167" lon="6.85173">
        <ele>2739</ele>
        <time>2022-07-21T09:28:49Z</time>
      </trkpt>
      <trkpt lat="46.01664" lon="6.85171">
        <ele>2739</ele>
        <time>2022-07-21T09:28:59Z</time>
      </trkpt>
      <trkpt lat="46.01655" lon="6.85165">
        <ele>2737</ele>
        <time>2022-07-21T09:29:09Z</time>
      </trkpt>
      <trkpt lat="46.0165" lon="6.85163">
        <ele>2737</ele>
        <time>2022-07-21T09:29:13Z</time>
      </trkpt>
      <trkpt lat="46.01644" lon="6.85161">
        <ele>2737</ele>
        <time>2022-07-21T09:29:20Z</time>
      </trkpt>
      <trkpt lat="46.01638" lon="6.85155">
        <ele>2736</ele>
        <time>2022-07-21T09:29:28Z</time>
      </trkpt>
      <trkpt lat="46.01632" lon="6.85154">
        <ele>2735</ele>
        <time>2022-07-21T09:29:33Z</time>
      </trkpt>
      <trkpt lat="46.01628" lon="6.85152">
        <ele>2733</ele>
        <time>2022-07-21T09:29:38Z</time>
      </trkpt>
      <trkpt lat="46.01624" lon="6.85147">
        <ele>2733</ele>
        <time>2022-07-21T09:29:42Z</time>
      </trkpt>
      <trkpt lat="46.01618" lon="6.85144">
        <ele>2731</ele>
        <time>2022-07-21T09:29:49Z</time>
      </trkpt>
      <trkpt lat="46.0161" lon="6.85132">
        <ele>2728</ele>
        <time>2022-07-21T09:30:01Z</time>
      </trkpt>
      <trkpt lat="46.01604" lon="6.85132">
        <ele>2727</ele>
        <time>2022-07-21T09:30:07Z</time>
      </trkpt>
      <trkpt lat="46.016" lon="6.8513">
        <ele>2726</ele>
        <time>2022-07-21T09:30:11Z</time>
      </trkpt>
      <trkpt lat="46.01592" lon="6.85119">
        <ele>2721</ele>
        <time>2022-07-21T09:30:29Z</time>
      </trkpt>
      <trkpt lat="46.01575" lon="6.85102">
        <ele>2713</ele>
        <time>2022-07-21T09:30:54Z</time>
      </trkpt>
      <trkpt lat="46.01571" lon="6.85097">
        <ele>2711</ele>
        <time>2022-07-21T09:30:59Z</time>
      </trkpt>
      <trkpt lat="46.01558" lon="6.85087">
        <ele>2709</ele>
        <time>2022-07-21T09:31:11Z</time>
      </trkpt>
      <trkpt lat="46.01554" lon="6.85087">
        <ele>2709</ele>
        <time>2022-07-21T09:31:15Z</time>
      </trkpt>
      <trkpt lat="46.01546" lon="6.85083">
        <ele>2709</ele>
        <time>2022-07-21T09:31:23Z</time>
      </trkpt>
      <trkpt lat="46.01541" lon="6.85081">
        <ele>2709</ele>
        <time>2022-07-21T09:31:26Z</time>
      </trkpt>
      <trkpt lat="46.01525" lon="6.85072">
        <ele>2708</ele>
        <time>2022-07-21T09:31:40Z</time>
      </trkpt>
      <trkpt lat="46.01521" lon="6.8507">
        <ele>2707</ele>
        <time>2022-07-21T09:31:44Z</time>
      </trkpt>
      <trkpt lat="46.01516" lon="6.85069">
        <ele>2707</ele>
        <time>2022-07-21T09:31:49Z</time>
      </trkpt>
      <trkpt lat="46.01509" lon="6.85064">
        <ele>2706</ele>
        <time>2022-07-21T09:31:59Z</time>
      </trkpt>
      <trkpt lat="46.01504" lon="6.85061">
        <ele>2704</ele>
        <time>2022-07-21T09:32:06Z</time>
      </trkpt>
      <trkpt lat="46.01499" lon="6.85051">
        <ele>2701</ele>
        <time>2022-07-21T09:32:17Z</time>
      </trkpt>
      <trkpt lat="46.01494" lon="6.85049">
        <ele>2699</ele>
        <time>2022-07-21T09:32:22Z</time>
      </trkpt>
      <trkpt lat="46.01494" lon="6.85038">
        <ele>2696</ele>
        <time>2022-07-21T09:32:33Z</time>
      </trkpt>
      <trkpt lat="46.0149" lon="6.85035">
        <ele>2693</ele>
        <time>2022-07-21T09:32:40Z</time>
      </trkpt>
      <trkpt lat="46.01487" lon="6.85026">
        <ele>2690</ele>
        <time>2022-07-21T09:32:50Z</time>
      </trkpt>
      <trkpt lat="46.01484" lon="6.85021">
        <ele>2689</ele>
        <time>2022-07-21T09:32:55Z</time>
      </trkpt>
      <trkpt lat="46.01478" lon="6.85016">
        <ele>2686</ele>
        <time>2022-07-21T09:33:03Z</time>
      </trkpt>
      <trkpt lat="46.01474" lon="6.85011">
        <ele>2684</ele>
        <time>2022-07-21T09:33:10Z</time>
      </trkpt>
      <trkpt lat="46.01476" lon="6.85006">
        <ele>2680</ele>
        <time>2022-07-21T09:33:22Z</time>
      </trkpt>
      <trkpt lat="46.01473" lon="6.85001">
        <ele>2678</ele>
        <time>2022-07-21T09:33:27Z</time>
      </trkpt>
      <trkpt lat="46.01475" lon="6.84995">
        <ele>2676</ele>
        <time>2022-07-21T09:33:34Z</time>
      </trkpt>
      <trkpt lat="46.01463" lon="6.84984">
        <ele>2671</ele>
        <time>2022-07-21T09:33:49Z</time>
      </trkpt>
      <trkpt lat="46.01453" lon="6.84979">
        <ele>2667</ele>
        <time>2022-07-21T09:33:59Z</time>
      </trkpt>
      <trkpt lat="46.01446" lon="6.84986">
        <ele>2665</ele>
        <time>2022-07-21T09:34:07Z</time>
      </trkpt>
      <trkpt lat="46.01441" lon="6.84988">
        <ele>2664</ele>
        <time>2022-07-21T09:34:12Z</time>
      </trkpt>
      <trkpt lat="46.01436" lon="6.84994">
        <ele>2661</ele>
        <time>2022-07-21T09:34:28Z</time>
      </trkpt>
      <trkpt lat="46.01429" lon="6.8499">
        <ele>2660</ele>
        <time>2022-07-21T09:34:38Z</time>
      </trkpt>
      <trkpt lat="46.01424" lon="6.84989">
        <ele>2659</ele>
        <time>2022-07-21T09:34:42Z</time>
      </trkpt>
      <trkpt lat="46.01421" lon="6.84986">
        <ele>2658</ele>
        <time>2022-07-21T09:34:47Z</time>
      </trkpt>
      <trkpt lat="46.01416" lon="6.84988">
        <ele>2656</ele>
        <time>2022-07-21T09:34:52Z</time>
      </trkpt>
      <trkpt lat="46.01406" lon="6.84988">
        <ele>2654</ele>
        <time>2022-07-21T09:35:00Z</time>
      </trkpt>
      <trkpt lat="46.01379" lon="6.85013">
        <ele>2644</ele>
        <time>2022-07-21T09:35:30Z</time>
      </trkpt>
      <trkpt lat="46.01374" lon="6.85016">
        <ele>2643</ele>
        <time>2022-07-21T09:35:33Z</time>
      </trkpt>
      <trkpt lat="46.01367" lon="6.85027">
        <ele>2640</ele>
        <time>2022-07-21T09:35:39Z</time>
      </trkpt>
      <trkpt lat="46.01369" lon="6.85033">
        <ele>2638</ele>
        <time>2022-07-21T09:35:42Z</time>
      </trkpt>
      <trkpt lat="46.01362" lon="6.85036">
        <ele>2635</ele>
        <time>2022-07-21T09:35:48Z</time>
      </trkpt>
      <trkpt lat="46.01351" lon="6.85046">
        <ele>2631</ele>
        <time>2022-07-21T09:35:58Z</time>
      </trkpt>
      <trkpt lat="46.01348" lon="6.85051">
        <ele>2629</ele>
        <time>2022-07-21T09:36:02Z</time>
      </trkpt>
      <trkpt lat="46.01343" lon="6.85052">
        <ele>2627</ele>
        <time>2022-07-21T09:36:06Z</time>
      </trkpt>
      <trkpt lat="46.0134" lon="6.85058">
        <ele>2625</ele>
        <time>2022-07-21T09:36:10Z</time>
      </trkpt>
      <trkpt lat="46.01328" lon="6.85069">
        <ele>2622</ele>
        <time>2022-07-21T09:36:19Z</time>
      </trkpt>
      <trkpt lat="46.0132" lon="6.85079">
        <ele>2619</ele>
        <time>2022-07-21T09:36:27Z</time>
      </trkpt>
      <trkpt lat="46.0131" lon="6.85084">
        <ele>2615</ele>
        <time>2022-07-21T09:36:36Z</time>
      </trkpt>
      <trkpt lat="46.01303" lon="6.85083">
        <ele>2613</ele>
        <time>2022-07-21T09:36:40Z</time>
      </trkpt>
      <trkpt lat="46.01299" lon="6.85089">
        <ele>2613</ele>
        <time>2022-07-21T09:36:43Z</time>
      </trkpt>
      <trkpt lat="46.01295" lon="6.85101">
        <ele>2611</ele>
        <time>2022-07-21T09:36:49Z</time>
      </trkpt>
      <trkpt lat="46.0129" lon="6.85104">
        <ele>2609</ele>
        <time>2022-07-21T09:36:53Z</time>
      </trkpt>
      <trkpt lat="46.01276" lon="6.85111">
        <ele>2604</ele>
        <time>2022-07-21T09:37:04Z</time>
      </trkpt>
      <trkpt lat="46.01275" lon="6.85117">
        <ele>2603</ele>
        <time>2022-07-21T09:37:08Z</time>
      </trkpt>
      <trkpt lat="46.01268" lon="6.85116">
        <ele>2602</ele>
        <time>2022-07-21T09:37:12Z</time>
      </trkpt>
      <trkpt lat="46.01265" lon="6.85121">
        <ele>2601</ele>
        <time>2022-07-21T09:37:16Z</time>
      </trkpt>
      <trkpt lat="46.01263" lon="6.85128">
        <ele>2599</ele>
        <time>2022-07-21T09:37:19Z</time>
      </trkpt>
      <trkpt lat="46.01261" lon="6.85132">
        <ele>2598</ele>
        <time>2022-07-21T09:37:23Z</time>
      </trkpt>
      <trkpt lat="46.01256" lon="6.85137">
        <ele>2596</ele>
        <time>2022-07-21T09:37:27Z</time>
      </trkpt>
      <trkpt lat="46.01254" lon="6.85143">
        <ele>2595</ele>
        <time>2022-07-21T09:37:31Z</time>
      </trkpt>
      <trkpt lat="46.01251" lon="6.85147">
        <ele>2593</ele>
        <time>2022-07-21T09:37:35Z</time>
      </trkpt>
      <trkpt lat="46.01249" lon="6.85154">
        <ele>2591</ele>
        <time>2022-07-21T09:37:40Z</time>
      </trkpt>
      <trkpt lat="46.01236" lon="6.85176">
        <ele>2586</ele>
        <time>2022-07-21T09:37:56Z</time>
      </trkpt>
      <trkpt lat="46.01231" lon="6.85188">
        <ele>2583</ele>
        <time>2022-07-21T09:38:04Z</time>
      </trkpt>
      <trkpt lat="46.01224" lon="6.85199">
        <ele>2580</ele>
        <time>2022-07-21T09:38:11Z</time>
      </trkpt>
      <trkpt lat="46.01218" lon="6.85213">
        <ele>2576</ele>
        <time>2022-07-21T09:38:22Z</time>
      </trkpt>
      <trkpt lat="46.01215" lon="6.85217">
        <ele>2575</ele>
        <time>2022-07-21T09:38:25Z</time>
      </trkpt>
      <trkpt lat="46.01216" lon="6.85225">
        <ele>2573</ele>
        <time>2022-07-21T09:38:30Z</time>
      </trkpt>
      <trkpt lat="46.01209" lon="6.85248">
        <ele>2567</ele>
        <time>2022-07-21T09:38:44Z</time>
      </trkpt>
      <trkpt lat="46.01195" lon="6.8527">
        <ele>2563</ele>
        <time>2022-07-21T09:38:59Z</time>
      </trkpt>
      <trkpt lat="46.01191" lon="6.85272">
        <ele>2562</ele>
        <time>2022-07-21T09:39:03Z</time>
      </trkpt>
      <trkpt lat="46.01189" lon="6.85279">
        <ele>2561</ele>
        <time>2022-07-21T09:39:08Z</time>
      </trkpt>
      <trkpt lat="46.01186" lon="6.85283">
        <ele>2559</ele>
        <time>2022-07-21T09:39:12Z</time>
      </trkpt>
      <trkpt lat="46.01182" lon="6.85288">
        <ele>2559</ele>
        <time>2022-07-21T09:39:15Z</time>
      </trkpt>
      <trkpt lat="46.01174" lon="6.85295">
        <ele>2558</ele>
        <time>2022-07-21T09:39:21Z</time>
      </trkpt>
      <trkpt lat="46.01171" lon="6.85298">
        <ele>2558</ele>
        <time>2022-07-21T09:39:24Z</time>
      </trkpt>
      <trkpt lat="46.01167" lon="6.853">
        <ele>2557</ele>
        <time>2022-07-21T09:39:27Z</time>
      </trkpt>
      <trkpt lat="46.01163" lon="6.85305">
        <ele>2555</ele>
        <time>2022-07-21T09:39:31Z</time>
      </trkpt>
      <trkpt lat="46.01162" lon="6.85312">
        <ele>2554</ele>
        <time>2022-07-21T09:39:34Z</time>
      </trkpt>
      <trkpt lat="46.01158" lon="6.85316">
        <ele>2553</ele>
        <time>2022-07-21T09:39:38Z</time>
      </trkpt>
      <trkpt lat="46.01157" lon="6.85324">
        <ele>2550</ele>
        <time>2022-07-21T09:39:46Z</time>
      </trkpt>
      <trkpt lat="46.01152" lon="6.85325">
        <ele>2548</ele>
        <time>2022-07-21T09:39:50Z</time>
      </trkpt>
      <trkpt lat="46.0114" lon="6.85345">
        <ele>2541</ele>
        <time>2022-07-21T09:40:07Z</time>
      </trkpt>
      <trkpt lat="46.01129" lon="6.85352">
        <ele>2539</ele>
        <time>2022-07-21T09:40:14Z</time>
      </trkpt>
      <trkpt lat="46.01119" lon="6.85371">
        <ele>2536</ele>
        <time>2022-07-21T09:40:28Z</time>
      </trkpt>
      <trkpt lat="46.01118" lon="6.85377">
        <ele>2535</ele>
        <time>2022-07-21T09:40:31Z</time>
      </trkpt>
      <trkpt lat="46.01115" lon="6.85382">
        <ele>2534</ele>
        <time>2022-07-21T09:40:35Z</time>
      </trkpt>
      <trkpt lat="46.01104" lon="6.85396">
        <ele>2532</ele>
        <time>2022-07-21T09:40:45Z</time>
      </trkpt>
      <trkpt lat="46.01102" lon="6.85402">
        <ele>2531</ele>
        <time>2022-07-21T09:40:49Z</time>
      </trkpt>
      <trkpt lat="46.01101" lon="6.85408">
        <ele>2531</ele>
        <time>2022-07-21T09:40:52Z</time>
      </trkpt>
      <trkpt lat="46.01096" lon="6.8542">
        <ele>2529</ele>
        <time>2022-07-21T09:40:58Z</time>
      </trkpt>
      <trkpt lat="46.01095" lon="6.85425">
        <ele>2528</ele>
        <time>2022-07-21T09:41:02Z</time>
      </trkpt>
      <trkpt lat="46.01091" lon="6.85439">
        <ele>2528</ele>
        <time>2022-07-21T09:41:09Z</time>
      </trkpt>
      <trkpt lat="46.01091" lon="6.85446">
        <ele>2528</ele>
        <time>2022-07-21T09:41:13Z</time>
      </trkpt>
      <trkpt lat="46.01086" lon="6.85459">
        <ele>2527</ele>
        <time>2022-07-21T09:41:22Z</time>
      </trkpt>
      <trkpt lat="46.01084" lon="6.85471">
        <ele>2527</ele>
        <time>2022-07-21T09:41:30Z</time>
      </trkpt>
      <trkpt lat="46.01084" lon="6.85478">
        <ele>2527</ele>
        <time>2022-07-21T09:41:34Z</time>
      </trkpt>
      <trkpt lat="46.01085" lon="6.85501">
        <ele>2524</ele>
        <time>2022-07-21T09:41:47Z</time>
      </trkpt>
      <trkpt lat="46.01086" lon="6.85508">
        <ele>2523</ele>
        <time>2022-07-21T09:41:51Z</time>
      </trkpt>
      <trkpt lat="46.01083" lon="6.85537">
        <ele>2520</ele>
        <time>2022-07-21T09:42:07Z</time>
      </trkpt>
      <trkpt lat="46.0108" lon="6.8555">
        <ele>2520</ele>
        <time>2022-07-21T09:42:14Z</time>
      </trkpt>
      <trkpt lat="46.0108" lon="6.85557">
        <ele>2520</ele>
        <time>2022-07-21T09:42:18Z</time>
      </trkpt>
      <trkpt lat="46.0108" lon="6.85564">
        <ele>2520</ele>
        <time>2022-07-21T09:42:22Z</time>
      </trkpt>
      <trkpt lat="46.01077" lon="6.8557">
        <ele>2520</ele>
        <time>2022-07-21T09:42:26Z</time>
      </trkpt>
      <trkpt lat="46.01073" lon="6.85574">
        <ele>2519</ele>
        <time>2022-07-21T09:42:30Z</time>
      </trkpt>
      <trkpt lat="46.01072" lon="6.85587">
        <ele>2516</ele>
        <time>2022-07-21T09:42:39Z</time>
      </trkpt>
      <trkpt lat="46.01064" lon="6.85595">
        <ele>2512</ele>
        <time>2022-07-21T09:42:50Z</time>
      </trkpt>
      <trkpt lat="46.01061" lon="6.85601">
        <ele>2511</ele>
        <time>2022-07-21T09:42:54Z</time>
      </trkpt>
      <trkpt lat="46.01056" lon="6.85603">
        <ele>2509</ele>
        <time>2022-07-21T09:42:58Z</time>
      </trkpt>
      <trkpt lat="46.01051" lon="6.85602">
        <ele>2509</ele>
        <time>2022-07-21T09:43:02Z</time>
      </trkpt>
      <trkpt lat="46.01047" lon="6.85602">
        <ele>2509</ele>
        <time>2022-07-21T09:43:06Z</time>
      </trkpt>
      <trkpt lat="46.01033" lon="6.85602">
        <ele>2509</ele>
        <time>2022-07-21T09:43:17Z</time>
      </trkpt>
      <trkpt lat="46.01027" lon="6.85607">
        <ele>2507</ele>
        <time>2022-07-21T09:43:24Z</time>
      </trkpt>
      <trkpt lat="46.01022" lon="6.85608">
        <ele>2506</ele>
        <time>2022-07-21T09:43:29Z</time>
      </trkpt>
      <trkpt lat="46.01018" lon="6.85607">
        <ele>2505</ele>
        <time>2022-07-21T09:43:33Z</time>
      </trkpt>
      <trkpt lat="46.01014" lon="6.85603">
        <ele>2505</ele>
        <time>2022-07-21T09:43:37Z</time>
      </trkpt>
      <trkpt lat="46.01009" lon="6.85603">
        <ele>2504</ele>
        <time>2022-07-21T09:43:41Z</time>
      </trkpt>
      <trkpt lat="46.01" lon="6.85607">
        <ele>2502</ele>
        <time>2022-07-21T09:43:51Z</time>
      </trkpt>
      <trkpt lat="46.00995" lon="6.85607">
        <ele>2502</ele>
        <time>2022-07-21T09:43:55Z</time>
      </trkpt>
      <trkpt lat="46.0099" lon="6.8561">
        <ele>2501</ele>
        <time>2022-07-21T09:44:00Z</time>
      </trkpt>
      <trkpt lat="46.00986" lon="6.8561">
        <ele>2500</ele>
        <time>2022-07-21T09:44:05Z</time>
      </trkpt>
      <trkpt lat="46.00967" lon="6.85606">
        <ele>2496</ele>
        <time>2022-07-21T09:44:22Z</time>
      </trkpt>
      <trkpt lat="46.00963" lon="6.85605">
        <ele>2496</ele>
        <time>2022-07-21T09:44:25Z</time>
      </trkpt>
      <trkpt lat="46.00955" lon="6.85607">
        <ele>2496</ele>
        <time>2022-07-21T09:44:32Z</time>
      </trkpt>
      <trkpt lat="46.00951" lon="6.85609">
        <ele>2495</ele>
        <time>2022-07-21T09:44:36Z</time>
      </trkpt>
      <trkpt lat="46.00944" lon="6.85611">
        <ele>2495</ele>
        <time>2022-07-21T09:44:45Z</time>
      </trkpt>
      <trkpt lat="46.00937" lon="6.85618">
        <ele>2494</ele>
        <time>2022-07-21T09:44:53Z</time>
      </trkpt>
      <trkpt lat="46.00923" lon="6.85618">
        <ele>2496</ele>
        <time>2022-07-21T09:45:12Z</time>
      </trkpt>
      <trkpt lat="46.00919" lon="6.85621">
        <ele>2495</ele>
        <time>2022-07-21T09:45:16Z</time>
      </trkpt>
      <trkpt lat="46.00914" lon="6.85623">
        <ele>2494</ele>
        <time>2022-07-21T09:45:20Z</time>
      </trkpt>
      <trkpt lat="46.0091" lon="6.85626">
        <ele>2494</ele>
        <time>2022-07-21T09:45:24Z</time>
      </trkpt>
      <trkpt lat="46.00901" lon="6.85633">
        <ele>2494</ele>
        <time>2022-07-21T09:45:35Z</time>
      </trkpt>
      <trkpt lat="46.00897" lon="6.85636">
        <ele>2494</ele>
        <time>2022-07-21T09:45:39Z</time>
      </trkpt>
      <trkpt lat="46.00892" lon="6.85633">
        <ele>2494</ele>
        <time>2022-07-21T09:45:43Z</time>
      </trkpt>
      <trkpt lat="46.00888" lon="6.85632">
        <ele>2494</ele>
        <time>2022-07-21T09:45:48Z</time>
      </trkpt>
      <trkpt lat="46.00882" lon="6.85632">
        <ele>2494</ele>
        <time>2022-07-21T09:45:53Z</time>
      </trkpt>
      <trkpt lat="46.00879" lon="6.85626">
        <ele>2495</ele>
        <time>2022-07-21T09:46:01Z</time>
      </trkpt>
      <trkpt lat="46.00875" lon="6.85623">
        <ele>2497</ele>
        <time>2022-07-21T09:46:12Z</time>
      </trkpt>
      <trkpt lat="46.00867" lon="6.85621">
        <ele>2498</ele>
        <time>2022-07-21T09:46:22Z</time>
      </trkpt>
      <trkpt lat="46.00857" lon="6.85616">
        <ele>2500</ele>
        <time>2022-07-21T09:46:33Z</time>
      </trkpt>
      <trkpt lat="46.00853" lon="6.85614">
        <ele>2499</ele>
        <time>2022-07-21T09:46:36Z</time>
      </trkpt>
      <trkpt lat="46.00846" lon="6.8561">
        <ele>2498</ele>
        <time>2022-07-21T09:46:44Z</time>
      </trkpt>
      <trkpt lat="46.00842" lon="6.85605">
        <ele>2498</ele>
        <time>2022-07-21T09:46:49Z</time>
      </trkpt>
      <trkpt lat="46.00833" lon="6.856">
        <ele>2501</ele>
        <time>2022-07-21T09:47:08Z</time>
      </trkpt>
      <trkpt lat="46.0082" lon="6.85599">
        <ele>2503</ele>
        <time>2022-07-21T09:47:25Z</time>
      </trkpt>
      <trkpt lat="46.00816" lon="6.85596">
        <ele>2504</ele>
        <time>2022-07-21T09:47:30Z</time>
      </trkpt>
      <trkpt lat="46.00808" lon="6.85585">
        <ele>2506</ele>
        <time>2022-07-21T09:47:50Z</time>
      </trkpt>
      <trkpt lat="46.00802" lon="6.85581">
        <ele>2507</ele>
        <time>2022-07-21T09:48:00Z</time>
      </trkpt>
      <trkpt lat="46.008" lon="6.85574">
        <ele>2509</ele>
        <time>2022-07-21T09:48:09Z</time>
      </trkpt>
      <trkpt lat="46.00786" lon="6.85567">
        <ele>2510</ele>
        <time>2022-07-21T09:48:23Z</time>
      </trkpt>
      <trkpt lat="46.00785" lon="6.85561">
        <ele>2510</ele>
        <time>2022-07-21T09:48:31Z</time>
      </trkpt>
      <trkpt lat="46.00785" lon="6.85554">
        <ele>2512</ele>
        <time>2022-07-21T09:48:46Z</time>
      </trkpt>
      <trkpt lat="46.00772" lon="6.85527">
        <ele>2518</ele>
        <time>2022-07-21T09:49:22Z</time>
      </trkpt>
      <trkpt lat="46.00766" lon="6.85524">
        <ele>2519</ele>
        <time>2022-07-21T09:49:32Z</time>
      </trkpt>
      <trkpt lat="46.00759" lon="6.85521">
        <ele>2518</ele>
        <time>2022-07-21T09:49:36Z</time>
      </trkpt>
      <trkpt lat="46.00754" lon="6.85519">
        <ele>2521</ele>
        <time>2022-07-21T09:49:43Z</time>
      </trkpt>
      <trkpt lat="46.00749" lon="6.85519">
        <ele>2520</ele>
        <time>2022-07-21T09:49:48Z</time>
      </trkpt>
      <trkpt lat="46.00745" lon="6.8552">
        <ele>2522</ele>
        <time>2022-07-21T09:49:56Z</time>
      </trkpt>
      <trkpt lat="46.00739" lon="6.85525">
        <ele>2523</ele>
        <time>2022-07-21T09:50:07Z</time>
      </trkpt>
      <trkpt lat="46.00732" lon="6.85537">
        <ele>2525</ele>
        <time>2022-07-21T09:50:27Z</time>
      </trkpt>
      <trkpt lat="46.00727" lon="6.85535">
        <ele>2527</ele>
        <time>2022-07-21T09:50:42Z</time>
      </trkpt>
      <trkpt lat="46.00722" lon="6.85528">
        <ele>2528</ele>
        <time>2022-07-21T09:50:52Z</time>
      </trkpt>
      <trkpt lat="46.00719" lon="6.85521">
        <ele>2525</ele>
        <time>2022-07-21T09:55:50Z</time>
      </trkpt>
      <trkpt lat="46.00711" lon="6.85511">
        <ele>2521</ele>
        <time>2022-07-21T09:55:59Z</time>
      </trkpt>
      <trkpt lat="46.00704" lon="6.85489">
        <ele>2514</ele>
        <time>2022-07-21T09:56:15Z</time>
      </trkpt>
      <trkpt lat="46.00693" lon="6.85468">
        <ele>2508</ele>
        <time>2022-07-21T09:56:33Z</time>
      </trkpt>
      <trkpt lat="46.00689" lon="6.85465">
        <ele>2506</ele>
        <time>2022-07-21T09:56:37Z</time>
      </trkpt>
      <trkpt lat="46.00681" lon="6.85448">
        <ele>2501</ele>
        <time>2022-07-21T09:56:49Z</time>
      </trkpt>
      <trkpt lat="46.0068" lon="6.85442">
        <ele>2499</ele>
        <time>2022-07-21T09:56:54Z</time>
      </trkpt>
      <trkpt lat="46.00677" lon="6.85437">
        <ele>2497</ele>
        <time>2022-07-21T09:56:58Z</time>
      </trkpt>
      <trkpt lat="46.00673" lon="6.85435">
        <ele>2495</ele>
        <time>2022-07-21T09:57:02Z</time>
      </trkpt>
      <trkpt lat="46.00671" lon="6.85429">
        <ele>2494</ele>
        <time>2022-07-21T09:57:06Z</time>
      </trkpt>
      <trkpt lat="46.00671" lon="6.85422">
        <ele>2492</ele>
        <time>2022-07-21T09:57:10Z</time>
      </trkpt>
      <trkpt lat="46.00668" lon="6.85404">
        <ele>2487</ele>
        <time>2022-07-21T09:57:28Z</time>
      </trkpt>
      <trkpt lat="46.00665" lon="6.85399">
        <ele>2484</ele>
        <time>2022-07-21T09:57:33Z</time>
      </trkpt>
      <trkpt lat="46.00669" lon="6.85389">
        <ele>2481</ele>
        <time>2022-07-21T09:57:44Z</time>
      </trkpt>
      <trkpt lat="46.00674" lon="6.85385">
        <ele>2480</ele>
        <time>2022-07-21T09:57:48Z</time>
      </trkpt>
      <trkpt lat="46.00672" lon="6.85378">
        <ele>2478</ele>
        <time>2022-07-21T09:57:52Z</time>
      </trkpt>
      <trkpt lat="46.00676" lon="6.8537">
        <ele>2476</ele>
        <time>2022-07-21T09:57:59Z</time>
      </trkpt>
      <trkpt lat="46.00678" lon="6.85364">
        <ele>2475</ele>
        <time>2022-07-21T09:58:03Z</time>
      </trkpt>
      <trkpt lat="46.00681" lon="6.85358">
        <ele>2474</ele>
        <time>2022-07-21T09:58:07Z</time>
      </trkpt>
      <trkpt lat="46.00681" lon="6.85351">
        <ele>2472</ele>
        <time>2022-07-21T09:58:12Z</time>
      </trkpt>
      <trkpt lat="46.00679" lon="6.85344">
        <ele>2470</ele>
        <time>2022-07-21T09:58:17Z</time>
      </trkpt>
      <trkpt lat="46.00677" lon="6.85334">
        <ele>2467</ele>
        <time>2022-07-21T09:58:25Z</time>
      </trkpt>
      <trkpt lat="46.00679" lon="6.85326">
        <ele>2466</ele>
        <time>2022-07-21T09:58:30Z</time>
      </trkpt>
      <trkpt lat="46.00678" lon="6.85314">
        <ele>2463</ele>
        <time>2022-07-21T09:58:38Z</time>
      </trkpt>
      <trkpt lat="46.00677" lon="6.85304">
        <ele>2461</ele>
        <time>2022-07-21T09:58:46Z</time>
      </trkpt>
      <trkpt lat="46.00676" lon="6.8529">
        <ele>2458</ele>
        <time>2022-07-21T09:58:55Z</time>
      </trkpt>
      <trkpt lat="46.00676" lon="6.85284">
        <ele>2456</ele>
        <time>2022-07-21T09:59:00Z</time>
      </trkpt>
      <trkpt lat="46.00672" lon="6.85279">
        <ele>2454</ele>
        <time>2022-07-21T09:59:07Z</time>
      </trkpt>
      <trkpt lat="46.00672" lon="6.85271">
        <ele>2452</ele>
        <time>2022-07-21T09:59:13Z</time>
      </trkpt>
      <trkpt lat="46.00669" lon="6.85264">
        <ele>2449</ele>
        <time>2022-07-21T09:59:22Z</time>
      </trkpt>
      <trkpt lat="46.00664" lon="6.85244">
        <ele>2443</ele>
        <time>2022-07-21T09:59:38Z</time>
      </trkpt>
      <trkpt lat="46.0066" lon="6.85241">
        <ele>2440</ele>
        <time>2022-07-21T09:59:47Z</time>
      </trkpt>
      <trkpt lat="46.00663" lon="6.85226">
        <ele>2437</ele>
        <time>2022-07-21T09:59:56Z</time>
      </trkpt>
      <trkpt lat="46.00662" lon="6.8522">
        <ele>2436</ele>
        <time>2022-07-21T10:00:01Z</time>
      </trkpt>
      <trkpt lat="46.0066" lon="6.85209">
        <ele>2432</ele>
        <time>2022-07-21T10:00:10Z</time>
      </trkpt>
      <trkpt lat="46.00655" lon="6.85206">
        <ele>2430</ele>
        <time>2022-07-21T10:00:17Z</time>
      </trkpt>
      <trkpt lat="46.00656" lon="6.85198">
        <ele>2428</ele>
        <time>2022-07-21T10:00:23Z</time>
      </trkpt>
      <trkpt lat="46.00653" lon="6.85193">
        <ele>2426</ele>
        <time>2022-07-21T10:00:27Z</time>
      </trkpt>
      <trkpt lat="46.00648" lon="6.85179">
        <ele>2422</ele>
        <time>2022-07-21T10:00:39Z</time>
      </trkpt>
      <trkpt lat="46.0065" lon="6.85157">
        <ele>2417</ele>
        <time>2022-07-21T10:00:52Z</time>
      </trkpt>
      <trkpt lat="46.00649" lon="6.85145">
        <ele>2414</ele>
        <time>2022-07-21T10:01:01Z</time>
      </trkpt>
      <trkpt lat="46.00649" lon="6.85135">
        <ele>2412</ele>
        <time>2022-07-21T10:01:08Z</time>
      </trkpt>
      <trkpt lat="46.00644" lon="6.85136">
        <ele>2410</ele>
        <time>2022-07-21T10:01:12Z</time>
      </trkpt>
      <trkpt lat="46.0064" lon="6.8513">
        <ele>2407</ele>
        <time>2022-07-21T10:01:24Z</time>
      </trkpt>
      <trkpt lat="46.00639" lon="6.85122">
        <ele>2405</ele>
        <time>2022-07-21T10:01:32Z</time>
      </trkpt>
      <trkpt lat="46.00637" lon="6.85116">
        <ele>2403</ele>
        <time>2022-07-21T10:01:38Z</time>
      </trkpt>
      <trkpt lat="46.00633" lon="6.85111">
        <ele>2400</ele>
        <time>2022-07-21T10:01:48Z</time>
      </trkpt>
      <trkpt lat="46.00635" lon="6.85104">
        <ele>2399</ele>
        <time>2022-07-21T10:01:52Z</time>
      </trkpt>
      <trkpt lat="46.00631" lon="6.85096">
        <ele>2396</ele>
        <time>2022-07-21T10:01:59Z</time>
      </trkpt>
      <trkpt lat="46.00631" lon="6.85087">
        <ele>2393</ele>
        <time>2022-07-21T10:02:07Z</time>
      </trkpt>
      <trkpt lat="46.00625" lon="6.8508">
        <ele>2390</ele>
        <time>2022-07-21T10:02:17Z</time>
      </trkpt>
      <trkpt lat="46.00628" lon="6.85075">
        <ele>2389</ele>
        <time>2022-07-21T10:02:21Z</time>
      </trkpt>
      <trkpt lat="46.0063" lon="6.85052">
        <ele>2384</ele>
        <time>2022-07-21T10:02:39Z</time>
      </trkpt>
      <trkpt lat="46.00633" lon="6.85046">
        <ele>2383</ele>
        <time>2022-07-21T10:02:43Z</time>
      </trkpt>
      <trkpt lat="46.00635" lon="6.85037">
        <ele>2381</ele>
        <time>2022-07-21T10:02:49Z</time>
      </trkpt>
      <trkpt lat="46.00638" lon="6.85033">
        <ele>2380</ele>
        <time>2022-07-21T10:02:54Z</time>
      </trkpt>
      <trkpt lat="46.00637" lon="6.85026">
        <ele>2379</ele>
        <time>2022-07-21T10:03:01Z</time>
      </trkpt>
      <trkpt lat="46.00638" lon="6.8502">
        <ele>2377</ele>
        <time>2022-07-21T10:03:06Z</time>
      </trkpt>
      <trkpt lat="46.00637" lon="6.85013">
        <ele>2377</ele>
        <time>2022-07-21T10:03:10Z</time>
      </trkpt>
      <trkpt lat="46.00631" lon="6.85">
        <ele>2375</ele>
        <time>2022-07-21T10:03:20Z</time>
      </trkpt>
      <trkpt lat="46.00631" lon="6.84987">
        <ele>2374</ele>
        <time>2022-07-21T10:03:28Z</time>
      </trkpt>
      <trkpt lat="46.00629" lon="6.84981">
        <ele>2373</ele>
        <time>2022-07-21T10:03:32Z</time>
      </trkpt>
      <trkpt lat="46.00632" lon="6.84961">
        <ele>2370</ele>
        <time>2022-07-21T10:03:45Z</time>
      </trkpt>
      <trkpt lat="46.00637" lon="6.84939">
        <ele>2366</ele>
        <time>2022-07-21T10:04:00Z</time>
      </trkpt>
      <trkpt lat="46.00638" lon="6.84933">
        <ele>2366</ele>
        <time>2022-07-21T10:04:05Z</time>
      </trkpt>
      <trkpt lat="46.00637" lon="6.84926">
        <ele>2366</ele>
        <time>2022-07-21T10:04:09Z</time>
      </trkpt>
      <trkpt lat="46.00639" lon="6.84919">
        <ele>2365</ele>
        <time>2022-07-21T10:04:13Z</time>
      </trkpt>
      <trkpt lat="46.00633" lon="6.84872">
        <ele>2359</ele>
        <time>2022-07-21T10:04:51Z</time>
      </trkpt>
      <trkpt lat="46.00633" lon="6.84865">
        <ele>2358</ele>
        <time>2022-07-21T10:04:55Z</time>
      </trkpt>
      <trkpt lat="46.0063" lon="6.84851">
        <ele>2357</ele>
        <time>2022-07-21T10:05:04Z</time>
      </trkpt>
      <trkpt lat="46.00627" lon="6.84845">
        <ele>2355</ele>
        <time>2022-07-21T10:05:11Z</time>
      </trkpt>
      <trkpt lat="46.00625" lon="6.84837">
        <ele>2354</ele>
        <time>2022-07-21T10:05:18Z</time>
      </trkpt>
      <trkpt lat="46.00622" lon="6.84831">
        <ele>2352</ele>
        <time>2022-07-21T10:05:24Z</time>
      </trkpt>
      <trkpt lat="46.00627" lon="6.84824">
        <ele>2351</ele>
        <time>2022-07-21T10:05:30Z</time>
      </trkpt>
      <trkpt lat="46.0063" lon="6.84818">
        <ele>2350</ele>
        <time>2022-07-21T10:05:35Z</time>
      </trkpt>
      <trkpt lat="46.00631" lon="6.84811">
        <ele>2349</ele>
        <time>2022-07-21T10:05:39Z</time>
      </trkpt>
      <trkpt lat="46.00633" lon="6.84806">
        <ele>2349</ele>
        <time>2022-07-21T10:05:43Z</time>
      </trkpt>
      <trkpt lat="46.00635" lon="6.848">
        <ele>2349</ele>
        <time>2022-07-21T10:05:47Z</time>
      </trkpt>
      <trkpt lat="46.00634" lon="6.84793">
        <ele>2348</ele>
        <time>2022-07-21T10:05:51Z</time>
      </trkpt>
      <trkpt lat="46.00636" lon="6.84786">
        <ele>2347</ele>
        <time>2022-07-21T10:05:55Z</time>
      </trkpt>
      <trkpt lat="46.00634" lon="6.84778">
        <ele>2346</ele>
        <time>2022-07-21T10:06:00Z</time>
      </trkpt>
      <trkpt lat="46.00635" lon="6.84772">
        <ele>2345</ele>
        <time>2022-07-21T10:06:04Z</time>
      </trkpt>
      <trkpt lat="46.00634" lon="6.84759">
        <ele>2343</ele>
        <time>2022-07-21T10:06:13Z</time>
      </trkpt>
      <trkpt lat="46.00632" lon="6.84753">
        <ele>2343</ele>
        <time>2022-07-21T10:06:17Z</time>
      </trkpt>
      <trkpt lat="46.00633" lon="6.8474">
        <ele>2342</ele>
        <time>2022-07-21T10:06:27Z</time>
      </trkpt>
      <trkpt lat="46.00632" lon="6.84733">
        <ele>2341</ele>
        <time>2022-07-21T10:06:31Z</time>
      </trkpt>
      <trkpt lat="46.00633" lon="6.84726">
        <ele>2340</ele>
        <time>2022-07-21T10:06:36Z</time>
      </trkpt>
      <trkpt lat="46.00637" lon="6.84715">
        <ele>2339</ele>
        <time>2022-07-21T10:06:45Z</time>
      </trkpt>
      <trkpt lat="46.00639" lon="6.8469">
        <ele>2333</ele>
        <time>2022-07-21T10:07:05Z</time>
      </trkpt>
      <trkpt lat="46.00637" lon="6.84679">
        <ele>2332</ele>
        <time>2022-07-21T10:07:14Z</time>
      </trkpt>
      <trkpt lat="46.00635" lon="6.84665">
        <ele>2326</ele>
        <time>2022-07-21T10:07:24Z</time>
      </trkpt>
      <trkpt lat="46.00638" lon="6.84661">
        <ele>2325</ele>
        <time>2022-07-21T10:07:28Z</time>
      </trkpt>
      <trkpt lat="46.00639" lon="6.84652">
        <ele>2323</ele>
        <time>2022-07-21T10:07:35Z</time>
      </trkpt>
      <trkpt lat="46.00635" lon="6.84615">
        <ele>2314</ele>
        <time>2022-07-21T10:08:00Z</time>
      </trkpt>
      <trkpt lat="46.00636" lon="6.84608">
        <ele>2312</ele>
        <time>2022-07-21T10:08:04Z</time>
      </trkpt>
      <trkpt lat="46.00638" lon="6.84601">
        <ele>2312</ele>
        <time>2022-07-21T10:08:12Z</time>
      </trkpt>
      <trkpt lat="46.00646" lon="6.84605">
        <ele>2311</ele>
        <time>2022-07-21T10:08:42Z</time>
      </trkpt>
      <trkpt lat="46.0065" lon="6.84605">
        <ele>2311</ele>
        <time>2022-07-21T10:08:45Z</time>
      </trkpt>
      <trkpt lat="46.00655" lon="6.84601">
        <ele>2311</ele>
        <time>2022-07-21T10:08:52Z</time>
      </trkpt>
      <trkpt lat="46.00655" lon="6.84592">
        <ele>2310</ele>
        <time>2022-07-21T10:08:59Z</time>
      </trkpt>
      <trkpt lat="46.00658" lon="6.84585">
        <ele>2308</ele>
        <time>2022-07-21T10:09:05Z</time>
      </trkpt>
      <trkpt lat="46.00662" lon="6.84581">
        <ele>2307</ele>
        <time>2022-07-21T10:09:09Z</time>
      </trkpt>
      <trkpt lat="46.00677" lon="6.84575">
        <ele>2304</ele>
        <time>2022-07-21T10:09:23Z</time>
      </trkpt>
      <trkpt lat="46.00691" lon="6.84572">
        <ele>2302</ele>
        <time>2022-07-21T10:09:33Z</time>
      </trkpt>
      <trkpt lat="46.007" lon="6.84566">
        <ele>2301</ele>
        <time>2022-07-21T10:09:42Z</time>
      </trkpt>
      <trkpt lat="46.00706" lon="6.84561">
        <ele>2299</ele>
        <time>2022-07-21T10:10:00Z</time>
      </trkpt>
      <trkpt lat="46.00711" lon="6.84559">
        <ele>2298</ele>
        <time>2022-07-21T10:10:04Z</time>
      </trkpt>
      <trkpt lat="46.00715" lon="6.84555">
        <ele>2297</ele>
        <time>2022-07-21T10:10:08Z</time>
      </trkpt>
      <trkpt lat="46.00719" lon="6.8455">
        <ele>2294</ele>
        <time>2022-07-21T10:10:20Z</time>
      </trkpt>
      <trkpt lat="46.00719" lon="6.84538">
        <ele>2292</ele>
        <time>2022-07-21T10:10:29Z</time>
      </trkpt>
      <trkpt lat="46.00715" lon="6.84533">
        <ele>2290</ele>
        <time>2022-07-21T10:10:32Z</time>
      </trkpt>
      <trkpt lat="46.00711" lon="6.8453">
        <ele>2289</ele>
        <time>2022-07-21T10:10:35Z</time>
      </trkpt>
      <trkpt lat="46.00712" lon="6.84523">
        <ele>2287</ele>
        <time>2022-07-21T10:10:42Z</time>
      </trkpt>
      <trkpt lat="46.00708" lon="6.8452">
        <ele>2286</ele>
        <time>2022-07-21T10:10:47Z</time>
      </trkpt>
      <trkpt lat="46.00707" lon="6.84513">
        <ele>2285</ele>
        <time>2022-07-21T10:10:54Z</time>
      </trkpt>
      <trkpt lat="46.00712" lon="6.84503">
        <ele>2282</ele>
        <time>2022-07-21T10:11:04Z</time>
      </trkpt>
      <trkpt lat="46.00715" lon="6.84495">
        <ele>2280</ele>
        <time>2022-07-21T10:11:12Z</time>
      </trkpt>
      <trkpt lat="46.00712" lon="6.8449">
        <ele>2277</ele>
        <time>2022-07-21T10:11:17Z</time>
      </trkpt>
      <trkpt lat="46.00706" lon="6.84486">
        <ele>2275</ele>
        <time>2022-07-21T10:11:24Z</time>
      </trkpt>
      <trkpt lat="46.00712" lon="6.84477">
        <ele>2271</ele>
        <time>2022-07-21T10:11:37Z</time>
      </trkpt>
      <trkpt lat="46.00708" lon="6.84473">
        <ele>2269</ele>
        <time>2022-07-21T10:11:41Z</time>
      </trkpt>
      <trkpt lat="46.00716" lon="6.84465">
        <ele>2265</ele>
        <time>2022-07-21T10:11:55Z</time>
      </trkpt>
      <trkpt lat="46.00718" lon="6.84458">
        <ele>2263</ele>
        <time>2022-07-21T10:12:00Z</time>
      </trkpt>
      <trkpt lat="46.00707" lon="6.84448">
        <ele>2258</ele>
        <time>2022-07-21T10:12:14Z</time>
      </trkpt>
      <trkpt lat="46.00713" lon="6.84442">
        <ele>2256</ele>
        <time>2022-07-21T10:12:22Z</time>
      </trkpt>
      <trkpt lat="46.00708" lon="6.84434">
        <ele>2253</ele>
        <time>2022-07-21T10:12:34Z</time>
      </trkpt>
      <trkpt lat="46.00703" lon="6.84434">
        <ele>2252</ele>
        <time>2022-07-21T10:12:38Z</time>
      </trkpt>
      <trkpt lat="46.00699" lon="6.84428">
        <ele>2251</ele>
        <time>2022-07-21T10:12:45Z</time>
      </trkpt>
      <trkpt lat="46.00705" lon="6.84425">
        <ele>2248</ele>
        <time>2022-07-21T10:12:55Z</time>
      </trkpt>
      <trkpt lat="46.0071" lon="6.84425">
        <ele>2247</ele>
        <time>2022-07-21T10:12:59Z</time>
      </trkpt>
      <trkpt lat="46.00717" lon="6.84417">
        <ele>2245</ele>
        <time>2022-07-21T10:13:10Z</time>
      </trkpt>
      <trkpt lat="46.00721" lon="6.8441">
        <ele>2242</ele>
        <time>2022-07-21T10:13:20Z</time>
      </trkpt>
      <trkpt lat="46.00722" lon="6.84402">
        <ele>2239</ele>
        <time>2022-07-21T10:13:30Z</time>
      </trkpt>
      <trkpt lat="46.00725" lon="6.84397">
        <ele>2238</ele>
        <time>2022-07-21T10:13:35Z</time>
      </trkpt>
      <trkpt lat="46.00731" lon="6.84392">
        <ele>2236</ele>
        <time>2022-07-21T10:13:43Z</time>
      </trkpt>
      <trkpt lat="46.00725" lon="6.84385">
        <ele>2233</ele>
        <time>2022-07-21T10:13:53Z</time>
      </trkpt>
      <trkpt lat="46.00718" lon="6.8438">
        <ele>2231</ele>
        <time>2022-07-21T10:14:02Z</time>
      </trkpt>
      <trkpt lat="46.00707" lon="6.84378">
        <ele>2228</ele>
        <time>2022-07-21T10:14:16Z</time>
      </trkpt>
      <trkpt lat="46.00701" lon="6.84373">
        <ele>2226</ele>
        <time>2022-07-21T10:14:24Z</time>
      </trkpt>
      <trkpt lat="46.00697" lon="6.84371">
        <ele>2225</ele>
        <time>2022-07-21T10:14:27Z</time>
      </trkpt>
      <trkpt lat="46.00691" lon="6.84367">
        <ele>2223</ele>
        <time>2022-07-21T10:14:35Z</time>
      </trkpt>
      <trkpt lat="46.00687" lon="6.84366">
        <ele>2222</ele>
        <time>2022-07-21T10:14:38Z</time>
      </trkpt>
      <trkpt lat="46.00675" lon="6.84349">
        <ele>2217</ele>
        <time>2022-07-21T10:14:59Z</time>
      </trkpt>
      <trkpt lat="46.0067" lon="6.84344">
        <ele>2213</ele>
        <time>2022-07-21T10:15:09Z</time>
      </trkpt>
      <trkpt lat="46.00664" lon="6.84342">
        <ele>2210</ele>
        <time>2022-07-21T10:15:16Z</time>
      </trkpt>
      <trkpt lat="46.00658" lon="6.84336">
        <ele>2206</ele>
        <time>2022-07-21T10:15:28Z</time>
      </trkpt>
      <trkpt lat="46.00649" lon="6.8434">
        <ele>2203</ele>
        <time>2022-07-21T10:15:39Z</time>
      </trkpt>
      <trkpt lat="46.00648" lon="6.84334">
        <ele>2200</ele>
        <time>2022-07-21T10:15:49Z</time>
      </trkpt>
      <trkpt lat="46.00651" lon="6.84329">
        <ele>2199</ele>
        <time>2022-07-21T10:15:54Z</time>
      </trkpt>
      <trkpt lat="46.00646" lon="6.84324">
        <ele>2197</ele>
        <time>2022-07-21T10:15:58Z</time>
      </trkpt>
      <trkpt lat="46.00655" lon="6.84298">
        <ele>2193</ele>
        <time>2022-07-21T10:16:17Z</time>
      </trkpt>
      <trkpt lat="46.00659" lon="6.84294">
        <ele>2192</ele>
        <time>2022-07-21T10:16:21Z</time>
      </trkpt>
      <trkpt lat="46.00664" lon="6.84293">
        <ele>2191</ele>
        <time>2022-07-21T10:16:27Z</time>
      </trkpt>
      <trkpt lat="46.00687" lon="6.84269">
        <ele>2182</ele>
        <time>2022-07-21T10:16:56Z</time>
      </trkpt>
      <trkpt lat="46.00692" lon="6.84257">
        <ele>2180</ele>
        <time>2022-07-21T10:17:05Z</time>
      </trkpt>
      <trkpt lat="46.00692" lon="6.84244">
        <ele>2178</ele>
        <time>2022-07-21T10:17:13Z</time>
      </trkpt>
      <trkpt lat="46.00688" lon="6.84239">
        <ele>2177</ele>
        <time>2022-07-21T10:17:17Z</time>
      </trkpt>
      <trkpt lat="46.00673" lon="6.84201">
        <ele>2171</ele>
        <time>2022-07-21T10:17:48Z</time>
      </trkpt>
      <trkpt lat="46.00669" lon="6.84189">
        <ele>2169</ele>
        <time>2022-07-21T10:17:55Z</time>
      </trkpt>
      <trkpt lat="46.00667" lon="6.84185">
        <ele>2169</ele>
        <time>2022-07-21T10:17:59Z</time>
      </trkpt>
      <trkpt lat="46.00663" lon="6.84181">
        <ele>2168</ele>
        <time>2022-07-21T10:18:03Z</time>
      </trkpt>
      <trkpt lat="46.00661" lon="6.84174">
        <ele>2167</ele>
        <time>2022-07-21T10:18:09Z</time>
      </trkpt>
      <trkpt lat="46.00657" lon="6.84169">
        <ele>2166</ele>
        <time>2022-07-21T10:18:13Z</time>
      </trkpt>
      <trkpt lat="46.00655" lon="6.84163">
        <ele>2166</ele>
        <time>2022-07-21T10:18:18Z</time>
      </trkpt>
      <trkpt lat="46.00649" lon="6.84155">
        <ele>2164</ele>
        <time>2022-07-21T10:18:27Z</time>
      </trkpt>
      <trkpt lat="46.00646" lon="6.84131">
        <ele>2159</ele>
        <time>2022-07-21T10:18:49Z</time>
      </trkpt>
      <trkpt lat="46.0064" lon="6.84126">
        <ele>2155</ele>
        <time>2022-07-21T10:18:59Z</time>
      </trkpt>
      <trkpt lat="46.00639" lon="6.84118">
        <ele>2152</ele>
        <time>2022-07-21T10:19:09Z</time>
      </trkpt>
      <trkpt lat="46.00635" lon="6.84116">
        <ele>2151</ele>
        <time>2022-07-21T10:19:13Z</time>
      </trkpt>
      <trkpt lat="46.00625" lon="6.84105">
        <ele>2147</ele>
        <time>2022-07-21T10:19:25Z</time>
      </trkpt>
      <trkpt lat="46.00621" lon="6.84103">
        <ele>2146</ele>
        <time>2022-07-21T10:19:29Z</time>
      </trkpt>
      <trkpt lat="46.00611" lon="6.84091">
        <ele>2142</ele>
        <time>2022-07-21T10:19:42Z</time>
      </trkpt>
      <trkpt lat="46.00604" lon="6.84086">
        <ele>2141</ele>
        <time>2022-07-21T10:19:50Z</time>
      </trkpt>
      <trkpt lat="46.00598" lon="6.84083">
        <ele>2139</ele>
        <time>2022-07-21T10:19:56Z</time>
      </trkpt>
      <trkpt lat="46.00594" lon="6.8408">
        <ele>2138</ele>
        <time>2022-07-21T10:20:01Z</time>
      </trkpt>
      <trkpt lat="46.0059" lon="6.84078">
        <ele>2137</ele>
        <time>2022-07-21T10:20:06Z</time>
      </trkpt>
      <trkpt lat="46.00586" lon="6.84073">
        <ele>2135</ele>
        <time>2022-07-21T10:20:11Z</time>
      </trkpt>
      <trkpt lat="46.00581" lon="6.84071">
        <ele>2135</ele>
        <time>2022-07-21T10:20:16Z</time>
      </trkpt>
      <trkpt lat="46.00578" lon="6.84067">
        <ele>2133</ele>
        <time>2022-07-21T10:20:21Z</time>
      </trkpt>
      <trkpt lat="46.00573" lon="6.8405">
        <ele>2130</ele>
        <time>2022-07-21T10:20:34Z</time>
      </trkpt>
      <trkpt lat="46.00564" lon="6.84047">
        <ele>2128</ele>
        <time>2022-07-21T10:20:42Z</time>
      </trkpt>
      <trkpt lat="46.00554" lon="6.84036">
        <ele>2125</ele>
        <time>2022-07-21T10:20:55Z</time>
      </trkpt>
      <trkpt lat="46.00541" lon="6.84029">
        <ele>2123</ele>
        <time>2022-07-21T10:21:06Z</time>
      </trkpt>
      <trkpt lat="46.00537" lon="6.84022">
        <ele>2122</ele>
        <time>2022-07-21T10:21:13Z</time>
      </trkpt>
      <trkpt lat="46.00515" lon="6.8401">
        <ele>2118</ele>
        <time>2022-07-21T10:21:33Z</time>
      </trkpt>
      <trkpt lat="46.00505" lon="6.84007">
        <ele>2117</ele>
        <time>2022-07-21T10:21:41Z</time>
      </trkpt>
      <trkpt lat="46.00487" lon="6.84014">
        <ele>2114</ele>
        <time>2022-07-21T10:21:57Z</time>
      </trkpt>
      <trkpt lat="46.00482" lon="6.84013">
        <ele>2113</ele>
        <time>2022-07-21T10:22:02Z</time>
      </trkpt>
      <trkpt lat="46.00463" lon="6.84004">
        <ele>2110</ele>
        <time>2022-07-21T10:22:20Z</time>
      </trkpt>
      <trkpt lat="46.00454" lon="6.83997">
        <ele>2108</ele>
        <time>2022-07-21T10:22:28Z</time>
      </trkpt>
      <trkpt lat="46.00449" lon="6.83995">
        <ele>2107</ele>
        <time>2022-07-21T10:22:33Z</time>
      </trkpt>
      <trkpt lat="46.00442" lon="6.83984">
        <ele>2107</ele>
        <time>2022-07-21T10:22:40Z</time>
      </trkpt>
      <trkpt lat="46.00432" lon="6.8398">
        <ele>2105</ele>
        <time>2022-07-21T10:22:49Z</time>
      </trkpt>
      <trkpt lat="46.00427" lon="6.83972">
        <ele>2104</ele>
        <time>2022-07-21T10:22:55Z</time>
      </trkpt>
      <trkpt lat="46.00423" lon="6.83959">
        <ele>2103</ele>
        <time>2022-07-21T10:23:04Z</time>
      </trkpt>
      <trkpt lat="46.00393" lon="6.83934">
        <ele>2094</ele>
        <time>2022-07-21T10:23:36Z</time>
      </trkpt>
      <trkpt lat="46.00388" lon="6.83932">
        <ele>2093</ele>
        <time>2022-07-21T10:23:41Z</time>
      </trkpt>
      <trkpt lat="46.00381" lon="6.83927">
        <ele>2091</ele>
        <time>2022-07-21T10:23:48Z</time>
      </trkpt>
      <trkpt lat="46.00358" lon="6.83917">
        <ele>2088</ele>
        <time>2022-07-21T10:24:09Z</time>
      </trkpt>
      <trkpt lat="46.00353" lon="6.83918">
        <ele>2087</ele>
        <time>2022-07-21T10:24:13Z</time>
      </trkpt>
      <trkpt lat="46.00349" lon="6.83917">
        <ele>2086</ele>
        <time>2022-07-21T10:24:17Z</time>
      </trkpt>
      <trkpt lat="46.00338" lon="6.83918">
        <ele>2082</ele>
        <time>2022-07-21T10:24:30Z</time>
      </trkpt>
      <trkpt lat="46.00333" lon="6.83925">
        <ele>2080</ele>
        <time>2022-07-21T10:24:38Z</time>
      </trkpt>
      <trkpt lat="46.00327" lon="6.83929">
        <ele>2077</ele>
        <time>2022-07-21T10:24:49Z</time>
      </trkpt>
      <trkpt lat="46.00321" lon="6.83931">
        <ele>2075</ele>
        <time>2022-07-21T10:24:57Z</time>
      </trkpt>
      <trkpt lat="46.00315" lon="6.8393">
        <ele>2072</ele>
        <time>2022-07-21T10:25:07Z</time>
      </trkpt>
      <trkpt lat="46.00311" lon="6.83926">
        <ele>2071</ele>
        <time>2022-07-21T10:25:11Z</time>
      </trkpt>
      <trkpt lat="46.00305" lon="6.83926">
        <ele>2070</ele>
        <time>2022-07-21T10:25:17Z</time>
      </trkpt>
      <trkpt lat="46.00301" lon="6.83926">
        <ele>2069</ele>
        <time>2022-07-21T10:25:21Z</time>
      </trkpt>
      <trkpt lat="46.00296" lon="6.83928">
        <ele>2068</ele>
        <time>2022-07-21T10:25:26Z</time>
      </trkpt>
      <trkpt lat="46.00291" lon="6.83926">
        <ele>2067</ele>
        <time>2022-07-21T10:25:31Z</time>
      </trkpt>
      <trkpt lat="46.00271" lon="6.83897">
        <ele>2057</ele>
        <time>2022-07-21T10:26:08Z</time>
      </trkpt>
      <trkpt lat="46.00266" lon="6.83889">
        <ele>2054</ele>
        <time>2022-07-21T10:26:18Z</time>
      </trkpt>
      <trkpt lat="46.00264" lon="6.83883">
        <ele>2052</ele>
        <time>2022-07-21T10:26:23Z</time>
      </trkpt>
      <trkpt lat="46.00258" lon="6.83875">
        <ele>2050</ele>
        <time>2022-07-21T10:26:31Z</time>
      </trkpt>
      <trkpt lat="46.00253" lon="6.83862">
        <ele>2049</ele>
        <time>2022-07-21T10:26:40Z</time>
      </trkpt>
      <trkpt lat="46.0025" lon="6.83844">
        <ele>2046</ele>
        <time>2022-07-21T10:26:53Z</time>
      </trkpt>
      <trkpt lat="46.00241" lon="6.83822">
        <ele>2040</ele>
        <time>2022-07-21T10:27:14Z</time>
      </trkpt>
      <trkpt lat="46.00237" lon="6.83819">
        <ele>2039</ele>
        <time>2022-07-21T10:27:18Z</time>
      </trkpt>
      <trkpt lat="46.00232" lon="6.83818">
        <ele>2038</ele>
        <time>2022-07-21T10:27:23Z</time>
      </trkpt>
      <trkpt lat="46.00229" lon="6.83814">
        <ele>2038</ele>
        <time>2022-07-21T10:27:27Z</time>
      </trkpt>
      <trkpt lat="46.00225" lon="6.83806">
        <ele>2036</ele>
        <time>2022-07-21T10:27:35Z</time>
      </trkpt>
      <trkpt lat="46.00215" lon="6.83795">
        <ele>2031</ele>
        <time>2022-07-21T10:27:52Z</time>
      </trkpt>
      <trkpt lat="46.00211" lon="6.83793">
        <ele>2031</ele>
        <time>2022-07-21T10:27:56Z</time>
      </trkpt>
      <trkpt lat="46.00198" lon="6.83783">
        <ele>2028</ele>
        <time>2022-07-21T10:28:10Z</time>
      </trkpt>
      <trkpt lat="46.00189" lon="6.83773">
        <ele>2026</ele>
        <time>2022-07-21T10:28:21Z</time>
      </trkpt>
      <trkpt lat="46.00177" lon="6.83768">
        <ele>2024</ele>
        <time>2022-07-21T10:28:33Z</time>
      </trkpt>
      <trkpt lat="46.00152" lon="6.83744">
        <ele>2020</ele>
        <time>2022-07-21T10:29:00Z</time>
      </trkpt>
      <trkpt lat="46.00148" lon="6.83742">
        <ele>2019</ele>
        <time>2022-07-21T10:29:04Z</time>
      </trkpt>
      <trkpt lat="46.00141" lon="6.83734">
        <ele>2019</ele>
        <time>2022-07-21T10:29:11Z</time>
      </trkpt>
      <trkpt lat="46.00132" lon="6.83727">
        <ele>2020</ele>
        <time>2022-07-21T10:29:21Z</time>
      </trkpt>
      <trkpt lat="46.00124" lon="6.83718">
        <ele>2019</ele>
        <time>2022-07-21T10:29:30Z</time>
      </trkpt>
      <trkpt lat="46.0012" lon="6.83712">
        <ele>2019</ele>
        <time>2022-07-21T10:29:34Z</time>
      </trkpt>
      <trkpt lat="46.00115" lon="6.83709">
        <ele>2019</ele>
        <time>2022-07-21T10:29:41Z</time>
      </trkpt>
      <trkpt lat="46.00109" lon="6.83697">
        <ele>2018</ele>
        <time>2022-07-21T10:29:50Z</time>
      </trkpt>
      <trkpt lat="46.00105" lon="6.83691">
        <ele>2017</ele>
        <time>2022-07-21T10:29:54Z</time>
      </trkpt>
      <trkpt lat="46.00098" lon="6.83686">
        <ele>2017</ele>
        <time>2022-07-21T10:30:01Z</time>
      </trkpt>
      <trkpt lat="46.00094" lon="6.83683">
        <ele>2016</ele>
        <time>2022-07-21T10:30:06Z</time>
      </trkpt>
      <trkpt lat="46.00079" lon="6.83664">
        <ele>2015</ele>
        <time>2022-07-21T10:30:24Z</time>
      </trkpt>
      <trkpt lat="46.00073" lon="6.83659">
        <ele>2014</ele>
        <time>2022-07-21T10:30:30Z</time>
      </trkpt>
      <trkpt lat="46.00048" lon="6.83636">
        <ele>2011</ele>
        <time>2022-07-21T10:30:55Z</time>
      </trkpt>
      <trkpt lat="46.0004" lon="6.83633">
        <ele>2010</ele>
        <time>2022-07-21T10:31:04Z</time>
      </trkpt>
      <trkpt lat="46.00037" lon="6.83628">
        <ele>2010</ele>
        <time>2022-07-21T10:31:08Z</time>
      </trkpt>
      <trkpt lat="46.00033" lon="6.83622">
        <ele>2009</ele>
        <time>2022-07-21T10:31:13Z</time>
      </trkpt>
      <trkpt lat="46.00027" lon="6.83615">
        <ele>2008</ele>
        <time>2022-07-21T10:31:21Z</time>
      </trkpt>
      <trkpt lat="46.00017" lon="6.83603">
        <ele>2005</ele>
        <time>2022-07-21T10:31:37Z</time>
      </trkpt>
      <trkpt lat="46.00013" lon="6.836">
        <ele>2004</ele>
        <time>2022-07-21T10:31:40Z</time>
      </trkpt>
      <trkpt lat="46.00012" lon="6.83595">
        <ele>2003</ele>
        <time>2022-07-21T10:31:44Z</time>
      </trkpt>
      <trkpt lat="46.00011" lon="6.83588">
        <ele>2002</ele>
        <time>2022-07-21T10:31:49Z</time>
      </trkpt>
      <trkpt lat="46.00007" lon="6.83584">
        <ele>2001</ele>
        <time>2022-07-21T10:31:53Z</time>
      </trkpt>
      <trkpt lat="46.00004" lon="6.83579">
        <ele>2001</ele>
        <time>2022-07-21T10:31:57Z</time>
      </trkpt>
      <trkpt lat="45.99987" lon="6.83561">
        <ele>1997</ele>
        <time>2022-07-21T10:32:18Z</time>
      </trkpt>
      <trkpt lat="45.99975" lon="6.83536">
        <ele>1991</ele>
        <time>2022-07-21T10:32:42Z</time>
      </trkpt>
      <trkpt lat="45.99973" lon="6.83526">
        <ele>1989</ele>
        <time>2022-07-21T10:32:51Z</time>
      </trkpt>
      <trkpt lat="45.99969" lon="6.83524">
        <ele>1988</ele>
        <time>2022-07-21T10:32:55Z</time>
      </trkpt>
      <trkpt lat="45.99964" lon="6.83519">
        <ele>1986</ele>
        <time>2022-07-21T10:33:04Z</time>
      </trkpt>
      <trkpt lat="45.99963" lon="6.83512">
        <ele>1985</ele>
        <time>2022-07-21T10:33:09Z</time>
      </trkpt>
      <trkpt lat="45.99954" lon="6.83511">
        <ele>1984</ele>
        <time>2022-07-21T10:33:16Z</time>
      </trkpt>
      <trkpt lat="45.99949" lon="6.83508">
        <ele>1983</ele>
        <time>2022-07-21T10:33:23Z</time>
      </trkpt>
      <trkpt lat="45.99938" lon="6.8349">
        <ele>1978</ele>
        <time>2022-07-21T10:33:44Z</time>
      </trkpt>
      <trkpt lat="45.99933" lon="6.83475">
        <ele>1976</ele>
        <time>2022-07-21T10:33:56Z</time>
      </trkpt>
      <trkpt lat="45.99928" lon="6.83472">
        <ele>1975</ele>
        <time>2022-07-21T10:34:02Z</time>
      </trkpt>
      <trkpt lat="45.99925" lon="6.83467">
        <ele>1975</ele>
        <time>2022-07-21T10:34:06Z</time>
      </trkpt>
      <trkpt lat="45.99919" lon="6.83461">
        <ele>1973</ele>
        <time>2022-07-21T10:34:14Z</time>
      </trkpt>
      <trkpt lat="45.99915" lon="6.83456">
        <ele>1972</ele>
        <time>2022-07-21T10:34:21Z</time>
      </trkpt>
      <trkpt lat="45.99914" lon="6.8345">
        <ele>1971</ele>
        <time>2022-07-21T10:34:27Z</time>
      </trkpt>
      <trkpt lat="45.99891" lon="6.8343">
        <ele>1966</ele>
        <time>2022-07-21T10:34:51Z</time>
      </trkpt>
      <trkpt lat="45.99888" lon="6.83425">
        <ele>1966</ele>
        <time>2022-07-21T10:34:55Z</time>
      </trkpt>
      <trkpt lat="45.99884" lon="6.83422">
        <ele>1965</ele>
        <time>2022-07-21T10:35:00Z</time>
      </trkpt>
      <trkpt lat="45.99881" lon="6.83417">
        <ele>1964</ele>
        <time>2022-07-21T10:35:04Z</time>
      </trkpt>
      <trkpt lat="45.99874" lon="6.83412">
        <ele>1963</ele>
        <time>2022-07-21T10:35:11Z</time>
      </trkpt>
      <trkpt lat="45.99864" lon="6.83399">
        <ele>1960</ele>
        <time>2022-07-21T10:35:27Z</time>
      </trkpt>
      <trkpt lat="45.9986" lon="6.83396">
        <ele>1960</ele>
        <time>2022-07-21T10:35:31Z</time>
      </trkpt>
      <trkpt lat="45.99838" lon="6.83379">
        <ele>1954</ele>
        <time>2022-07-21T10:36:01Z</time>
      </trkpt>
      <trkpt lat="45.99834" lon="6.83376">
        <ele>1954</ele>
        <time>2022-07-21T10:36:04Z</time>
      </trkpt>
      <trkpt lat="45.99828" lon="6.8337">
        <ele>1952</ele>
        <time>2022-07-21T10:36:11Z</time>
      </trkpt>
      <trkpt lat="45.99814" lon="6.83378">
        <ele>1950</ele>
        <time>2022-07-21T10:36:24Z</time>
      </trkpt>
      <trkpt lat="45.9981" lon="6.83377">
        <ele>1949</ele>
        <time>2022-07-21T10:36:27Z</time>
      </trkpt>
      <trkpt lat="45.99805" lon="6.8338">
        <ele>1949</ele>
        <time>2022-07-21T10:36:35Z</time>
      </trkpt>
      <trkpt lat="45.998" lon="6.8338">
        <ele>1948</ele>
        <time>2022-07-21T10:36:41Z</time>
      </trkpt>
      <trkpt lat="45.99795" lon="6.83382">
        <ele>1948</ele>
        <time>2022-07-21T10:36:46Z</time>
      </trkpt>
      <trkpt lat="45.99775" lon="6.83391">
        <ele>1946</ele>
        <time>2022-07-21T10:37:07Z</time>
      </trkpt>
      <trkpt lat="45.99767" lon="6.83387">
        <ele>1945</ele>
        <time>2022-07-21T10:37:16Z</time>
      </trkpt>
      <trkpt lat="45.99763" lon="6.83386">
        <ele>1946</ele>
        <time>2022-07-21T10:37:20Z</time>
      </trkpt>
      <trkpt lat="45.99753" lon="6.83387">
        <ele>1945</ele>
        <time>2022-07-21T10:37:28Z</time>
      </trkpt>
      <trkpt lat="45.99737" lon="6.83393">
        <ele>1945</ele>
        <time>2022-07-21T10:37:45Z</time>
      </trkpt>
      <trkpt lat="45.99733" lon="6.83395">
        <ele>1944</ele>
        <time>2022-07-21T10:37:49Z</time>
      </trkpt>
      <trkpt lat="45.99725" lon="6.83401">
        <ele>1943</ele>
        <time>2022-07-21T10:37:58Z</time>
      </trkpt>
      <trkpt lat="45.9972" lon="6.83402">
        <ele>1943</ele>
        <time>2022-07-21T10:38:02Z</time>
      </trkpt>
      <trkpt lat="45.99719" lon="6.83395">
        <ele>1942</ele>
        <time>2022-07-21T10:38:09Z</time>
      </trkpt>
      <trkpt lat="45.99712" lon="6.83387">
        <ele>1943</ele>
        <time>2022-07-21T10:38:18Z</time>
      </trkpt>
      <trkpt lat="45.99711" lon="6.83381">
        <ele>1943</ele>
        <time>2022-07-21T10:38:23Z</time>
      </trkpt>
      <trkpt lat="45.99708" lon="6.83394">
        <ele>1942</ele>
        <time>2022-07-21T10:39:28Z</time>
      </trkpt>
      <trkpt lat="45.99704" lon="6.83403">
        <ele>1941</ele>
        <time>2022-07-21T10:39:38Z</time>
      </trkpt>
      <trkpt lat="45.99699" lon="6.83406">
        <ele>1940</ele>
        <time>2022-07-21T10:39:42Z</time>
      </trkpt>
      <trkpt lat="45.99696" lon="6.83409">
        <ele>1939</ele>
        <time>2022-07-21T10:40:25Z</time>
      </trkpt>
      <trkpt lat="45.99694" lon="6.83417">
        <ele>1939</ele>
        <time>2022-07-21T10:40:57Z</time>
      </trkpt>
      <trkpt lat="45.9969" lon="6.83421">
        <ele>1938</ele>
        <time>2022-07-21T10:41:01Z</time>
      </trkpt>
      <trkpt lat="45.99685" lon="6.83436">
        <ele>1939</ele>
        <time>2022-07-21T10:41:13Z</time>
      </trkpt>
      <trkpt lat="45.99684" lon="6.83444">
        <ele>1938</ele>
        <time>2022-07-21T10:41:19Z</time>
      </trkpt>
      <trkpt lat="45.9968" lon="6.83451">
        <ele>1937</ele>
        <time>2022-07-21T10:41:27Z</time>
      </trkpt>
      <trkpt lat="45.99682" lon="6.83451">
        <ele>1935</ele>
        <time>2022-07-21T10:41:59Z</time>
      </trkpt>
      <trkpt lat="45.99685" lon="6.83446">
        <ele>1936</ele>
        <time>2022-07-21T10:42:09Z</time>
      </trkpt>
      <trkpt lat="45.99686" lon="6.8344">
        <ele>1937</ele>
        <time>2022-07-21T10:42:15Z</time>
      </trkpt>
      <trkpt lat="45.99687" lon="6.83431">
        <ele>1938</ele>
        <time>2022-07-21T10:42:24Z</time>
      </trkpt>
      <trkpt lat="45.99689" lon="6.83426">
        <ele>1938</ele>
        <time>2022-07-21T10:42:29Z</time>
      </trkpt>
      <trkpt lat="45.99693" lon="6.83421">
        <ele>1938</ele>
        <time>2022-07-21T10:42:33Z</time>
      </trkpt>
      <trkpt lat="45.99695" lon="6.83415">
        <ele>1938</ele>
        <time>2022-07-21T10:42:38Z</time>
      </trkpt>
      <trkpt lat="45.99698" lon="6.83408">
        <ele>1938</ele>
        <time>2022-07-21T10:42:46Z</time>
      </trkpt>
      <trkpt lat="45.99698" lon="6.8341">
        <ele>1936</ele>
        <time>2022-07-21T11:01:26Z</time>
      </trkpt>
      <trkpt lat="45.99697" lon="6.8341">
        <ele>1937</ele>
        <time>2022-07-21T11:21:17Z</time>
      </trkpt>
      <trkpt lat="45.9969" lon="6.83405">
        <ele>1938</ele>
        <time>2022-07-21T11:28:11Z</time>
      </trkpt>
      <trkpt lat="45.99684" lon="6.83401">
        <ele>1937</ele>
        <time>2022-07-21T11:28:37Z</time>
      </trkpt>
      <trkpt lat="45.9968" lon="6.83397">
        <ele>1937</ele>
        <time>2022-07-21T11:28:47Z</time>
      </trkpt>
      <trkpt lat="45.99679" lon="6.8339">
        <ele>1938</ele>
        <time>2022-07-21T11:28:57Z</time>
      </trkpt>
      <trkpt lat="45.99679" lon="6.83379">
        <ele>1937</ele>
        <time>2022-07-21T11:29:27Z</time>
      </trkpt>
      <trkpt lat="45.99674" lon="6.83378">
        <ele>1938</ele>
        <time>2022-07-21T11:29:37Z</time>
      </trkpt>
      <trkpt lat="45.99668" lon="6.83382">
        <ele>1938</ele>
        <time>2022-07-21T11:29:48Z</time>
      </trkpt>
      <trkpt lat="45.99672" lon="6.83392">
        <ele>1938</ele>
        <time>2022-07-21T11:30:00Z</time>
      </trkpt>
      <trkpt lat="45.99678" lon="6.83395">
        <ele>1939</ele>
        <time>2022-07-21T11:30:10Z</time>
      </trkpt>
      <trkpt lat="45.99683" lon="6.83399">
        <ele>1938</ele>
        <time>2022-07-21T11:30:20Z</time>
      </trkpt>
      <trkpt lat="45.9969" lon="6.83401">
        <ele>1938</ele>
        <time>2022-07-21T11:30:30Z</time>
      </trkpt>
      <trkpt lat="45.99692" lon="6.83407">
        <ele>1938</ele>
        <time>2022-07-21T11:30:40Z</time>
      </trkpt>
      <trkpt lat="45.99696" lon="6.83411">
        <ele>1938</ele>
        <time>2022-07-21T11:32:58Z</time>
      </trkpt>
      <trkpt lat="45.99703" lon="6.83411">
        <ele>1938</ele>
        <time>2022-07-21T11:33:33Z</time>
      </trkpt>
      <trkpt lat="45.9973" lon="6.83398">
        <ele>1939</ele>
        <time>2022-07-21T11:34:08Z</time>
      </trkpt>
      <trkpt lat="45.99746" lon="6.8339">
        <ele>1941</ele>
        <time>2022-07-21T11:34:27Z</time>
      </trkpt>
      <trkpt lat="45.99753" lon="6.83388">
        <ele>1941</ele>
        <time>2022-07-21T11:34:35Z</time>
      </trkpt>
      <trkpt lat="45.99757" lon="6.83383">
        <ele>1941</ele>
        <time>2022-07-21T11:34:41Z</time>
      </trkpt>
      <trkpt lat="45.99762" lon="6.83378">
        <ele>1940</ele>
        <time>2022-07-21T11:34:49Z</time>
      </trkpt>
      <trkpt lat="45.99766" lon="6.83373">
        <ele>1940</ele>
        <time>2022-07-21T11:34:56Z</time>
      </trkpt>
      <trkpt lat="45.9977" lon="6.83368">
        <ele>1939</ele>
        <time>2022-07-21T11:35:06Z</time>
      </trkpt>
      <trkpt lat="45.99776" lon="6.83366">
        <ele>1939</ele>
        <time>2022-07-21T11:35:16Z</time>
      </trkpt>
      <trkpt lat="45.99781" lon="6.83362">
        <ele>1939</ele>
        <time>2022-07-21T11:35:24Z</time>
      </trkpt>
      <trkpt lat="45.99779" lon="6.83352">
        <ele>1940</ele>
        <time>2022-07-21T11:35:34Z</time>
      </trkpt>
      <trkpt lat="45.99775" lon="6.83349">
        <ele>1940</ele>
        <time>2022-07-21T11:35:37Z</time>
      </trkpt>
      <trkpt lat="45.99774" lon="6.83337">
        <ele>1939</ele>
        <time>2022-07-21T11:35:49Z</time>
      </trkpt>
      <trkpt lat="45.99769" lon="6.83327">
        <ele>1939</ele>
        <time>2022-07-21T11:35:58Z</time>
      </trkpt>
      <trkpt lat="45.99767" lon="6.83318">
        <ele>1939</ele>
        <time>2022-07-21T11:36:06Z</time>
      </trkpt>
      <trkpt lat="45.99758" lon="6.83293">
        <ele>1942</ele>
        <time>2022-07-21T11:36:38Z</time>
      </trkpt>
      <trkpt lat="45.99757" lon="6.83285">
        <ele>1945</ele>
        <time>2022-07-21T11:36:53Z</time>
      </trkpt>
      <trkpt lat="45.99755" lon="6.83277">
        <ele>1947</ele>
        <time>2022-07-21T11:37:33Z</time>
      </trkpt>
      <trkpt lat="45.99755" lon="6.83261">
        <ele>1951</ele>
        <time>2022-07-21T11:38:03Z</time>
      </trkpt>
      <trkpt lat="45.99751" lon="6.8325">
        <ele>1953</ele>
        <time>2022-07-21T11:38:20Z</time>
      </trkpt>
      <trkpt lat="45.99742" lon="6.83244">
        <ele>1954</ele>
        <time>2022-07-21T11:38:31Z</time>
      </trkpt>
      <trkpt lat="45.99736" lon="6.8323">
        <ele>1956</ele>
        <time>2022-07-21T11:38:48Z</time>
      </trkpt>
      <trkpt lat="45.99732" lon="6.83225">
        <ele>1956</ele>
        <time>2022-07-21T11:38:53Z</time>
      </trkpt>
      <trkpt lat="45.99727" lon="6.83217">
        <ele>1958</ele>
        <time>2022-07-21T11:39:04Z</time>
      </trkpt>
      <trkpt lat="45.99724" lon="6.83213">
        <ele>1958</ele>
        <time>2022-07-21T11:39:08Z</time>
      </trkpt>
      <trkpt lat="45.99721" lon="6.83205">
        <ele>1959</ele>
        <time>2022-07-21T11:39:19Z</time>
      </trkpt>
      <trkpt lat="45.99719" lon="6.832">
        <ele>1960</ele>
        <time>2022-07-21T11:39:25Z</time>
      </trkpt>
      <trkpt lat="45.99723" lon="6.83194">
        <ele>1958</ele>
        <time>2022-07-21T11:39:35Z</time>
      </trkpt>
      <trkpt lat="45.99724" lon="6.83184">
        <ele>1956</ele>
        <time>2022-07-21T11:39:45Z</time>
      </trkpt>
      <trkpt lat="45.9972" lon="6.83181">
        <ele>1957</ele>
        <time>2022-07-21T11:39:50Z</time>
      </trkpt>
      <trkpt lat="45.99705" lon="6.83186">
        <ele>1954</ele>
        <time>2022-07-21T11:40:09Z</time>
      </trkpt>
      <trkpt lat="45.99699" lon="6.8319">
        <ele>1954</ele>
        <time>2022-07-21T11:40:17Z</time>
      </trkpt>
      <trkpt lat="45.99691" lon="6.83194">
        <ele>1956</ele>
        <time>2022-07-21T11:40:30Z</time>
      </trkpt>
      <trkpt lat="45.99687" lon="6.83195">
        <ele>1955</ele>
        <time>2022-07-21T11:40:35Z</time>
      </trkpt>
      <trkpt lat="45.9968" lon="6.83196">
        <ele>1953</ele>
        <time>2022-07-21T11:40:43Z</time>
      </trkpt>
      <trkpt lat="45.99646" lon="6.83187">
        <ele>1949</ele>
        <time>2022-07-21T11:41:17Z</time>
      </trkpt>
      <trkpt lat="45.99642" lon="6.83186">
        <ele>1949</ele>
        <time>2022-07-21T11:41:21Z</time>
      </trkpt>
      <trkpt lat="45.99638" lon="6.8318">
        <ele>1948</ele>
        <time>2022-07-21T11:41:26Z</time>
      </trkpt>
      <trkpt lat="45.99629" lon="6.83171">
        <ele>1946</ele>
        <time>2022-07-21T11:41:39Z</time>
      </trkpt>
      <trkpt lat="45.99623" lon="6.83169">
        <ele>1946</ele>
        <time>2022-07-21T11:41:46Z</time>
      </trkpt>
      <trkpt lat="45.99619" lon="6.83167">
        <ele>1947</ele>
        <time>2022-07-21T11:41:58Z</time>
      </trkpt>
      <trkpt lat="45.99614" lon="6.83165">
        <ele>1947</ele>
        <time>2022-07-21T11:42:13Z</time>
      </trkpt>
      <trkpt lat="45.99609" lon="6.83152">
        <ele>1950</ele>
        <time>2022-07-21T11:42:32Z</time>
      </trkpt>
      <trkpt lat="45.99607" lon="6.83144">
        <ele>1950</ele>
        <time>2022-07-21T11:42:41Z</time>
      </trkpt>
      <trkpt lat="45.996" lon="6.8313">
        <ele>1951</ele>
        <time>2022-07-21T11:42:56Z</time>
      </trkpt>
      <trkpt lat="45.99597" lon="6.83123">
        <ele>1952</ele>
        <time>2022-07-21T11:43:05Z</time>
      </trkpt>
      <trkpt lat="45.99592" lon="6.83122">
        <ele>1952</ele>
        <time>2022-07-21T11:43:18Z</time>
      </trkpt>
      <trkpt lat="45.9959" lon="6.83118">
        <ele>1952</ele>
        <time>2022-07-21T11:43:24Z</time>
      </trkpt>
      <trkpt lat="45.99585" lon="6.83111">
        <ele>1956</ele>
        <time>2022-07-21T11:43:44Z</time>
      </trkpt>
      <trkpt lat="45.99585" lon="6.83103">
        <ele>1957</ele>
        <time>2022-07-21T11:43:54Z</time>
      </trkpt>
      <trkpt lat="45.99577" lon="6.83083">
        <ele>1962</ele>
        <time>2022-07-21T11:44:36Z</time>
      </trkpt>
      <trkpt lat="45.99577" lon="6.83078">
        <ele>1964</ele>
        <time>2022-07-21T11:44:52Z</time>
      </trkpt>
      <trkpt lat="45.99574" lon="6.83069">
        <ele>1965</ele>
        <time>2022-07-21T11:45:03Z</time>
      </trkpt>
      <trkpt lat="45.99568" lon="6.83063">
        <ele>1966</ele>
        <time>2022-07-21T11:45:13Z</time>
      </trkpt>
      <trkpt lat="45.99564" lon="6.8306">
        <ele>1967</ele>
        <time>2022-07-21T11:45:17Z</time>
      </trkpt>
      <trkpt lat="45.99562" lon="6.83054">
        <ele>1968</ele>
        <time>2022-07-21T11:45:30Z</time>
      </trkpt>
      <trkpt lat="45.99559" lon="6.83046">
        <ele>1969</ele>
        <time>2022-07-21T11:45:45Z</time>
      </trkpt>
      <trkpt lat="45.99555" lon="6.83044">
        <ele>1970</ele>
        <time>2022-07-21T11:45:50Z</time>
      </trkpt>
      <trkpt lat="45.99552" lon="6.83039">
        <ele>1971</ele>
        <time>2022-07-21T11:46:00Z</time>
      </trkpt>
      <trkpt lat="45.99552" lon="6.83033">
        <ele>1973</ele>
        <time>2022-07-21T11:46:15Z</time>
      </trkpt>
      <trkpt lat="45.99549" lon="6.83028">
        <ele>1974</ele>
        <time>2022-07-21T11:46:22Z</time>
      </trkpt>
      <trkpt lat="45.99545" lon="6.83025">
        <ele>1976</ele>
        <time>2022-07-21T11:46:40Z</time>
      </trkpt>
      <trkpt lat="45.9954" lon="6.83022">
        <ele>1977</ele>
        <time>2022-07-21T11:46:46Z</time>
      </trkpt>
      <trkpt lat="45.99535" lon="6.83017">
        <ele>1979</ele>
        <time>2022-07-21T11:47:02Z</time>
      </trkpt>
      <trkpt lat="45.99531" lon="6.83016">
        <ele>1980</ele>
        <time>2022-07-21T11:47:12Z</time>
      </trkpt>
      <trkpt lat="45.99516" lon="6.83006">
        <ele>1983</ele>
        <time>2022-07-21T11:47:39Z</time>
      </trkpt>
      <trkpt lat="45.9951" lon="6.83001">
        <ele>1984</ele>
        <time>2022-07-21T11:47:49Z</time>
      </trkpt>
      <trkpt lat="45.99506" lon="6.82998">
        <ele>1984</ele>
        <time>2022-07-21T11:47:55Z</time>
      </trkpt>
      <trkpt lat="45.995" lon="6.82995">
        <ele>1985</ele>
        <time>2022-07-21T11:48:04Z</time>
      </trkpt>
      <trkpt lat="45.99495" lon="6.82991">
        <ele>1985</ele>
        <time>2022-07-21T11:48:10Z</time>
      </trkpt>
      <trkpt lat="45.99474" lon="6.82979">
        <ele>1988</ele>
        <time>2022-07-21T11:48:39Z</time>
      </trkpt>
      <trkpt lat="45.9947" lon="6.82975">
        <ele>1988</ele>
        <time>2022-07-21T11:48:46Z</time>
      </trkpt>
      <trkpt lat="45.99466" lon="6.82972">
        <ele>1988</ele>
        <time>2022-07-21T11:48:50Z</time>
      </trkpt>
      <trkpt lat="45.9946" lon="6.82966">
        <ele>1989</ele>
        <time>2022-07-21T11:48:59Z</time>
      </trkpt>
      <trkpt lat="45.99456" lon="6.82963">
        <ele>1989</ele>
        <time>2022-07-21T11:49:03Z</time>
      </trkpt>
      <trkpt lat="45.99437" lon="6.82941">
        <ele>1992</ele>
        <time>2022-07-21T11:49:37Z</time>
      </trkpt>
      <trkpt lat="45.99425" lon="6.82929">
        <ele>1993</ele>
        <time>2022-07-21T11:49:56Z</time>
      </trkpt>
      <trkpt lat="45.99416" lon="6.82927">
        <ele>1994</ele>
        <time>2022-07-21T11:50:07Z</time>
      </trkpt>
      <trkpt lat="45.99412" lon="6.82924">
        <ele>1995</ele>
        <time>2022-07-21T11:50:12Z</time>
      </trkpt>
      <trkpt lat="45.99407" lon="6.8292">
        <ele>1997</ele>
        <time>2022-07-21T11:50:23Z</time>
      </trkpt>
      <trkpt lat="45.99395" lon="6.82915">
        <ele>2000</ele>
        <time>2022-07-21T11:50:44Z</time>
      </trkpt>
      <trkpt lat="45.99383" lon="6.82904">
        <ele>2001</ele>
        <time>2022-07-21T11:51:04Z</time>
      </trkpt>
      <trkpt lat="45.9938" lon="6.82899">
        <ele>2002</ele>
        <time>2022-07-21T11:51:10Z</time>
      </trkpt>
      <trkpt lat="45.99376" lon="6.82896">
        <ele>2002</ele>
        <time>2022-07-21T11:51:14Z</time>
      </trkpt>
      <trkpt lat="45.99364" lon="6.82889">
        <ele>2003</ele>
        <time>2022-07-21T11:51:30Z</time>
      </trkpt>
      <trkpt lat="45.99352" lon="6.82877">
        <ele>2003</ele>
        <time>2022-07-21T11:51:45Z</time>
      </trkpt>
      <trkpt lat="45.99348" lon="6.82875">
        <ele>2005</ele>
        <time>2022-07-21T11:51:52Z</time>
      </trkpt>
      <trkpt lat="45.99346" lon="6.82866">
        <ele>2005</ele>
        <time>2022-07-21T11:52:02Z</time>
      </trkpt>
      <trkpt lat="45.9935" lon="6.82856">
        <ele>2003</ele>
        <time>2022-07-21T11:52:11Z</time>
      </trkpt>
      <trkpt lat="45.99348" lon="6.82851">
        <ele>2002</ele>
        <time>2022-07-21T11:52:15Z</time>
      </trkpt>
      <trkpt lat="45.99345" lon="6.82846">
        <ele>2001</ele>
        <time>2022-07-21T11:52:20Z</time>
      </trkpt>
      <trkpt lat="45.99341" lon="6.82843">
        <ele>2001</ele>
        <time>2022-07-21T11:52:23Z</time>
      </trkpt>
      <trkpt lat="45.99336" lon="6.82845">
        <ele>2001</ele>
        <time>2022-07-21T11:52:28Z</time>
      </trkpt>
      <trkpt lat="45.9933" lon="6.82846">
        <ele>2001</ele>
        <time>2022-07-21T11:52:36Z</time>
      </trkpt>
      <trkpt lat="45.99325" lon="6.82844">
        <ele>2001</ele>
        <time>2022-07-21T11:52:40Z</time>
      </trkpt>
      <trkpt lat="45.99318" lon="6.82843">
        <ele>2002</ele>
        <time>2022-07-21T11:52:49Z</time>
      </trkpt>
      <trkpt lat="45.9931" lon="6.82845">
        <ele>2003</ele>
        <time>2022-07-21T11:53:00Z</time>
      </trkpt>
      <trkpt lat="45.99303" lon="6.82836">
        <ele>2004</ele>
        <time>2022-07-21T11:53:10Z</time>
      </trkpt>
      <trkpt lat="45.99298" lon="6.82829">
        <ele>2005</ele>
        <time>2022-07-21T11:53:21Z</time>
      </trkpt>
      <trkpt lat="45.99295" lon="6.82823">
        <ele>2005</ele>
        <time>2022-07-21T11:53:25Z</time>
      </trkpt>
      <trkpt lat="45.99292" lon="6.82817">
        <ele>2006</ele>
        <time>2022-07-21T11:53:33Z</time>
      </trkpt>
      <trkpt lat="45.99289" lon="6.82805">
        <ele>2004</ele>
        <time>2022-07-21T11:53:43Z</time>
      </trkpt>
      <trkpt lat="45.99286" lon="6.82797">
        <ele>2003</ele>
        <time>2022-07-21T11:53:49Z</time>
      </trkpt>
      <trkpt lat="45.99282" lon="6.82794">
        <ele>2003</ele>
        <time>2022-07-21T11:53:54Z</time>
      </trkpt>
      <trkpt lat="45.99278" lon="6.82791">
        <ele>2005</ele>
        <time>2022-07-21T11:54:04Z</time>
      </trkpt>
      <trkpt lat="45.99274" lon="6.82791">
        <ele>2005</ele>
        <time>2022-07-21T11:54:09Z</time>
      </trkpt>
      <trkpt lat="45.99266" lon="6.82783">
        <ele>2006</ele>
        <time>2022-07-21T11:54:21Z</time>
      </trkpt>
      <trkpt lat="45.99256" lon="6.82771">
        <ele>2006</ele>
        <time>2022-07-21T11:54:37Z</time>
      </trkpt>
      <trkpt lat="45.99255" lon="6.82763">
        <ele>2006</ele>
        <time>2022-07-21T11:54:44Z</time>
      </trkpt>
      <trkpt lat="45.99252" lon="6.82758">
        <ele>2005</ele>
        <time>2022-07-21T11:54:49Z</time>
      </trkpt>
      <trkpt lat="45.99248" lon="6.82757">
        <ele>2005</ele>
        <time>2022-07-21T11:54:53Z</time>
      </trkpt>
      <trkpt lat="45.99243" lon="6.82754">
        <ele>2005</ele>
        <time>2022-07-21T11:54:58Z</time>
      </trkpt>
      <trkpt lat="45.99238" lon="6.82757">
        <ele>2005</ele>
        <time>2022-07-21T11:55:10Z</time>
      </trkpt>
      <trkpt lat="45.99233" lon="6.82757">
        <ele>2007</ele>
        <time>2022-07-21T11:55:20Z</time>
      </trkpt>
      <trkpt lat="45.9923" lon="6.8276">
        <ele>2008</ele>
        <time>2022-07-21T11:55:30Z</time>
      </trkpt>
      <trkpt lat="45.99225" lon="6.82759">
        <ele>2009</ele>
        <time>2022-07-21T11:55:35Z</time>
      </trkpt>
      <trkpt lat="45.9922" lon="6.82755">
        <ele>2009</ele>
        <time>2022-07-21T11:55:41Z</time>
      </trkpt>
      <trkpt lat="45.99212" lon="6.82752">
        <ele>2009</ele>
        <time>2022-07-21T11:55:50Z</time>
      </trkpt>
      <trkpt lat="45.99186" lon="6.82734">
        <ele>2012</ele>
        <time>2022-07-21T11:56:27Z</time>
      </trkpt>
      <trkpt lat="45.99178" lon="6.82731">
        <ele>2014</ele>
        <time>2022-07-21T11:56:41Z</time>
      </trkpt>
      <trkpt lat="45.99162" lon="6.82723">
        <ele>2016</ele>
        <time>2022-07-21T11:57:01Z</time>
      </trkpt>
      <trkpt lat="45.99155" lon="6.82717">
        <ele>2016</ele>
        <time>2022-07-21T11:57:12Z</time>
      </trkpt>
      <trkpt lat="45.99153" lon="6.82709">
        <ele>2017</ele>
        <time>2022-07-21T11:57:23Z</time>
      </trkpt>
      <trkpt lat="45.99146" lon="6.82704">
        <ele>2018</ele>
        <time>2022-07-21T11:57:33Z</time>
      </trkpt>
      <trkpt lat="45.9914" lon="6.82706">
        <ele>2019</ele>
        <time>2022-07-21T11:57:42Z</time>
      </trkpt>
      <trkpt lat="45.99128" lon="6.827">
        <ele>2021</ele>
        <time>2022-07-21T11:58:01Z</time>
      </trkpt>
      <trkpt lat="45.99122" lon="6.82695">
        <ele>2021</ele>
        <time>2022-07-21T11:58:09Z</time>
      </trkpt>
      <trkpt lat="45.99118" lon="6.82696">
        <ele>2021</ele>
        <time>2022-07-21T11:58:14Z</time>
      </trkpt>
      <trkpt lat="45.99096" lon="6.82693">
        <ele>2025</ele>
        <time>2022-07-21T11:58:47Z</time>
      </trkpt>
      <trkpt lat="45.99078" lon="6.82682">
        <ele>2027</ele>
        <time>2022-07-21T11:59:11Z</time>
      </trkpt>
      <trkpt lat="45.99072" lon="6.82681">
        <ele>2028</ele>
        <time>2022-07-21T11:59:22Z</time>
      </trkpt>
      <trkpt lat="45.99068" lon="6.82683">
        <ele>2028</ele>
        <time>2022-07-21T11:59:27Z</time>
      </trkpt>
      <trkpt lat="45.99062" lon="6.82682">
        <ele>2029</ele>
        <time>2022-07-21T11:59:35Z</time>
      </trkpt>
      <trkpt lat="45.99056" lon="6.82681">
        <ele>2031</ele>
        <time>2022-07-21T11:59:46Z</time>
      </trkpt>
      <trkpt lat="45.99049" lon="6.82678">
        <ele>2032</ele>
        <time>2022-07-21T11:59:57Z</time>
      </trkpt>
      <trkpt lat="45.99043" lon="6.82679">
        <ele>2033</ele>
        <time>2022-07-21T12:00:07Z</time>
      </trkpt>
      <trkpt lat="45.99024" lon="6.82674">
        <ele>2038</ele>
        <time>2022-07-21T12:00:44Z</time>
      </trkpt>
      <trkpt lat="45.99019" lon="6.82672">
        <ele>2039</ele>
        <time>2022-07-21T12:00:49Z</time>
      </trkpt>
      <trkpt lat="45.99008" lon="6.82671">
        <ele>2039</ele>
        <time>2022-07-21T12:01:06Z</time>
      </trkpt>
      <trkpt lat="45.99004" lon="6.8267">
        <ele>2040</ele>
        <time>2022-07-21T12:01:14Z</time>
      </trkpt>
      <trkpt lat="45.99" lon="6.82667">
        <ele>2040</ele>
        <time>2022-07-21T12:01:19Z</time>
      </trkpt>
      <trkpt lat="45.98995" lon="6.82664">
        <ele>2042</ele>
        <time>2022-07-21T12:01:29Z</time>
      </trkpt>
      <trkpt lat="45.98991" lon="6.82661">
        <ele>2042</ele>
        <time>2022-07-21T12:01:35Z</time>
      </trkpt>
      <trkpt lat="45.98983" lon="6.82657">
        <ele>2042</ele>
        <time>2022-07-21T12:01:44Z</time>
      </trkpt>
      <trkpt lat="45.98959" lon="6.82633">
        <ele>2042</ele>
        <time>2022-07-21T12:02:16Z</time>
      </trkpt>
      <trkpt lat="45.98954" lon="6.8263">
        <ele>2042</ele>
        <time>2022-07-21T12:02:21Z</time>
      </trkpt>
      <trkpt lat="45.9894" lon="6.82622">
        <ele>2044</ele>
        <time>2022-07-21T12:02:41Z</time>
      </trkpt>
      <trkpt lat="45.98935" lon="6.82615">
        <ele>2045</ele>
        <time>2022-07-21T12:02:50Z</time>
      </trkpt>
      <trkpt lat="45.98922" lon="6.82596">
        <ele>2043</ele>
        <time>2022-07-21T12:03:14Z</time>
      </trkpt>
      <trkpt lat="45.98917" lon="6.82595">
        <ele>2043</ele>
        <time>2022-07-21T12:03:26Z</time>
      </trkpt>
      <trkpt lat="45.98911" lon="6.82591">
        <ele>2044</ele>
        <time>2022-07-21T12:03:37Z</time>
      </trkpt>
      <trkpt lat="45.98905" lon="6.82591">
        <ele>2045</ele>
        <time>2022-07-21T12:06:11Z</time>
      </trkpt>
      <trkpt lat="45.98891" lon="6.82584">
        <ele>2046</ele>
        <time>2022-07-21T12:06:28Z</time>
      </trkpt>
      <trkpt lat="45.98879" lon="6.82583">
        <ele>2047</ele>
        <time>2022-07-21T12:06:41Z</time>
      </trkpt>
      <trkpt lat="45.98874" lon="6.82581">
        <ele>2047</ele>
        <time>2022-07-21T12:06:44Z</time>
      </trkpt>
      <trkpt lat="45.98867" lon="6.8258">
        <ele>2048</ele>
        <time>2022-07-21T12:06:56Z</time>
      </trkpt>
      <trkpt lat="45.98858" lon="6.82581">
        <ele>2049</ele>
        <time>2022-07-21T12:07:06Z</time>
      </trkpt>
      <trkpt lat="45.98852" lon="6.82578">
        <ele>2049</ele>
        <time>2022-07-21T12:07:14Z</time>
      </trkpt>
      <trkpt lat="45.98849" lon="6.82575">
        <ele>2050</ele>
        <time>2022-07-21T12:07:22Z</time>
      </trkpt>
      <trkpt lat="45.98843" lon="6.8257">
        <ele>2051</ele>
        <time>2022-07-21T12:07:31Z</time>
      </trkpt>
      <trkpt lat="45.98828" lon="6.82568">
        <ele>2053</ele>
        <time>2022-07-21T12:07:50Z</time>
      </trkpt>
      <trkpt lat="45.98818" lon="6.82566">
        <ele>2052</ele>
        <time>2022-07-21T12:08:00Z</time>
      </trkpt>
      <trkpt lat="45.9881" lon="6.82574">
        <ele>2054</ele>
        <time>2022-07-21T12:08:27Z</time>
      </trkpt>
      <trkpt lat="45.98803" lon="6.82575">
        <ele>2056</ele>
        <time>2022-07-21T12:08:48Z</time>
      </trkpt>
      <trkpt lat="45.98797" lon="6.82575">
        <ele>2058</ele>
        <time>2022-07-21T12:09:03Z</time>
      </trkpt>
      <trkpt lat="45.9879" lon="6.82576">
        <ele>2059</ele>
        <time>2022-07-21T12:09:13Z</time>
      </trkpt>
      <trkpt lat="45.98784" lon="6.82574">
        <ele>2060</ele>
        <time>2022-07-21T12:09:23Z</time>
      </trkpt>
      <trkpt lat="45.98779" lon="6.82565">
        <ele>2061</ele>
        <time>2022-07-21T12:09:33Z</time>
      </trkpt>
      <trkpt lat="45.98774" lon="6.8255">
        <ele>2061</ele>
        <time>2022-07-21T12:09:46Z</time>
      </trkpt>
      <trkpt lat="45.98769" lon="6.82543">
        <ele>2060</ele>
        <time>2022-07-21T12:09:53Z</time>
      </trkpt>
      <trkpt lat="45.98768" lon="6.82535">
        <ele>2059</ele>
        <time>2022-07-21T12:10:00Z</time>
      </trkpt>
      <trkpt lat="45.98766" lon="6.82529">
        <ele>2059</ele>
        <time>2022-07-21T12:10:04Z</time>
      </trkpt>
      <trkpt lat="45.98758" lon="6.82522">
        <ele>2059</ele>
        <time>2022-07-21T12:10:12Z</time>
      </trkpt>
      <trkpt lat="45.98753" lon="6.82517">
        <ele>2059</ele>
        <time>2022-07-21T12:10:19Z</time>
      </trkpt>
      <trkpt lat="45.98747" lon="6.82498">
        <ele>2059</ele>
        <time>2022-07-21T12:10:38Z</time>
      </trkpt>
      <trkpt lat="45.98741" lon="6.82494">
        <ele>2059</ele>
        <time>2022-07-21T12:10:48Z</time>
      </trkpt>
      <trkpt lat="45.98719" lon="6.82482">
        <ele>2063</ele>
        <time>2022-07-21T12:11:21Z</time>
      </trkpt>
      <trkpt lat="45.98696" lon="6.82476">
        <ele>2067</ele>
        <time>2022-07-21T12:11:56Z</time>
      </trkpt>
      <trkpt lat="45.98682" lon="6.82473">
        <ele>2070</ele>
        <time>2022-07-21T12:12:17Z</time>
      </trkpt>
      <trkpt lat="45.98677" lon="6.82472">
        <ele>2070</ele>
        <time>2022-07-21T12:12:27Z</time>
      </trkpt>
      <trkpt lat="45.98671" lon="6.82464">
        <ele>2071</ele>
        <time>2022-07-21T12:12:37Z</time>
      </trkpt>
      <trkpt lat="45.98667" lon="6.82462">
        <ele>2071</ele>
        <time>2022-07-21T12:12:42Z</time>
      </trkpt>
      <trkpt lat="45.98662" lon="6.82461">
        <ele>2070</ele>
        <time>2022-07-21T12:12:46Z</time>
      </trkpt>
      <trkpt lat="45.98653" lon="6.82456">
        <ele>2073</ele>
        <time>2022-07-21T12:13:05Z</time>
      </trkpt>
      <trkpt lat="45.98636" lon="6.82448">
        <ele>2075</ele>
        <time>2022-07-21T12:13:28Z</time>
      </trkpt>
      <trkpt lat="45.98633" lon="6.82444">
        <ele>2076</ele>
        <time>2022-07-21T12:13:34Z</time>
      </trkpt>
      <trkpt lat="45.98626" lon="6.82436">
        <ele>2076</ele>
        <time>2022-07-21T12:13:44Z</time>
      </trkpt>
      <trkpt lat="45.98621" lon="6.82434">
        <ele>2075</ele>
        <time>2022-07-21T12:13:48Z</time>
      </trkpt>
      <trkpt lat="45.98612" lon="6.82432">
        <ele>2076</ele>
        <time>2022-07-21T12:13:58Z</time>
      </trkpt>
      <trkpt lat="45.98607" lon="6.82432">
        <ele>2076</ele>
        <time>2022-07-21T12:14:03Z</time>
      </trkpt>
      <trkpt lat="45.986" lon="6.82422">
        <ele>2076</ele>
        <time>2022-07-21T12:14:15Z</time>
      </trkpt>
      <trkpt lat="45.98595" lon="6.82419">
        <ele>2076</ele>
        <time>2022-07-21T12:14:19Z</time>
      </trkpt>
      <trkpt lat="45.98591" lon="6.82417">
        <ele>2077</ele>
        <time>2022-07-21T12:14:26Z</time>
      </trkpt>
      <trkpt lat="45.98583" lon="6.8242">
        <ele>2079</ele>
        <time>2022-07-21T12:14:36Z</time>
      </trkpt>
      <trkpt lat="45.98576" lon="6.82421">
        <ele>2079</ele>
        <time>2022-07-21T12:14:45Z</time>
      </trkpt>
      <trkpt lat="45.98564" lon="6.8241">
        <ele>2081</ele>
        <time>2022-07-21T12:15:03Z</time>
      </trkpt>
      <trkpt lat="45.98556" lon="6.82406">
        <ele>2082</ele>
        <time>2022-07-21T12:15:13Z</time>
      </trkpt>
      <trkpt lat="45.98526" lon="6.82388">
        <ele>2086</ele>
        <time>2022-07-21T12:15:54Z</time>
      </trkpt>
      <trkpt lat="45.98517" lon="6.82384">
        <ele>2087</ele>
        <time>2022-07-21T12:16:04Z</time>
      </trkpt>
      <trkpt lat="45.98511" lon="6.82383">
        <ele>2087</ele>
        <time>2022-07-21T12:16:11Z</time>
      </trkpt>
      <trkpt lat="45.98501" lon="6.82373">
        <ele>2087</ele>
        <time>2022-07-21T12:16:23Z</time>
      </trkpt>
      <trkpt lat="45.98484" lon="6.8235">
        <ele>2091</ele>
        <time>2022-07-21T12:16:54Z</time>
      </trkpt>
      <trkpt lat="45.9848" lon="6.82346">
        <ele>2092</ele>
        <time>2022-07-21T12:17:01Z</time>
      </trkpt>
      <trkpt lat="45.98476" lon="6.82343">
        <ele>2092</ele>
        <time>2022-07-21T12:17:06Z</time>
      </trkpt>
      <trkpt lat="45.9847" lon="6.82338">
        <ele>2092</ele>
        <time>2022-07-21T12:17:13Z</time>
      </trkpt>
      <trkpt lat="45.98457" lon="6.82331">
        <ele>2091</ele>
        <time>2022-07-21T12:17:25Z</time>
      </trkpt>
      <trkpt lat="45.9845" lon="6.82323">
        <ele>2091</ele>
        <time>2022-07-21T12:17:33Z</time>
      </trkpt>
      <trkpt lat="45.98439" lon="6.82312">
        <ele>2091</ele>
        <time>2022-07-21T12:17:45Z</time>
      </trkpt>
      <trkpt lat="45.98435" lon="6.8231">
        <ele>2091</ele>
        <time>2022-07-21T12:17:49Z</time>
      </trkpt>
      <trkpt lat="45.9843" lon="6.82305">
        <ele>2091</ele>
        <time>2022-07-21T12:17:55Z</time>
      </trkpt>
      <trkpt lat="45.98421" lon="6.82295">
        <ele>2092</ele>
        <time>2022-07-21T12:18:08Z</time>
      </trkpt>
      <trkpt lat="45.98419" lon="6.82291">
        <ele>2092</ele>
        <time>2022-07-21T12:18:12Z</time>
      </trkpt>
      <trkpt lat="45.98407" lon="6.82278">
        <ele>2094</ele>
        <time>2022-07-21T12:18:29Z</time>
      </trkpt>
      <trkpt lat="45.98402" lon="6.82278">
        <ele>2094</ele>
        <time>2022-07-21T12:18:36Z</time>
      </trkpt>
      <trkpt lat="45.98398" lon="6.82276">
        <ele>2095</ele>
        <time>2022-07-21T12:18:41Z</time>
      </trkpt>
      <trkpt lat="45.98389" lon="6.82266">
        <ele>2094</ele>
        <time>2022-07-21T12:18:52Z</time>
      </trkpt>
      <trkpt lat="45.98385" lon="6.82255">
        <ele>2095</ele>
        <time>2022-07-21T12:19:02Z</time>
      </trkpt>
      <trkpt lat="45.9838" lon="6.82247">
        <ele>2096</ele>
        <time>2022-07-21T12:19:12Z</time>
      </trkpt>
      <trkpt lat="45.98376" lon="6.82244">
        <ele>2096</ele>
        <time>2022-07-21T12:19:17Z</time>
      </trkpt>
      <trkpt lat="45.98376" lon="6.82231">
        <ele>2096</ele>
        <time>2022-07-21T12:19:27Z</time>
      </trkpt>
      <trkpt lat="45.98374" lon="6.82226">
        <ele>2096</ele>
        <time>2022-07-21T12:19:31Z</time>
      </trkpt>
      <trkpt lat="45.98373" lon="6.82206">
        <ele>2097</ele>
        <time>2022-07-21T12:19:47Z</time>
      </trkpt>
      <trkpt lat="45.98375" lon="6.82196">
        <ele>2098</ele>
        <time>2022-07-21T12:19:57Z</time>
      </trkpt>
      <trkpt lat="45.98375" lon="6.82184">
        <ele>2100</ele>
        <time>2022-07-21T12:20:07Z</time>
      </trkpt>
      <trkpt lat="45.98374" lon="6.82171">
        <ele>2099</ele>
        <time>2022-07-21T12:20:16Z</time>
      </trkpt>
      <trkpt lat="45.9837" lon="6.82165">
        <ele>2098</ele>
        <time>2022-07-21T12:20:21Z</time>
      </trkpt>
      <trkpt lat="45.98359" lon="6.8215">
        <ele>2098</ele>
        <time>2022-07-21T12:20:35Z</time>
      </trkpt>
      <trkpt lat="45.98349" lon="6.82144">
        <ele>2097</ele>
        <time>2022-07-21T12:20:46Z</time>
      </trkpt>
      <trkpt lat="45.98341" lon="6.82133">
        <ele>2097</ele>
        <time>2022-07-21T12:20:56Z</time>
      </trkpt>
      <trkpt lat="45.98337" lon="6.82117">
        <ele>2097</ele>
        <time>2022-07-21T12:21:09Z</time>
      </trkpt>
      <trkpt lat="45.98337" lon="6.8211">
        <ele>2097</ele>
        <time>2022-07-21T12:21:14Z</time>
      </trkpt>
      <trkpt lat="45.98325" lon="6.82073">
        <ele>2098</ele>
        <time>2022-07-21T12:21:43Z</time>
      </trkpt>
      <trkpt lat="45.98317" lon="6.82062">
        <ele>2098</ele>
        <time>2022-07-21T12:21:53Z</time>
      </trkpt>
      <trkpt lat="45.98312" lon="6.82055">
        <ele>2098</ele>
        <time>2022-07-21T12:22:00Z</time>
      </trkpt>
      <trkpt lat="45.9831" lon="6.8205">
        <ele>2097</ele>
        <time>2022-07-21T12:22:04Z</time>
      </trkpt>
      <trkpt lat="45.98303" lon="6.82035">
        <ele>2097</ele>
        <time>2022-07-21T12:22:18Z</time>
      </trkpt>
      <trkpt lat="45.98301" lon="6.82029">
        <ele>2097</ele>
        <time>2022-07-21T12:22:24Z</time>
      </trkpt>
      <trkpt lat="45.98294" lon="6.82017">
        <ele>2097</ele>
        <time>2022-07-21T12:22:42Z</time>
      </trkpt>
      <trkpt lat="45.98293" lon="6.8201">
        <ele>2098</ele>
        <time>2022-07-21T12:23:18Z</time>
      </trkpt>
      <trkpt lat="45.9829" lon="6.82005">
        <ele>2098</ele>
        <time>2022-07-21T12:23:22Z</time>
      </trkpt>
      <trkpt lat="45.98283" lon="6.81992">
        <ele>2099</ele>
        <time>2022-07-21T12:23:34Z</time>
      </trkpt>
      <trkpt lat="45.98279" lon="6.81989">
        <ele>2098</ele>
        <time>2022-07-21T12:23:38Z</time>
      </trkpt>
      <trkpt lat="45.98275" lon="6.81986">
        <ele>2098</ele>
        <time>2022-07-21T12:23:46Z</time>
      </trkpt>
      <trkpt lat="45.98267" lon="6.81982">
        <ele>2099</ele>
        <time>2022-07-21T12:23:56Z</time>
      </trkpt>
      <trkpt lat="45.98256" lon="6.81973">
        <ele>2100</ele>
        <time>2022-07-21T12:24:11Z</time>
      </trkpt>
      <trkpt lat="45.98243" lon="6.81951">
        <ele>2102</ele>
        <time>2022-07-21T12:24:35Z</time>
      </trkpt>
      <trkpt lat="45.9824" lon="6.81945">
        <ele>2103</ele>
        <time>2022-07-21T12:24:43Z</time>
      </trkpt>
      <trkpt lat="45.98231" lon="6.81934">
        <ele>2104</ele>
        <time>2022-07-21T12:25:04Z</time>
      </trkpt>
      <trkpt lat="45.98227" lon="6.81926">
        <ele>2105</ele>
        <time>2022-07-21T12:25:19Z</time>
      </trkpt>
      <trkpt lat="45.98223" lon="6.81916">
        <ele>2106</ele>
        <time>2022-07-21T12:25:29Z</time>
      </trkpt>
      <trkpt lat="45.98222" lon="6.81907">
        <ele>2107</ele>
        <time>2022-07-21T12:25:39Z</time>
      </trkpt>
      <trkpt lat="45.98218" lon="6.81903">
        <ele>2107</ele>
        <time>2022-07-21T12:25:45Z</time>
      </trkpt>
      <trkpt lat="45.98214" lon="6.81894">
        <ele>2108</ele>
        <time>2022-07-21T12:25:55Z</time>
      </trkpt>
      <trkpt lat="45.98211" lon="6.81887">
        <ele>2109</ele>
        <time>2022-07-21T12:26:05Z</time>
      </trkpt>
      <trkpt lat="45.98204" lon="6.81885">
        <ele>2110</ele>
        <time>2022-07-21T12:26:15Z</time>
      </trkpt>
      <trkpt lat="45.982" lon="6.81876">
        <ele>2111</ele>
        <time>2022-07-21T12:26:25Z</time>
      </trkpt>
      <trkpt lat="45.98196" lon="6.81873">
        <ele>2111</ele>
        <time>2022-07-21T12:26:36Z</time>
      </trkpt>
      <trkpt lat="45.98193" lon="6.81863">
        <ele>2113</ele>
        <time>2022-07-21T12:26:58Z</time>
      </trkpt>
      <trkpt lat="45.98182" lon="6.81846">
        <ele>2116</ele>
        <time>2022-07-21T12:27:28Z</time>
      </trkpt>
      <trkpt lat="45.98168" lon="6.81833">
        <ele>2121</ele>
        <time>2022-07-21T12:28:08Z</time>
      </trkpt>
      <trkpt lat="45.98156" lon="6.81822">
        <ele>2126</ele>
        <time>2022-07-21T12:28:51Z</time>
      </trkpt>
      <trkpt lat="45.9815" lon="6.81813">
        <ele>2129</ele>
        <time>2022-07-21T12:29:16Z</time>
      </trkpt>
      <trkpt lat="45.98146" lon="6.81807">
        <ele>2131</ele>
        <time>2022-07-21T12:29:31Z</time>
      </trkpt>
      <trkpt lat="45.98141" lon="6.81805">
        <ele>2133</ele>
        <time>2022-07-21T12:29:41Z</time>
      </trkpt>
      <trkpt lat="45.98134" lon="6.81799">
        <ele>2134</ele>
        <time>2022-07-21T12:30:43Z</time>
      </trkpt>
      <trkpt lat="45.98111" lon="6.81791">
        <ele>2140</ele>
        <time>2022-07-21T12:31:22Z</time>
      </trkpt>
      <trkpt lat="45.98102" lon="6.81784">
        <ele>2142</ele>
        <time>2022-07-21T12:31:42Z</time>
      </trkpt>
      <trkpt lat="45.98098" lon="6.81779">
        <ele>2143</ele>
        <time>2022-07-21T12:31:52Z</time>
      </trkpt>
      <trkpt lat="45.98087" lon="6.8177">
        <ele>2145</ele>
        <time>2022-07-21T12:32:12Z</time>
      </trkpt>
      <trkpt lat="45.98081" lon="6.81762">
        <ele>2146</ele>
        <time>2022-07-21T12:32:22Z</time>
      </trkpt>
      <trkpt lat="45.98073" lon="6.81752">
        <ele>2146</ele>
        <time>2022-07-21T12:32:34Z</time>
      </trkpt>
      <trkpt lat="45.98067" lon="6.81745">
        <ele>2147</ele>
        <time>2022-07-21T12:32:45Z</time>
      </trkpt>
      <trkpt lat="45.98064" lon="6.8174">
        <ele>2147</ele>
        <time>2022-07-21T12:32:50Z</time>
      </trkpt>
      <trkpt lat="45.98051" lon="6.81721">
        <ele>2150</ele>
        <time>2022-07-21T12:33:18Z</time>
      </trkpt>
      <trkpt lat="45.98036" lon="6.81711">
        <ele>2152</ele>
        <time>2022-07-21T12:33:37Z</time>
      </trkpt>
      <trkpt lat="45.98031" lon="6.81709">
        <ele>2152</ele>
        <time>2022-07-21T12:33:44Z</time>
      </trkpt>
      <trkpt lat="45.98028" lon="6.81702">
        <ele>2153</ele>
        <time>2022-07-21T12:33:54Z</time>
      </trkpt>
      <trkpt lat="45.98025" lon="6.81684">
        <ele>2156</ele>
        <time>2022-07-21T12:34:14Z</time>
      </trkpt>
      <trkpt lat="45.98022" lon="6.81676">
        <ele>2157</ele>
        <time>2022-07-21T12:34:24Z</time>
      </trkpt>
      <trkpt lat="45.98021" lon="6.81669">
        <ele>2158</ele>
        <time>2022-07-21T12:34:34Z</time>
      </trkpt>
      <trkpt lat="45.98015" lon="6.81664">
        <ele>2159</ele>
        <time>2022-07-21T12:34:44Z</time>
      </trkpt>
      <trkpt lat="45.98011" lon="6.81659">
        <ele>2159</ele>
        <time>2022-07-21T12:34:49Z</time>
      </trkpt>
      <trkpt lat="45.98007" lon="6.81657">
        <ele>2159</ele>
        <time>2022-07-21T12:34:53Z</time>
      </trkpt>
      <trkpt lat="45.98003" lon="6.81654">
        <ele>2159</ele>
        <time>2022-07-21T12:34:57Z</time>
      </trkpt>
      <trkpt lat="45.97998" lon="6.81653">
        <ele>2159</ele>
        <time>2022-07-21T12:35:02Z</time>
      </trkpt>
      <trkpt lat="45.97983" lon="6.81641">
        <ele>2159</ele>
        <time>2022-07-21T12:35:19Z</time>
      </trkpt>
      <trkpt lat="45.97978" lon="6.81637">
        <ele>2158</ele>
        <time>2022-07-21T12:35:25Z</time>
      </trkpt>
      <trkpt lat="45.97959" lon="6.8163">
        <ele>2156</ele>
        <time>2022-07-21T12:35:45Z</time>
      </trkpt>
      <trkpt lat="45.97951" lon="6.81618">
        <ele>2156</ele>
        <time>2022-07-21T12:35:57Z</time>
      </trkpt>
      <trkpt lat="45.97947" lon="6.81614">
        <ele>2156</ele>
        <time>2022-07-21T12:36:02Z</time>
      </trkpt>
      <trkpt lat="45.97943" lon="6.81606">
        <ele>2157</ele>
        <time>2022-07-21T12:36:12Z</time>
      </trkpt>
      <trkpt lat="45.97936" lon="6.81597">
        <ele>2158</ele>
        <time>2022-07-21T12:36:22Z</time>
      </trkpt>
      <trkpt lat="45.97931" lon="6.81582">
        <ele>2159</ele>
        <time>2022-07-21T12:36:35Z</time>
      </trkpt>
      <trkpt lat="45.97922" lon="6.8157">
        <ele>2160</ele>
        <time>2022-07-21T12:36:47Z</time>
      </trkpt>
      <trkpt lat="45.97914" lon="6.81563">
        <ele>2159</ele>
        <time>2022-07-21T12:36:56Z</time>
      </trkpt>
      <trkpt lat="45.97912" lon="6.81557">
        <ele>2160</ele>
        <time>2022-07-21T12:37:00Z</time>
      </trkpt>
      <trkpt lat="45.97908" lon="6.81549">
        <ele>2158</ele>
        <time>2022-07-21T12:37:08Z</time>
      </trkpt>
      <trkpt lat="45.97903" lon="6.81548">
        <ele>2158</ele>
        <time>2022-07-21T12:37:12Z</time>
      </trkpt>
      <trkpt lat="45.97899" lon="6.81546">
        <ele>2158</ele>
        <time>2022-07-21T12:37:17Z</time>
      </trkpt>
      <trkpt lat="45.97894" lon="6.81541">
        <ele>2158</ele>
        <time>2022-07-21T12:37:24Z</time>
      </trkpt>
      <trkpt lat="45.9789" lon="6.81529">
        <ele>2156</ele>
        <time>2022-07-21T12:37:34Z</time>
      </trkpt>
      <trkpt lat="45.97886" lon="6.81516">
        <ele>2156</ele>
        <time>2022-07-21T12:37:44Z</time>
      </trkpt>
      <trkpt lat="45.97885" lon="6.81509">
        <ele>2155</ele>
        <time>2022-07-21T12:37:51Z</time>
      </trkpt>
      <trkpt lat="45.97882" lon="6.815">
        <ele>2153</ele>
        <time>2022-07-21T12:38:01Z</time>
      </trkpt>
      <trkpt lat="45.97878" lon="6.81493">
        <ele>2152</ele>
        <time>2022-07-21T12:38:08Z</time>
      </trkpt>
      <trkpt lat="45.97873" lon="6.81493">
        <ele>2152</ele>
        <time>2022-07-21T12:38:18Z</time>
      </trkpt>
      <trkpt lat="45.97862" lon="6.8149">
        <ele>2155</ele>
        <time>2022-07-21T12:38:38Z</time>
      </trkpt>
      <trkpt lat="45.97858" lon="6.81487">
        <ele>2156</ele>
        <time>2022-07-21T12:38:48Z</time>
      </trkpt>
      <trkpt lat="45.97855" lon="6.81482">
        <ele>2157</ele>
        <time>2022-07-21T12:38:53Z</time>
      </trkpt>
      <trkpt lat="45.97839" lon="6.81462">
        <ele>2158</ele>
        <time>2022-07-21T12:39:16Z</time>
      </trkpt>
      <trkpt lat="45.97835" lon="6.81458">
        <ele>2158</ele>
        <time>2022-07-21T12:39:21Z</time>
      </trkpt>
      <trkpt lat="45.97821" lon="6.81451">
        <ele>2157</ele>
        <time>2022-07-21T12:39:37Z</time>
      </trkpt>
      <trkpt lat="45.97809" lon="6.8144">
        <ele>2155</ele>
        <time>2022-07-21T12:39:52Z</time>
      </trkpt>
      <trkpt lat="45.97799" lon="6.81425">
        <ele>2153</ele>
        <time>2022-07-21T12:40:08Z</time>
      </trkpt>
      <trkpt lat="45.97795" lon="6.81422">
        <ele>2152</ele>
        <time>2022-07-21T12:40:12Z</time>
      </trkpt>
      <trkpt lat="45.97789" lon="6.81414">
        <ele>2150</ele>
        <time>2022-07-21T12:40:24Z</time>
      </trkpt>
      <trkpt lat="45.97783" lon="6.81406">
        <ele>2148</ele>
        <time>2022-07-21T12:40:33Z</time>
      </trkpt>
      <trkpt lat="45.97778" lon="6.81407">
        <ele>2148</ele>
        <time>2022-07-21T12:40:38Z</time>
      </trkpt>
      <trkpt lat="45.97773" lon="6.81403">
        <ele>2149</ele>
        <time>2022-07-21T12:40:45Z</time>
      </trkpt>
      <trkpt lat="45.97769" lon="6.81397">
        <ele>2149</ele>
        <time>2022-07-21T12:40:52Z</time>
      </trkpt>
      <trkpt lat="45.9776" lon="6.8139">
        <ele>2149</ele>
        <time>2022-07-21T12:41:01Z</time>
      </trkpt>
      <trkpt lat="45.97756" lon="6.81389">
        <ele>2149</ele>
        <time>2022-07-21T12:41:05Z</time>
      </trkpt>
      <trkpt lat="45.97751" lon="6.81384">
        <ele>2149</ele>
        <time>2022-07-21T12:41:11Z</time>
      </trkpt>
      <trkpt lat="45.97744" lon="6.81376">
        <ele>2148</ele>
        <time>2022-07-21T12:41:21Z</time>
      </trkpt>
      <trkpt lat="45.97739" lon="6.81375">
        <ele>2148</ele>
        <time>2022-07-21T12:41:25Z</time>
      </trkpt>
      <trkpt lat="45.97734" lon="6.81368">
        <ele>2149</ele>
        <time>2022-07-21T12:41:32Z</time>
      </trkpt>
      <trkpt lat="45.97731" lon="6.81357">
        <ele>2149</ele>
        <time>2022-07-21T12:41:43Z</time>
      </trkpt>
      <trkpt lat="45.97729" lon="6.81351">
        <ele>2148</ele>
        <time>2022-07-21T12:41:48Z</time>
      </trkpt>
      <trkpt lat="45.97723" lon="6.81338">
        <ele>2149</ele>
        <time>2022-07-21T12:42:02Z</time>
      </trkpt>
      <trkpt lat="45.97718" lon="6.8133">
        <ele>2148</ele>
        <time>2022-07-21T12:42:13Z</time>
      </trkpt>
      <trkpt lat="45.97707" lon="6.81294">
        <ele>2143</ele>
        <time>2022-07-21T12:42:43Z</time>
      </trkpt>
      <trkpt lat="45.97699" lon="6.81266">
        <ele>2141</ele>
        <time>2022-07-21T12:43:04Z</time>
      </trkpt>
      <trkpt lat="45.97697" lon="6.8126">
        <ele>2141</ele>
        <time>2022-07-21T12:43:09Z</time>
      </trkpt>
      <trkpt lat="45.97694" lon="6.81254">
        <ele>2141</ele>
        <time>2022-07-21T12:43:14Z</time>
      </trkpt>
      <trkpt lat="45.97694" lon="6.81245">
        <ele>2141</ele>
        <time>2022-07-21T12:43:21Z</time>
      </trkpt>
      <trkpt lat="45.97695" lon="6.81238">
        <ele>2139</ele>
        <time>2022-07-21T12:43:26Z</time>
      </trkpt>
      <trkpt lat="45.97697" lon="6.81231">
        <ele>2139</ele>
        <time>2022-07-21T12:43:31Z</time>
      </trkpt>
      <trkpt lat="45.977" lon="6.81195">
        <ele>2133</ele>
        <time>2022-07-21T12:43:58Z</time>
      </trkpt>
      <trkpt lat="45.977" lon="6.81188">
        <ele>2132</ele>
        <time>2022-07-21T12:44:03Z</time>
      </trkpt>
      <trkpt lat="45.97701" lon="6.81179">
        <ele>2130</ele>
        <time>2022-07-21T12:44:09Z</time>
      </trkpt>
      <trkpt lat="45.977" lon="6.81171">
        <ele>2131</ele>
        <time>2022-07-21T12:44:15Z</time>
      </trkpt>
      <trkpt lat="45.977" lon="6.81164">
        <ele>2130</ele>
        <time>2022-07-21T12:44:20Z</time>
      </trkpt>
      <trkpt lat="45.97703" lon="6.81157">
        <ele>2128</ele>
        <time>2022-07-21T12:44:27Z</time>
      </trkpt>
      <trkpt lat="45.97705" lon="6.81129">
        <ele>2123</ele>
        <time>2022-07-21T12:44:51Z</time>
      </trkpt>
      <trkpt lat="45.97703" lon="6.81124">
        <ele>2123</ele>
        <time>2022-07-21T12:44:54Z</time>
      </trkpt>
      <trkpt lat="45.97701" lon="6.81115">
        <ele>2123</ele>
        <time>2022-07-21T12:45:02Z</time>
      </trkpt>
      <trkpt lat="45.97702" lon="6.81104">
        <ele>2123</ele>
        <time>2022-07-21T12:45:10Z</time>
      </trkpt>
      <trkpt lat="45.97702" lon="6.81098">
        <ele>2123</ele>
        <time>2022-07-21T12:45:17Z</time>
      </trkpt>
      <trkpt lat="45.97702" lon="6.81088">
        <ele>2122</ele>
        <time>2022-07-21T12:46:19Z</time>
      </trkpt>
      <trkpt lat="45.97701" lon="6.81078">
        <ele>2120</ele>
        <time>2022-07-21T12:46:29Z</time>
      </trkpt>
      <trkpt lat="45.97697" lon="6.8107">
        <ele>2119</ele>
        <time>2022-07-21T12:46:38Z</time>
      </trkpt>
      <trkpt lat="45.97693" lon="6.81064">
        <ele>2118</ele>
        <time>2022-07-21T12:46:46Z</time>
      </trkpt>
      <trkpt lat="45.97691" lon="6.81055">
        <ele>2117</ele>
        <time>2022-07-21T12:46:56Z</time>
      </trkpt>
      <trkpt lat="45.97687" lon="6.81048">
        <ele>2115</ele>
        <time>2022-07-21T12:47:06Z</time>
      </trkpt>
      <trkpt lat="45.97684" lon="6.81043">
        <ele>2113</ele>
        <time>2022-07-21T12:47:11Z</time>
      </trkpt>
      <trkpt lat="45.97682" lon="6.81033">
        <ele>2112</ele>
        <time>2022-07-21T12:47:21Z</time>
      </trkpt>
      <trkpt lat="45.97677" lon="6.81025">
        <ele>2110</ele>
        <time>2022-07-21T12:47:32Z</time>
      </trkpt>
      <trkpt lat="45.97674" lon="6.80996">
        <ele>2104</ele>
        <time>2022-07-21T12:48:00Z</time>
      </trkpt>
      <trkpt lat="45.97674" lon="6.80985">
        <ele>2102</ele>
        <time>2022-07-21T12:48:12Z</time>
      </trkpt>
      <trkpt lat="45.97672" lon="6.80977">
        <ele>2100</ele>
        <time>2022-07-21T12:48:22Z</time>
      </trkpt>
      <trkpt lat="45.97669" lon="6.80969">
        <ele>2097</ele>
        <time>2022-07-21T12:48:32Z</time>
      </trkpt>
      <trkpt lat="45.97664" lon="6.80962">
        <ele>2095</ele>
        <time>2022-07-21T12:48:42Z</time>
      </trkpt>
      <trkpt lat="45.9766" lon="6.80953">
        <ele>2092</ele>
        <time>2022-07-21T12:48:53Z</time>
      </trkpt>
      <trkpt lat="45.97649" lon="6.80929">
        <ele>2086</ele>
        <time>2022-07-21T12:49:21Z</time>
      </trkpt>
      <trkpt lat="45.97644" lon="6.8091">
        <ele>2081</ele>
        <time>2022-07-21T12:49:44Z</time>
      </trkpt>
      <trkpt lat="45.97639" lon="6.80903">
        <ele>2077</ele>
        <time>2022-07-21T12:49:55Z</time>
      </trkpt>
      <trkpt lat="45.97637" lon="6.80894">
        <ele>2075</ele>
        <time>2022-07-21T12:50:05Z</time>
      </trkpt>
      <trkpt lat="45.97634" lon="6.80885">
        <ele>2073</ele>
        <time>2022-07-21T12:50:15Z</time>
      </trkpt>
      <trkpt lat="45.97622" lon="6.80853">
        <ele>2066</ele>
        <time>2022-07-21T12:50:48Z</time>
      </trkpt>
      <trkpt lat="45.97621" lon="6.80847">
        <ele>2065</ele>
        <time>2022-07-21T12:50:53Z</time>
      </trkpt>
      <trkpt lat="45.97612" lon="6.80836">
        <ele>2061</ele>
        <time>2022-07-21T12:51:10Z</time>
      </trkpt>
      <trkpt lat="45.97612" lon="6.80829">
        <ele>2060</ele>
        <time>2022-07-21T12:51:15Z</time>
      </trkpt>
      <trkpt lat="45.97609" lon="6.80813">
        <ele>2057</ele>
        <time>2022-07-21T12:51:32Z</time>
      </trkpt>
      <trkpt lat="45.97605" lon="6.80804">
        <ele>2054</ele>
        <time>2022-07-21T12:51:44Z</time>
      </trkpt>
      <trkpt lat="45.97603" lon="6.80794">
        <ele>2051</ele>
        <time>2022-07-21T12:51:56Z</time>
      </trkpt>
      <trkpt lat="45.97599" lon="6.80788">
        <ele>2048</ele>
        <time>2022-07-21T12:52:06Z</time>
      </trkpt>
      <trkpt lat="45.97601" lon="6.80777">
        <ele>2046</ele>
        <time>2022-07-21T12:52:16Z</time>
      </trkpt>
      <trkpt lat="45.97601" lon="6.80766">
        <ele>2044</ele>
        <time>2022-07-21T12:52:26Z</time>
      </trkpt>
      <trkpt lat="45.97591" lon="6.80742">
        <ele>2038</ele>
        <time>2022-07-21T12:52:53Z</time>
      </trkpt>
      <trkpt lat="45.97595" lon="6.80733">
        <ele>2036</ele>
        <time>2022-07-21T12:53:03Z</time>
      </trkpt>
      <trkpt lat="45.97588" lon="6.80709">
        <ele>2032</ele>
        <time>2022-07-21T12:53:25Z</time>
      </trkpt>
      <trkpt lat="45.97587" lon="6.80692">
        <ele>2029</ele>
        <time>2022-07-21T12:53:40Z</time>
      </trkpt>
      <trkpt lat="45.97589" lon="6.80685">
        <ele>2027</ele>
        <time>2022-07-21T12:53:46Z</time>
      </trkpt>
      <trkpt lat="45.97583" lon="6.80669">
        <ele>2026</ele>
        <time>2022-07-21T12:53:58Z</time>
      </trkpt>
      <trkpt lat="45.97581" lon="6.80659">
        <ele>2025</ele>
        <time>2022-07-21T12:54:07Z</time>
      </trkpt>
      <trkpt lat="45.97579" lon="6.80643">
        <ele>2023</ele>
        <time>2022-07-21T12:54:22Z</time>
      </trkpt>
      <trkpt lat="45.97582" lon="6.80631">
        <ele>2021</ele>
        <time>2022-07-21T12:54:32Z</time>
      </trkpt>
      <trkpt lat="45.97584" lon="6.80626">
        <ele>2020</ele>
        <time>2022-07-21T12:54:36Z</time>
      </trkpt>
      <trkpt lat="45.97584" lon="6.80617">
        <ele>2020</ele>
        <time>2022-07-21T12:54:43Z</time>
      </trkpt>
      <trkpt lat="45.97585" lon="6.80611">
        <ele>2019</ele>
        <time>2022-07-21T12:54:50Z</time>
      </trkpt>
      <trkpt lat="45.97582" lon="6.80605">
        <ele>2018</ele>
        <time>2022-07-21T12:54:55Z</time>
      </trkpt>
      <trkpt lat="45.97577" lon="6.80602">
        <ele>2018</ele>
        <time>2022-07-21T12:55:01Z</time>
      </trkpt>
      <trkpt lat="45.97572" lon="6.80596">
        <ele>2018</ele>
        <time>2022-07-21T12:55:07Z</time>
      </trkpt>
      <trkpt lat="45.97573" lon="6.80587">
        <ele>2017</ele>
        <time>2022-07-21T12:55:15Z</time>
      </trkpt>
      <trkpt lat="45.97569" lon="6.80583">
        <ele>2016</ele>
        <time>2022-07-21T12:55:19Z</time>
      </trkpt>
      <trkpt lat="45.9756" lon="6.80576">
        <ele>2016</ele>
        <time>2022-07-21T12:55:27Z</time>
      </trkpt>
      <trkpt lat="45.97555" lon="6.8057">
        <ele>2015</ele>
        <time>2022-07-21T12:55:36Z</time>
      </trkpt>
      <trkpt lat="45.97543" lon="6.80532">
        <ele>2008</ele>
        <time>2022-07-21T12:56:15Z</time>
      </trkpt>
      <trkpt lat="45.97542" lon="6.80497">
        <ele>2003</ele>
        <time>2022-07-21T12:56:41Z</time>
      </trkpt>
      <trkpt lat="45.97543" lon="6.80491">
        <ele>2003</ele>
        <time>2022-07-21T12:56:46Z</time>
      </trkpt>
      <trkpt lat="45.97541" lon="6.80483">
        <ele>2002</ele>
        <time>2022-07-21T12:56:53Z</time>
      </trkpt>
      <trkpt lat="45.97537" lon="6.80474">
        <ele>2000</ele>
        <time>2022-07-21T12:57:03Z</time>
      </trkpt>
      <trkpt lat="45.97535" lon="6.80461">
        <ele>1998</ele>
        <time>2022-07-21T12:57:12Z</time>
      </trkpt>
      <trkpt lat="45.9753" lon="6.80458">
        <ele>1998</ele>
        <time>2022-07-21T12:57:17Z</time>
      </trkpt>
      <trkpt lat="45.97525" lon="6.80446">
        <ele>1996</ele>
        <time>2022-07-21T12:57:29Z</time>
      </trkpt>
      <trkpt lat="45.97525" lon="6.80424">
        <ele>1992</ele>
        <time>2022-07-21T12:57:46Z</time>
      </trkpt>
      <trkpt lat="45.9753" lon="6.80416">
        <ele>1990</ele>
        <time>2022-07-21T12:57:53Z</time>
      </trkpt>
      <trkpt lat="45.97535" lon="6.80403">
        <ele>1989</ele>
        <time>2022-07-21T12:58:03Z</time>
      </trkpt>
      <trkpt lat="45.97531" lon="6.80398">
        <ele>1989</ele>
        <time>2022-07-21T12:58:08Z</time>
      </trkpt>
      <trkpt lat="45.97523" lon="6.80393">
        <ele>1989</ele>
        <time>2022-07-21T12:58:15Z</time>
      </trkpt>
      <trkpt lat="45.97519" lon="6.80388">
        <ele>1990</ele>
        <time>2022-07-21T12:58:22Z</time>
      </trkpt>
      <trkpt lat="45.97515" lon="6.8038">
        <ele>1991</ele>
        <time>2022-07-21T12:58:32Z</time>
      </trkpt>
      <trkpt lat="45.97515" lon="6.80369">
        <ele>1991</ele>
        <time>2022-07-21T12:58:42Z</time>
      </trkpt>
      <trkpt lat="45.97515" lon="6.80354">
        <ele>1991</ele>
        <time>2022-07-21T12:58:52Z</time>
      </trkpt>
      <trkpt lat="45.97518" lon="6.80345">
        <ele>1991</ele>
        <time>2022-07-21T12:58:59Z</time>
      </trkpt>
      <trkpt lat="45.97519" lon="6.80337">
        <ele>1991</ele>
        <time>2022-07-21T12:59:05Z</time>
      </trkpt>
      <trkpt lat="45.9752" lon="6.80331">
        <ele>1991</ele>
        <time>2022-07-21T12:59:09Z</time>
      </trkpt>
      <trkpt lat="45.97524" lon="6.80319">
        <ele>1990</ele>
        <time>2022-07-21T12:59:18Z</time>
      </trkpt>
      <trkpt lat="45.9753" lon="6.8031">
        <ele>1991</ele>
        <time>2022-07-21T12:59:27Z</time>
      </trkpt>
      <trkpt lat="45.97549" lon="6.80293">
        <ele>1990</ele>
        <time>2022-07-21T12:59:48Z</time>
      </trkpt>
      <trkpt lat="45.97568" lon="6.80282">
        <ele>1989</ele>
        <time>2022-07-21T13:00:07Z</time>
      </trkpt>
      <trkpt lat="45.97577" lon="6.80282">
        <ele>1988</ele>
        <time>2022-07-21T13:00:15Z</time>
      </trkpt>
      <trkpt lat="45.97582" lon="6.80278">
        <ele>1988</ele>
        <time>2022-07-21T13:00:22Z</time>
      </trkpt>
      <trkpt lat="45.97584" lon="6.80272">
        <ele>1988</ele>
        <time>2022-07-21T13:00:27Z</time>
      </trkpt>
      <trkpt lat="45.97572" lon="6.80242">
        <ele>1991</ele>
        <time>2022-07-21T13:01:01Z</time>
      </trkpt>
      <trkpt lat="45.9757" lon="6.80236">
        <ele>1992</ele>
        <time>2022-07-21T13:01:05Z</time>
      </trkpt>
      <trkpt lat="45.97566" lon="6.8023">
        <ele>1992</ele>
        <time>2022-07-21T13:01:12Z</time>
      </trkpt>
      <trkpt lat="45.97562" lon="6.80225">
        <ele>1993</ele>
        <time>2022-07-21T13:01:22Z</time>
      </trkpt>
      <trkpt lat="45.9756" lon="6.80216">
        <ele>1994</ele>
        <time>2022-07-21T13:01:32Z</time>
      </trkpt>
      <trkpt lat="45.9756" lon="6.80209">
        <ele>1994</ele>
        <time>2022-07-21T13:01:37Z</time>
      </trkpt>
      <trkpt lat="45.97558" lon="6.80199">
        <ele>1994</ele>
        <time>2022-07-21T13:01:46Z</time>
      </trkpt>
      <trkpt lat="45.97549" lon="6.80186">
        <ele>1995</ele>
        <time>2022-07-21T13:02:00Z</time>
      </trkpt>
      <trkpt lat="45.97547" lon="6.80169">
        <ele>1996</ele>
        <time>2022-07-21T13:02:16Z</time>
      </trkpt>
      <trkpt lat="45.97543" lon="6.80153">
        <ele>1997</ele>
        <time>2022-07-21T13:02:30Z</time>
      </trkpt>
      <trkpt lat="45.97543" lon="6.80147">
        <ele>1998</ele>
        <time>2022-07-21T13:02:35Z</time>
      </trkpt>
      <trkpt lat="45.97538" lon="6.80129">
        <ele>1999</ele>
        <time>2022-07-21T13:02:52Z</time>
      </trkpt>
      <trkpt lat="45.97536" lon="6.80124">
        <ele>2000</ele>
        <time>2022-07-21T13:02:56Z</time>
      </trkpt>
      <trkpt lat="45.97534" lon="6.80118">
        <ele>2000</ele>
        <time>2022-07-21T13:03:01Z</time>
      </trkpt>
      <trkpt lat="45.97531" lon="6.8011">
        <ele>2000</ele>
        <time>2022-07-21T13:03:08Z</time>
      </trkpt>
      <trkpt lat="45.97529" lon="6.80103">
        <ele>2000</ele>
        <time>2022-07-21T13:03:13Z</time>
      </trkpt>
      <trkpt lat="45.97527" lon="6.80098">
        <ele>2000</ele>
        <time>2022-07-21T13:03:18Z</time>
      </trkpt>
      <trkpt lat="45.97522" lon="6.80094">
        <ele>2000</ele>
        <time>2022-07-21T13:03:23Z</time>
      </trkpt>
      <trkpt lat="45.97521" lon="6.80086">
        <ele>2000</ele>
        <time>2022-07-21T13:03:30Z</time>
      </trkpt>
      <trkpt lat="45.97518" lon="6.8008">
        <ele>2000</ele>
        <time>2022-07-21T13:03:35Z</time>
      </trkpt>
      <trkpt lat="45.97512" lon="6.80074">
        <ele>2000</ele>
        <time>2022-07-21T13:03:43Z</time>
      </trkpt>
      <trkpt lat="45.97513" lon="6.80068">
        <ele>1999</ele>
        <time>2022-07-21T13:04:09Z</time>
      </trkpt>
      <trkpt lat="45.97509" lon="6.80066">
        <ele>2000</ele>
        <time>2022-07-21T13:05:37Z</time>
      </trkpt>
      <trkpt lat="45.97513" lon="6.80061">
        <ele>2000</ele>
        <time>2022-07-21T13:05:57Z</time>
      </trkpt>
      <trkpt lat="45.97507" lon="6.80058">
        <ele>1999</ele>
        <time>2022-07-21T13:06:07Z</time>
      </trkpt>
      <trkpt lat="45.97499" lon="6.80052">
        <ele>1998</ele>
        <time>2022-07-21T13:06:19Z</time>
      </trkpt>
      <trkpt lat="45.9749" lon="6.80042">
        <ele>1996</ele>
        <time>2022-07-21T13:06:31Z</time>
      </trkpt>
      <trkpt lat="45.97463" lon="6.80031">
        <ele>1991</ele>
        <time>2022-07-21T13:07:00Z</time>
      </trkpt>
      <trkpt lat="45.97456" lon="6.8002">
        <ele>1990</ele>
        <time>2022-07-21T13:07:12Z</time>
      </trkpt>
      <trkpt lat="45.97447" lon="6.80018">
        <ele>1989</ele>
        <time>2022-07-21T13:07:20Z</time>
      </trkpt>
      <trkpt lat="45.97436" lon="6.80001">
        <ele>1987</ele>
        <time>2022-07-21T13:07:36Z</time>
      </trkpt>
      <trkpt lat="45.97411" lon="6.7998">
        <ele>1984</ele>
        <time>2022-07-21T13:08:03Z</time>
      </trkpt>
      <trkpt lat="45.97406" lon="6.79974">
        <ele>1984</ele>
        <time>2022-07-21T13:08:09Z</time>
      </trkpt>
      <trkpt lat="45.97398" lon="6.79972">
        <ele>1983</ele>
        <time>2022-07-21T13:08:19Z</time>
      </trkpt>
      <trkpt lat="45.97394" lon="6.79974">
        <ele>1982</ele>
        <time>2022-07-21T13:08:24Z</time>
      </trkpt>
      <trkpt lat="45.97385" lon="6.79974">
        <ele>1981</ele>
        <time>2022-07-21T13:08:33Z</time>
      </trkpt>
      <trkpt lat="45.9738" lon="6.79973">
        <ele>1981</ele>
        <time>2022-07-21T13:08:37Z</time>
      </trkpt>
      <trkpt lat="45.97371" lon="6.79966">
        <ele>1979</ele>
        <time>2022-07-21T13:08:48Z</time>
      </trkpt>
      <trkpt lat="45.97358" lon="6.79957">
        <ele>1979</ele>
        <time>2022-07-21T13:09:00Z</time>
      </trkpt>
      <trkpt lat="45.97355" lon="6.79952">
        <ele>1978</ele>
        <time>2022-07-21T13:09:05Z</time>
      </trkpt>
      <trkpt lat="45.9735" lon="6.79945">
        <ele>1977</ele>
        <time>2022-07-21T13:09:13Z</time>
      </trkpt>
      <trkpt lat="45.97342" lon="6.79939">
        <ele>1975</ele>
        <time>2022-07-21T13:09:21Z</time>
      </trkpt>
      <trkpt lat="45.97327" lon="6.79931">
        <ele>1973</ele>
        <time>2022-07-21T13:09:36Z</time>
      </trkpt>
      <trkpt lat="45.97319" lon="6.79922">
        <ele>1971</ele>
        <time>2022-07-21T13:09:46Z</time>
      </trkpt>
      <trkpt lat="45.97302" lon="6.79914">
        <ele>1969</ele>
        <time>2022-07-21T13:10:03Z</time>
      </trkpt>
      <trkpt lat="45.97271" lon="6.79888">
        <ele>1964</ele>
        <time>2022-07-21T13:10:37Z</time>
      </trkpt>
      <trkpt lat="45.97253" lon="6.79869">
        <ele>1962</ele>
        <time>2022-07-21T13:10:59Z</time>
      </trkpt>
      <trkpt lat="45.97247" lon="6.79862">
        <ele>1960</ele>
        <time>2022-07-21T13:11:08Z</time>
      </trkpt>
      <trkpt lat="45.97244" lon="6.79858">
        <ele>1960</ele>
        <time>2022-07-21T13:11:13Z</time>
      </trkpt>
      <trkpt lat="45.97211" lon="6.79846">
        <ele>1956</ele>
        <time>2022-07-21T13:11:47Z</time>
      </trkpt>
      <trkpt lat="45.97207" lon="6.79844">
        <ele>1955</ele>
        <time>2022-07-21T13:11:51Z</time>
      </trkpt>
      <trkpt lat="45.97203" lon="6.79841">
        <ele>1955</ele>
        <time>2022-07-21T13:11:56Z</time>
      </trkpt>
      <trkpt lat="45.97198" lon="6.7984">
        <ele>1955</ele>
        <time>2022-07-21T13:12:01Z</time>
      </trkpt>
      <trkpt lat="45.97188" lon="6.79832">
        <ele>1954</ele>
        <time>2022-07-21T13:12:12Z</time>
      </trkpt>
      <trkpt lat="45.9718" lon="6.79827">
        <ele>1954</ele>
        <time>2022-07-21T13:12:21Z</time>
      </trkpt>
      <trkpt lat="45.97172" lon="6.79818">
        <ele>1955</ele>
        <time>2022-07-21T13:12:38Z</time>
      </trkpt>
      <trkpt lat="45.97176" lon="6.79825">
        <ele>1955</ele>
        <time>2022-07-21T13:14:52Z</time>
      </trkpt>
      <trkpt lat="45.97174" lon="6.79823">
        <ele>1956</ele>
        <time>2022-07-21T13:15:13Z</time>
      </trkpt>
      <trkpt lat="45.97171" lon="6.79817">
        <ele>1956</ele>
        <time>2022-07-21T13:15:28Z</time>
      </trkpt>
      <trkpt lat="45.97155" lon="6.79823">
        <ele>1959</ele>
        <time>2022-07-21T13:48:14Z</time>
      </trkpt>
      <trkpt lat="45.97171" lon="6.79815">
        <ele>1959</ele>
        <time>2022-07-21T13:48:22Z</time>
      </trkpt>
      <trkpt lat="45.97176" lon="6.79823">
        <ele>1958</ele>
        <time>2022-07-21T13:49:49Z</time>
      </trkpt>
      <trkpt lat="45.9718" lon="6.79826">
        <ele>1957</ele>
        <time>2022-07-21T13:50:01Z</time>
      </trkpt>
      <trkpt lat="45.97185" lon="6.7983">
        <ele>1957</ele>
        <time>2022-07-21T13:50:25Z</time>
      </trkpt>
      <trkpt lat="45.97191" lon="6.79832">
        <ele>1957</ele>
        <time>2022-07-21T13:50:31Z</time>
      </trkpt>
      <trkpt lat="45.97195" lon="6.79835">
        <ele>1957</ele>
        <time>2022-07-21T13:50:35Z</time>
      </trkpt>
      <trkpt lat="45.97198" lon="6.7984">
        <ele>1957</ele>
        <time>2022-07-21T13:50:40Z</time>
      </trkpt>
      <trkpt lat="45.97206" lon="6.79846">
        <ele>1957</ele>
        <time>2022-07-21T13:50:49Z</time>
      </trkpt>
      <trkpt lat="45.97209" lon="6.79852">
        <ele>1957</ele>
        <time>2022-07-21T13:50:53Z</time>
      </trkpt>
      <trkpt lat="45.97212" lon="6.79861">
        <ele>1957</ele>
        <time>2022-07-21T13:51:00Z</time>
      </trkpt>
      <trkpt lat="45.97218" lon="6.79865">
        <ele>1957</ele>
        <time>2022-07-21T13:51:06Z</time>
      </trkpt>
      <trkpt lat="45.97219" lon="6.7987">
        <ele>1956</ele>
        <time>2022-07-21T13:52:12Z</time>
      </trkpt>
      <trkpt lat="45.97178" lon="6.7983">
        <ele>1949</ele>
        <time>2022-07-21T14:26:22Z</time>
      </trkpt>
      <trkpt lat="45.97178" lon="6.79829">
        <ele>1949</ele>
        <time>2022-07-21T14:26:23Z</time>
      </trkpt>
      <trkpt lat="45.9717" lon="6.7983">
        <ele>1949</ele>
        <time>2022-07-21T14:26:24Z</time>
      </trkpt>
      <trkpt lat="45.97152" lon="6.79817">
        <ele>1951</ele>
        <time>2022-07-21T14:29:32Z</time>
      </trkpt>
      <trkpt lat="45.97152" lon="6.79817">
        <ele>1951</ele>
        <time>2022-07-21T14:29:33Z</time>
      </trkpt>
      <trkpt lat="45.97147" lon="6.79807">
        <ele>1951</ele>
        <time>2022-07-21T14:29:46Z</time>
      </trkpt>
      <trkpt lat="45.97143" lon="6.79796">
        <ele>1952</ele>
        <time>2022-07-21T14:29:56Z</time>
      </trkpt>
      <trkpt lat="45.97137" lon="6.79779">
        <ele>1950</ele>
        <time>2022-07-21T14:30:36Z</time>
      </trkpt>
      <trkpt lat="45.9713" lon="6.79768">
        <ele>1949</ele>
        <time>2022-07-21T14:30:54Z</time>
      </trkpt>
      <trkpt lat="45.97119" lon="6.79747">
        <ele>1947</ele>
        <time>2022-07-21T14:31:12Z</time>
      </trkpt>
      <trkpt lat="45.9711" lon="6.7974">
        <ele>1947</ele>
        <time>2022-07-21T14:31:22Z</time>
      </trkpt>
      <trkpt lat="45.97088" lon="6.79706">
        <ele>1949</ele>
        <time>2022-07-21T14:31:58Z</time>
      </trkpt>
      <trkpt lat="45.97083" lon="6.79702">
        <ele>1950</ele>
        <time>2022-07-21T14:32:05Z</time>
      </trkpt>
      <trkpt lat="45.97072" lon="6.79686">
        <ele>1952</ele>
        <time>2022-07-21T14:32:25Z</time>
      </trkpt>
      <trkpt lat="45.97072" lon="6.79678">
        <ele>1953</ele>
        <time>2022-07-21T14:32:52Z</time>
      </trkpt>
      <trkpt lat="45.97065" lon="6.79678">
        <ele>1953</ele>
        <time>2022-07-21T14:33:14Z</time>
      </trkpt>
      <trkpt lat="45.97053" lon="6.7967">
        <ele>1955</ele>
        <time>2022-07-21T14:33:29Z</time>
      </trkpt>
      <trkpt lat="45.97024" lon="6.79657">
        <ele>1960</ele>
        <time>2022-07-21T14:34:03Z</time>
      </trkpt>
      <trkpt lat="45.97016" lon="6.79654">
        <ele>1960</ele>
        <time>2022-07-21T14:34:12Z</time>
      </trkpt>
      <trkpt lat="45.97012" lon="6.79655">
        <ele>1960</ele>
        <time>2022-07-21T14:34:15Z</time>
      </trkpt>
      <trkpt lat="45.97002" lon="6.79647">
        <ele>1960</ele>
        <time>2022-07-21T14:34:25Z</time>
      </trkpt>
      <trkpt lat="45.96992" lon="6.79637">
        <ele>1959</ele>
        <time>2022-07-21T14:34:35Z</time>
      </trkpt>
      <trkpt lat="45.96989" lon="6.79632">
        <ele>1959</ele>
        <time>2022-07-21T14:34:38Z</time>
      </trkpt>
      <trkpt lat="45.96986" lon="6.79629">
        <ele>1959</ele>
        <time>2022-07-21T14:34:41Z</time>
      </trkpt>
      <trkpt lat="45.96975" lon="6.79626">
        <ele>1959</ele>
        <time>2022-07-21T14:34:50Z</time>
      </trkpt>
      <trkpt lat="45.96971" lon="6.79627">
        <ele>1959</ele>
        <time>2022-07-21T14:34:53Z</time>
      </trkpt>
      <trkpt lat="45.96966" lon="6.79625">
        <ele>1960</ele>
        <time>2022-07-21T14:34:58Z</time>
      </trkpt>
      <trkpt lat="45.96958" lon="6.79625">
        <ele>1961</ele>
        <time>2022-07-21T14:35:06Z</time>
      </trkpt>
      <trkpt lat="45.96953" lon="6.79624">
        <ele>1962</ele>
        <time>2022-07-21T14:35:11Z</time>
      </trkpt>
      <trkpt lat="45.96943" lon="6.79625">
        <ele>1964</ele>
        <time>2022-07-21T14:35:23Z</time>
      </trkpt>
      <trkpt lat="45.96935" lon="6.79628">
        <ele>1965</ele>
        <time>2022-07-21T14:35:30Z</time>
      </trkpt>
      <trkpt lat="45.96931" lon="6.7963">
        <ele>1965</ele>
        <time>2022-07-21T14:35:34Z</time>
      </trkpt>
      <trkpt lat="45.96926" lon="6.79631">
        <ele>1966</ele>
        <time>2022-07-21T14:35:39Z</time>
      </trkpt>
      <trkpt lat="45.96921" lon="6.79634">
        <ele>1966</ele>
        <time>2022-07-21T14:35:45Z</time>
      </trkpt>
      <trkpt lat="45.96911" lon="6.79638">
        <ele>1966</ele>
        <time>2022-07-21T14:35:55Z</time>
      </trkpt>
      <trkpt lat="45.96903" lon="6.79638">
        <ele>1967</ele>
        <time>2022-07-21T14:36:04Z</time>
      </trkpt>
      <trkpt lat="45.96898" lon="6.79636">
        <ele>1967</ele>
        <time>2022-07-21T14:36:08Z</time>
      </trkpt>
      <trkpt lat="45.9688" lon="6.79639">
        <ele>1968</ele>
        <time>2022-07-21T14:36:24Z</time>
      </trkpt>
      <trkpt lat="45.96876" lon="6.79642">
        <ele>1968</ele>
        <time>2022-07-21T14:36:29Z</time>
      </trkpt>
      <trkpt lat="45.96872" lon="6.79647">
        <ele>1969</ele>
        <time>2022-07-21T14:36:34Z</time>
      </trkpt>
      <trkpt lat="45.96863" lon="6.79655">
        <ele>1971</ele>
        <time>2022-07-21T14:36:45Z</time>
      </trkpt>
      <trkpt lat="45.96858" lon="6.79656">
        <ele>1972</ele>
        <time>2022-07-21T14:36:50Z</time>
      </trkpt>
      <trkpt lat="45.96854" lon="6.79654">
        <ele>1972</ele>
        <time>2022-07-21T14:36:54Z</time>
      </trkpt>
      <trkpt lat="45.9685" lon="6.79652">
        <ele>1971</ele>
        <time>2022-07-21T14:36:57Z</time>
      </trkpt>
      <trkpt lat="45.96841" lon="6.79647">
        <ele>1971</ele>
        <time>2022-07-21T14:37:06Z</time>
      </trkpt>
      <trkpt lat="45.96837" lon="6.79644">
        <ele>1972</ele>
        <time>2022-07-21T14:37:10Z</time>
      </trkpt>
      <trkpt lat="45.96833" lon="6.7964">
        <ele>1972</ele>
        <time>2022-07-21T14:37:14Z</time>
      </trkpt>
      <trkpt lat="45.96824" lon="6.79633">
        <ele>1971</ele>
        <time>2022-07-21T14:37:22Z</time>
      </trkpt>
      <trkpt lat="45.96804" lon="6.79617">
        <ele>1968</ele>
        <time>2022-07-21T14:37:42Z</time>
      </trkpt>
      <trkpt lat="45.96799" lon="6.79616">
        <ele>1967</ele>
        <time>2022-07-21T14:37:46Z</time>
      </trkpt>
      <trkpt lat="45.96786" lon="6.79611">
        <ele>1965</ele>
        <time>2022-07-21T14:37:58Z</time>
      </trkpt>
      <trkpt lat="45.9678" lon="6.79612">
        <ele>1964</ele>
        <time>2022-07-21T14:38:02Z</time>
      </trkpt>
      <trkpt lat="45.96762" lon="6.79617">
        <ele>1964</ele>
        <time>2022-07-21T14:38:17Z</time>
      </trkpt>
      <trkpt lat="45.96758" lon="6.79617">
        <ele>1964</ele>
        <time>2022-07-21T14:38:21Z</time>
      </trkpt>
      <trkpt lat="45.96753" lon="6.79614">
        <ele>1963</ele>
        <time>2022-07-21T14:38:25Z</time>
      </trkpt>
      <trkpt lat="45.96745" lon="6.79599">
        <ele>1961</ele>
        <time>2022-07-21T14:38:35Z</time>
      </trkpt>
      <trkpt lat="45.96735" lon="6.79597">
        <ele>1961</ele>
        <time>2022-07-21T14:38:42Z</time>
      </trkpt>
      <trkpt lat="45.9673" lon="6.79595">
        <ele>1960</ele>
        <time>2022-07-21T14:38:46Z</time>
      </trkpt>
      <trkpt lat="45.96721" lon="6.79589">
        <ele>1959</ele>
        <time>2022-07-21T14:38:54Z</time>
      </trkpt>
      <trkpt lat="45.96713" lon="6.79583">
        <ele>1957</ele>
        <time>2022-07-21T14:39:02Z</time>
      </trkpt>
      <trkpt lat="45.96705" lon="6.79569">
        <ele>1952</ele>
        <time>2022-07-21T14:39:22Z</time>
      </trkpt>
      <trkpt lat="45.96697" lon="6.79545">
        <ele>1949</ele>
        <time>2022-07-21T14:39:38Z</time>
      </trkpt>
      <trkpt lat="45.96697" lon="6.79531">
        <ele>1947</ele>
        <time>2022-07-21T14:39:46Z</time>
      </trkpt>
      <trkpt lat="45.96695" lon="6.79526">
        <ele>1947</ele>
        <time>2022-07-21T14:39:50Z</time>
      </trkpt>
      <trkpt lat="45.96687" lon="6.79517">
        <ele>1946</ele>
        <time>2022-07-21T14:39:58Z</time>
      </trkpt>
      <trkpt lat="45.96682" lon="6.79514">
        <ele>1945</ele>
        <time>2022-07-21T14:40:02Z</time>
      </trkpt>
      <trkpt lat="45.96679" lon="6.79508">
        <ele>1945</ele>
        <time>2022-07-21T14:40:06Z</time>
      </trkpt>
      <trkpt lat="45.96674" lon="6.79505">
        <ele>1944</ele>
        <time>2022-07-21T14:40:11Z</time>
      </trkpt>
      <trkpt lat="45.96666" lon="6.79493">
        <ele>1941</ele>
        <time>2022-07-21T14:40:21Z</time>
      </trkpt>
      <trkpt lat="45.96661" lon="6.79491">
        <ele>1941</ele>
        <time>2022-07-21T14:40:25Z</time>
      </trkpt>
      <trkpt lat="45.96657" lon="6.79488">
        <ele>1940</ele>
        <time>2022-07-21T14:40:29Z</time>
      </trkpt>
      <trkpt lat="45.96653" lon="6.79482">
        <ele>1939</ele>
        <time>2022-07-21T14:40:33Z</time>
      </trkpt>
      <trkpt lat="45.96649" lon="6.79479">
        <ele>1938</ele>
        <time>2022-07-21T14:40:37Z</time>
      </trkpt>
      <trkpt lat="45.96642" lon="6.79468">
        <ele>1937</ele>
        <time>2022-07-21T14:40:45Z</time>
      </trkpt>
      <trkpt lat="45.96633" lon="6.79462">
        <ele>1937</ele>
        <time>2022-07-21T14:40:52Z</time>
      </trkpt>
      <trkpt lat="45.96632" lon="6.79456">
        <ele>1937</ele>
        <time>2022-07-21T14:40:56Z</time>
      </trkpt>
      <trkpt lat="45.9663" lon="6.7945">
        <ele>1937</ele>
        <time>2022-07-21T14:41:00Z</time>
      </trkpt>
      <trkpt lat="45.96626" lon="6.79447">
        <ele>1937</ele>
        <time>2022-07-21T14:41:04Z</time>
      </trkpt>
      <trkpt lat="45.96614" lon="6.79426">
        <ele>1935</ele>
        <time>2022-07-21T14:41:20Z</time>
      </trkpt>
      <trkpt lat="45.96606" lon="6.79413">
        <ele>1935</ele>
        <time>2022-07-21T14:41:30Z</time>
      </trkpt>
      <trkpt lat="45.96604" lon="6.79409">
        <ele>1934</ele>
        <time>2022-07-21T14:41:34Z</time>
      </trkpt>
      <trkpt lat="45.96599" lon="6.79405">
        <ele>1934</ele>
        <time>2022-07-21T14:41:39Z</time>
      </trkpt>
      <trkpt lat="45.96603" lon="6.79397">
        <ele>1934</ele>
        <time>2022-07-21T14:42:09Z</time>
      </trkpt>
      <trkpt lat="45.96603" lon="6.7939">
        <ele>1934</ele>
        <time>2022-07-21T14:42:14Z</time>
      </trkpt>
      <trkpt lat="45.96602" lon="6.79385">
        <ele>1934</ele>
        <time>2022-07-21T14:42:18Z</time>
      </trkpt>
      <trkpt lat="45.96602" lon="6.79379">
        <ele>1934</ele>
        <time>2022-07-21T14:42:21Z</time>
      </trkpt>
      <trkpt lat="45.966" lon="6.79371">
        <ele>1934</ele>
        <time>2022-07-21T14:42:26Z</time>
      </trkpt>
      <trkpt lat="45.96603" lon="6.79345">
        <ele>1933</ele>
        <time>2022-07-21T14:42:42Z</time>
      </trkpt>
      <trkpt lat="45.9661" lon="6.7932">
        <ele>1934</ele>
        <time>2022-07-21T14:43:00Z</time>
      </trkpt>
      <trkpt lat="45.96613" lon="6.79315">
        <ele>1934</ele>
        <time>2022-07-21T14:43:04Z</time>
      </trkpt>
      <trkpt lat="45.96616" lon="6.7931">
        <ele>1934</ele>
        <time>2022-07-21T14:43:08Z</time>
      </trkpt>
      <trkpt lat="45.9662" lon="6.79308">
        <ele>1933</ele>
        <time>2022-07-21T14:43:17Z</time>
      </trkpt>
      <trkpt lat="45.96632" lon="6.79307">
        <ele>1930</ele>
        <time>2022-07-21T14:43:34Z</time>
      </trkpt>
      <trkpt lat="45.96635" lon="6.79299">
        <ele>1928</ele>
        <time>2022-07-21T14:43:44Z</time>
      </trkpt>
      <trkpt lat="45.96642" lon="6.79298">
        <ele>1925</ele>
        <time>2022-07-21T14:43:54Z</time>
      </trkpt>
      <trkpt lat="45.96646" lon="6.793">
        <ele>1925</ele>
        <time>2022-07-21T14:43:59Z</time>
      </trkpt>
      <trkpt lat="45.96648" lon="6.79306">
        <ele>1924</ele>
        <time>2022-07-21T14:44:04Z</time>
      </trkpt>
      <trkpt lat="45.96655" lon="6.79305">
        <ele>1923</ele>
        <time>2022-07-21T14:44:13Z</time>
      </trkpt>
      <trkpt lat="45.96659" lon="6.79301">
        <ele>1922</ele>
        <time>2022-07-21T14:44:18Z</time>
      </trkpt>
      <trkpt lat="45.96663" lon="6.79294">
        <ele>1920</ele>
        <time>2022-07-21T14:44:25Z</time>
      </trkpt>
      <trkpt lat="45.96663" lon="6.79288">
        <ele>1919</ele>
        <time>2022-07-21T14:44:30Z</time>
      </trkpt>
      <trkpt lat="45.96665" lon="6.79282">
        <ele>1918</ele>
        <time>2022-07-21T14:44:37Z</time>
      </trkpt>
      <trkpt lat="45.96663" lon="6.79272">
        <ele>1917</ele>
        <time>2022-07-21T14:44:47Z</time>
      </trkpt>
      <trkpt lat="45.96666" lon="6.79255">
        <ele>1914</ele>
        <time>2022-07-21T14:45:02Z</time>
      </trkpt>
      <trkpt lat="45.96669" lon="6.7925">
        <ele>1912</ele>
        <time>2022-07-21T14:45:07Z</time>
      </trkpt>
      <trkpt lat="45.9668" lon="6.79244">
        <ele>1910</ele>
        <time>2022-07-21T14:45:20Z</time>
      </trkpt>
      <trkpt lat="45.96684" lon="6.79239">
        <ele>1909</ele>
        <time>2022-07-21T14:45:25Z</time>
      </trkpt>
      <trkpt lat="45.96685" lon="6.79234">
        <ele>1909</ele>
        <time>2022-07-21T14:45:30Z</time>
      </trkpt>
      <trkpt lat="45.96689" lon="6.79226">
        <ele>1906</ele>
        <time>2022-07-21T14:45:41Z</time>
      </trkpt>
      <trkpt lat="45.96693" lon="6.7922">
        <ele>1903</ele>
        <time>2022-07-21T14:45:51Z</time>
      </trkpt>
      <trkpt lat="45.96699" lon="6.79218">
        <ele>1902</ele>
        <time>2022-07-21T14:45:56Z</time>
      </trkpt>
      <trkpt lat="45.96711" lon="6.7921">
        <ele>1899</ele>
        <time>2022-07-21T14:46:13Z</time>
      </trkpt>
      <trkpt lat="45.96714" lon="6.79205">
        <ele>1898</ele>
        <time>2022-07-21T14:46:18Z</time>
      </trkpt>
      <trkpt lat="45.96714" lon="6.79195">
        <ele>1895</ele>
        <time>2022-07-21T14:46:28Z</time>
      </trkpt>
      <trkpt lat="45.9671" lon="6.79179">
        <ele>1891</ele>
        <time>2022-07-21T14:46:48Z</time>
      </trkpt>
      <trkpt lat="45.96708" lon="6.79167">
        <ele>1888</ele>
        <time>2022-07-21T14:47:00Z</time>
      </trkpt>
      <trkpt lat="45.96706" lon="6.79161">
        <ele>1887</ele>
        <time>2022-07-21T14:47:05Z</time>
      </trkpt>
      <trkpt lat="45.96707" lon="6.79153">
        <ele>1884</ele>
        <time>2022-07-21T14:47:17Z</time>
      </trkpt>
      <trkpt lat="45.96711" lon="6.79148">
        <ele>1880</ele>
        <time>2022-07-21T14:47:34Z</time>
      </trkpt>
      <trkpt lat="45.96725" lon="6.79154">
        <ele>1875</ele>
        <time>2022-07-21T14:47:56Z</time>
      </trkpt>
      <trkpt lat="45.96729" lon="6.79155">
        <ele>1874</ele>
        <time>2022-07-21T14:48:01Z</time>
      </trkpt>
      <trkpt lat="45.96734" lon="6.79151">
        <ele>1874</ele>
        <time>2022-07-21T14:48:11Z</time>
      </trkpt>
      <trkpt lat="45.9674" lon="6.79148">
        <ele>1871</ele>
        <time>2022-07-21T14:48:21Z</time>
      </trkpt>
      <trkpt lat="45.96741" lon="6.79141">
        <ele>1869</ele>
        <time>2022-07-21T14:48:31Z</time>
      </trkpt>
      <trkpt lat="45.96747" lon="6.79137">
        <ele>1866</ele>
        <time>2022-07-21T14:48:41Z</time>
      </trkpt>
      <trkpt lat="45.96755" lon="6.79138">
        <ele>1864</ele>
        <time>2022-07-21T14:48:51Z</time>
      </trkpt>
      <trkpt lat="45.9676" lon="6.79135">
        <ele>1862</ele>
        <time>2022-07-21T14:49:01Z</time>
      </trkpt>
      <trkpt lat="45.96765" lon="6.79132">
        <ele>1859</ele>
        <time>2022-07-21T14:49:11Z</time>
      </trkpt>
      <trkpt lat="45.96769" lon="6.79126">
        <ele>1857</ele>
        <time>2022-07-21T14:49:21Z</time>
      </trkpt>
      <trkpt lat="45.96758" lon="6.79114">
        <ele>1851</ele>
        <time>2022-07-21T14:49:42Z</time>
      </trkpt>
      <trkpt lat="45.96755" lon="6.79108">
        <ele>1850</ele>
        <time>2022-07-21T14:49:48Z</time>
      </trkpt>
      <trkpt lat="45.9677" lon="6.79095">
        <ele>1844</ele>
        <time>2022-07-21T14:50:13Z</time>
      </trkpt>
      <trkpt lat="45.96772" lon="6.79086">
        <ele>1842</ele>
        <time>2022-07-21T14:50:23Z</time>
      </trkpt>
      <trkpt lat="45.96769" lon="6.79078">
        <ele>1840</ele>
        <time>2022-07-21T14:50:33Z</time>
      </trkpt>
      <trkpt lat="45.96759" lon="6.79067">
        <ele>1836</ele>
        <time>2022-07-21T14:50:48Z</time>
      </trkpt>
      <trkpt lat="45.96754" lon="6.79067">
        <ele>1835</ele>
        <time>2022-07-21T14:50:53Z</time>
      </trkpt>
      <trkpt lat="45.9675" lon="6.79064">
        <ele>1834</ele>
        <time>2022-07-21T14:50:58Z</time>
      </trkpt>
      <trkpt lat="45.96742" lon="6.79057">
        <ele>1833</ele>
        <time>2022-07-21T14:51:07Z</time>
      </trkpt>
      <trkpt lat="45.9674" lon="6.79042">
        <ele>1830</ele>
        <time>2022-07-21T14:51:23Z</time>
      </trkpt>
      <trkpt lat="45.96733" lon="6.79027">
        <ele>1828</ele>
        <time>2022-07-21T14:51:38Z</time>
      </trkpt>
      <trkpt lat="45.96728" lon="6.79017">
        <ele>1828</ele>
        <time>2022-07-21T14:51:52Z</time>
      </trkpt>
      <trkpt lat="45.96726" lon="6.79011">
        <ele>1828</ele>
        <time>2022-07-21T14:51:57Z</time>
      </trkpt>
      <trkpt lat="45.96722" lon="6.79004">
        <ele>1827</ele>
        <time>2022-07-21T14:52:03Z</time>
      </trkpt>
      <trkpt lat="45.96709" lon="6.78986">
        <ele>1828</ele>
        <time>2022-07-21T14:52:21Z</time>
      </trkpt>
      <trkpt lat="45.96701" lon="6.78979">
        <ele>1827</ele>
        <time>2022-07-21T14:52:30Z</time>
      </trkpt>
      <trkpt lat="45.96696" lon="6.78978">
        <ele>1827</ele>
        <time>2022-07-21T14:52:35Z</time>
      </trkpt>
      <trkpt lat="45.96692" lon="6.78972">
        <ele>1828</ele>
        <time>2022-07-21T14:52:42Z</time>
      </trkpt>
      <trkpt lat="45.96688" lon="6.78962">
        <ele>1827</ele>
        <time>2022-07-21T14:52:53Z</time>
      </trkpt>
      <trkpt lat="45.96674" lon="6.78947">
        <ele>1825</ele>
        <time>2022-07-21T14:53:11Z</time>
      </trkpt>
      <trkpt lat="45.96671" lon="6.78945">
        <ele>1825</ele>
        <time>2022-07-21T14:53:15Z</time>
      </trkpt>
      <trkpt lat="45.96666" lon="6.78943">
        <ele>1826</ele>
        <time>2022-07-21T14:53:27Z</time>
      </trkpt>
      <trkpt lat="45.9666" lon="6.78941">
        <ele>1829</ele>
        <time>2022-07-21T14:53:48Z</time>
      </trkpt>
      <trkpt lat="45.96654" lon="6.78934">
        <ele>1830</ele>
        <time>2022-07-21T14:54:00Z</time>
      </trkpt>
      <trkpt lat="45.96651" lon="6.78929">
        <ele>1830</ele>
        <time>2022-07-21T14:54:08Z</time>
      </trkpt>
      <trkpt lat="45.96646" lon="6.78923">
        <ele>1830</ele>
        <time>2022-07-21T14:54:18Z</time>
      </trkpt>
      <trkpt lat="45.96642" lon="6.78917">
        <ele>1831</ele>
        <time>2022-07-21T14:54:28Z</time>
      </trkpt>
      <trkpt lat="45.96634" lon="6.78901">
        <ele>1828</ele>
        <time>2022-07-21T14:54:53Z</time>
      </trkpt>
      <trkpt lat="45.96613" lon="6.78871">
        <ele>1823</ele>
        <time>2022-07-21T14:55:28Z</time>
      </trkpt>
      <trkpt lat="45.96612" lon="6.78864">
        <ele>1822</ele>
        <time>2022-07-21T14:55:33Z</time>
      </trkpt>
      <trkpt lat="45.96607" lon="6.78861">
        <ele>1820</ele>
        <time>2022-07-21T14:55:43Z</time>
      </trkpt>
      <trkpt lat="45.96606" lon="6.78849">
        <ele>1816</ele>
        <time>2022-07-21T14:56:05Z</time>
      </trkpt>
      <trkpt lat="45.96594" lon="6.78824">
        <ele>1809</ele>
        <time>2022-07-21T14:56:31Z</time>
      </trkpt>
      <trkpt lat="45.96591" lon="6.78817">
        <ele>1809</ele>
        <time>2022-07-21T14:56:43Z</time>
      </trkpt>
      <trkpt lat="45.96587" lon="6.7881">
        <ele>1806</ele>
        <time>2022-07-21T14:56:53Z</time>
      </trkpt>
      <trkpt lat="45.96585" lon="6.78804">
        <ele>1806</ele>
        <time>2022-07-21T14:56:57Z</time>
      </trkpt>
      <trkpt lat="45.96581" lon="6.788">
        <ele>1805</ele>
        <time>2022-07-21T14:57:02Z</time>
      </trkpt>
      <trkpt lat="45.96578" lon="6.78794">
        <ele>1804</ele>
        <time>2022-07-21T14:57:10Z</time>
      </trkpt>
      <trkpt lat="45.9656" lon="6.7877">
        <ele>1799</ele>
        <time>2022-07-21T14:57:43Z</time>
      </trkpt>
      <trkpt lat="45.96557" lon="6.78766">
        <ele>1799</ele>
        <time>2022-07-21T14:57:49Z</time>
      </trkpt>
      <trkpt lat="45.96554" lon="6.78758">
        <ele>1797</ele>
        <time>2022-07-21T14:57:59Z</time>
      </trkpt>
      <trkpt lat="45.96544" lon="6.78745">
        <ele>1794</ele>
        <time>2022-07-21T14:58:15Z</time>
      </trkpt>
      <trkpt lat="45.96542" lon="6.78739">
        <ele>1793</ele>
        <time>2022-07-21T14:58:22Z</time>
      </trkpt>
      <trkpt lat="45.96535" lon="6.78732">
        <ele>1793</ele>
        <time>2022-07-21T14:58:32Z</time>
      </trkpt>
      <trkpt lat="45.96531" lon="6.78733">
        <ele>1794</ele>
        <time>2022-07-21T14:58:44Z</time>
      </trkpt>
      <trkpt lat="45.96527" lon="6.78731">
        <ele>1796</ele>
        <time>2022-07-21T14:58:55Z</time>
      </trkpt>
      <trkpt lat="45.96522" lon="6.78726">
        <ele>1797</ele>
        <time>2022-07-21T14:59:05Z</time>
      </trkpt>
      <trkpt lat="45.96518" lon="6.78718">
        <ele>1796</ele>
        <time>2022-07-21T14:59:15Z</time>
      </trkpt>
      <trkpt lat="45.96517" lon="6.78711">
        <ele>1795</ele>
        <time>2022-07-21T14:59:25Z</time>
      </trkpt>
      <trkpt lat="45.96513" lon="6.78704">
        <ele>1793</ele>
        <time>2022-07-21T14:59:35Z</time>
      </trkpt>
      <trkpt lat="45.9651" lon="6.78689">
        <ele>1790</ele>
        <time>2022-07-21T14:59:52Z</time>
      </trkpt>
      <trkpt lat="45.96509" lon="6.7868">
        <ele>1788</ele>
        <time>2022-07-21T15:00:02Z</time>
      </trkpt>
      <trkpt lat="45.96506" lon="6.78675">
        <ele>1786</ele>
        <time>2022-07-21T15:00:09Z</time>
      </trkpt>
      <trkpt lat="45.96504" lon="6.78665">
        <ele>1784</ele>
        <time>2022-07-21T15:00:19Z</time>
      </trkpt>
      <trkpt lat="45.96498" lon="6.78653">
        <ele>1782</ele>
        <time>2022-07-21T15:00:33Z</time>
      </trkpt>
      <trkpt lat="45.96498" lon="6.78645">
        <ele>1780</ele>
        <time>2022-07-21T15:00:43Z</time>
      </trkpt>
      <trkpt lat="45.96493" lon="6.78628">
        <ele>1776</ele>
        <time>2022-07-21T15:01:05Z</time>
      </trkpt>
      <trkpt lat="45.96488" lon="6.78629">
        <ele>1774</ele>
        <time>2022-07-21T15:01:15Z</time>
      </trkpt>
      <trkpt lat="45.96488" lon="6.78622">
        <ele>1770</ele>
        <time>2022-07-21T15:01:35Z</time>
      </trkpt>
      <trkpt lat="45.96477" lon="6.78619">
        <ele>1766</ele>
        <time>2022-07-21T15:01:55Z</time>
      </trkpt>
      <trkpt lat="45.96473" lon="6.78616">
        <ele>1766</ele>
        <time>2022-07-21T15:01:59Z</time>
      </trkpt>
      <trkpt lat="45.96469" lon="6.78613">
        <ele>1766</ele>
        <time>2022-07-21T15:02:02Z</time>
      </trkpt>
      <trkpt lat="45.96464" lon="6.78608">
        <ele>1766</ele>
        <time>2022-07-21T15:02:12Z</time>
      </trkpt>
      <trkpt lat="45.96454" lon="6.78597">
        <ele>1762</ele>
        <time>2022-07-21T15:02:36Z</time>
      </trkpt>
      <trkpt lat="45.96449" lon="6.78595">
        <ele>1761</ele>
        <time>2022-07-21T15:02:46Z</time>
      </trkpt>
      <trkpt lat="45.96445" lon="6.78594">
        <ele>1762</ele>
        <time>2022-07-21T15:02:52Z</time>
      </trkpt>
      <trkpt lat="45.96441" lon="6.78589">
        <ele>1759</ele>
        <time>2022-07-21T15:03:07Z</time>
      </trkpt>
      <trkpt lat="45.96436" lon="6.78587">
        <ele>1757</ele>
        <time>2022-07-21T15:03:17Z</time>
      </trkpt>
      <trkpt lat="45.96429" lon="6.78584">
        <ele>1755</ele>
        <time>2022-07-21T15:03:27Z</time>
      </trkpt>
      <trkpt lat="45.96425" lon="6.78588">
        <ele>1753</ele>
        <time>2022-07-21T15:03:39Z</time>
      </trkpt>
      <trkpt lat="45.9642" lon="6.7859">
        <ele>1751</ele>
        <time>2022-07-21T15:03:49Z</time>
      </trkpt>
      <trkpt lat="45.96421" lon="6.78587">
        <ele>1749</ele>
        <time>2022-07-21T15:07:03Z</time>
      </trkpt>
      <trkpt lat="45.96418" lon="6.78581">
        <ele>1748</ele>
        <time>2022-07-21T15:07:14Z</time>
      </trkpt>
      <trkpt lat="45.96415" lon="6.78575">
        <ele>1745</ele>
        <time>2022-07-21T15:07:29Z</time>
      </trkpt>
      <trkpt lat="45.96414" lon="6.78567">
        <ele>1743</ele>
        <time>2022-07-21T15:07:38Z</time>
      </trkpt>
      <trkpt lat="45.9641" lon="6.78564">
        <ele>1742</ele>
        <time>2022-07-21T15:07:50Z</time>
      </trkpt>
      <trkpt lat="45.96407" lon="6.78559">
        <ele>1739</ele>
        <time>2022-07-21T15:08:00Z</time>
      </trkpt>
      <trkpt lat="45.96406" lon="6.78553">
        <ele>1738</ele>
        <time>2022-07-21T15:08:10Z</time>
      </trkpt>
      <trkpt lat="45.96401" lon="6.78551">
        <ele>1737</ele>
        <time>2022-07-21T15:08:14Z</time>
      </trkpt>
      <trkpt lat="45.96397" lon="6.78546">
        <ele>1736</ele>
        <time>2022-07-21T15:08:21Z</time>
      </trkpt>
      <trkpt lat="45.96392" lon="6.78542">
        <ele>1736</ele>
        <time>2022-07-21T15:08:30Z</time>
      </trkpt>
      <trkpt lat="45.96391" lon="6.78536">
        <ele>1736</ele>
        <time>2022-07-21T15:08:33Z</time>
      </trkpt>
      <trkpt lat="45.96374" lon="6.78506">
        <ele>1731</ele>
        <time>2022-07-21T15:09:09Z</time>
      </trkpt>
      <trkpt lat="45.96363" lon="6.78483">
        <ele>1727</ele>
        <time>2022-07-21T15:09:33Z</time>
      </trkpt>
      <trkpt lat="45.96358" lon="6.78478">
        <ele>1726</ele>
        <time>2022-07-21T15:09:40Z</time>
      </trkpt>
      <trkpt lat="45.96356" lon="6.78472">
        <ele>1725</ele>
        <time>2022-07-21T15:09:51Z</time>
      </trkpt>
      <trkpt lat="45.96356" lon="6.78461">
        <ele>1722</ele>
        <time>2022-07-21T15:10:11Z</time>
      </trkpt>
      <trkpt lat="45.96352" lon="6.78456">
        <ele>1720</ele>
        <time>2022-07-21T15:10:21Z</time>
      </trkpt>
      <trkpt lat="45.96355" lon="6.7845">
        <ele>1717</ele>
        <time>2022-07-21T15:10:36Z</time>
      </trkpt>
      <trkpt lat="45.96353" lon="6.78445">
        <ele>1716</ele>
        <time>2022-07-21T15:10:47Z</time>
      </trkpt>
      <trkpt lat="45.9635" lon="6.78439">
        <ele>1714</ele>
        <time>2022-07-21T15:10:57Z</time>
      </trkpt>
      <trkpt lat="45.96347" lon="6.78432">
        <ele>1709</ele>
        <time>2022-07-21T15:11:13Z</time>
      </trkpt>
      <trkpt lat="45.96343" lon="6.78426">
        <ele>1706</ele>
        <time>2022-07-21T15:11:28Z</time>
      </trkpt>
      <trkpt lat="45.96338" lon="6.78423">
        <ele>1704</ele>
        <time>2022-07-21T15:11:38Z</time>
      </trkpt>
      <trkpt lat="45.96337" lon="6.78416">
        <ele>1702</ele>
        <time>2022-07-21T15:11:48Z</time>
      </trkpt>
      <trkpt lat="45.96333" lon="6.78412">
        <ele>1700</ele>
        <time>2022-07-21T15:11:58Z</time>
      </trkpt>
      <trkpt lat="45.96324" lon="6.78395">
        <ele>1697</ele>
        <time>2022-07-21T15:12:13Z</time>
      </trkpt>
      <trkpt lat="45.96321" lon="6.7839">
        <ele>1696</ele>
        <time>2022-07-21T15:12:21Z</time>
      </trkpt>
      <trkpt lat="45.96319" lon="6.78382">
        <ele>1695</ele>
        <time>2022-07-21T15:12:31Z</time>
      </trkpt>
      <trkpt lat="45.96313" lon="6.7838">
        <ele>1692</ele>
        <time>2022-07-21T15:12:47Z</time>
      </trkpt>
      <trkpt lat="45.96312" lon="6.78372">
        <ele>1689</ele>
        <time>2022-07-21T15:13:02Z</time>
      </trkpt>
      <trkpt lat="45.96297" lon="6.78367">
        <ele>1685</ele>
        <time>2022-07-21T15:13:23Z</time>
      </trkpt>
      <trkpt lat="45.96293" lon="6.78363">
        <ele>1684</ele>
        <time>2022-07-21T15:13:27Z</time>
      </trkpt>
      <trkpt lat="45.96289" lon="6.78358">
        <ele>1684</ele>
        <time>2022-07-21T15:13:35Z</time>
      </trkpt>
      <trkpt lat="45.96285" lon="6.78361">
        <ele>1682</ele>
        <time>2022-07-21T15:13:45Z</time>
      </trkpt>
      <trkpt lat="45.96281" lon="6.78356">
        <ele>1680</ele>
        <time>2022-07-21T15:14:00Z</time>
      </trkpt>
      <trkpt lat="45.96277" lon="6.78354">
        <ele>1679</ele>
        <time>2022-07-21T15:14:05Z</time>
      </trkpt>
      <trkpt lat="45.96272" lon="6.78356">
        <ele>1679</ele>
        <time>2022-07-21T15:14:12Z</time>
      </trkpt>
      <trkpt lat="45.96262" lon="6.78349">
        <ele>1679</ele>
        <time>2022-07-21T15:14:25Z</time>
      </trkpt>
      <trkpt lat="45.96258" lon="6.78345">
        <ele>1679</ele>
        <time>2022-07-21T15:14:30Z</time>
      </trkpt>
      <trkpt lat="45.96246" lon="6.78341">
        <ele>1676</ele>
        <time>2022-07-21T15:14:46Z</time>
      </trkpt>
      <trkpt lat="45.96242" lon="6.78342">
        <ele>1676</ele>
        <time>2022-07-21T15:14:51Z</time>
      </trkpt>
      <trkpt lat="45.96237" lon="6.78337">
        <ele>1676</ele>
        <time>2022-07-21T15:15:01Z</time>
      </trkpt>
      <trkpt lat="45.96232" lon="6.78329">
        <ele>1676</ele>
        <time>2022-07-21T15:15:11Z</time>
      </trkpt>
      <trkpt lat="45.96221" lon="6.78317">
        <ele>1674</ele>
        <time>2022-07-21T15:15:24Z</time>
      </trkpt>
      <trkpt lat="45.96216" lon="6.7832">
        <ele>1675</ele>
        <time>2022-07-21T15:15:31Z</time>
      </trkpt>
      <trkpt lat="45.9621" lon="6.78319">
        <ele>1675</ele>
        <time>2022-07-21T15:15:41Z</time>
      </trkpt>
      <trkpt lat="45.96207" lon="6.78314">
        <ele>1674</ele>
        <time>2022-07-21T15:15:47Z</time>
      </trkpt>
      <trkpt lat="45.96198" lon="6.78311">
        <ele>1672</ele>
        <time>2022-07-21T15:15:58Z</time>
      </trkpt>
      <trkpt lat="45.96191" lon="6.78306">
        <ele>1670</ele>
        <time>2022-07-21T15:16:10Z</time>
      </trkpt>
      <trkpt lat="45.96186" lon="6.78305">
        <ele>1669</ele>
        <time>2022-07-21T15:16:15Z</time>
      </trkpt>
      <trkpt lat="45.96182" lon="6.78301">
        <ele>1668</ele>
        <time>2022-07-21T15:16:24Z</time>
      </trkpt>
      <trkpt lat="45.96178" lon="6.78296">
        <ele>1668</ele>
        <time>2022-07-21T15:16:31Z</time>
      </trkpt>
      <trkpt lat="45.96174" lon="6.78295">
        <ele>1665</ele>
        <time>2022-07-21T15:16:46Z</time>
      </trkpt>
      <trkpt lat="45.96168" lon="6.7829">
        <ele>1666</ele>
        <time>2022-07-21T15:16:57Z</time>
      </trkpt>
      <trkpt lat="45.96162" lon="6.78286">
        <ele>1666</ele>
        <time>2022-07-21T15:17:07Z</time>
      </trkpt>
      <trkpt lat="45.96157" lon="6.78285">
        <ele>1664</ele>
        <time>2022-07-21T15:17:22Z</time>
      </trkpt>
      <trkpt lat="45.96155" lon="6.78281">
        <ele>1662</ele>
        <time>2022-07-21T15:17:37Z</time>
      </trkpt>
      <trkpt lat="45.96152" lon="6.78275">
        <ele>1658</ele>
        <time>2022-07-21T15:17:52Z</time>
      </trkpt>
      <trkpt lat="45.96148" lon="6.78271">
        <ele>1657</ele>
        <time>2022-07-21T15:18:02Z</time>
      </trkpt>
      <trkpt lat="45.96151" lon="6.78265">
        <ele>1652</ele>
        <time>2022-07-21T15:18:22Z</time>
      </trkpt>
      <trkpt lat="45.9615" lon="6.78259">
        <ele>1651</ele>
        <time>2022-07-21T15:18:28Z</time>
      </trkpt>
      <trkpt lat="45.96153" lon="6.78254">
        <ele>1648</ele>
        <time>2022-07-21T15:18:38Z</time>
      </trkpt>
      <trkpt lat="45.96149" lon="6.78246">
        <ele>1645</ele>
        <time>2022-07-21T15:18:59Z</time>
      </trkpt>
      <trkpt lat="45.96144" lon="6.7825">
        <ele>1644</ele>
        <time>2022-07-21T15:19:09Z</time>
      </trkpt>
      <trkpt lat="45.9614" lon="6.78249">
        <ele>1641</ele>
        <time>2022-07-21T15:19:39Z</time>
      </trkpt>
      <trkpt lat="45.96137" lon="6.78254">
        <ele>1639</ele>
        <time>2022-07-21T15:19:54Z</time>
      </trkpt>
      <trkpt lat="45.96132" lon="6.78251">
        <ele>1636</ele>
        <time>2022-07-21T15:20:09Z</time>
      </trkpt>
      <trkpt lat="45.96132" lon="6.78243">
        <ele>1633</ele>
        <time>2022-07-21T15:20:24Z</time>
      </trkpt>
      <trkpt lat="45.96128" lon="6.78242">
        <ele>1631</ele>
        <time>2022-07-21T15:20:34Z</time>
      </trkpt>
      <trkpt lat="45.96129" lon="6.78236">
        <ele>1628</ele>
        <time>2022-07-21T15:20:49Z</time>
      </trkpt>
      <trkpt lat="45.96134" lon="6.78237">
        <ele>1628</ele>
        <time>2022-07-21T15:20:53Z</time>
      </trkpt>
      <trkpt lat="45.96132" lon="6.78229">
        <ele>1625</ele>
        <time>2022-07-21T15:21:05Z</time>
      </trkpt>
      <trkpt lat="45.9613" lon="6.78223">
        <ele>1624</ele>
        <time>2022-07-21T15:21:10Z</time>
      </trkpt>
      <trkpt lat="45.96129" lon="6.78219">
        <ele>1620</ele>
        <time>2022-07-21T15:21:31Z</time>
      </trkpt>
      <trkpt lat="45.96124" lon="6.78212">
        <ele>1618</ele>
        <time>2022-07-21T15:21:41Z</time>
      </trkpt>
      <trkpt lat="45.96126" lon="6.78196">
        <ele>1612</ele>
        <time>2022-07-21T15:22:08Z</time>
      </trkpt>
      <trkpt lat="45.96123" lon="6.78187">
        <ele>1607</ele>
        <time>2022-07-21T15:22:28Z</time>
      </trkpt>
      <trkpt lat="45.96119" lon="6.78183">
        <ele>1602</ele>
        <time>2022-07-21T15:22:50Z</time>
      </trkpt>
      <trkpt lat="45.96114" lon="6.7819">
        <ele>1600</ele>
        <time>2022-07-21T15:22:59Z</time>
      </trkpt>
      <trkpt lat="45.96112" lon="6.78182">
        <ele>1598</ele>
        <time>2022-07-21T15:23:11Z</time>
      </trkpt>
      <trkpt lat="45.96113" lon="6.78173">
        <ele>1594</ele>
        <time>2022-07-21T15:23:46Z</time>
      </trkpt>
      <trkpt lat="45.96114" lon="6.78166">
        <ele>1592</ele>
        <time>2022-07-21T15:23:56Z</time>
      </trkpt>
      <trkpt lat="45.96112" lon="6.7816">
        <ele>1590</ele>
        <time>2022-07-21T15:24:06Z</time>
      </trkpt>
      <trkpt lat="45.96113" lon="6.78151">
        <ele>1588</ele>
        <time>2022-07-21T15:24:13Z</time>
      </trkpt>
      <trkpt lat="45.96108" lon="6.78155">
        <ele>1587</ele>
        <time>2022-07-21T15:24:22Z</time>
      </trkpt>
      <trkpt lat="45.96104" lon="6.7815">
        <ele>1584</ele>
        <time>2022-07-21T15:24:42Z</time>
      </trkpt>
      <trkpt lat="45.961" lon="6.78145">
        <ele>1582</ele>
        <time>2022-07-21T15:24:52Z</time>
      </trkpt>
      <trkpt lat="45.96105" lon="6.78139">
        <ele>1577</ele>
        <time>2022-07-21T15:25:17Z</time>
      </trkpt>
      <trkpt lat="45.96109" lon="6.78137">
        <ele>1576</ele>
        <time>2022-07-21T15:25:25Z</time>
      </trkpt>
      <trkpt lat="45.96107" lon="6.78131">
        <ele>1574</ele>
        <time>2022-07-21T15:25:31Z</time>
      </trkpt>
      <trkpt lat="45.96102" lon="6.78111">
        <ele>1570</ele>
        <time>2022-07-21T15:25:53Z</time>
      </trkpt>
      <trkpt lat="45.96099" lon="6.78105">
        <ele>1569</ele>
        <time>2022-07-21T15:25:57Z</time>
      </trkpt>
      <trkpt lat="45.96091" lon="6.78086">
        <ele>1567</ele>
        <time>2022-07-21T15:26:12Z</time>
      </trkpt>
      <trkpt lat="45.96093" lon="6.78074">
        <ele>1566</ele>
        <time>2022-07-21T15:26:25Z</time>
      </trkpt>
      <trkpt lat="45.96095" lon="6.78063">
        <ele>1564</ele>
        <time>2022-07-21T15:26:36Z</time>
      </trkpt>
      <trkpt lat="45.96093" lon="6.78056">
        <ele>1562</ele>
        <time>2022-07-21T15:26:46Z</time>
      </trkpt>
      <trkpt lat="45.96094" lon="6.7805">
        <ele>1561</ele>
        <time>2022-07-21T15:26:56Z</time>
      </trkpt>
      <trkpt lat="45.96092" lon="6.78042">
        <ele>1561</ele>
        <time>2022-07-21T15:27:07Z</time>
      </trkpt>
      <trkpt lat="45.96091" lon="6.78034">
        <ele>1562</ele>
        <time>2022-07-21T15:27:22Z</time>
      </trkpt>
      <trkpt lat="45.96092" lon="6.78023">
        <ele>1563</ele>
        <time>2022-07-21T15:27:34Z</time>
      </trkpt>
      <trkpt lat="45.96093" lon="6.78014">
        <ele>1564</ele>
        <time>2022-07-21T15:27:42Z</time>
      </trkpt>
      <trkpt lat="45.96095" lon="6.78006">
        <ele>1564</ele>
        <time>2022-07-21T15:27:52Z</time>
      </trkpt>
      <trkpt lat="45.96092" lon="6.78003">
        <ele>1565</ele>
        <time>2022-07-21T15:27:58Z</time>
      </trkpt>
      <trkpt lat="45.96093" lon="6.77993">
        <ele>1565</ele>
        <time>2022-07-21T15:28:08Z</time>
      </trkpt>
      <trkpt lat="45.96094" lon="6.77982">
        <ele>1565</ele>
        <time>2022-07-21T15:28:19Z</time>
      </trkpt>
      <trkpt lat="45.96092" lon="6.77977">
        <ele>1565</ele>
        <time>2022-07-21T15:28:25Z</time>
      </trkpt>
      <trkpt lat="45.9609" lon="6.7797">
        <ele>1564</ele>
        <time>2022-07-21T15:28:40Z</time>
      </trkpt>
      <trkpt lat="45.96086" lon="6.77966">
        <ele>1564</ele>
        <time>2022-07-21T15:28:45Z</time>
      </trkpt>
      <trkpt lat="45.96083" lon="6.77963">
        <ele>1564</ele>
        <time>2022-07-21T15:28:49Z</time>
      </trkpt>
      <trkpt lat="45.96075" lon="6.77944">
        <ele>1564</ele>
        <time>2022-07-21T15:29:04Z</time>
      </trkpt>
      <trkpt lat="45.96071" lon="6.77938">
        <ele>1565</ele>
        <time>2022-07-21T15:29:12Z</time>
      </trkpt>
      <trkpt lat="45.96066" lon="6.77935">
        <ele>1565</ele>
        <time>2022-07-21T15:29:17Z</time>
      </trkpt>
      <trkpt lat="45.96056" lon="6.77933">
        <ele>1565</ele>
        <time>2022-07-21T15:29:24Z</time>
      </trkpt>
      <trkpt lat="45.9604" lon="6.77923">
        <ele>1566</ele>
        <time>2022-07-21T15:29:42Z</time>
      </trkpt>
      <trkpt lat="45.96035" lon="6.77922">
        <ele>1566</ele>
        <time>2022-07-21T15:29:53Z</time>
      </trkpt>
      <trkpt lat="45.9603" lon="6.77914">
        <ele>1567</ele>
        <time>2022-07-21T15:30:04Z</time>
      </trkpt>
      <trkpt lat="45.96027" lon="6.7791">
        <ele>1567</ele>
        <time>2022-07-21T15:30:09Z</time>
      </trkpt>
      <trkpt lat="45.9602" lon="6.77898">
        <ele>1567</ele>
        <time>2022-07-21T15:30:20Z</time>
      </trkpt>
      <trkpt lat="45.96005" lon="6.77889">
        <ele>1568</ele>
        <time>2022-07-21T15:30:38Z</time>
      </trkpt>
      <trkpt lat="45.96001" lon="6.77886">
        <ele>1569</ele>
        <time>2022-07-21T15:30:45Z</time>
      </trkpt>
      <trkpt lat="45.95995" lon="6.77883">
        <ele>1571</ele>
        <time>2022-07-21T15:31:01Z</time>
      </trkpt>
      <trkpt lat="45.95991" lon="6.77881">
        <ele>1571</ele>
        <time>2022-07-21T15:31:07Z</time>
      </trkpt>
      <trkpt lat="45.95987" lon="6.77886">
        <ele>1572</ele>
        <time>2022-07-21T15:31:12Z</time>
      </trkpt>
      <trkpt lat="45.95983" lon="6.77886">
        <ele>1572</ele>
        <time>2022-07-21T15:31:19Z</time>
      </trkpt>
      <trkpt lat="45.9598" lon="6.77882">
        <ele>1572</ele>
        <time>2022-07-21T15:31:24Z</time>
      </trkpt>
      <trkpt lat="45.95965" lon="6.77876">
        <ele>1569</ele>
        <time>2022-07-21T15:31:40Z</time>
      </trkpt>
      <trkpt lat="45.95956" lon="6.77873">
        <ele>1568</ele>
        <time>2022-07-21T15:31:49Z</time>
      </trkpt>
      <trkpt lat="45.95943" lon="6.77871">
        <ele>1568</ele>
        <time>2022-07-21T15:32:01Z</time>
      </trkpt>
      <trkpt lat="45.95934" lon="6.77866">
        <ele>1567</ele>
        <time>2022-07-21T15:32:10Z</time>
      </trkpt>
      <trkpt lat="45.9593" lon="6.77868">
        <ele>1567</ele>
        <time>2022-07-21T15:32:14Z</time>
      </trkpt>
      <trkpt lat="45.95917" lon="6.77867">
        <ele>1567</ele>
        <time>2022-07-21T15:32:27Z</time>
      </trkpt>
      <trkpt lat="45.9591" lon="6.77867">
        <ele>1567</ele>
        <time>2022-07-21T15:32:33Z</time>
      </trkpt>
      <trkpt lat="45.95904" lon="6.77865">
        <ele>1566</ele>
        <time>2022-07-21T15:32:40Z</time>
      </trkpt>
      <trkpt lat="45.959" lon="6.77862">
        <ele>1565</ele>
        <time>2022-07-21T15:32:45Z</time>
      </trkpt>
      <trkpt lat="45.95897" lon="6.77858">
        <ele>1565</ele>
        <time>2022-07-21T15:32:49Z</time>
      </trkpt>
      <trkpt lat="45.95892" lon="6.77855">
        <ele>1565</ele>
        <time>2022-07-21T15:32:54Z</time>
      </trkpt>
      <trkpt lat="45.9589" lon="6.7784">
        <ele>1563</ele>
        <time>2022-07-21T15:33:05Z</time>
      </trkpt>
      <trkpt lat="45.95898" lon="6.77827">
        <ele>1559</ele>
        <time>2022-07-21T15:33:20Z</time>
      </trkpt>
      <trkpt lat="45.95901" lon="6.7782">
        <ele>1558</ele>
        <time>2022-07-21T15:33:27Z</time>
      </trkpt>
      <trkpt lat="45.95902" lon="6.77813">
        <ele>1557</ele>
        <time>2022-07-21T15:33:31Z</time>
      </trkpt>
      <trkpt lat="45.959" lon="6.77804">
        <ele>1557</ele>
        <time>2022-07-21T15:33:37Z</time>
      </trkpt>
      <trkpt lat="45.95891" lon="6.77798">
        <ele>1556</ele>
        <time>2022-07-21T15:33:45Z</time>
      </trkpt>
      <trkpt lat="45.95886" lon="6.77796">
        <ele>1555</ele>
        <time>2022-07-21T15:33:54Z</time>
      </trkpt>
      <trkpt lat="45.95877" lon="6.7779">
        <ele>1555</ele>
        <time>2022-07-21T15:34:04Z</time>
      </trkpt>
      <trkpt lat="45.95875" lon="6.77783">
        <ele>1554</ele>
        <time>2022-07-21T15:34:10Z</time>
      </trkpt>
      <trkpt lat="45.95871" lon="6.77777">
        <ele>1553</ele>
        <time>2022-07-21T15:34:16Z</time>
      </trkpt>
      <trkpt lat="45.95867" lon="6.77767">
        <ele>1552</ele>
        <time>2022-07-21T15:34:25Z</time>
      </trkpt>
      <trkpt lat="45.95862" lon="6.77764">
        <ele>1552</ele>
        <time>2022-07-21T15:34:30Z</time>
      </trkpt>
      <trkpt lat="45.9586" lon="6.77758">
        <ele>1551</ele>
        <time>2022-07-21T15:34:34Z</time>
      </trkpt>
      <trkpt lat="45.95858" lon="6.77752">
        <ele>1551</ele>
        <time>2022-07-21T15:34:39Z</time>
      </trkpt>
      <trkpt lat="45.95856" lon="6.77745">
        <ele>1550</ele>
        <time>2022-07-21T15:34:46Z</time>
      </trkpt>
      <trkpt lat="45.95858" lon="6.77724">
        <ele>1547</ele>
        <time>2022-07-21T15:35:03Z</time>
      </trkpt>
      <trkpt lat="45.95858" lon="6.77701">
        <ele>1545</ele>
        <time>2022-07-21T15:35:18Z</time>
      </trkpt>
      <trkpt lat="45.95859" lon="6.77694">
        <ele>1544</ele>
        <time>2022-07-21T15:35:25Z</time>
      </trkpt>
      <trkpt lat="45.95864" lon="6.77685">
        <ele>1542</ele>
        <time>2022-07-21T15:35:34Z</time>
      </trkpt>
      <trkpt lat="45.95867" lon="6.77679">
        <ele>1541</ele>
        <time>2022-07-21T15:35:39Z</time>
      </trkpt>
      <trkpt lat="45.95865" lon="6.7767">
        <ele>1541</ele>
        <time>2022-07-21T15:35:45Z</time>
      </trkpt>
      <trkpt lat="45.95863" lon="6.77665">
        <ele>1540</ele>
        <time>2022-07-21T15:35:50Z</time>
      </trkpt>
      <trkpt lat="45.95858" lon="6.77663">
        <ele>1539</ele>
        <time>2022-07-21T15:35:55Z</time>
      </trkpt>
      <trkpt lat="45.95833" lon="6.77686">
        <ele>1533</ele>
        <time>2022-07-21T15:36:31Z</time>
      </trkpt>
      <trkpt lat="45.95825" lon="6.77693">
        <ele>1531</ele>
        <time>2022-07-21T15:36:41Z</time>
      </trkpt>
      <trkpt lat="45.95812" lon="6.77692">
        <ele>1529</ele>
        <time>2022-07-21T15:36:56Z</time>
      </trkpt>
      <trkpt lat="45.95807" lon="6.7769">
        <ele>1529</ele>
        <time>2022-07-21T15:37:01Z</time>
      </trkpt>
      <trkpt lat="45.95804" lon="6.77683">
        <ele>1528</ele>
        <time>2022-07-21T15:37:07Z</time>
      </trkpt>
      <trkpt lat="45.95803" lon="6.77676">
        <ele>1526</ele>
        <time>2022-07-21T15:37:13Z</time>
      </trkpt>
      <trkpt lat="45.95803" lon="6.77668">
        <ele>1525</ele>
        <time>2022-07-21T15:37:20Z</time>
      </trkpt>
      <trkpt lat="45.95806" lon="6.7766">
        <ele>1523</ele>
        <time>2022-07-21T15:37:31Z</time>
      </trkpt>
      <trkpt lat="45.95796" lon="6.7765">
        <ele>1521</ele>
        <time>2022-07-21T15:37:45Z</time>
      </trkpt>
      <trkpt lat="45.95789" lon="6.77653">
        <ele>1520</ele>
        <time>2022-07-21T15:37:50Z</time>
      </trkpt>
      <trkpt lat="45.95781" lon="6.77619">
        <ele>1516</ele>
        <time>2022-07-21T15:38:16Z</time>
      </trkpt>
      <trkpt lat="45.95781" lon="6.77612">
        <ele>1516</ele>
        <time>2022-07-21T15:38:21Z</time>
      </trkpt>
      <trkpt lat="45.95781" lon="6.77605">
        <ele>1515</ele>
        <time>2022-07-21T15:38:27Z</time>
      </trkpt>
      <trkpt lat="45.95787" lon="6.77592">
        <ele>1513</ele>
        <time>2022-07-21T15:38:41Z</time>
      </trkpt>
      <trkpt lat="45.95792" lon="6.77585">
        <ele>1513</ele>
        <time>2022-07-21T15:38:44Z</time>
      </trkpt>
      <trkpt lat="45.95793" lon="6.77576">
        <ele>1513</ele>
        <time>2022-07-21T15:38:48Z</time>
      </trkpt>
      <trkpt lat="45.95794" lon="6.77568">
        <ele>1513</ele>
        <time>2022-07-21T15:38:54Z</time>
      </trkpt>
      <trkpt lat="45.95795" lon="6.77552">
        <ele>1513</ele>
        <time>2022-07-21T15:39:05Z</time>
      </trkpt>
      <trkpt lat="45.95793" lon="6.77541">
        <ele>1512</ele>
        <time>2022-07-21T15:39:10Z</time>
      </trkpt>
      <trkpt lat="45.95797" lon="6.77528">
        <ele>1511</ele>
        <time>2022-07-21T15:39:20Z</time>
      </trkpt>
      <trkpt lat="45.95795" lon="6.77517">
        <ele>1511</ele>
        <time>2022-07-21T15:39:27Z</time>
      </trkpt>
      <trkpt lat="45.9579" lon="6.77513">
        <ele>1511</ele>
        <time>2022-07-21T15:39:32Z</time>
      </trkpt>
      <trkpt lat="45.95783" lon="6.77494">
        <ele>1510</ele>
        <time>2022-07-21T15:39:43Z</time>
      </trkpt>
      <trkpt lat="45.95778" lon="6.77488">
        <ele>1509</ele>
        <time>2022-07-21T15:39:51Z</time>
      </trkpt>
      <trkpt lat="45.95773" lon="6.77474">
        <ele>1509</ele>
        <time>2022-07-21T15:40:01Z</time>
      </trkpt>
      <trkpt lat="45.95769" lon="6.77466">
        <ele>1508</ele>
        <time>2022-07-21T15:40:08Z</time>
      </trkpt>
      <trkpt lat="45.95769" lon="6.77459">
        <ele>1508</ele>
        <time>2022-07-21T15:40:13Z</time>
      </trkpt>
      <trkpt lat="45.95766" lon="6.77456">
        <ele>1508</ele>
        <time>2022-07-21T15:40:20Z</time>
      </trkpt>
      <trkpt lat="45.95755" lon="6.77437">
        <ele>1506</ele>
        <time>2022-07-21T15:40:36Z</time>
      </trkpt>
      <trkpt lat="45.95744" lon="6.77429">
        <ele>1506</ele>
        <time>2022-07-21T15:40:47Z</time>
      </trkpt>
      <trkpt lat="45.95734" lon="6.77427">
        <ele>1505</ele>
        <time>2022-07-21T15:40:58Z</time>
      </trkpt>
      <trkpt lat="45.95725" lon="6.77415">
        <ele>1503</ele>
        <time>2022-07-21T15:41:13Z</time>
      </trkpt>
      <trkpt lat="45.95716" lon="6.77418">
        <ele>1502</ele>
        <time>2022-07-21T15:41:19Z</time>
      </trkpt>
      <trkpt lat="45.95713" lon="6.77423">
        <ele>1501</ele>
        <time>2022-07-21T15:41:24Z</time>
      </trkpt>
      <trkpt lat="45.95704" lon="6.77429">
        <ele>1500</ele>
        <time>2022-07-21T15:41:38Z</time>
      </trkpt>
      <trkpt lat="45.95697" lon="6.77435">
        <ele>1498</ele>
        <time>2022-07-21T15:41:48Z</time>
      </trkpt>
      <trkpt lat="45.95684" lon="6.77428">
        <ele>1496</ele>
        <time>2022-07-21T15:42:01Z</time>
      </trkpt>
      <trkpt lat="45.95679" lon="6.77417">
        <ele>1495</ele>
        <time>2022-07-21T15:42:10Z</time>
      </trkpt>
      <trkpt lat="45.95671" lon="6.7741">
        <ele>1494</ele>
        <time>2022-07-21T15:42:19Z</time>
      </trkpt>
      <trkpt lat="45.95656" lon="6.77401">
        <ele>1491</ele>
        <time>2022-07-21T15:42:41Z</time>
      </trkpt>
      <trkpt lat="45.95646" lon="6.77393">
        <ele>1490</ele>
        <time>2022-07-21T15:42:53Z</time>
      </trkpt>
      <trkpt lat="45.95643" lon="6.77386">
        <ele>1488</ele>
        <time>2022-07-21T15:42:59Z</time>
      </trkpt>
      <trkpt lat="45.95642" lon="6.77379">
        <ele>1488</ele>
        <time>2022-07-21T15:43:03Z</time>
      </trkpt>
      <trkpt lat="45.95643" lon="6.77373">
        <ele>1487</ele>
        <time>2022-07-21T15:43:08Z</time>
      </trkpt>
      <trkpt lat="45.95642" lon="6.77366">
        <ele>1486</ele>
        <time>2022-07-21T15:43:15Z</time>
      </trkpt>
      <trkpt lat="45.95641" lon="6.77359">
        <ele>1484</ele>
        <time>2022-07-21T15:43:27Z</time>
      </trkpt>
      <trkpt lat="45.95642" lon="6.77351">
        <ele>1483</ele>
        <time>2022-07-21T15:43:31Z</time>
      </trkpt>
      <trkpt lat="45.95639" lon="6.77345">
        <ele>1483</ele>
        <time>2022-07-21T15:43:36Z</time>
      </trkpt>
      <trkpt lat="45.95641" lon="6.77339">
        <ele>1482</ele>
        <time>2022-07-21T15:43:42Z</time>
      </trkpt>
      <trkpt lat="45.9564" lon="6.77332">
        <ele>1481</ele>
        <time>2022-07-21T15:43:46Z</time>
      </trkpt>
      <trkpt lat="45.95638" lon="6.77328">
        <ele>1480</ele>
        <time>2022-07-21T15:43:51Z</time>
      </trkpt>
      <trkpt lat="45.95637" lon="6.77318">
        <ele>1479</ele>
        <time>2022-07-21T15:44:00Z</time>
      </trkpt>
      <trkpt lat="45.95634" lon="6.77311">
        <ele>1478</ele>
        <time>2022-07-21T15:44:07Z</time>
      </trkpt>
      <trkpt lat="45.95627" lon="6.77287">
        <ele>1475</ele>
        <time>2022-07-21T15:44:27Z</time>
      </trkpt>
      <trkpt lat="45.95627" lon="6.77279">
        <ele>1474</ele>
        <time>2022-07-21T15:44:32Z</time>
      </trkpt>
      <trkpt lat="45.95626" lon="6.77266">
        <ele>1473</ele>
        <time>2022-07-21T15:44:41Z</time>
      </trkpt>
      <trkpt lat="45.95624" lon="6.7726">
        <ele>1473</ele>
        <time>2022-07-21T15:44:43Z</time>
      </trkpt>
      <trkpt lat="45.95623" lon="6.77251">
        <ele>1472</ele>
        <time>2022-07-21T15:44:47Z</time>
      </trkpt>
      <trkpt lat="45.95621" lon="6.77246">
        <ele>1472</ele>
        <time>2022-07-21T15:44:52Z</time>
      </trkpt>
      <trkpt lat="45.95621" lon="6.77238">
        <ele>1472</ele>
        <time>2022-07-21T15:45:03Z</time>
      </trkpt>
      <trkpt lat="45.95623" lon="6.7723">
        <ele>1472</ele>
        <time>2022-07-21T15:45:06Z</time>
      </trkpt>
      <trkpt lat="45.95623" lon="6.77222">
        <ele>1471</ele>
        <time>2022-07-21T15:45:14Z</time>
      </trkpt>
      <trkpt lat="45.95621" lon="6.77215">
        <ele>1471</ele>
        <time>2022-07-21T15:45:18Z</time>
      </trkpt>
      <trkpt lat="45.95612" lon="6.77203">
        <ele>1469</ele>
        <time>2022-07-21T15:45:31Z</time>
      </trkpt>
      <trkpt lat="45.95607" lon="6.77188">
        <ele>1468</ele>
        <time>2022-07-21T15:45:40Z</time>
      </trkpt>
      <trkpt lat="45.95606" lon="6.77178">
        <ele>1467</ele>
        <time>2022-07-21T15:45:49Z</time>
      </trkpt>
      <trkpt lat="45.95609" lon="6.77167">
        <ele>1467</ele>
        <time>2022-07-21T15:45:57Z</time>
      </trkpt>
      <trkpt lat="45.95606" lon="6.77149">
        <ele>1465</ele>
        <time>2022-07-21T15:46:10Z</time>
      </trkpt>
      <trkpt lat="45.95597" lon="6.77145">
        <ele>1463</ele>
        <time>2022-07-21T15:46:19Z</time>
      </trkpt>
      <trkpt lat="45.95593" lon="6.77142">
        <ele>1463</ele>
        <time>2022-07-21T15:46:22Z</time>
      </trkpt>
      <trkpt lat="45.95587" lon="6.7714">
        <ele>1463</ele>
        <time>2022-07-21T15:46:30Z</time>
      </trkpt>
      <trkpt lat="45.95584" lon="6.77135">
        <ele>1462</ele>
        <time>2022-07-21T15:46:34Z</time>
      </trkpt>
      <trkpt lat="45.95575" lon="6.77129">
        <ele>1462</ele>
        <time>2022-07-21T15:46:43Z</time>
      </trkpt>
      <trkpt lat="45.95571" lon="6.77124">
        <ele>1461</ele>
        <time>2022-07-21T15:46:51Z</time>
      </trkpt>
      <trkpt lat="45.9557" lon="6.77117">
        <ele>1460</ele>
        <time>2022-07-21T15:46:54Z</time>
      </trkpt>
      <trkpt lat="45.95566" lon="6.77113">
        <ele>1460</ele>
        <time>2022-07-21T15:46:57Z</time>
      </trkpt>
      <trkpt lat="45.95562" lon="6.77107">
        <ele>1459</ele>
        <time>2022-07-21T15:47:04Z</time>
      </trkpt>
      <trkpt lat="45.95556" lon="6.77103">
        <ele>1458</ele>
        <time>2022-07-21T15:47:10Z</time>
      </trkpt>
      <trkpt lat="45.95549" lon="6.77102">
        <ele>1457</ele>
        <time>2022-07-21T15:47:16Z</time>
      </trkpt>
      <trkpt lat="45.95545" lon="6.77106">
        <ele>1457</ele>
        <time>2022-07-21T15:47:21Z</time>
      </trkpt>
      <trkpt lat="45.95541" lon="6.77102">
        <ele>1456</ele>
        <time>2022-07-21T15:47:29Z</time>
      </trkpt>
      <trkpt lat="45.95538" lon="6.77092">
        <ele>1454</ele>
        <time>2022-07-21T15:47:40Z</time>
      </trkpt>
      <trkpt lat="45.9554" lon="6.77084">
        <ele>1453</ele>
        <time>2022-07-21T15:47:47Z</time>
      </trkpt>
      <trkpt lat="45.95538" lon="6.77074">
        <ele>1452</ele>
        <time>2022-07-21T15:47:57Z</time>
      </trkpt>
      <trkpt lat="45.95528" lon="6.7706">
        <ele>1450</ele>
        <time>2022-07-21T15:48:10Z</time>
      </trkpt>
      <trkpt lat="45.95526" lon="6.77054">
        <ele>1449</ele>
        <time>2022-07-21T15:48:17Z</time>
      </trkpt>
      <trkpt lat="45.95522" lon="6.77049">
        <ele>1448</ele>
        <time>2022-07-21T15:48:23Z</time>
      </trkpt>
      <trkpt lat="45.9552" lon="6.77043">
        <ele>1447</ele>
        <time>2022-07-21T15:48:28Z</time>
      </trkpt>
      <trkpt lat="45.95513" lon="6.77034">
        <ele>1446</ele>
        <time>2022-07-21T15:48:37Z</time>
      </trkpt>
      <trkpt lat="45.95503" lon="6.77026">
        <ele>1445</ele>
        <time>2022-07-21T15:48:49Z</time>
      </trkpt>
      <trkpt lat="45.95496" lon="6.77026">
        <ele>1443</ele>
        <time>2022-07-21T15:48:59Z</time>
      </trkpt>
      <trkpt lat="45.95478" lon="6.77019">
        <ele>1441</ele>
        <time>2022-07-21T15:49:18Z</time>
      </trkpt>
      <trkpt lat="45.95467" lon="6.77013">
        <ele>1439</ele>
        <time>2022-07-21T15:49:31Z</time>
      </trkpt>
      <trkpt lat="45.95458" lon="6.77008">
        <ele>1437</ele>
        <time>2022-07-21T15:49:44Z</time>
      </trkpt>
      <trkpt lat="45.95454" lon="6.77011">
        <ele>1436</ele>
        <time>2022-07-21T15:49:50Z</time>
      </trkpt>
      <trkpt lat="45.95431" lon="6.77013">
        <ele>1434</ele>
        <time>2022-07-21T15:50:12Z</time>
      </trkpt>
      <trkpt lat="45.95426" lon="6.77011">
        <ele>1433</ele>
        <time>2022-07-21T15:50:19Z</time>
      </trkpt>
      <trkpt lat="45.95421" lon="6.77007">
        <ele>1433</ele>
        <time>2022-07-21T15:50:25Z</time>
      </trkpt>
      <trkpt lat="45.95416" lon="6.77004">
        <ele>1432</ele>
        <time>2022-07-21T15:50:32Z</time>
      </trkpt>
      <trkpt lat="45.95408" lon="6.77003">
        <ele>1430</ele>
        <time>2022-07-21T15:50:42Z</time>
      </trkpt>
      <trkpt lat="45.95404" lon="6.77001">
        <ele>1430</ele>
        <time>2022-07-21T15:50:47Z</time>
      </trkpt>
      <trkpt lat="45.95398" lon="6.77002">
        <ele>1429</ele>
        <time>2022-07-21T15:50:54Z</time>
      </trkpt>
      <trkpt lat="45.95394" lon="6.76996">
        <ele>1426</ele>
        <time>2022-07-21T15:51:05Z</time>
      </trkpt>
      <trkpt lat="45.95391" lon="6.76979">
        <ele>1424</ele>
        <time>2022-07-21T15:51:19Z</time>
      </trkpt>
      <trkpt lat="45.95389" lon="6.76973">
        <ele>1424</ele>
        <time>2022-07-21T15:51:24Z</time>
      </trkpt>
      <trkpt lat="45.95387" lon="6.7696">
        <ele>1423</ele>
        <time>2022-07-21T15:51:32Z</time>
      </trkpt>
      <trkpt lat="45.95381" lon="6.76941">
        <ele>1422</ele>
        <time>2022-07-21T15:51:45Z</time>
      </trkpt>
      <trkpt lat="45.95377" lon="6.76938">
        <ele>1422</ele>
        <time>2022-07-21T15:51:49Z</time>
      </trkpt>
      <trkpt lat="45.95371" lon="6.76911">
        <ele>1422</ele>
        <time>2022-07-21T15:52:09Z</time>
      </trkpt>
      <trkpt lat="45.95373" lon="6.76902">
        <ele>1421</ele>
        <time>2022-07-21T15:52:16Z</time>
      </trkpt>
      <trkpt lat="45.9537" lon="6.76893">
        <ele>1420</ele>
        <time>2022-07-21T15:52:22Z</time>
      </trkpt>
      <trkpt lat="45.95368" lon="6.76879">
        <ele>1418</ele>
        <time>2022-07-21T15:52:34Z</time>
      </trkpt>
      <trkpt lat="45.95366" lon="6.76873">
        <ele>1418</ele>
        <time>2022-07-21T15:52:37Z</time>
      </trkpt>
      <trkpt lat="45.95362" lon="6.7686">
        <ele>1417</ele>
        <time>2022-07-21T15:52:46Z</time>
      </trkpt>
      <trkpt lat="45.95358" lon="6.76854">
        <ele>1417</ele>
        <time>2022-07-21T15:52:51Z</time>
      </trkpt>
      <trkpt lat="45.95356" lon="6.76845">
        <ele>1417</ele>
        <time>2022-07-21T15:53:00Z</time>
      </trkpt>
      <trkpt lat="45.95355" lon="6.76838">
        <ele>1417</ele>
        <time>2022-07-21T15:53:05Z</time>
      </trkpt>
      <trkpt lat="45.95356" lon="6.76823">
        <ele>1415</ele>
        <time>2022-07-21T15:53:17Z</time>
      </trkpt>
      <trkpt lat="45.95351" lon="6.76817">
        <ele>1415</ele>
        <time>2022-07-21T15:53:20Z</time>
      </trkpt>
      <trkpt lat="45.95347" lon="6.76812">
        <ele>1414</ele>
        <time>2022-07-21T15:53:28Z</time>
      </trkpt>
      <trkpt lat="45.95344" lon="6.76805">
        <ele>1414</ele>
        <time>2022-07-21T15:53:33Z</time>
      </trkpt>
      <trkpt lat="45.95345" lon="6.76796">
        <ele>1413</ele>
        <time>2022-07-21T15:53:37Z</time>
      </trkpt>
      <trkpt lat="45.95343" lon="6.7679">
        <ele>1413</ele>
        <time>2022-07-21T15:53:41Z</time>
      </trkpt>
      <trkpt lat="45.95332" lon="6.76775">
        <ele>1412</ele>
        <time>2022-07-21T15:53:56Z</time>
      </trkpt>
      <trkpt lat="45.95326" lon="6.76772">
        <ele>1411</ele>
        <time>2022-07-21T15:54:02Z</time>
      </trkpt>
      <trkpt lat="45.95329" lon="6.76763">
        <ele>1411</ele>
        <time>2022-07-21T15:54:05Z</time>
      </trkpt>
      <trkpt lat="45.95326" lon="6.76746">
        <ele>1411</ele>
        <time>2022-07-21T15:54:17Z</time>
      </trkpt>
      <trkpt lat="45.9532" lon="6.76738">
        <ele>1411</ele>
        <time>2022-07-21T15:54:24Z</time>
      </trkpt>
      <trkpt lat="45.95317" lon="6.76731">
        <ele>1411</ele>
        <time>2022-07-21T15:54:29Z</time>
      </trkpt>
      <trkpt lat="45.9531" lon="6.76726">
        <ele>1411</ele>
        <time>2022-07-21T15:54:35Z</time>
      </trkpt>
      <trkpt lat="45.95308" lon="6.76713">
        <ele>1411</ele>
        <time>2022-07-21T15:54:44Z</time>
      </trkpt>
      <trkpt lat="45.95302" lon="6.76703">
        <ele>1412</ele>
        <time>2022-07-21T15:54:55Z</time>
      </trkpt>
      <trkpt lat="45.95295" lon="6.76697">
        <ele>1412</ele>
        <time>2022-07-21T15:55:03Z</time>
      </trkpt>
      <trkpt lat="45.95291" lon="6.76694">
        <ele>1412</ele>
        <time>2022-07-21T15:55:11Z</time>
      </trkpt>
      <trkpt lat="45.95276" lon="6.76679">
        <ele>1413</ele>
        <time>2022-07-21T15:55:31Z</time>
      </trkpt>
      <trkpt lat="45.95273" lon="6.76672">
        <ele>1414</ele>
        <time>2022-07-21T15:55:42Z</time>
      </trkpt>
      <trkpt lat="45.9527" lon="6.76658">
        <ele>1415</ele>
        <time>2022-07-21T15:55:54Z</time>
      </trkpt>
      <trkpt lat="45.95259" lon="6.76651">
        <ele>1415</ele>
        <time>2022-07-21T15:56:06Z</time>
      </trkpt>
      <trkpt lat="45.95257" lon="6.76636">
        <ele>1416</ele>
        <time>2022-07-21T15:56:14Z</time>
      </trkpt>
      <trkpt lat="45.95247" lon="6.76627">
        <ele>1416</ele>
        <time>2022-07-21T15:56:26Z</time>
      </trkpt>
      <trkpt lat="45.95245" lon="6.76619">
        <ele>1416</ele>
        <time>2022-07-21T15:56:35Z</time>
      </trkpt>
      <trkpt lat="45.95239" lon="6.76602">
        <ele>1416</ele>
        <time>2022-07-21T15:56:49Z</time>
      </trkpt>
      <trkpt lat="45.95229" lon="6.76588">
        <ele>1416</ele>
        <time>2022-07-21T15:57:03Z</time>
      </trkpt>
      <trkpt lat="45.95218" lon="6.76582">
        <ele>1417</ele>
        <time>2022-07-21T15:57:15Z</time>
      </trkpt>
      <trkpt lat="45.95217" lon="6.76575">
        <ele>1417</ele>
        <time>2022-07-21T15:57:23Z</time>
      </trkpt>
      <trkpt lat="45.95212" lon="6.76568">
        <ele>1418</ele>
        <time>2022-07-21T15:57:33Z</time>
      </trkpt>
      <trkpt lat="45.95212" lon="6.76561">
        <ele>1419</ele>
        <time>2022-07-21T15:57:40Z</time>
      </trkpt>
      <trkpt lat="45.95207" lon="6.7655">
        <ele>1419</ele>
        <time>2022-07-21T15:57:50Z</time>
      </trkpt>
      <trkpt lat="45.95205" lon="6.76542">
        <ele>1420</ele>
        <time>2022-07-21T15:57:58Z</time>
      </trkpt>
      <trkpt lat="45.952" lon="6.76536">
        <ele>1420</ele>
        <time>2022-07-21T15:58:08Z</time>
      </trkpt>
      <trkpt lat="45.95197" lon="6.76527">
        <ele>1421</ele>
        <time>2022-07-21T15:58:13Z</time>
      </trkpt>
      <trkpt lat="45.95193" lon="6.76522">
        <ele>1421</ele>
        <time>2022-07-21T15:58:17Z</time>
      </trkpt>
      <trkpt lat="45.95193" lon="6.76514">
        <ele>1421</ele>
        <time>2022-07-21T15:58:26Z</time>
      </trkpt>
      <trkpt lat="45.95189" lon="6.76501">
        <ele>1421</ele>
        <time>2022-07-21T15:58:35Z</time>
      </trkpt>
      <trkpt lat="45.95183" lon="6.76491">
        <ele>1421</ele>
        <time>2022-07-21T15:58:43Z</time>
      </trkpt>
      <trkpt lat="45.95178" lon="6.76487">
        <ele>1421</ele>
        <time>2022-07-21T15:58:49Z</time>
      </trkpt>
      <trkpt lat="45.95176" lon="6.76481">
        <ele>1421</ele>
        <time>2022-07-21T15:58:54Z</time>
      </trkpt>
      <trkpt lat="45.95166" lon="6.76471">
        <ele>1421</ele>
        <time>2022-07-21T15:59:05Z</time>
      </trkpt>
      <trkpt lat="45.9516" lon="6.76466">
        <ele>1422</ele>
        <time>2022-07-21T15:59:12Z</time>
      </trkpt>
      <trkpt lat="45.95157" lon="6.76459">
        <ele>1422</ele>
        <time>2022-07-21T15:59:19Z</time>
      </trkpt>
      <trkpt lat="45.95149" lon="6.76435">
        <ele>1422</ele>
        <time>2022-07-21T15:59:40Z</time>
      </trkpt>
      <trkpt lat="45.95148" lon="6.76428">
        <ele>1422</ele>
        <time>2022-07-21T15:59:45Z</time>
      </trkpt>
      <trkpt lat="45.95146" lon="6.76422">
        <ele>1421</ele>
        <time>2022-07-21T15:59:49Z</time>
      </trkpt>
      <trkpt lat="45.95144" lon="6.76417">
        <ele>1421</ele>
        <time>2022-07-21T15:59:53Z</time>
      </trkpt>
      <trkpt lat="45.95139" lon="6.7641">
        <ele>1421</ele>
        <time>2022-07-21T15:59:59Z</time>
      </trkpt>
      <trkpt lat="45.95137" lon="6.76401">
        <ele>1420</ele>
        <time>2022-07-21T16:00:06Z</time>
      </trkpt>
      <trkpt lat="45.9514" lon="6.76394">
        <ele>1420</ele>
        <time>2022-07-21T16:00:11Z</time>
      </trkpt>
      <trkpt lat="45.95141" lon="6.76385">
        <ele>1421</ele>
        <time>2022-07-21T16:00:19Z</time>
      </trkpt>
      <trkpt lat="45.95138" lon="6.76381">
        <ele>1421</ele>
        <time>2022-07-21T16:00:42Z</time>
      </trkpt>
      <trkpt lat="45.95135" lon="6.76376">
        <ele>1420</ele>
        <time>2022-07-21T16:00:47Z</time>
      </trkpt>
      <trkpt lat="45.95138" lon="6.7638">
        <ele>1419</ele>
        <time>2022-07-21T16:03:18Z</time>
      </trkpt>
      <trkpt lat="45.95144" lon="6.7638">
        <ele>1419</ele>
        <time>2022-07-21T16:03:28Z</time>
      </trkpt>
      <trkpt lat="45.95147" lon="6.76383">
        <ele>1417</ele>
        <time>2022-07-21T16:07:53Z</time>
      </trkpt>
      <trkpt lat="45.95147" lon="6.76375">
        <ele>1417</ele>
        <time>2022-07-21T16:09:34Z</time>
      </trkpt>
      <trkpt lat="45.9514" lon="6.76383">
        <ele>1417</ele>
        <time>2022-07-21T16:13:11Z</time>
      </trkpt>
      <trkpt lat="45.95136" lon="6.76379">
        <ele>1416</ele>
        <time>2022-07-21T16:13:38Z</time>
      </trkpt>
      <trkpt lat="45.95134" lon="6.76384">
        <ele>1416</ele>
        <time>2022-07-21T16:13:42Z</time>
      </trkpt>
      <trkpt lat="45.9513" lon="6.76376">
        <ele>1416</ele>
        <time>2022-07-21T16:13:48Z</time>
      </trkpt>
      <trkpt lat="45.95129" lon="6.7637">
        <ele>1416</ele>
        <time>2022-07-21T16:13:52Z</time>
      </trkpt>
      <trkpt lat="45.95123" lon="6.76359">
        <ele>1416</ele>
        <time>2022-07-21T16:14:01Z</time>
      </trkpt>
      <trkpt lat="45.95121" lon="6.76353">
        <ele>1416</ele>
        <time>2022-07-21T16:14:06Z</time>
      </trkpt>
      <trkpt lat="45.95112" lon="6.76348">
        <ele>1415</ele>
        <time>2022-07-21T16:14:18Z</time>
      </trkpt>
      <trkpt lat="45.95108" lon="6.76343">
        <ele>1414</ele>
        <time>2022-07-21T16:14:25Z</time>
      </trkpt>
      <trkpt lat="45.95093" lon="6.76301">
        <ele>1412</ele>
        <time>2022-07-21T16:14:56Z</time>
      </trkpt>
      <trkpt lat="45.95091" lon="6.76288">
        <ele>1411</ele>
        <time>2022-07-21T16:15:05Z</time>
      </trkpt>
      <trkpt lat="45.9509" lon="6.76271">
        <ele>1409</ele>
        <time>2022-07-21T16:15:20Z</time>
      </trkpt>
      <trkpt lat="45.95089" lon="6.76264">
        <ele>1409</ele>
        <time>2022-07-21T16:15:24Z</time>
      </trkpt>
      <trkpt lat="45.95087" lon="6.76258">
        <ele>1409</ele>
        <time>2022-07-21T16:15:28Z</time>
      </trkpt>
      <trkpt lat="45.95086" lon="6.76234">
        <ele>1408</ele>
        <time>2022-07-21T16:15:44Z</time>
      </trkpt>
      <trkpt lat="45.95083" lon="6.76226">
        <ele>1408</ele>
        <time>2022-07-21T16:15:50Z</time>
      </trkpt>
      <trkpt lat="45.95069" lon="6.76205">
        <ele>1407</ele>
        <time>2022-07-21T16:16:09Z</time>
      </trkpt>
      <trkpt lat="45.95057" lon="6.76194">
        <ele>1405</ele>
        <time>2022-07-21T16:16:22Z</time>
      </trkpt>
      <trkpt lat="45.95054" lon="6.7619">
        <ele>1405</ele>
        <time>2022-07-21T16:16:26Z</time>
      </trkpt>
      <trkpt lat="45.95051" lon="6.76184">
        <ele>1405</ele>
        <time>2022-07-21T16:16:31Z</time>
      </trkpt>
      <trkpt lat="45.95043" lon="6.76158">
        <ele>1404</ele>
        <time>2022-07-21T16:16:50Z</time>
      </trkpt>
      <trkpt lat="45.95031" lon="6.76129">
        <ele>1402</ele>
        <time>2022-07-21T16:17:14Z</time>
      </trkpt>
      <trkpt lat="45.95023" lon="6.76102">
        <ele>1399</ele>
        <time>2022-07-21T16:17:34Z</time>
      </trkpt>
      <trkpt lat="45.95023" lon="6.76095">
        <ele>1399</ele>
        <time>2022-07-21T16:17:40Z</time>
      </trkpt>
      <trkpt lat="45.95025" lon="6.76087">
        <ele>1399</ele>
        <time>2022-07-21T16:17:45Z</time>
      </trkpt>
      <trkpt lat="45.95034" lon="6.76065">
        <ele>1397</ele>
        <time>2022-07-21T16:18:03Z</time>
      </trkpt>
      <trkpt lat="45.95035" lon="6.76052">
        <ele>1396</ele>
        <time>2022-07-21T16:18:11Z</time>
      </trkpt>
      <trkpt lat="45.95054" lon="6.76026">
        <ele>1394</ele>
        <time>2022-07-21T16:18:35Z</time>
      </trkpt>
      <trkpt lat="45.95057" lon="6.76018">
        <ele>1394</ele>
        <time>2022-07-21T16:18:41Z</time>
      </trkpt>
      <trkpt lat="45.95059" lon="6.76">
        <ele>1393</ele>
        <time>2022-07-21T16:18:53Z</time>
      </trkpt>
      <trkpt lat="45.95058" lon="6.7599">
        <ele>1392</ele>
        <time>2022-07-21T16:19:01Z</time>
      </trkpt>
      <trkpt lat="45.95059" lon="6.75983">
        <ele>1392</ele>
        <time>2022-07-21T16:19:06Z</time>
      </trkpt>
      <trkpt lat="45.9506" lon="6.75967">
        <ele>1391</ele>
        <time>2022-07-21T16:19:17Z</time>
      </trkpt>
      <trkpt lat="45.95063" lon="6.7595">
        <ele>1390</ele>
        <time>2022-07-21T16:19:29Z</time>
      </trkpt>
      <trkpt lat="45.95075" lon="6.75927">
        <ele>1388</ele>
        <time>2022-07-21T16:19:50Z</time>
      </trkpt>
      <trkpt lat="45.95078" lon="6.75921">
        <ele>1388</ele>
        <time>2022-07-21T16:19:55Z</time>
      </trkpt>
      <trkpt lat="45.95087" lon="6.75914">
        <ele>1387</ele>
        <time>2022-07-21T16:20:07Z</time>
      </trkpt>
      <trkpt lat="45.9509" lon="6.75909">
        <ele>1386</ele>
        <time>2022-07-21T16:20:11Z</time>
      </trkpt>
      <trkpt lat="45.95097" lon="6.759">
        <ele>1386</ele>
        <time>2022-07-21T16:20:19Z</time>
      </trkpt>
      <trkpt lat="45.951" lon="6.75895">
        <ele>1385</ele>
        <time>2022-07-21T16:20:23Z</time>
      </trkpt>
      <trkpt lat="45.9511" lon="6.75888">
        <ele>1384</ele>
        <time>2022-07-21T16:20:36Z</time>
      </trkpt>
      <trkpt lat="45.95114" lon="6.75878">
        <ele>1383</ele>
        <time>2022-07-21T16:20:44Z</time>
      </trkpt>
      <trkpt lat="45.95128" lon="6.75846">
        <ele>1381</ele>
        <time>2022-07-21T16:21:09Z</time>
      </trkpt>
      <trkpt lat="45.95135" lon="6.75842">
        <ele>1381</ele>
        <time>2022-07-21T16:21:13Z</time>
      </trkpt>
      <trkpt lat="45.95144" lon="6.75828">
        <ele>1380</ele>
        <time>2022-07-21T16:21:22Z</time>
      </trkpt>
      <trkpt lat="45.95153" lon="6.75807">
        <ele>1378</ele>
        <time>2022-07-21T16:21:44Z</time>
      </trkpt>
      <trkpt lat="45.95159" lon="6.75805">
        <ele>1378</ele>
        <time>2022-07-21T16:21:51Z</time>
      </trkpt>
      <trkpt lat="45.95164" lon="6.75806">
        <ele>1377</ele>
        <time>2022-07-21T16:21:56Z</time>
      </trkpt>
      <trkpt lat="45.95172" lon="6.75804">
        <ele>1377</ele>
        <time>2022-07-21T16:22:04Z</time>
      </trkpt>
      <trkpt lat="45.95176" lon="6.75801">
        <ele>1377</ele>
        <time>2022-07-21T16:22:07Z</time>
      </trkpt>
      <trkpt lat="45.95184" lon="6.75789">
        <ele>1374</ele>
        <time>2022-07-21T16:22:21Z</time>
      </trkpt>
      <trkpt lat="45.95186" lon="6.7578">
        <ele>1373</ele>
        <time>2022-07-21T16:22:27Z</time>
      </trkpt>
      <trkpt lat="45.95185" lon="6.75773">
        <ele>1371</ele>
        <time>2022-07-21T16:22:40Z</time>
      </trkpt>
      <trkpt lat="45.95189" lon="6.75768">
        <ele>1370</ele>
        <time>2022-07-21T16:22:46Z</time>
      </trkpt>
      <trkpt lat="45.95191" lon="6.75757">
        <ele>1368</ele>
        <time>2022-07-21T16:22:57Z</time>
      </trkpt>
      <trkpt lat="45.95195" lon="6.75747">
        <ele>1366</ele>
        <time>2022-07-21T16:23:08Z</time>
      </trkpt>
      <trkpt lat="45.95198" lon="6.75741">
        <ele>1366</ele>
        <time>2022-07-21T16:23:11Z</time>
      </trkpt>
      <trkpt lat="45.95195" lon="6.75735">
        <ele>1366</ele>
        <time>2022-07-21T16:23:15Z</time>
      </trkpt>
      <trkpt lat="45.95202" lon="6.75729">
        <ele>1365</ele>
        <time>2022-07-21T16:23:26Z</time>
      </trkpt>
      <trkpt lat="45.95206" lon="6.75723">
        <ele>1365</ele>
        <time>2022-07-21T16:23:30Z</time>
      </trkpt>
      <trkpt lat="45.95212" lon="6.75716">
        <ele>1365</ele>
        <time>2022-07-21T16:23:38Z</time>
      </trkpt>
      <trkpt lat="45.95211" lon="6.75708">
        <ele>1365</ele>
        <time>2022-07-21T16:23:45Z</time>
      </trkpt>
      <trkpt lat="45.95213" lon="6.75697">
        <ele>1365</ele>
        <time>2022-07-21T16:23:51Z</time>
      </trkpt>
      <trkpt lat="45.95214" lon="6.75691">
        <ele>1365</ele>
        <time>2022-07-21T16:23:55Z</time>
      </trkpt>
      <trkpt lat="45.95214" lon="6.75683">
        <ele>1365</ele>
        <time>2022-07-21T16:24:00Z</time>
      </trkpt>
      <trkpt lat="45.95211" lon="6.75664">
        <ele>1365</ele>
        <time>2022-07-21T16:24:14Z</time>
      </trkpt>
      <trkpt lat="45.95211" lon="6.75646">
        <ele>1365</ele>
        <time>2022-07-21T16:24:25Z</time>
      </trkpt>
      <trkpt lat="45.95209" lon="6.7564">
        <ele>1365</ele>
        <time>2022-07-21T16:24:29Z</time>
      </trkpt>
      <trkpt lat="45.95211" lon="6.75629">
        <ele>1365</ele>
        <time>2022-07-21T16:24:40Z</time>
      </trkpt>
      <trkpt lat="45.95207" lon="6.75615">
        <ele>1365</ele>
        <time>2022-07-21T16:24:52Z</time>
      </trkpt>
      <trkpt lat="45.95207" lon="6.75608">
        <ele>1366</ele>
        <time>2022-07-21T16:24:56Z</time>
      </trkpt>
      <trkpt lat="45.95206" lon="6.75601">
        <ele>1366</ele>
        <time>2022-07-21T16:25:01Z</time>
      </trkpt>
      <trkpt lat="45.95213" lon="6.75578">
        <ele>1366</ele>
        <time>2022-07-21T16:25:20Z</time>
      </trkpt>
      <trkpt lat="45.95218" lon="6.75568">
        <ele>1366</ele>
        <time>2022-07-21T16:25:29Z</time>
      </trkpt>
      <trkpt lat="45.95224" lon="6.75565">
        <ele>1365</ele>
        <time>2022-07-21T16:25:34Z</time>
      </trkpt>
      <trkpt lat="45.95226" lon="6.7556">
        <ele>1365</ele>
        <time>2022-07-21T16:25:38Z</time>
      </trkpt>
      <trkpt lat="45.9523" lon="6.75554">
        <ele>1365</ele>
        <time>2022-07-21T16:25:43Z</time>
      </trkpt>
      <trkpt lat="45.95231" lon="6.75547">
        <ele>1365</ele>
        <time>2022-07-21T16:25:47Z</time>
      </trkpt>
      <trkpt lat="45.95235" lon="6.75534">
        <ele>1365</ele>
        <time>2022-07-21T16:25:57Z</time>
      </trkpt>
      <trkpt lat="45.9524" lon="6.7551">
        <ele>1365</ele>
        <time>2022-07-21T16:26:13Z</time>
      </trkpt>
      <trkpt lat="45.95238" lon="6.75501">
        <ele>1365</ele>
        <time>2022-07-21T16:26:20Z</time>
      </trkpt>
      <trkpt lat="45.95239" lon="6.7549">
        <ele>1365</ele>
        <time>2022-07-21T16:26:28Z</time>
      </trkpt>
      <trkpt lat="45.95237" lon="6.75484">
        <ele>1365</ele>
        <time>2022-07-21T16:26:35Z</time>
      </trkpt>
      <trkpt lat="45.95239" lon="6.75478">
        <ele>1365</ele>
        <time>2022-07-21T16:26:40Z</time>
      </trkpt>
      <trkpt lat="45.95239" lon="6.75472">
        <ele>1365</ele>
        <time>2022-07-21T16:26:44Z</time>
      </trkpt>
      <trkpt lat="45.9524" lon="6.75463">
        <ele>1365</ele>
        <time>2022-07-21T16:26:50Z</time>
      </trkpt>
      <trkpt lat="45.95241" lon="6.75441">
        <ele>1365</ele>
        <time>2022-07-21T16:27:07Z</time>
      </trkpt>
      <trkpt lat="45.95255" lon="6.75393">
        <ele>1365</ele>
        <time>2022-07-21T16:27:39Z</time>
      </trkpt>
      <trkpt lat="45.95254" lon="6.75387">
        <ele>1365</ele>
        <time>2022-07-21T16:27:44Z</time>
      </trkpt>
      <trkpt lat="45.9525" lon="6.75374">
        <ele>1364</ele>
        <time>2022-07-21T16:27:53Z</time>
      </trkpt>
      <trkpt lat="45.95252" lon="6.75368">
        <ele>1364</ele>
        <time>2022-07-21T16:27:56Z</time>
      </trkpt>
      <trkpt lat="45.95251" lon="6.75355">
        <ele>1364</ele>
        <time>2022-07-21T16:28:06Z</time>
      </trkpt>
      <trkpt lat="45.95255" lon="6.75335">
        <ele>1363</ele>
        <time>2022-07-21T16:28:22Z</time>
      </trkpt>
      <trkpt lat="45.95258" lon="6.75329">
        <ele>1363</ele>
        <time>2022-07-21T16:28:26Z</time>
      </trkpt>
      <trkpt lat="45.95275" lon="6.75312">
        <ele>1363</ele>
        <time>2022-07-21T16:28:41Z</time>
      </trkpt>
      <trkpt lat="45.95268" lon="6.7531">
        <ele>1363</ele>
        <time>2022-07-21T16:28:42Z</time>
      </trkpt>
      <trkpt lat="45.95269" lon="6.75302">
        <ele>1363</ele>
        <time>2022-07-21T16:28:47Z</time>
      </trkpt>
      <trkpt lat="45.95275" lon="6.75296">
        <ele>1362</ele>
        <time>2022-07-21T16:28:51Z</time>
      </trkpt>
      <trkpt lat="45.95276" lon="6.75289">
        <ele>1362</ele>
        <time>2022-07-21T16:28:56Z</time>
      </trkpt>
      <trkpt lat="45.95276" lon="6.75274">
        <ele>1361</ele>
        <time>2022-07-21T16:29:06Z</time>
      </trkpt>
      <trkpt lat="45.95274" lon="6.75265">
        <ele>1361</ele>
        <time>2022-07-21T16:29:13Z</time>
      </trkpt>
      <trkpt lat="45.95275" lon="6.75259">
        <ele>1361</ele>
        <time>2022-07-21T16:29:18Z</time>
      </trkpt>
      <trkpt lat="45.95265" lon="6.75221">
        <ele>1361</ele>
        <time>2022-07-21T16:29:46Z</time>
      </trkpt>
      <trkpt lat="45.95236" lon="6.75183">
        <ele>1360</ele>
        <time>2022-07-21T16:30:19Z</time>
      </trkpt>
      <trkpt lat="45.95223" lon="6.75169">
        <ele>1360</ele>
        <time>2022-07-21T16:30:34Z</time>
      </trkpt>
      <trkpt lat="45.95203" lon="6.75157">
        <ele>1359</ele>
        <time>2022-07-21T16:30:54Z</time>
      </trkpt>
      <trkpt lat="45.95193" lon="6.75146">
        <ele>1359</ele>
        <time>2022-07-21T16:31:06Z</time>
      </trkpt>
      <trkpt lat="45.95188" lon="6.75145">
        <ele>1359</ele>
        <time>2022-07-21T16:31:11Z</time>
      </trkpt>
      <trkpt lat="45.95174" lon="6.75133">
        <ele>1358</ele>
        <time>2022-07-21T16:31:28Z</time>
      </trkpt>
      <trkpt lat="45.9517" lon="6.75127">
        <ele>1358</ele>
        <time>2022-07-21T16:31:32Z</time>
      </trkpt>
      <trkpt lat="45.95158" lon="6.75112">
        <ele>1356</ele>
        <time>2022-07-21T16:31:50Z</time>
      </trkpt>
      <trkpt lat="45.95155" lon="6.75103">
        <ele>1355</ele>
        <time>2022-07-21T16:31:58Z</time>
      </trkpt>
      <trkpt lat="45.9515" lon="6.75099">
        <ele>1355</ele>
        <time>2022-07-21T16:32:02Z</time>
      </trkpt>
      <trkpt lat="45.95149" lon="6.75093">
        <ele>1354</ele>
        <time>2022-07-21T16:32:06Z</time>
      </trkpt>
      <trkpt lat="45.9514" lon="6.75085">
        <ele>1353</ele>
        <time>2022-07-21T16:32:14Z</time>
      </trkpt>
      <trkpt lat="45.95136" lon="6.75078">
        <ele>1353</ele>
        <time>2022-07-21T16:32:21Z</time>
      </trkpt>
      <trkpt lat="45.9511" lon="6.75051">
        <ele>1351</ele>
        <time>2022-07-21T16:32:51Z</time>
      </trkpt>
      <trkpt lat="45.9511" lon="6.75045">
        <ele>1351</ele>
        <time>2022-07-21T16:32:54Z</time>
      </trkpt>
      <trkpt lat="45.95101" lon="6.75034">
        <ele>1350</ele>
        <time>2022-07-21T16:33:06Z</time>
      </trkpt>
      <trkpt lat="45.95094" lon="6.7502">
        <ele>1350</ele>
        <time>2022-07-21T16:33:18Z</time>
      </trkpt>
      <trkpt lat="45.95092" lon="6.75012">
        <ele>1350</ele>
        <time>2022-07-21T16:33:23Z</time>
      </trkpt>
      <trkpt lat="45.95081" lon="6.74979">
        <ele>1349</ele>
        <time>2022-07-21T16:33:49Z</time>
      </trkpt>
      <trkpt lat="45.95082" lon="6.74972">
        <ele>1349</ele>
        <time>2022-07-21T16:33:54Z</time>
      </trkpt>
      <trkpt lat="45.9508" lon="6.74955">
        <ele>1349</ele>
        <time>2022-07-21T16:34:07Z</time>
      </trkpt>
      <trkpt lat="45.95081" lon="6.74948">
        <ele>1349</ele>
        <time>2022-07-21T16:34:12Z</time>
      </trkpt>
      <trkpt lat="45.95081" lon="6.7494">
        <ele>1349</ele>
        <time>2022-07-21T16:34:16Z</time>
      </trkpt>
      <trkpt lat="45.95083" lon="6.74931">
        <ele>1349</ele>
        <time>2022-07-21T16:34:23Z</time>
      </trkpt>
      <trkpt lat="45.95084" lon="6.74925">
        <ele>1349</ele>
        <time>2022-07-21T16:34:27Z</time>
      </trkpt>
      <trkpt lat="45.9508" lon="6.74912">
        <ele>1349</ele>
        <time>2022-07-21T16:34:36Z</time>
      </trkpt>
      <trkpt lat="45.95078" lon="6.74906">
        <ele>1349</ele>
        <time>2022-07-21T16:34:41Z</time>
      </trkpt>
      <trkpt lat="45.95074" lon="6.749">
        <ele>1349</ele>
        <time>2022-07-21T16:34:45Z</time>
      </trkpt>
      <trkpt lat="45.95073" lon="6.74894">
        <ele>1349</ele>
        <time>2022-07-21T16:34:49Z</time>
      </trkpt>
      <trkpt lat="45.95073" lon="6.74887">
        <ele>1349</ele>
        <time>2022-07-21T16:34:53Z</time>
      </trkpt>
      <trkpt lat="45.95067" lon="6.74862">
        <ele>1350</ele>
        <time>2022-07-21T16:35:12Z</time>
      </trkpt>
      <trkpt lat="45.95065" lon="6.7484">
        <ele>1350</ele>
        <time>2022-07-21T16:35:29Z</time>
      </trkpt>
      <trkpt lat="45.95065" lon="6.74832">
        <ele>1350</ele>
        <time>2022-07-21T16:35:35Z</time>
      </trkpt>
      <trkpt lat="45.95067" lon="6.74824">
        <ele>1350</ele>
        <time>2022-07-21T16:35:42Z</time>
      </trkpt>
      <trkpt lat="45.9506" lon="6.74811">
        <ele>1351</ele>
        <time>2022-07-21T16:35:52Z</time>
      </trkpt>
      <trkpt lat="45.95062" lon="6.74803">
        <ele>1351</ele>
        <time>2022-07-21T16:35:56Z</time>
      </trkpt>
      <trkpt lat="45.95065" lon="6.74797">
        <ele>1351</ele>
        <time>2022-07-21T16:36:01Z</time>
      </trkpt>
      <trkpt lat="45.95065" lon="6.74787">
        <ele>1352</ele>
        <time>2022-07-21T16:36:09Z</time>
      </trkpt>
      <trkpt lat="45.95063" lon="6.7478">
        <ele>1352</ele>
        <time>2022-07-21T16:36:15Z</time>
      </trkpt>
      <trkpt lat="45.95048" lon="6.74758">
        <ele>1353</ele>
        <time>2022-07-21T16:36:35Z</time>
      </trkpt>
      <trkpt lat="45.95041" lon="6.74752">
        <ele>1354</ele>
        <time>2022-07-21T16:36:43Z</time>
      </trkpt>
      <trkpt lat="45.95035" lon="6.7475">
        <ele>1354</ele>
        <time>2022-07-21T16:36:48Z</time>
      </trkpt>
      <trkpt lat="45.95031" lon="6.7474">
        <ele>1355</ele>
        <time>2022-07-21T16:36:59Z</time>
      </trkpt>
      <trkpt lat="45.95027" lon="6.74729">
        <ele>1355</ele>
        <time>2022-07-21T16:37:07Z</time>
      </trkpt>
      <trkpt lat="45.95022" lon="6.74722">
        <ele>1355</ele>
        <time>2022-07-21T16:37:17Z</time>
      </trkpt>
      <trkpt lat="45.94984" lon="6.74722">
        <ele>1356</ele>
        <time>2022-07-21T16:37:45Z</time>
      </trkpt>
      <trkpt lat="45.9498" lon="6.74731">
        <ele>1357</ele>
        <time>2022-07-21T16:37:56Z</time>
      </trkpt>
      <trkpt lat="45.94973" lon="6.74735">
        <ele>1357</ele>
        <time>2022-07-21T16:38:01Z</time>
      </trkpt>
      <trkpt lat="45.94969" lon="6.74742">
        <ele>1357</ele>
        <time>2022-07-21T16:38:07Z</time>
      </trkpt>
      <trkpt lat="45.94964" lon="6.74745">
        <ele>1358</ele>
        <time>2022-07-21T16:38:12Z</time>
      </trkpt>
      <trkpt lat="45.94957" lon="6.74721">
        <ele>1357</ele>
        <time>2022-07-21T16:38:42Z</time>
      </trkpt>
      <trkpt lat="45.9496" lon="6.74714">
        <ele>1357</ele>
        <time>2022-07-21T16:38:47Z</time>
      </trkpt>
      <trkpt lat="45.94955" lon="6.74693">
        <ele>1357</ele>
        <time>2022-07-21T16:39:03Z</time>
      </trkpt>
      <trkpt lat="45.9496" lon="6.74667">
        <ele>1357</ele>
        <time>2022-07-21T16:39:19Z</time>
      </trkpt>
      <trkpt lat="45.94962" lon="6.74648">
        <ele>1357</ele>
        <time>2022-07-21T16:39:28Z</time>
      </trkpt>
      <trkpt lat="45.94975" lon="6.7463">
        <ele>1357</ele>
        <time>2022-07-21T16:39:51Z</time>
      </trkpt>
      <trkpt lat="45.9498" lon="6.74607">
        <ele>1358</ele>
        <time>2022-07-21T16:40:11Z</time>
      </trkpt>
      <trkpt lat="45.94972" lon="6.74585">
        <ele>1359</ele>
        <time>2022-07-21T16:40:21Z</time>
      </trkpt>
      <trkpt lat="45.94967" lon="6.74575">
        <ele>1359</ele>
        <time>2022-07-21T16:40:28Z</time>
      </trkpt>
      <trkpt lat="45.94974" lon="6.74563">
        <ele>1359</ele>
        <time>2022-07-21T16:40:39Z</time>
      </trkpt>
      <trkpt lat="45.94977" lon="6.74543">
        <ele>1360</ele>
        <time>2022-07-21T16:40:54Z</time>
      </trkpt>
      <trkpt lat="45.94981" lon="6.74526">
        <ele>1361</ele>
        <time>2022-07-21T16:41:10Z</time>
      </trkpt>
      <trkpt lat="45.94977" lon="6.74511">
        <ele>1362</ele>
        <time>2022-07-21T16:41:22Z</time>
      </trkpt>
      <trkpt lat="45.94972" lon="6.74505">
        <ele>1362</ele>
        <time>2022-07-21T16:41:26Z</time>
      </trkpt>
      <trkpt lat="45.94968" lon="6.74495">
        <ele>1362</ele>
        <time>2022-07-21T16:41:35Z</time>
      </trkpt>
      <trkpt lat="45.94978" lon="6.74473">
        <ele>1363</ele>
        <time>2022-07-21T16:41:50Z</time>
      </trkpt>
      <trkpt lat="45.94978" lon="6.74454">
        <ele>1363</ele>
        <time>2022-07-21T16:42:05Z</time>
      </trkpt>
      <trkpt lat="45.9498" lon="6.74447">
        <ele>1364</ele>
        <time>2022-07-21T16:42:09Z</time>
      </trkpt>
      <trkpt lat="45.9498" lon="6.7443">
        <ele>1364</ele>
        <time>2022-07-21T16:42:23Z</time>
      </trkpt>
      <trkpt lat="45.94985" lon="6.74413">
        <ele>1365</ele>
        <time>2022-07-21T16:42:36Z</time>
      </trkpt>
      <trkpt lat="45.94983" lon="6.74404">
        <ele>1365</ele>
        <time>2022-07-21T16:42:42Z</time>
      </trkpt>
      <trkpt lat="45.94986" lon="6.74398">
        <ele>1365</ele>
        <time>2022-07-21T16:42:46Z</time>
      </trkpt>
      <trkpt lat="45.94986" lon="6.74391">
        <ele>1366</ele>
        <time>2022-07-21T16:42:52Z</time>
      </trkpt>
      <trkpt lat="45.94994" lon="6.74379">
        <ele>1366</ele>
        <time>2022-07-21T16:43:01Z</time>
      </trkpt>
      <trkpt lat="45.94999" lon="6.74365">
        <ele>1366</ele>
        <time>2022-07-21T16:43:13Z</time>
      </trkpt>
      <trkpt lat="45.95001" lon="6.74356">
        <ele>1366</ele>
        <time>2022-07-21T16:43:22Z</time>
      </trkpt>
      <trkpt lat="45.95007" lon="6.74345">
        <ele>1366</ele>
        <time>2022-07-21T16:43:32Z</time>
      </trkpt>
      <trkpt lat="45.95009" lon="6.74339">
        <ele>1366</ele>
        <time>2022-07-21T16:43:37Z</time>
      </trkpt>
      <trkpt lat="45.95013" lon="6.74332">
        <ele>1366</ele>
        <time>2022-07-21T16:43:42Z</time>
      </trkpt>
      <trkpt lat="45.95014" lon="6.74325">
        <ele>1367</ele>
        <time>2022-07-21T16:43:50Z</time>
      </trkpt>
      <trkpt lat="45.95018" lon="6.74313">
        <ele>1367</ele>
        <time>2022-07-21T16:43:59Z</time>
      </trkpt>
      <trkpt lat="45.95022" lon="6.74306">
        <ele>1367</ele>
        <time>2022-07-21T16:44:05Z</time>
      </trkpt>
      <trkpt lat="45.95023" lon="6.74297">
        <ele>1367</ele>
        <time>2022-07-21T16:44:13Z</time>
      </trkpt>
      <trkpt lat="45.95025" lon="6.7429">
        <ele>1367</ele>
        <time>2022-07-21T16:44:19Z</time>
      </trkpt>
      <trkpt lat="45.95029" lon="6.74285">
        <ele>1366</ele>
        <time>2022-07-21T16:44:26Z</time>
      </trkpt>
      <trkpt lat="45.95032" lon="6.74279">
        <ele>1366</ele>
        <time>2022-07-21T16:44:31Z</time>
      </trkpt>
      <trkpt lat="45.95036" lon="6.74274">
        <ele>1366</ele>
        <time>2022-07-21T16:44:36Z</time>
      </trkpt>
      <trkpt lat="45.95052" lon="6.74235">
        <ele>1365</ele>
        <time>2022-07-21T16:45:10Z</time>
      </trkpt>
      <trkpt lat="45.95054" lon="6.74228">
        <ele>1365</ele>
        <time>2022-07-21T16:45:16Z</time>
      </trkpt>
      <trkpt lat="45.95055" lon="6.74222">
        <ele>1365</ele>
        <time>2022-07-21T16:45:20Z</time>
      </trkpt>
      <trkpt lat="45.95057" lon="6.74217">
        <ele>1365</ele>
        <time>2022-07-21T16:45:25Z</time>
      </trkpt>
      <trkpt lat="45.95063" lon="6.74179">
        <ele>1364</ele>
        <time>2022-07-21T16:45:52Z</time>
      </trkpt>
      <trkpt lat="45.95065" lon="6.74173">
        <ele>1363</ele>
        <time>2022-07-21T16:45:57Z</time>
      </trkpt>
      <trkpt lat="45.95071" lon="6.74145">
        <ele>1363</ele>
        <time>2022-07-21T16:46:16Z</time>
      </trkpt>
      <trkpt lat="45.95071" lon="6.74135">
        <ele>1362</ele>
        <time>2022-07-21T16:46:23Z</time>
      </trkpt>
      <trkpt lat="45.95076" lon="6.74123">
        <ele>1362</ele>
        <time>2022-07-21T16:46:32Z</time>
      </trkpt>
      <trkpt lat="45.95077" lon="6.74116">
        <ele>1362</ele>
        <time>2022-07-21T16:46:36Z</time>
      </trkpt>
      <trkpt lat="45.95079" lon="6.74093">
        <ele>1360</ele>
        <time>2022-07-21T16:46:53Z</time>
      </trkpt>
      <trkpt lat="45.95078" lon="6.74086">
        <ele>1360</ele>
        <time>2022-07-21T16:46:58Z</time>
      </trkpt>
      <trkpt lat="45.95081" lon="6.74079">
        <ele>1360</ele>
        <time>2022-07-21T16:47:02Z</time>
      </trkpt>
      <trkpt lat="45.9508" lon="6.74072">
        <ele>1360</ele>
        <time>2022-07-21T16:47:06Z</time>
      </trkpt>
      <trkpt lat="45.95086" lon="6.7406">
        <ele>1359</ele>
        <time>2022-07-21T16:47:14Z</time>
      </trkpt>
      <trkpt lat="45.95088" lon="6.74054">
        <ele>1359</ele>
        <time>2022-07-21T16:47:19Z</time>
      </trkpt>
      <trkpt lat="45.95093" lon="6.7404">
        <ele>1358</ele>
        <time>2022-07-21T16:47:29Z</time>
      </trkpt>
      <trkpt lat="45.95088" lon="6.74035">
        <ele>1358</ele>
        <time>2022-07-21T16:47:34Z</time>
      </trkpt>
      <trkpt lat="45.95092" lon="6.74025">
        <ele>1358</ele>
        <time>2022-07-21T16:47:38Z</time>
      </trkpt>
      <trkpt lat="45.95088" lon="6.7402">
        <ele>1357</ele>
        <time>2022-07-21T16:47:42Z</time>
      </trkpt>
      <trkpt lat="45.95097" lon="6.74011">
        <ele>1357</ele>
        <time>2022-07-21T16:47:48Z</time>
      </trkpt>
      <trkpt lat="45.95101" lon="6.74011">
        <ele>1357</ele>
        <time>2022-07-21T16:47:50Z</time>
      </trkpt>
      <trkpt lat="45.95103" lon="6.74001">
        <ele>1357</ele>
        <time>2022-07-21T16:47:58Z</time>
      </trkpt>
      <trkpt lat="45.95099" lon="6.73995">
        <ele>1356</ele>
        <time>2022-07-21T16:48:01Z</time>
      </trkpt>
      <trkpt lat="45.95098" lon="6.73988">
        <ele>1356</ele>
        <time>2022-07-21T16:48:06Z</time>
      </trkpt>
      <trkpt lat="45.95103" lon="6.73957">
        <ele>1355</ele>
        <time>2022-07-21T16:48:25Z</time>
      </trkpt>
      <trkpt lat="45.95103" lon="6.73951">
        <ele>1354</ele>
        <time>2022-07-21T16:48:29Z</time>
      </trkpt>
      <trkpt lat="45.95104" lon="6.73944">
        <ele>1354</ele>
        <time>2022-07-21T16:48:33Z</time>
      </trkpt>
      <trkpt lat="45.95103" lon="6.73936">
        <ele>1353</ele>
        <time>2022-07-21T16:48:38Z</time>
      </trkpt>
      <trkpt lat="45.95103" lon="6.7393">
        <ele>1353</ele>
        <time>2022-07-21T16:48:42Z</time>
      </trkpt>
      <trkpt lat="45.95102" lon="6.73922">
        <ele>1353</ele>
        <time>2022-07-21T16:48:47Z</time>
      </trkpt>
      <trkpt lat="45.951" lon="6.73916">
        <ele>1353</ele>
        <time>2022-07-21T16:48:51Z</time>
      </trkpt>
      <trkpt lat="45.95099" lon="6.73905">
        <ele>1352</ele>
        <time>2022-07-21T16:48:59Z</time>
      </trkpt>
      <trkpt lat="45.95102" lon="6.739">
        <ele>1352</ele>
        <time>2022-07-21T16:49:04Z</time>
      </trkpt>
      <trkpt lat="45.95104" lon="6.73893">
        <ele>1352</ele>
        <time>2022-07-21T16:49:08Z</time>
      </trkpt>
      <trkpt lat="45.951" lon="6.73887">
        <ele>1351</ele>
        <time>2022-07-21T16:49:11Z</time>
      </trkpt>
      <trkpt lat="45.951" lon="6.73881">
        <ele>1351</ele>
        <time>2022-07-21T16:49:15Z</time>
      </trkpt>
      <trkpt lat="45.95093" lon="6.7387">
        <ele>1350</ele>
        <time>2022-07-21T16:49:23Z</time>
      </trkpt>
      <trkpt lat="45.95091" lon="6.73859">
        <ele>1350</ele>
        <time>2022-07-21T16:49:33Z</time>
      </trkpt>
      <trkpt lat="45.95087" lon="6.73856">
        <ele>1349</ele>
        <time>2022-07-21T16:50:14Z</time>
      </trkpt>
      <trkpt lat="45.9509" lon="6.73853">
        <ele>1349</ele>
        <time>2022-07-21T16:53:44Z</time>
      </trkpt>
      <trkpt lat="45.95093" lon="6.73845">
        <ele>1349</ele>
        <time>2022-07-21T16:55:17Z</time>
      </trkpt>
      <trkpt lat="45.95095" lon="6.73836">
        <ele>1349</ele>
        <time>2022-07-21T16:55:21Z</time>
      </trkpt>
      <trkpt lat="45.95092" lon="6.73805">
        <ele>1349</ele>
        <time>2022-07-21T16:55:27Z</time>
      </trkpt>
      <trkpt lat="45.95052" lon="6.73641">
        <ele>1342</ele>
        <time>2022-07-21T16:55:45Z</time>
      </trkpt>
      <trkpt lat="45.95051" lon="6.73613">
        <ele>1341</ele>
        <time>2022-07-21T16:55:47Z</time>
      </trkpt>
      <trkpt lat="45.95052" lon="6.73598">
        <ele>1341</ele>
        <time>2022-07-21T16:55:48Z</time>
      </trkpt>
      <trkpt lat="45.95055" lon="6.73553">
        <ele>1339</ele>
        <time>2022-07-21T16:55:51Z</time>
      </trkpt>
      <trkpt lat="45.95038" lon="6.73433">
        <ele>1330</ele>
        <time>2022-07-21T16:55:59Z</time>
      </trkpt>
      <trkpt lat="45.95039" lon="6.73418">
        <ele>1328</ele>
        <time>2022-07-21T16:56:00Z</time>
      </trkpt>
      <trkpt lat="45.95043" lon="6.73405">
        <ele>1326</ele>
        <time>2022-07-21T16:56:01Z</time>
      </trkpt>
      <trkpt lat="45.9505" lon="6.73396">
        <ele>1326</ele>
        <time>2022-07-21T16:56:03Z</time>
      </trkpt>
      <trkpt lat="45.95065" lon="6.73387">
        <ele>1323</ele>
        <time>2022-07-21T16:56:05Z</time>
      </trkpt>
      <trkpt lat="45.95091" lon="6.73381">
        <ele>1320</ele>
        <time>2022-07-21T16:56:08Z</time>
      </trkpt>
      <trkpt lat="45.95122" lon="6.7336">
        <ele>1318</ele>
        <time>2022-07-21T16:56:12Z</time>
      </trkpt>
      <trkpt lat="45.95149" lon="6.73329">
        <ele>1315</ele>
        <time>2022-07-21T16:56:16Z</time>
      </trkpt>
      <trkpt lat="45.95155" lon="6.7332">
        <ele>1315</ele>
        <time>2022-07-21T16:56:17Z</time>
      </trkpt>
      <trkpt lat="45.95198" lon="6.73258">
        <ele>1311</ele>
        <time>2022-07-21T16:56:25Z</time>
      </trkpt>
      <trkpt lat="45.95204" lon="6.73242">
        <ele>1310</ele>
        <time>2022-07-21T16:56:27Z</time>
      </trkpt>
      <trkpt lat="45.95208" lon="6.73211">
        <ele>1309</ele>
        <time>2022-07-21T16:56:31Z</time>
      </trkpt>
      <trkpt lat="45.95209" lon="6.73187">
        <ele>1309</ele>
        <time>2022-07-21T16:56:34Z</time>
      </trkpt>
      <trkpt lat="45.95205" lon="6.7317">
        <ele>1309</ele>
        <time>2022-07-21T16:56:36Z</time>
      </trkpt>
      <trkpt lat="45.95197" lon="6.73153">
        <ele>1308</ele>
        <time>2022-07-21T16:56:38Z</time>
      </trkpt>
      <trkpt lat="45.95104" lon="6.73034">
        <ele>1304</ele>
        <time>2022-07-21T16:56:52Z</time>
      </trkpt>
      <trkpt lat="45.95086" lon="6.73002">
        <ele>1302</ele>
        <time>2022-07-21T16:56:55Z</time>
      </trkpt>
      <trkpt lat="45.95078" lon="6.72996">
        <ele>1301</ele>
        <time>2022-07-21T16:56:56Z</time>
      </trkpt>
      <trkpt lat="45.95051" lon="6.72988">
        <ele>1299</ele>
        <time>2022-07-21T16:56:59Z</time>
      </trkpt>
      <trkpt lat="45.9504" lon="6.72986">
        <ele>1299</ele>
        <time>2022-07-21T16:57:00Z</time>
      </trkpt>
      <trkpt lat="45.94998" lon="6.72976">
        <ele>1296</ele>
        <time>2022-07-21T16:57:04Z</time>
      </trkpt>
      <trkpt lat="45.94979" lon="6.72964">
        <ele>1295</ele>
        <time>2022-07-21T16:57:06Z</time>
      </trkpt>
      <trkpt lat="45.94947" lon="6.72912">
        <ele>1291</ele>
        <time>2022-07-21T16:57:11Z</time>
      </trkpt>
      <trkpt lat="45.94939" lon="6.72904">
        <ele>1290</ele>
        <time>2022-07-21T16:57:12Z</time>
      </trkpt>
      <trkpt lat="45.9493" lon="6.72898">
        <ele>1289</ele>
        <time>2022-07-21T16:57:13Z</time>
      </trkpt>
      <trkpt lat="45.94921" lon="6.72894">
        <ele>1289</ele>
        <time>2022-07-21T16:57:14Z</time>
      </trkpt>
      <trkpt lat="45.94902" lon="6.72889">
        <ele>1288</ele>
        <time>2022-07-21T16:57:16Z</time>
      </trkpt>
      <trkpt lat="45.94894" lon="6.72884">
        <ele>1287</ele>
        <time>2022-07-21T16:57:17Z</time>
      </trkpt>
      <trkpt lat="45.9488" lon="6.72865">
        <ele>1285</ele>
        <time>2022-07-21T16:57:19Z</time>
      </trkpt>
      <trkpt lat="45.94867" lon="6.72831">
        <ele>1283</ele>
        <time>2022-07-21T16:57:22Z</time>
      </trkpt>
      <trkpt lat="45.9486" lon="6.72825">
        <ele>1282</ele>
        <time>2022-07-21T16:57:23Z</time>
      </trkpt>
      <trkpt lat="45.94853" lon="6.72823">
        <ele>1282</ele>
        <time>2022-07-21T16:57:24Z</time>
      </trkpt>
      <trkpt lat="45.94846" lon="6.72824">
        <ele>1281</ele>
        <time>2022-07-21T16:57:25Z</time>
      </trkpt>
      <trkpt lat="45.94841" lon="6.72834">
        <ele>1281</ele>
        <time>2022-07-21T16:57:26Z</time>
      </trkpt>
      <trkpt lat="45.9484" lon="6.72846">
        <ele>1280</ele>
        <time>2022-07-21T16:57:27Z</time>
      </trkpt>
      <trkpt lat="45.94867" lon="6.7293">
        <ele>1278</ele>
        <time>2022-07-21T16:57:34Z</time>
      </trkpt>
      <trkpt lat="45.94869" lon="6.7302">
        <ele>1273</ele>
        <time>2022-07-21T16:57:40Z</time>
      </trkpt>
      <trkpt lat="45.94869" lon="6.73035">
        <ele>1272</ele>
        <time>2022-07-21T16:57:41Z</time>
      </trkpt>
      <trkpt lat="45.94867" lon="6.73051">
        <ele>1272</ele>
        <time>2022-07-21T16:57:42Z</time>
      </trkpt>
      <trkpt lat="45.94861" lon="6.73127">
        <ele>1268</ele>
        <time>2022-07-21T16:57:47Z</time>
      </trkpt>
      <trkpt lat="45.94857" lon="6.73141">
        <ele>1267</ele>
        <time>2022-07-21T16:57:48Z</time>
      </trkpt>
      <trkpt lat="45.94839" lon="6.73173">
        <ele>1265</ele>
        <time>2022-07-21T16:57:50Z</time>
      </trkpt>
      <trkpt lat="45.94835" lon="6.73186">
        <ele>1265</ele>
        <time>2022-07-21T16:57:51Z</time>
      </trkpt>
      <trkpt lat="45.94831" lon="6.73235">
        <ele>1263</ele>
        <time>2022-07-21T16:57:55Z</time>
      </trkpt>
      <trkpt lat="45.94827" lon="6.73243">
        <ele>1263</ele>
        <time>2022-07-21T16:57:56Z</time>
      </trkpt>
      <trkpt lat="45.94823" lon="6.73248">
        <ele>1262</ele>
        <time>2022-07-21T16:57:57Z</time>
      </trkpt>
      <trkpt lat="45.94818" lon="6.73249">
        <ele>1262</ele>
        <time>2022-07-21T16:57:59Z</time>
      </trkpt>
      <trkpt lat="45.94813" lon="6.73244">
        <ele>1261</ele>
        <time>2022-07-21T16:57:59Z</time>
      </trkpt>
      <trkpt lat="45.94811" lon="6.73234">
        <ele>1261</ele>
        <time>2022-07-21T16:58:01Z</time>
      </trkpt>
      <trkpt lat="45.9481" lon="6.7318">
        <ele>1258</ele>
        <time>2022-07-21T16:58:06Z</time>
      </trkpt>
      <trkpt lat="45.94823" lon="6.73099">
        <ele>1256</ele>
        <time>2022-07-21T16:58:12Z</time>
      </trkpt>
      <trkpt lat="45.94821" lon="6.7307">
        <ele>1254</ele>
        <time>2022-07-21T16:58:14Z</time>
      </trkpt>
      <trkpt lat="45.94777" lon="6.72903">
        <ele>1245</ele>
        <time>2022-07-21T16:58:25Z</time>
      </trkpt>
      <trkpt lat="45.94755" lon="6.72859">
        <ele>1242</ele>
        <time>2022-07-21T16:58:28Z</time>
      </trkpt>
      <trkpt lat="45.94741" lon="6.72829">
        <ele>1240</ele>
        <time>2022-07-21T16:58:30Z</time>
      </trkpt>
      <trkpt lat="45.94685" lon="6.72732">
        <ele>1233</ele>
        <time>2022-07-21T16:58:38Z</time>
      </trkpt>
      <trkpt lat="45.9468" lon="6.7272">
        <ele>1233</ele>
        <time>2022-07-21T16:58:39Z</time>
      </trkpt>
      <trkpt lat="45.94675" lon="6.72692">
        <ele>1232</ele>
        <time>2022-07-21T16:58:41Z</time>
      </trkpt>
      <trkpt lat="45.94674" lon="6.72651">
        <ele>1230</ele>
        <time>2022-07-21T16:58:44Z</time>
      </trkpt>
      <trkpt lat="45.94678" lon="6.72629">
        <ele>1228</ele>
        <time>2022-07-21T16:58:46Z</time>
      </trkpt>
      <trkpt lat="45.94692" lon="6.72596">
        <ele>1226</ele>
        <time>2022-07-21T16:58:49Z</time>
      </trkpt>
      <trkpt lat="45.94694" lon="6.72583">
        <ele>1225</ele>
        <time>2022-07-21T16:58:50Z</time>
      </trkpt>
      <trkpt lat="45.94693" lon="6.7257">
        <ele>1224</ele>
        <time>2022-07-21T16:58:51Z</time>
      </trkpt>
      <trkpt lat="45.9469" lon="6.72557">
        <ele>1224</ele>
        <time>2022-07-21T16:58:52Z</time>
      </trkpt>
      <trkpt lat="45.94685" lon="6.72546">
        <ele>1224</ele>
        <time>2022-07-21T16:58:53Z</time>
      </trkpt>
      <trkpt lat="45.94642" lon="6.72486">
        <ele>1222</ele>
        <time>2022-07-21T16:59:00Z</time>
      </trkpt>
      <trkpt lat="45.94636" lon="6.72466">
        <ele>1221</ele>
        <time>2022-07-21T16:59:02Z</time>
      </trkpt>
      <trkpt lat="45.94633" lon="6.72456">
        <ele>1220</ele>
        <time>2022-07-21T16:59:03Z</time>
      </trkpt>
      <trkpt lat="45.94621" lon="6.7244">
        <ele>1218</ele>
        <time>2022-07-21T16:59:05Z</time>
      </trkpt>
      <trkpt lat="45.94614" lon="6.72433">
        <ele>1218</ele>
        <time>2022-07-21T16:59:06Z</time>
      </trkpt>
      <trkpt lat="45.94605" lon="6.72427">
        <ele>1218</ele>
        <time>2022-07-21T16:59:07Z</time>
      </trkpt>
      <trkpt lat="45.94578" lon="6.72416">
        <ele>1216</ele>
        <time>2022-07-21T16:59:10Z</time>
      </trkpt>
      <trkpt lat="45.94552" lon="6.72412">
        <ele>1214</ele>
        <time>2022-07-21T16:59:13Z</time>
      </trkpt>
      <trkpt lat="45.94537" lon="6.72405">
        <ele>1212</ele>
        <time>2022-07-21T16:59:15Z</time>
      </trkpt>
      <trkpt lat="45.94518" lon="6.724">
        <ele>1210</ele>
        <time>2022-07-21T16:59:18Z</time>
      </trkpt>
      <trkpt lat="45.94514" lon="6.72394">
        <ele>1209</ele>
        <time>2022-07-21T16:59:19Z</time>
      </trkpt>
      <trkpt lat="45.94512" lon="6.72386">
        <ele>1209</ele>
        <time>2022-07-21T16:59:20Z</time>
      </trkpt>
      <trkpt lat="45.94513" lon="6.72375">
        <ele>1209</ele>
        <time>2022-07-21T16:59:21Z</time>
      </trkpt>
      <trkpt lat="45.94514" lon="6.72365">
        <ele>1208</ele>
        <time>2022-07-21T16:59:22Z</time>
      </trkpt>
      <trkpt lat="45.94513" lon="6.72354">
        <ele>1207</ele>
        <time>2022-07-21T16:59:23Z</time>
      </trkpt>
      <trkpt lat="45.9451" lon="6.72345">
        <ele>1207</ele>
        <time>2022-07-21T16:59:24Z</time>
      </trkpt>
      <trkpt lat="45.94489" lon="6.7232">
        <ele>1204</ele>
        <time>2022-07-21T16:59:28Z</time>
      </trkpt>
      <trkpt lat="45.94487" lon="6.72312">
        <ele>1204</ele>
        <time>2022-07-21T16:59:29Z</time>
      </trkpt>
      <trkpt lat="45.94487" lon="6.72304">
        <ele>1203</ele>
        <time>2022-07-21T16:59:30Z</time>
      </trkpt>
      <trkpt lat="45.94488" lon="6.72296">
        <ele>1202</ele>
        <time>2022-07-21T16:59:31Z</time>
      </trkpt>
      <trkpt lat="45.94494" lon="6.7229">
        <ele>1202</ele>
        <time>2022-07-21T16:59:32Z</time>
      </trkpt>
      <trkpt lat="45.94507" lon="6.72282">
        <ele>1201</ele>
        <time>2022-07-21T16:59:34Z</time>
      </trkpt>
      <trkpt lat="45.94514" lon="6.72278">
        <ele>1201</ele>
        <time>2022-07-21T16:59:35Z</time>
      </trkpt>
      <trkpt lat="45.94637" lon="6.72172">
        <ele>1192</ele>
        <time>2022-07-21T16:59:50Z</time>
      </trkpt>
      <trkpt lat="45.94648" lon="6.72158">
        <ele>1190</ele>
        <time>2022-07-21T16:59:52Z</time>
      </trkpt>
      <trkpt lat="45.94652" lon="6.7215">
        <ele>1189</ele>
        <time>2022-07-21T16:59:53Z</time>
      </trkpt>
      <trkpt lat="45.94653" lon="6.72135">
        <ele>1187</ele>
        <time>2022-07-21T16:59:55Z</time>
      </trkpt>
      <trkpt lat="45.9465" lon="6.72128">
        <ele>1186</ele>
        <time>2022-07-21T16:59:56Z</time>
      </trkpt>
      <trkpt lat="45.94645" lon="6.72123">
        <ele>1185</ele>
        <time>2022-07-21T16:59:57Z</time>
      </trkpt>
      <trkpt lat="45.94638" lon="6.72122">
        <ele>1185</ele>
        <time>2022-07-21T16:59:58Z</time>
      </trkpt>
      <trkpt lat="45.94625" lon="6.72129">
        <ele>1184</ele>
        <time>2022-07-21T17:00:00Z</time>
      </trkpt>
      <trkpt lat="45.94569" lon="6.72175">
        <ele>1181</ele>
        <time>2022-07-21T17:00:08Z</time>
      </trkpt>
      <trkpt lat="45.94563" lon="6.7218">
        <ele>1180</ele>
        <time>2022-07-21T17:00:09Z</time>
      </trkpt>
      <trkpt lat="45.94555" lon="6.72178">
        <ele>1179</ele>
        <time>2022-07-21T17:00:10Z</time>
      </trkpt>
      <trkpt lat="45.94549" lon="6.72174">
        <ele>1178</ele>
        <time>2022-07-21T17:00:11Z</time>
      </trkpt>
      <trkpt lat="45.94544" lon="6.72165">
        <ele>1178</ele>
        <time>2022-07-21T17:00:12Z</time>
      </trkpt>
      <trkpt lat="45.94541" lon="6.72155">
        <ele>1177</ele>
        <time>2022-07-21T17:00:13Z</time>
      </trkpt>
      <trkpt lat="45.94547" lon="6.7211">
        <ele>1174</ele>
        <time>2022-07-21T17:00:17Z</time>
      </trkpt>
      <trkpt lat="45.9455" lon="6.72098">
        <ele>1174</ele>
        <time>2022-07-21T17:00:18Z</time>
      </trkpt>
      <trkpt lat="45.94551" lon="6.72085">
        <ele>1174</ele>
        <time>2022-07-21T17:00:19Z</time>
      </trkpt>
      <trkpt lat="45.9455" lon="6.72073">
        <ele>1173</ele>
        <time>2022-07-21T17:00:20Z</time>
      </trkpt>
      <trkpt lat="45.94546" lon="6.72061">
        <ele>1172</ele>
        <time>2022-07-21T17:00:21Z</time>
      </trkpt>
      <trkpt lat="45.94496" lon="6.72004">
        <ele>1168</ele>
        <time>2022-07-21T17:00:28Z</time>
      </trkpt>
      <trkpt lat="45.9448" lon="6.71989">
        <ele>1166</ele>
        <time>2022-07-21T17:00:30Z</time>
      </trkpt>
      <trkpt lat="45.94472" lon="6.71984">
        <ele>1166</ele>
        <time>2022-07-21T17:00:31Z</time>
      </trkpt>
      <trkpt lat="45.94463" lon="6.71981">
        <ele>1165</ele>
        <time>2022-07-21T17:00:32Z</time>
      </trkpt>
      <trkpt lat="45.94444" lon="6.71982">
        <ele>1164</ele>
        <time>2022-07-21T17:00:34Z</time>
      </trkpt>
      <trkpt lat="45.94437" lon="6.71984">
        <ele>1163</ele>
        <time>2022-07-21T17:00:35Z</time>
      </trkpt>
      <trkpt lat="45.94408" lon="6.72011">
        <ele>1158</ele>
        <time>2022-07-21T17:00:40Z</time>
      </trkpt>
      <trkpt lat="45.94403" lon="6.72012">
        <ele>1158</ele>
        <time>2022-07-21T17:00:41Z</time>
      </trkpt>
      <trkpt lat="45.94398" lon="6.7201">
        <ele>1157</ele>
        <time>2022-07-21T17:00:42Z</time>
      </trkpt>
      <trkpt lat="45.94394" lon="6.72005">
        <ele>1156</ele>
        <time>2022-07-21T17:00:43Z</time>
      </trkpt>
      <trkpt lat="45.94392" lon="6.71996">
        <ele>1156</ele>
        <time>2022-07-21T17:00:44Z</time>
      </trkpt>
      <trkpt lat="45.94394" lon="6.71987">
        <ele>1155</ele>
        <time>2022-07-21T17:00:45Z</time>
      </trkpt>
      <trkpt lat="45.944" lon="6.7198">
        <ele>1155</ele>
        <time>2022-07-21T17:00:46Z</time>
      </trkpt>
      <trkpt lat="45.94442" lon="6.71945">
        <ele>1153</ele>
        <time>2022-07-21T17:00:52Z</time>
      </trkpt>
      <trkpt lat="45.94483" lon="6.71906">
        <ele>1150</ele>
        <time>2022-07-21T17:00:57Z</time>
      </trkpt>
      <trkpt lat="45.9449" lon="6.71896">
        <ele>1149</ele>
        <time>2022-07-21T17:00:58Z</time>
      </trkpt>
      <trkpt lat="45.94494" lon="6.71883">
        <ele>1148</ele>
        <time>2022-07-21T17:00:59Z</time>
      </trkpt>
      <trkpt lat="45.94496" lon="6.7187">
        <ele>1148</ele>
        <time>2022-07-21T17:01:00Z</time>
      </trkpt>
      <trkpt lat="45.94497" lon="6.71805">
        <ele>1144</ele>
        <time>2022-07-21T17:01:05Z</time>
      </trkpt>
      <trkpt lat="45.94495" lon="6.71795">
        <ele>1143</ele>
        <time>2022-07-21T17:01:06Z</time>
      </trkpt>
      <trkpt lat="45.94491" lon="6.71787">
        <ele>1142</ele>
        <time>2022-07-21T17:01:07Z</time>
      </trkpt>
      <trkpt lat="45.94485" lon="6.71782">
        <ele>1141</ele>
        <time>2022-07-21T17:01:08Z</time>
      </trkpt>
      <trkpt lat="45.94479" lon="6.71783">
        <ele>1141</ele>
        <time>2022-07-21T17:01:09Z</time>
      </trkpt>
      <trkpt lat="45.94471" lon="6.71784">
        <ele>1140</ele>
        <time>2022-07-21T17:01:10Z</time>
      </trkpt>
      <trkpt lat="45.94466" lon="6.71792">
        <ele>1139</ele>
        <time>2022-07-21T17:01:11Z</time>
      </trkpt>
      <trkpt lat="45.94466" lon="6.71816">
        <ele>1139</ele>
        <time>2022-07-21T17:01:13Z</time>
      </trkpt>
      <trkpt lat="45.94465" lon="6.71827">
        <ele>1138</ele>
        <time>2022-07-21T17:01:14Z</time>
      </trkpt>
      <trkpt lat="45.94464" lon="6.71839">
        <ele>1138</ele>
        <time>2022-07-21T17:01:15Z</time>
      </trkpt>
      <trkpt lat="45.94459" lon="6.7185">
        <ele>1138</ele>
        <time>2022-07-21T17:01:16Z</time>
      </trkpt>
      <trkpt lat="45.94443" lon="6.71867">
        <ele>1137</ele>
        <time>2022-07-21T17:01:18Z</time>
      </trkpt>
      <trkpt lat="45.94432" lon="6.71872">
        <ele>1137</ele>
        <time>2022-07-21T17:01:19Z</time>
      </trkpt>
      <trkpt lat="45.94335" lon="6.71872">
        <ele>1132</ele>
        <time>2022-07-21T17:01:27Z</time>
      </trkpt>
      <trkpt lat="45.94326" lon="6.71878">
        <ele>1132</ele>
        <time>2022-07-21T17:01:28Z</time>
      </trkpt>
      <trkpt lat="45.9432" lon="6.71888">
        <ele>1131</ele>
        <time>2022-07-21T17:01:29Z</time>
      </trkpt>
      <trkpt lat="45.94313" lon="6.71892">
        <ele>1130</ele>
        <time>2022-07-21T17:01:30Z</time>
      </trkpt>
      <trkpt lat="45.94306" lon="6.71891">
        <ele>1129</ele>
        <time>2022-07-21T17:01:31Z</time>
      </trkpt>
      <trkpt lat="45.94301" lon="6.71884">
        <ele>1127</ele>
        <time>2022-07-21T17:01:32Z</time>
      </trkpt>
      <trkpt lat="45.94299" lon="6.71874">
        <ele>1126</ele>
        <time>2022-07-21T17:01:33Z</time>
      </trkpt>
      <trkpt lat="45.94301" lon="6.71864">
        <ele>1125</ele>
        <time>2022-07-21T17:01:34Z</time>
      </trkpt>
      <trkpt lat="45.94307" lon="6.71857">
        <ele>1125</ele>
        <time>2022-07-21T17:01:35Z</time>
      </trkpt>
      <trkpt lat="45.94365" lon="6.71832">
        <ele>1121</ele>
        <time>2022-07-21T17:01:41Z</time>
      </trkpt>
      <trkpt lat="45.94374" lon="6.71822">
        <ele>1121</ele>
        <time>2022-07-21T17:01:42Z</time>
      </trkpt>
      <trkpt lat="45.94381" lon="6.7181">
        <ele>1121</ele>
        <time>2022-07-21T17:01:43Z</time>
      </trkpt>
      <trkpt lat="45.94394" lon="6.71765">
        <ele>1119</ele>
        <time>2022-07-21T17:01:46Z</time>
      </trkpt>
      <trkpt lat="45.94396" lon="6.71751">
        <ele>1118</ele>
        <time>2022-07-21T17:01:47Z</time>
      </trkpt>
      <trkpt lat="45.94395" lon="6.71737">
        <ele>1117</ele>
        <time>2022-07-21T17:01:48Z</time>
      </trkpt>
      <trkpt lat="45.94384" lon="6.71709">
        <ele>1115</ele>
        <time>2022-07-21T17:01:50Z</time>
      </trkpt>
      <trkpt lat="45.9435" lon="6.71638">
        <ele>1111</ele>
        <time>2022-07-21T17:01:55Z</time>
      </trkpt>
      <trkpt lat="45.94347" lon="6.71625">
        <ele>1110</ele>
        <time>2022-07-21T17:01:56Z</time>
      </trkpt>
      <trkpt lat="45.94346" lon="6.7161">
        <ele>1110</ele>
        <time>2022-07-21T17:01:57Z</time>
      </trkpt>
      <trkpt lat="45.94344" lon="6.71598">
        <ele>1109</ele>
        <time>2022-07-21T17:01:58Z</time>
      </trkpt>
      <trkpt lat="45.9434" lon="6.71589">
        <ele>1108</ele>
        <time>2022-07-21T17:01:59Z</time>
      </trkpt>
      <trkpt lat="45.94334" lon="6.71585">
        <ele>1106</ele>
        <time>2022-07-21T17:02:00Z</time>
      </trkpt>
      <trkpt lat="45.94327" lon="6.71584">
        <ele>1105</ele>
        <time>2022-07-21T17:02:01Z</time>
      </trkpt>
      <trkpt lat="45.9432" lon="6.71587">
        <ele>1104</ele>
        <time>2022-07-21T17:02:02Z</time>
      </trkpt>
      <trkpt lat="45.94314" lon="6.71595">
        <ele>1103</ele>
        <time>2022-07-21T17:02:03Z</time>
      </trkpt>
      <trkpt lat="45.94314" lon="6.71608">
        <ele>1102</ele>
        <time>2022-07-21T17:02:04Z</time>
      </trkpt>
      <trkpt lat="45.94322" lon="6.71633">
        <ele>1101</ele>
        <time>2022-07-21T17:02:06Z</time>
      </trkpt>
      <trkpt lat="45.9434" lon="6.71666">
        <ele>1100</ele>
        <time>2022-07-21T17:02:09Z</time>
      </trkpt>
      <trkpt lat="45.94344" lon="6.71678">
        <ele>1100</ele>
        <time>2022-07-21T17:02:10Z</time>
      </trkpt>
      <trkpt lat="45.94346" lon="6.71692">
        <ele>1100</ele>
        <time>2022-07-21T17:02:11Z</time>
      </trkpt>
      <trkpt lat="45.94345" lon="6.71705">
        <ele>1099</ele>
        <time>2022-07-21T17:02:12Z</time>
      </trkpt>
      <trkpt lat="45.94341" lon="6.71719">
        <ele>1098</ele>
        <time>2022-07-21T17:02:13Z</time>
      </trkpt>
      <trkpt lat="45.94334" lon="6.7173">
        <ele>1097</ele>
        <time>2022-07-21T17:02:14Z</time>
      </trkpt>
      <trkpt lat="45.94326" lon="6.71736">
        <ele>1097</ele>
        <time>2022-07-21T17:02:15Z</time>
      </trkpt>
      <trkpt lat="45.94318" lon="6.71735">
        <ele>1096</ele>
        <time>2022-07-21T17:02:16Z</time>
      </trkpt>
      <trkpt lat="45.94313" lon="6.71728">
        <ele>1095</ele>
        <time>2022-07-21T17:02:17Z</time>
      </trkpt>
      <trkpt lat="45.94311" lon="6.71717">
        <ele>1094</ele>
        <time>2022-07-21T17:02:18Z</time>
      </trkpt>
      <trkpt lat="45.94312" lon="6.7168">
        <ele>1091</ele>
        <time>2022-07-21T17:02:21Z</time>
      </trkpt>
      <trkpt lat="45.94308" lon="6.71668">
        <ele>1091</ele>
        <time>2022-07-21T17:02:22Z</time>
      </trkpt>
      <trkpt lat="45.94291" lon="6.71649">
        <ele>1090</ele>
        <time>2022-07-21T17:02:24Z</time>
      </trkpt>
      <trkpt lat="45.94282" lon="6.71642">
        <ele>1090</ele>
        <time>2022-07-21T17:02:25Z</time>
      </trkpt>
      <trkpt lat="45.94273" lon="6.71631">
        <ele>1089</ele>
        <time>2022-07-21T17:02:26Z</time>
      </trkpt>
      <trkpt lat="45.9426" lon="6.71606">
        <ele>1088</ele>
        <time>2022-07-21T17:02:28Z</time>
      </trkpt>
      <trkpt lat="45.94247" lon="6.71588">
        <ele>1087</ele>
        <time>2022-07-21T17:02:30Z</time>
      </trkpt>
      <trkpt lat="45.94243" lon="6.71579">
        <ele>1086</ele>
        <time>2022-07-21T17:02:31Z</time>
      </trkpt>
      <trkpt lat="45.94243" lon="6.71568">
        <ele>1084</ele>
        <time>2022-07-21T17:02:32Z</time>
      </trkpt>
      <trkpt lat="45.94246" lon="6.71556">
        <ele>1083</ele>
        <time>2022-07-21T17:02:33Z</time>
      </trkpt>
      <trkpt lat="45.94283" lon="6.7151">
        <ele>1079</ele>
        <time>2022-07-21T17:02:38Z</time>
      </trkpt>
      <trkpt lat="45.94292" lon="6.715">
        <ele>1079</ele>
        <time>2022-07-21T17:02:39Z</time>
      </trkpt>
      <trkpt lat="45.94333" lon="6.71476">
        <ele>1076</ele>
        <time>2022-07-21T17:02:43Z</time>
      </trkpt>
      <trkpt lat="45.94368" lon="6.71427">
        <ele>1071</ele>
        <time>2022-07-21T17:02:48Z</time>
      </trkpt>
      <trkpt lat="45.94371" lon="6.71416">
        <ele>1070</ele>
        <time>2022-07-21T17:02:49Z</time>
      </trkpt>
      <trkpt lat="45.9437" lon="6.71404">
        <ele>1069</ele>
        <time>2022-07-21T17:02:50Z</time>
      </trkpt>
      <trkpt lat="45.94368" lon="6.71394">
        <ele>1069</ele>
        <time>2022-07-21T17:02:51Z</time>
      </trkpt>
      <trkpt lat="45.94363" lon="6.71385">
        <ele>1068</ele>
        <time>2022-07-21T17:02:52Z</time>
      </trkpt>
      <trkpt lat="45.94356" lon="6.71376">
        <ele>1068</ele>
        <time>2022-07-21T17:02:53Z</time>
      </trkpt>
      <trkpt lat="45.94337" lon="6.71373">
        <ele>1067</ele>
        <time>2022-07-21T17:02:55Z</time>
      </trkpt>
      <trkpt lat="45.94329" lon="6.71365">
        <ele>1067</ele>
        <time>2022-07-21T17:02:56Z</time>
      </trkpt>
      <trkpt lat="45.94312" lon="6.71332">
        <ele>1067</ele>
        <time>2022-07-21T17:02:59Z</time>
      </trkpt>
      <trkpt lat="45.94267" lon="6.71203">
        <ele>1063</ele>
        <time>2022-07-21T17:03:08Z</time>
      </trkpt>
      <trkpt lat="45.9425" lon="6.7119">
        <ele>1061</ele>
        <time>2022-07-21T17:03:10Z</time>
      </trkpt>
      <trkpt lat="45.94153" lon="6.71164">
        <ele>1054</ele>
        <time>2022-07-21T17:03:19Z</time>
      </trkpt>
      <trkpt lat="45.94133" lon="6.71151">
        <ele>1052</ele>
        <time>2022-07-21T17:03:21Z</time>
      </trkpt>
      <trkpt lat="45.94124" lon="6.71143">
        <ele>1052</ele>
        <time>2022-07-21T17:03:22Z</time>
      </trkpt>
      <trkpt lat="45.9406" lon="6.71077">
        <ele>1046</ele>
        <time>2022-07-21T17:03:29Z</time>
      </trkpt>
      <trkpt lat="45.94049" lon="6.71051">
        <ele>1044</ele>
        <time>2022-07-21T17:03:31Z</time>
      </trkpt>
      <trkpt lat="45.94035" lon="6.70993">
        <ele>1041</ele>
        <time>2022-07-21T17:03:35Z</time>
      </trkpt>
      <trkpt lat="45.94031" lon="6.7098">
        <ele>1041</ele>
        <time>2022-07-21T17:03:36Z</time>
      </trkpt>
      <trkpt lat="45.94023" lon="6.70955">
        <ele>1039</ele>
        <time>2022-07-21T17:03:38Z</time>
      </trkpt>
      <trkpt lat="45.94016" lon="6.70946">
        <ele>1038</ele>
        <time>2022-07-21T17:03:39Z</time>
      </trkpt>
      <trkpt lat="45.93975" lon="6.70916">
        <ele>1034</ele>
        <time>2022-07-21T17:03:44Z</time>
      </trkpt>
      <trkpt lat="45.93969" lon="6.70907">
        <ele>1033</ele>
        <time>2022-07-21T17:03:45Z</time>
      </trkpt>
      <trkpt lat="45.93965" lon="6.70897">
        <ele>1033</ele>
        <time>2022-07-21T17:03:46Z</time>
      </trkpt>
      <trkpt lat="45.93962" lon="6.70886">
        <ele>1032</ele>
        <time>2022-07-21T17:03:47Z</time>
      </trkpt>
      <trkpt lat="45.93959" lon="6.70863">
        <ele>1031</ele>
        <time>2022-07-21T17:03:49Z</time>
      </trkpt>
      <trkpt lat="45.93953" lon="6.70757">
        <ele>1030</ele>
        <time>2022-07-21T17:03:58Z</time>
      </trkpt>
      <trkpt lat="45.93951" lon="6.70731">
        <ele>1028</ele>
        <time>2022-07-21T17:04:03Z</time>
      </trkpt>
      <trkpt lat="45.93945" lon="6.70708">
        <ele>1028</ele>
        <time>2022-07-21T17:04:06Z</time>
      </trkpt>
      <trkpt lat="45.93941" lon="6.70699">
        <ele>1028</ele>
        <time>2022-07-21T17:04:07Z</time>
      </trkpt>
      <trkpt lat="45.93928" lon="6.70686">
        <ele>1028</ele>
        <time>2022-07-21T17:04:09Z</time>
      </trkpt>
      <trkpt lat="45.93781" lon="6.70586">
        <ele>1034</ele>
        <time>2022-07-21T17:04:25Z</time>
      </trkpt>
      <trkpt lat="45.93726" lon="6.70493">
        <ele>1038</ele>
        <time>2022-07-21T17:04:33Z</time>
      </trkpt>
      <trkpt lat="45.93637" lon="6.70233">
        <ele>1049</ele>
        <time>2022-07-21T17:04:50Z</time>
      </trkpt>
      <trkpt lat="45.9361" lon="6.70017">
        <ele>1049</ele>
        <time>2022-07-21T17:05:03Z</time>
      </trkpt>
      <trkpt lat="45.93632" lon="6.69446">
        <ele>1045</ele>
        <time>2022-07-21T17:05:33Z</time>
      </trkpt>
      <trkpt lat="45.93634" lon="6.69411">
        <ele>1045</ele>
        <time>2022-07-21T17:05:35Z</time>
      </trkpt>
      <trkpt lat="45.93648" lon="6.69353">
        <ele>1044</ele>
        <time>2022-07-21T17:05:39Z</time>
      </trkpt>
      <trkpt lat="45.93648" lon="6.69341">
        <ele>1044</ele>
        <time>2022-07-21T17:05:40Z</time>
      </trkpt>
      <trkpt lat="45.93645" lon="6.6933">
        <ele>1043</ele>
        <time>2022-07-21T17:05:41Z</time>
      </trkpt>
      <trkpt lat="45.93602" lon="6.69266">
        <ele>1041</ele>
        <time>2022-07-21T17:05:47Z</time>
      </trkpt>
      <trkpt lat="45.93584" lon="6.69249">
        <ele>1040</ele>
        <time>2022-07-21T17:05:49Z</time>
      </trkpt>
      <trkpt lat="45.93549" lon="6.69222">
        <ele>1036</ele>
        <time>2022-07-21T17:05:53Z</time>
      </trkpt>
      <trkpt lat="45.93541" lon="6.69213">
        <ele>1035</ele>
        <time>2022-07-21T17:05:54Z</time>
      </trkpt>
      <trkpt lat="45.93531" lon="6.69186">
        <ele>1033</ele>
        <time>2022-07-21T17:05:56Z</time>
      </trkpt>
      <trkpt lat="45.93527" lon="6.69172">
        <ele>1033</ele>
        <time>2022-07-21T17:05:57Z</time>
      </trkpt>
      <trkpt lat="45.93481" lon="6.68987">
        <ele>1025</ele>
        <time>2022-07-21T17:06:08Z</time>
      </trkpt>
      <trkpt lat="45.9348" lon="6.68953">
        <ele>1023</ele>
        <time>2022-07-21T17:06:10Z</time>
      </trkpt>
      <trkpt lat="45.9348" lon="6.68936">
        <ele>1023</ele>
        <time>2022-07-21T17:06:11Z</time>
      </trkpt>
      <trkpt lat="45.93473" lon="6.68904">
        <ele>1022</ele>
        <time>2022-07-21T17:06:13Z</time>
      </trkpt>
      <trkpt lat="45.93433" lon="6.68793">
        <ele>1017</ele>
        <time>2022-07-21T17:06:20Z</time>
      </trkpt>
      <trkpt lat="45.93424" lon="6.68749">
        <ele>1015</ele>
        <time>2022-07-21T17:06:23Z</time>
      </trkpt>
      <trkpt lat="45.93418" lon="6.68737">
        <ele>1014</ele>
        <time>2022-07-21T17:06:24Z</time>
      </trkpt>
      <trkpt lat="45.9341" lon="6.68728">
        <ele>1013</ele>
        <time>2022-07-21T17:06:25Z</time>
      </trkpt>
      <trkpt lat="45.93401" lon="6.6872">
        <ele>1013</ele>
        <time>2022-07-21T17:06:26Z</time>
      </trkpt>
      <trkpt lat="45.93315" lon="6.68658">
        <ele>1009</ele>
        <time>2022-07-21T17:06:35Z</time>
      </trkpt>
      <trkpt lat="45.93309" lon="6.68651">
        <ele>1009</ele>
        <time>2022-07-21T17:06:36Z</time>
      </trkpt>
      <trkpt lat="45.93305" lon="6.68641">
        <ele>1009</ele>
        <time>2022-07-21T17:06:37Z</time>
      </trkpt>
      <trkpt lat="45.93303" lon="6.68631">
        <ele>1008</ele>
        <time>2022-07-21T17:06:38Z</time>
      </trkpt>
      <trkpt lat="45.93314" lon="6.68471">
        <ele>1003</ele>
        <time>2022-07-21T17:06:50Z</time>
      </trkpt>
      <trkpt lat="45.93319" lon="6.68461">
        <ele>1002</ele>
        <time>2022-07-21T17:06:51Z</time>
      </trkpt>
      <trkpt lat="45.93326" lon="6.68455">
        <ele>1001</ele>
        <time>2022-07-21T17:06:52Z</time>
      </trkpt>
      <trkpt lat="45.93335" lon="6.68453">
        <ele>1001</ele>
        <time>2022-07-21T17:06:53Z</time>
      </trkpt>
      <trkpt lat="45.93354" lon="6.68459">
        <ele>1000</ele>
        <time>2022-07-21T17:06:55Z</time>
      </trkpt>
      <trkpt lat="45.93363" lon="6.68459">
        <ele>1000</ele>
        <time>2022-07-21T17:06:56Z</time>
      </trkpt>
      <trkpt lat="45.93372" lon="6.68455">
        <ele>1000</ele>
        <time>2022-07-21T17:06:57Z</time>
      </trkpt>
      <trkpt lat="45.93395" lon="6.68428">
        <ele>998</ele>
        <time>2022-07-21T17:07:00Z</time>
      </trkpt>
      <trkpt lat="45.93406" lon="6.68406">
        <ele>997</ele>
        <time>2022-07-21T17:07:02Z</time>
      </trkpt>
      <trkpt lat="45.93409" lon="6.68392">
        <ele>997</ele>
        <time>2022-07-21T17:07:03Z</time>
      </trkpt>
      <trkpt lat="45.93409" lon="6.68348">
        <ele>996</ele>
        <time>2022-07-21T17:07:06Z</time>
      </trkpt>
      <trkpt lat="45.93399" lon="6.68289">
        <ele>995</ele>
        <time>2022-07-21T17:07:10Z</time>
      </trkpt>
      <trkpt lat="45.93389" lon="6.68261">
        <ele>994</ele>
        <time>2022-07-21T17:07:12Z</time>
      </trkpt>
      <trkpt lat="45.93234" lon="6.68017">
        <ele>988</ele>
        <time>2022-07-21T17:07:31Z</time>
      </trkpt>
      <trkpt lat="45.93231" lon="6.68002">
        <ele>987</ele>
        <time>2022-07-21T17:07:32Z</time>
      </trkpt>
      <trkpt lat="45.93228" lon="6.6795">
        <ele>985</ele>
        <time>2022-07-21T17:07:35Z</time>
      </trkpt>
      <trkpt lat="45.93227" lon="6.67935">
        <ele>985</ele>
        <time>2022-07-21T17:07:36Z</time>
      </trkpt>
      <trkpt lat="45.93222" lon="6.67903">
        <ele>983</ele>
        <time>2022-07-21T17:07:38Z</time>
      </trkpt>
      <trkpt lat="45.932" lon="6.67845">
        <ele>980</ele>
        <time>2022-07-21T17:07:42Z</time>
      </trkpt>
      <trkpt lat="45.9319" lon="6.67827">
        <ele>978</ele>
        <time>2022-07-21T17:07:44Z</time>
      </trkpt>
      <trkpt lat="45.93183" lon="6.67821">
        <ele>977</ele>
        <time>2022-07-21T17:07:45Z</time>
      </trkpt>
      <trkpt lat="45.93167" lon="6.67817">
        <ele>976</ele>
        <time>2022-07-21T17:07:47Z</time>
      </trkpt>
      <trkpt lat="45.93148" lon="6.67816">
        <ele>974</ele>
        <time>2022-07-21T17:07:49Z</time>
      </trkpt>
      <trkpt lat="45.93139" lon="6.67815">
        <ele>974</ele>
        <time>2022-07-21T17:07:50Z</time>
      </trkpt>
      <trkpt lat="45.93113" lon="6.67811">
        <ele>972</ele>
        <time>2022-07-21T17:07:53Z</time>
      </trkpt>
      <trkpt lat="45.93106" lon="6.67814">
        <ele>971</ele>
        <time>2022-07-21T17:07:54Z</time>
      </trkpt>
      <trkpt lat="45.93099" lon="6.6782">
        <ele>970</ele>
        <time>2022-07-21T17:07:55Z</time>
      </trkpt>
      <trkpt lat="45.93094" lon="6.67828">
        <ele>970</ele>
        <time>2022-07-21T17:07:56Z</time>
      </trkpt>
      <trkpt lat="45.93089" lon="6.67839">
        <ele>969</ele>
        <time>2022-07-21T17:07:57Z</time>
      </trkpt>
      <trkpt lat="45.931" lon="6.6791">
        <ele>965</ele>
        <time>2022-07-21T17:08:02Z</time>
      </trkpt>
      <trkpt lat="45.93109" lon="6.67942">
        <ele>964</ele>
        <time>2022-07-21T17:08:04Z</time>
      </trkpt>
      <trkpt lat="45.93113" lon="6.67958">
        <ele>964</ele>
        <time>2022-07-21T17:08:05Z</time>
      </trkpt>
      <trkpt lat="45.93145" lon="6.68086">
        <ele>955</ele>
        <time>2022-07-21T17:08:14Z</time>
      </trkpt>
      <trkpt lat="45.93152" lon="6.68097">
        <ele>954</ele>
        <time>2022-07-21T17:08:15Z</time>
      </trkpt>
      <trkpt lat="45.93178" lon="6.6812">
        <ele>951</ele>
        <time>2022-07-21T17:08:18Z</time>
      </trkpt>
      <trkpt lat="45.93187" lon="6.68129">
        <ele>951</ele>
        <time>2022-07-21T17:08:19Z</time>
      </trkpt>
      <trkpt lat="45.93226" lon="6.68212">
        <ele>948</ele>
        <time>2022-07-21T17:08:26Z</time>
      </trkpt>
      <trkpt lat="45.93227" lon="6.68222">
        <ele>947</ele>
        <time>2022-07-21T17:08:27Z</time>
      </trkpt>
      <trkpt lat="45.93226" lon="6.68231">
        <ele>946</ele>
        <time>2022-07-21T17:08:28Z</time>
      </trkpt>
      <trkpt lat="45.93217" lon="6.68242">
        <ele>944</ele>
        <time>2022-07-21T17:08:30Z</time>
      </trkpt>
      <trkpt lat="45.93208" lon="6.68235">
        <ele>943</ele>
        <time>2022-07-21T17:08:31Z</time>
      </trkpt>
      <trkpt lat="45.93204" lon="6.68225">
        <ele>943</ele>
        <time>2022-07-21T17:08:32Z</time>
      </trkpt>
      <trkpt lat="45.93199" lon="6.68214">
        <ele>943</ele>
        <time>2022-07-21T17:08:33Z</time>
      </trkpt>
      <trkpt lat="45.93181" lon="6.68185">
        <ele>941</ele>
        <time>2022-07-21T17:08:36Z</time>
      </trkpt>
      <trkpt lat="45.93175" lon="6.6818">
        <ele>940</ele>
        <time>2022-07-21T17:08:37Z</time>
      </trkpt>
      <trkpt lat="45.93159" lon="6.68176">
        <ele>939</ele>
        <time>2022-07-21T17:08:39Z</time>
      </trkpt>
      <trkpt lat="45.9307" lon="6.68181">
        <ele>935</ele>
        <time>2022-07-21T17:08:47Z</time>
      </trkpt>
      <trkpt lat="45.93019" lon="6.68204">
        <ele>927</ele>
        <time>2022-07-21T17:08:52Z</time>
      </trkpt>
      <trkpt lat="45.93009" lon="6.68204">
        <ele>926</ele>
        <time>2022-07-21T17:08:53Z</time>
      </trkpt>
      <trkpt lat="45.93" lon="6.68201">
        <ele>925</ele>
        <time>2022-07-21T17:08:54Z</time>
      </trkpt>
      <trkpt lat="45.92991" lon="6.68193">
        <ele>924</ele>
        <time>2022-07-21T17:08:55Z</time>
      </trkpt>
      <trkpt lat="45.92978" lon="6.68169">
        <ele>922</ele>
        <time>2022-07-21T17:08:57Z</time>
      </trkpt>
      <trkpt lat="45.92962" lon="6.68128">
        <ele>919</ele>
        <time>2022-07-21T17:09:00Z</time>
      </trkpt>
      <trkpt lat="45.92955" lon="6.68114">
        <ele>919</ele>
        <time>2022-07-21T17:09:01Z</time>
      </trkpt>
      <trkpt lat="45.92941" lon="6.68086">
        <ele>917</ele>
        <time>2022-07-21T17:09:03Z</time>
      </trkpt>
      <trkpt lat="45.92867" lon="6.67991">
        <ele>909</ele>
        <time>2022-07-21T17:09:11Z</time>
      </trkpt>
      <trkpt lat="45.9285" lon="6.67954">
        <ele>906</ele>
        <time>2022-07-21T17:09:14Z</time>
      </trkpt>
      <trkpt lat="45.92846" lon="6.67943">
        <ele>906</ele>
        <time>2022-07-21T17:09:15Z</time>
      </trkpt>
      <trkpt lat="45.92842" lon="6.67934">
        <ele>905</ele>
        <time>2022-07-21T17:09:16Z</time>
      </trkpt>
      <trkpt lat="45.92838" lon="6.67925">
        <ele>904</ele>
        <time>2022-07-21T17:09:17Z</time>
      </trkpt>
      <trkpt lat="45.92831" lon="6.67921">
        <ele>903</ele>
        <time>2022-07-21T17:09:18Z</time>
      </trkpt>
      <trkpt lat="45.92824" lon="6.67922">
        <ele>902</ele>
        <time>2022-07-21T17:09:19Z</time>
      </trkpt>
      <trkpt lat="45.92816" lon="6.67927">
        <ele>901</ele>
        <time>2022-07-21T17:09:20Z</time>
      </trkpt>
      <trkpt lat="45.9281" lon="6.67935">
        <ele>900</ele>
        <time>2022-07-21T17:09:21Z</time>
      </trkpt>
      <trkpt lat="45.92807" lon="6.67946">
        <ele>899</ele>
        <time>2022-07-21T17:09:22Z</time>
      </trkpt>
      <trkpt lat="45.92806" lon="6.67958">
        <ele>899</ele>
        <time>2022-07-21T17:09:23Z</time>
      </trkpt>
      <trkpt lat="45.92813" lon="6.67981">
        <ele>898</ele>
        <time>2022-07-21T17:09:25Z</time>
      </trkpt>
      <trkpt lat="45.92841" lon="6.68057">
        <ele>895</ele>
        <time>2022-07-21T17:09:31Z</time>
      </trkpt>
      <trkpt lat="45.92849" lon="6.68117">
        <ele>893</ele>
        <time>2022-07-21T17:09:35Z</time>
      </trkpt>
      <trkpt lat="45.92847" lon="6.6815">
        <ele>892</ele>
        <time>2022-07-21T17:09:37Z</time>
      </trkpt>
      <trkpt lat="45.9284" lon="6.6824">
        <ele>887</ele>
        <time>2022-07-21T17:09:43Z</time>
      </trkpt>
      <trkpt lat="45.92842" lon="6.68252">
        <ele>887</ele>
        <time>2022-07-21T17:09:44Z</time>
      </trkpt>
      <trkpt lat="45.92847" lon="6.68264">
        <ele>886</ele>
        <time>2022-07-21T17:09:45Z</time>
      </trkpt>
      <trkpt lat="45.92854" lon="6.68273">
        <ele>885</ele>
        <time>2022-07-21T17:09:46Z</time>
      </trkpt>
      <trkpt lat="45.92938" lon="6.68354">
        <ele>879</ele>
        <time>2022-07-21T17:09:55Z</time>
      </trkpt>
      <trkpt lat="45.92953" lon="6.6838">
        <ele>877</ele>
        <time>2022-07-21T17:09:57Z</time>
      </trkpt>
      <trkpt lat="45.92959" lon="6.68394">
        <ele>877</ele>
        <time>2022-07-21T17:09:58Z</time>
      </trkpt>
      <trkpt lat="45.92963" lon="6.68409">
        <ele>877</ele>
        <time>2022-07-21T17:09:59Z</time>
      </trkpt>
      <trkpt lat="45.92965" lon="6.68425">
        <ele>876</ele>
        <time>2022-07-21T17:10:00Z</time>
      </trkpt>
      <trkpt lat="45.92929" lon="6.68647">
        <ele>867</ele>
        <time>2022-07-21T17:10:13Z</time>
      </trkpt>
      <trkpt lat="45.92924" lon="6.68658">
        <ele>866</ele>
        <time>2022-07-21T17:10:14Z</time>
      </trkpt>
      <trkpt lat="45.92917" lon="6.68664">
        <ele>865</ele>
        <time>2022-07-21T17:10:15Z</time>
      </trkpt>
      <trkpt lat="45.92908" lon="6.68666">
        <ele>865</ele>
        <time>2022-07-21T17:10:16Z</time>
      </trkpt>
      <trkpt lat="45.929" lon="6.68662">
        <ele>864</ele>
        <time>2022-07-21T17:10:17Z</time>
      </trkpt>
      <trkpt lat="45.92895" lon="6.68651">
        <ele>863</ele>
        <time>2022-07-21T17:10:18Z</time>
      </trkpt>
      <trkpt lat="45.92892" lon="6.68639">
        <ele>862</ele>
        <time>2022-07-21T17:10:19Z</time>
      </trkpt>
      <trkpt lat="45.92893" lon="6.68585">
        <ele>859</ele>
        <time>2022-07-21T17:10:23Z</time>
      </trkpt>
      <trkpt lat="45.9289" lon="6.68573">
        <ele>859</ele>
        <time>2022-07-21T17:10:24Z</time>
      </trkpt>
      <trkpt lat="45.92883" lon="6.68561">
        <ele>858</ele>
        <time>2022-07-21T17:10:25Z</time>
      </trkpt>
      <trkpt lat="45.92875" lon="6.68554">
        <ele>858</ele>
        <time>2022-07-21T17:10:26Z</time>
      </trkpt>
      <trkpt lat="45.92805" lon="6.68498">
        <ele>853</ele>
        <time>2022-07-21T17:10:33Z</time>
      </trkpt>
      <trkpt lat="45.92791" lon="6.68475">
        <ele>851</ele>
        <time>2022-07-21T17:10:35Z</time>
      </trkpt>
      <trkpt lat="45.9277" lon="6.68398">
        <ele>846</ele>
        <time>2022-07-21T17:10:40Z</time>
      </trkpt>
      <trkpt lat="45.92764" lon="6.68382">
        <ele>846</ele>
        <time>2022-07-21T17:10:41Z</time>
      </trkpt>
      <trkpt lat="45.92738" lon="6.68344">
        <ele>843</ele>
        <time>2022-07-21T17:10:44Z</time>
      </trkpt>
      <trkpt lat="45.92669" lon="6.68265">
        <ele>835</ele>
        <time>2022-07-21T17:10:51Z</time>
      </trkpt>
      <trkpt lat="45.92647" lon="6.6822">
        <ele>832</ele>
        <time>2022-07-21T17:10:54Z</time>
      </trkpt>
      <trkpt lat="45.92642" lon="6.68203">
        <ele>832</ele>
        <time>2022-07-21T17:10:55Z</time>
      </trkpt>
      <trkpt lat="45.92596" lon="6.6801">
        <ele>822</ele>
        <time>2022-07-21T17:11:06Z</time>
      </trkpt>
      <trkpt lat="45.9258" lon="6.6798">
        <ele>820</ele>
        <time>2022-07-21T17:11:08Z</time>
      </trkpt>
      <trkpt lat="45.92572" lon="6.67966">
        <ele>820</ele>
        <time>2022-07-21T17:11:09Z</time>
      </trkpt>
      <trkpt lat="45.92558" lon="6.67939">
        <ele>818</ele>
        <time>2022-07-21T17:11:11Z</time>
      </trkpt>
      <trkpt lat="45.92536" lon="6.67884">
        <ele>813</ele>
        <time>2022-07-21T17:11:16Z</time>
      </trkpt>
      <trkpt lat="45.9253" lon="6.67876">
        <ele>812</ele>
        <time>2022-07-21T17:11:17Z</time>
      </trkpt>
      <trkpt lat="45.92523" lon="6.67872">
        <ele>811</ele>
        <time>2022-07-21T17:11:18Z</time>
      </trkpt>
      <trkpt lat="45.92515" lon="6.67873">
        <ele>811</ele>
        <time>2022-07-21T17:11:19Z</time>
      </trkpt>
      <trkpt lat="45.92508" lon="6.67878">
        <ele>810</ele>
        <time>2022-07-21T17:11:20Z</time>
      </trkpt>
      <trkpt lat="45.92502" lon="6.67887">
        <ele>810</ele>
        <time>2022-07-21T17:11:21Z</time>
      </trkpt>
      <trkpt lat="45.92499" lon="6.679">
        <ele>809</ele>
        <time>2022-07-21T17:11:22Z</time>
      </trkpt>
      <trkpt lat="45.92499" lon="6.67914">
        <ele>809</ele>
        <time>2022-07-21T17:11:23Z</time>
      </trkpt>
      <trkpt lat="45.92494" lon="6.68047">
        <ele>804</ele>
        <time>2022-07-21T17:11:31Z</time>
      </trkpt>
      <trkpt lat="45.9249" lon="6.68101">
        <ele>800</ele>
        <time>2022-07-21T17:11:34Z</time>
      </trkpt>
      <trkpt lat="45.92498" lon="6.68135">
        <ele>798</ele>
        <time>2022-07-21T17:11:36Z</time>
      </trkpt>
      <trkpt lat="45.92502" lon="6.68151">
        <ele>798</ele>
        <time>2022-07-21T17:11:37Z</time>
      </trkpt>
      <trkpt lat="45.92503" lon="6.68184">
        <ele>795</ele>
        <time>2022-07-21T17:11:39Z</time>
      </trkpt>
      <trkpt lat="45.925" lon="6.6824">
        <ele>792</ele>
        <time>2022-07-21T17:11:42Z</time>
      </trkpt>
      <trkpt lat="45.92504" lon="6.68278">
        <ele>790</ele>
        <time>2022-07-21T17:11:44Z</time>
      </trkpt>
      <trkpt lat="45.92517" lon="6.68334">
        <ele>787</ele>
        <time>2022-07-21T17:11:47Z</time>
      </trkpt>
      <trkpt lat="45.92522" lon="6.68401">
        <ele>782</ele>
        <time>2022-07-21T17:11:51Z</time>
      </trkpt>
      <trkpt lat="45.92526" lon="6.68416">
        <ele>782</ele>
        <time>2022-07-21T17:11:52Z</time>
      </trkpt>
      <trkpt lat="45.92565" lon="6.68493">
        <ele>776</ele>
        <time>2022-07-21T17:11:58Z</time>
      </trkpt>
      <trkpt lat="45.92572" lon="6.68519">
        <ele>774</ele>
        <time>2022-07-21T17:12:00Z</time>
      </trkpt>
      <trkpt lat="45.92574" lon="6.68548">
        <ele>772</ele>
        <time>2022-07-21T17:12:02Z</time>
      </trkpt>
      <trkpt lat="45.92571" lon="6.68576">
        <ele>770</ele>
        <time>2022-07-21T17:12:04Z</time>
      </trkpt>
      <trkpt lat="45.92567" lon="6.68588">
        <ele>769</ele>
        <time>2022-07-21T17:12:05Z</time>
      </trkpt>
      <trkpt lat="45.92564" lon="6.68601">
        <ele>769</ele>
        <time>2022-07-21T17:12:06Z</time>
      </trkpt>
      <trkpt lat="45.92568" lon="6.68713">
        <ele>763</ele>
        <time>2022-07-21T17:12:14Z</time>
      </trkpt>
      <trkpt lat="45.92559" lon="6.68736">
        <ele>762</ele>
        <time>2022-07-21T17:12:16Z</time>
      </trkpt>
      <trkpt lat="45.92543" lon="6.68762">
        <ele>760</ele>
        <time>2022-07-21T17:12:19Z</time>
      </trkpt>
      <trkpt lat="45.92537" lon="6.68768">
        <ele>760</ele>
        <time>2022-07-21T17:12:20Z</time>
      </trkpt>
      <trkpt lat="45.9253" lon="6.68771">
        <ele>759</ele>
        <time>2022-07-21T17:12:21Z</time>
      </trkpt>
      <trkpt lat="45.92522" lon="6.68771">
        <ele>759</ele>
        <time>2022-07-21T17:12:22Z</time>
      </trkpt>
      <trkpt lat="45.92515" lon="6.68767">
        <ele>758</ele>
        <time>2022-07-21T17:12:23Z</time>
      </trkpt>
      <trkpt lat="45.92509" lon="6.68759">
        <ele>758</ele>
        <time>2022-07-21T17:12:24Z</time>
      </trkpt>
      <trkpt lat="45.92505" lon="6.68749">
        <ele>757</ele>
        <time>2022-07-21T17:12:25Z</time>
      </trkpt>
      <trkpt lat="45.92483" lon="6.68583">
        <ele>750</ele>
        <time>2022-07-21T17:12:37Z</time>
      </trkpt>
      <trkpt lat="45.92478" lon="6.68576">
        <ele>749</ele>
        <time>2022-07-21T17:12:38Z</time>
      </trkpt>
      <trkpt lat="45.92472" lon="6.68571">
        <ele>748</ele>
        <time>2022-07-21T17:12:39Z</time>
      </trkpt>
      <trkpt lat="45.92466" lon="6.68569">
        <ele>747</ele>
        <time>2022-07-21T17:12:40Z</time>
      </trkpt>
      <trkpt lat="45.9246" lon="6.68571">
        <ele>746</ele>
        <time>2022-07-21T17:12:41Z</time>
      </trkpt>
      <trkpt lat="45.92454" lon="6.68577">
        <ele>746</ele>
        <time>2022-07-21T17:12:42Z</time>
      </trkpt>
      <trkpt lat="45.92449" lon="6.68585">
        <ele>745</ele>
        <time>2022-07-21T17:12:43Z</time>
      </trkpt>
      <trkpt lat="45.92438" lon="6.68704">
        <ele>741</ele>
        <time>2022-07-21T17:12:52Z</time>
      </trkpt>
      <trkpt lat="45.92436" lon="6.68714">
        <ele>741</ele>
        <time>2022-07-21T17:12:53Z</time>
      </trkpt>
      <trkpt lat="45.9243" lon="6.6872">
        <ele>740</ele>
        <time>2022-07-21T17:12:54Z</time>
      </trkpt>
      <trkpt lat="45.92422" lon="6.68721">
        <ele>740</ele>
        <time>2022-07-21T17:12:55Z</time>
      </trkpt>
      <trkpt lat="45.92415" lon="6.68718">
        <ele>739</ele>
        <time>2022-07-21T17:12:56Z</time>
      </trkpt>
      <trkpt lat="45.92409" lon="6.68709">
        <ele>739</ele>
        <time>2022-07-21T17:12:57Z</time>
      </trkpt>
      <trkpt lat="45.92407" lon="6.68683">
        <ele>738</ele>
        <time>2022-07-21T17:12:59Z</time>
      </trkpt>
      <trkpt lat="45.92407" lon="6.6864">
        <ele>736</ele>
        <time>2022-07-21T17:13:02Z</time>
      </trkpt>
      <trkpt lat="45.92407" lon="6.68628">
        <ele>736</ele>
        <time>2022-07-21T17:13:03Z</time>
      </trkpt>
      <trkpt lat="45.92404" lon="6.68607">
        <ele>734</ele>
        <time>2022-07-21T17:13:05Z</time>
      </trkpt>
      <trkpt lat="45.92399" lon="6.68598">
        <ele>733</ele>
        <time>2022-07-21T17:13:06Z</time>
      </trkpt>
      <trkpt lat="45.92386" lon="6.68591">
        <ele>732</ele>
        <time>2022-07-21T17:13:08Z</time>
      </trkpt>
      <trkpt lat="45.92378" lon="6.68592">
        <ele>731</ele>
        <time>2022-07-21T17:13:09Z</time>
      </trkpt>
      <trkpt lat="45.92367" lon="6.68596">
        <ele>730</ele>
        <time>2022-07-21T17:13:11Z</time>
      </trkpt>
      <trkpt lat="45.92358" lon="6.68599">
        <ele>727</ele>
        <time>2022-07-21T17:13:15Z</time>
      </trkpt>
      <trkpt lat="45.92351" lon="6.68593">
        <ele>727</ele>
        <time>2022-07-21T17:13:17Z</time>
      </trkpt>
      <trkpt lat="45.92314" lon="6.68524">
        <ele>725</ele>
        <time>2022-07-21T17:13:25Z</time>
      </trkpt>
      <trkpt lat="45.92281" lon="6.68373">
        <ele>724</ele>
        <time>2022-07-21T17:13:37Z</time>
      </trkpt>
      <trkpt lat="45.9228" lon="6.68341">
        <ele>723</ele>
        <time>2022-07-21T17:13:39Z</time>
      </trkpt>
      <trkpt lat="45.92286" lon="6.68299">
        <ele>721</ele>
        <time>2022-07-21T17:13:42Z</time>
      </trkpt>
      <trkpt lat="45.92292" lon="6.68277">
        <ele>719</ele>
        <time>2022-07-21T17:13:44Z</time>
      </trkpt>
      <trkpt lat="45.92298" lon="6.68269">
        <ele>719</ele>
        <time>2022-07-21T17:13:45Z</time>
      </trkpt>
      <trkpt lat="45.92312" lon="6.68254">
        <ele>718</ele>
        <time>2022-07-21T17:13:47Z</time>
      </trkpt>
      <trkpt lat="45.92317" lon="6.68244">
        <ele>717</ele>
        <time>2022-07-21T17:13:48Z</time>
      </trkpt>
      <trkpt lat="45.92319" lon="6.68231">
        <ele>717</ele>
        <time>2022-07-21T17:13:49Z</time>
      </trkpt>
      <trkpt lat="45.92321" lon="6.68201">
        <ele>716</ele>
        <time>2022-07-21T17:13:51Z</time>
      </trkpt>
      <trkpt lat="45.92302" lon="6.68085">
        <ele>713</ele>
        <time>2022-07-21T17:13:59Z</time>
      </trkpt>
      <trkpt lat="45.92303" lon="6.6807">
        <ele>713</ele>
        <time>2022-07-21T17:14:00Z</time>
      </trkpt>
      <trkpt lat="45.92326" lon="6.67983">
        <ele>709</ele>
        <time>2022-07-21T17:14:06Z</time>
      </trkpt>
      <trkpt lat="45.92332" lon="6.67917">
        <ele>707</ele>
        <time>2022-07-21T17:14:10Z</time>
      </trkpt>
      <trkpt lat="45.92351" lon="6.67861">
        <ele>705</ele>
        <time>2022-07-21T17:14:14Z</time>
      </trkpt>
      <trkpt lat="45.92355" lon="6.67846">
        <ele>705</ele>
        <time>2022-07-21T17:14:15Z</time>
      </trkpt>
      <trkpt lat="45.92355" lon="6.67815">
        <ele>703</ele>
        <time>2022-07-21T17:14:17Z</time>
      </trkpt>
      <trkpt lat="45.92371" lon="6.67758">
        <ele>700</ele>
        <time>2022-07-21T17:14:21Z</time>
      </trkpt>
      <trkpt lat="45.92374" lon="6.67743">
        <ele>699</ele>
        <time>2022-07-21T17:14:22Z</time>
      </trkpt>
      <trkpt lat="45.92364" lon="6.67664">
        <ele>695</ele>
        <time>2022-07-21T17:14:27Z</time>
      </trkpt>
      <trkpt lat="45.92361" lon="6.67648">
        <ele>695</ele>
        <time>2022-07-21T17:14:28Z</time>
      </trkpt>
      <trkpt lat="45.92346" lon="6.67568">
        <ele>692</ele>
        <time>2022-07-21T17:14:33Z</time>
      </trkpt>
      <trkpt lat="45.92346" lon="6.67536">
        <ele>691</ele>
        <time>2022-07-21T17:14:35Z</time>
      </trkpt>
      <trkpt lat="45.92366" lon="6.67463">
        <ele>690</ele>
        <time>2022-07-21T17:14:40Z</time>
      </trkpt>
      <trkpt lat="45.92366" lon="6.67448">
        <ele>689</ele>
        <time>2022-07-21T17:14:41Z</time>
      </trkpt>
      <trkpt lat="45.92332" lon="6.67337">
        <ele>686</ele>
        <time>2022-07-21T17:14:49Z</time>
      </trkpt>
      <trkpt lat="45.92331" lon="6.67323">
        <ele>685</ele>
        <time>2022-07-21T17:14:50Z</time>
      </trkpt>
      <trkpt lat="45.92335" lon="6.67309">
        <ele>684</ele>
        <time>2022-07-21T17:14:51Z</time>
      </trkpt>
      <trkpt lat="45.92363" lon="6.6726">
        <ele>682</ele>
        <time>2022-07-21T17:14:55Z</time>
      </trkpt>
      <trkpt lat="45.92382" lon="6.67183">
        <ele>681</ele>
        <time>2022-07-21T17:15:00Z</time>
      </trkpt>
      <trkpt lat="45.92401" lon="6.6715">
        <ele>678</ele>
        <time>2022-07-21T17:15:03Z</time>
      </trkpt>
      <trkpt lat="45.92425" lon="6.67025">
        <ele>673</ele>
        <time>2022-07-21T17:15:11Z</time>
      </trkpt>
      <trkpt lat="45.92443" lon="6.66982">
        <ele>670</ele>
        <time>2022-07-21T17:15:14Z</time>
      </trkpt>
      <trkpt lat="45.92465" lon="6.66842">
        <ele>663</ele>
        <time>2022-07-21T17:15:23Z</time>
      </trkpt>
      <trkpt lat="45.92471" lon="6.66829">
        <ele>662</ele>
        <time>2022-07-21T17:15:24Z</time>
      </trkpt>
      <trkpt lat="45.92478" lon="6.66816">
        <ele>662</ele>
        <time>2022-07-21T17:15:25Z</time>
      </trkpt>
      <trkpt lat="45.9254" lon="6.66694">
        <ele>655</ele>
        <time>2022-07-21T17:15:35Z</time>
      </trkpt>
      <trkpt lat="45.92547" lon="6.66686">
        <ele>655</ele>
        <time>2022-07-21T17:15:36Z</time>
      </trkpt>
      <trkpt lat="45.92566" lon="6.66676">
        <ele>653</ele>
        <time>2022-07-21T17:15:38Z</time>
      </trkpt>
      <trkpt lat="45.92576" lon="6.66672">
        <ele>653</ele>
        <time>2022-07-21T17:15:39Z</time>
      </trkpt>
      <trkpt lat="45.92617" lon="6.66649">
        <ele>651</ele>
        <time>2022-07-21T17:15:43Z</time>
      </trkpt>
      <trkpt lat="45.92635" lon="6.66631">
        <ele>650</ele>
        <time>2022-07-21T17:15:45Z</time>
      </trkpt>
      <trkpt lat="45.92648" lon="6.66609">
        <ele>648</ele>
        <time>2022-07-21T17:15:47Z</time>
      </trkpt>
      <trkpt lat="45.92652" lon="6.66597">
        <ele>647</ele>
        <time>2022-07-21T17:15:48Z</time>
      </trkpt>
      <trkpt lat="45.92654" lon="6.66584">
        <ele>647</ele>
        <time>2022-07-21T17:15:49Z</time>
      </trkpt>
      <trkpt lat="45.92653" lon="6.66572">
        <ele>646</ele>
        <time>2022-07-21T17:15:50Z</time>
      </trkpt>
      <trkpt lat="45.92649" lon="6.66559">
        <ele>645</ele>
        <time>2022-07-21T17:15:51Z</time>
      </trkpt>
      <trkpt lat="45.92643" lon="6.66549">
        <ele>645</ele>
        <time>2022-07-21T17:15:52Z</time>
      </trkpt>
      <trkpt lat="45.92637" lon="6.66539">
        <ele>645</ele>
        <time>2022-07-21T17:15:53Z</time>
      </trkpt>
      <trkpt lat="45.92625" lon="6.66517">
        <ele>644</ele>
        <time>2022-07-21T17:15:55Z</time>
      </trkpt>
      <trkpt lat="45.92614" lon="6.66459">
        <ele>642</ele>
        <time>2022-07-21T17:15:59Z</time>
      </trkpt>
      <trkpt lat="45.92612" lon="6.6643">
        <ele>641</ele>
        <time>2022-07-21T17:16:01Z</time>
      </trkpt>
      <trkpt lat="45.9262" lon="6.66402">
        <ele>640</ele>
        <time>2022-07-21T17:16:03Z</time>
      </trkpt>
      <trkpt lat="45.9267" lon="6.66296">
        <ele>635</ele>
        <time>2022-07-21T17:16:11Z</time>
      </trkpt>
      <trkpt lat="45.92677" lon="6.66267">
        <ele>634</ele>
        <time>2022-07-21T17:16:13Z</time>
      </trkpt>
      <trkpt lat="45.92684" lon="6.66067">
        <ele>627</ele>
        <time>2022-07-21T17:16:26Z</time>
      </trkpt>
      <trkpt lat="45.9278" lon="6.6588">
        <ele>621</ele>
        <time>2022-07-21T17:16:39Z</time>
      </trkpt>
      <trkpt lat="45.92878" lon="6.65771">
        <ele>615</ele>
        <time>2022-07-21T17:16:49Z</time>
      </trkpt>
      <trkpt lat="45.92885" lon="6.65759">
        <ele>615</ele>
        <time>2022-07-21T17:16:50Z</time>
      </trkpt>
      <trkpt lat="45.929" lon="6.65716">
        <ele>613</ele>
        <time>2022-07-21T17:16:53Z</time>
      </trkpt>
      <trkpt lat="45.92924" lon="6.65549">
        <ele>600</ele>
        <time>2022-07-21T17:17:06Z</time>
      </trkpt>
      <trkpt lat="45.92922" lon="6.65532">
        <ele>594</ele>
        <time>2022-07-21T17:17:18Z</time>
      </trkpt>
      <trkpt lat="45.92923" lon="6.65515">
        <ele>594</ele>
        <time>2022-07-21T17:17:21Z</time>
      </trkpt>
      <trkpt lat="45.92933" lon="6.6548">
        <ele>594</ele>
        <time>2022-07-21T17:17:25Z</time>
      </trkpt>
      <trkpt lat="45.92966" lon="6.65444">
        <ele>594</ele>
        <time>2022-07-21T17:17:29Z</time>
      </trkpt>
      <trkpt lat="45.9338" lon="6.65014">
        <ele>581</ele>
        <time>2022-07-21T17:17:59Z</time>
      </trkpt>
      <trkpt lat="45.93704" lon="6.64624">
        <ele>576</ele>
        <time>2022-07-21T17:18:29Z</time>
      </trkpt>
      <trkpt lat="45.93842" lon="6.64478">
        <ele>577</ele>
        <time>2022-07-21T17:18:43Z</time>
      </trkpt>
      <trkpt lat="45.93858" lon="6.64449">
        <ele>577</ele>
        <time>2022-07-21T17:18:45Z</time>
      </trkpt>
      <trkpt lat="45.93868" lon="6.64399">
        <ele>580</ele>
        <time>2022-07-21T17:18:48Z</time>
      </trkpt>
      <trkpt lat="45.9387" lon="6.64186">
        <ele>585</ele>
        <time>2022-07-21T17:19:01Z</time>
      </trkpt>
      <trkpt lat="45.93878" lon="6.64158">
        <ele>584</ele>
        <time>2022-07-21T17:19:03Z</time>
      </trkpt>
      <trkpt lat="45.93888" lon="6.64131">
        <ele>584</ele>
        <time>2022-07-21T17:19:05Z</time>
      </trkpt>
      <trkpt lat="45.93931" lon="6.64088">
        <ele>581</ele>
        <time>2022-07-21T17:19:10Z</time>
      </trkpt>
      <trkpt lat="45.93942" lon="6.64078">
        <ele>579</ele>
        <time>2022-07-21T17:19:12Z</time>
      </trkpt>
      <trkpt lat="45.93947" lon="6.64074">
        <ele>579</ele>
        <time>2022-07-21T17:19:13Z</time>
      </trkpt>
      <trkpt lat="45.93961" lon="6.64066">
        <ele>576</ele>
        <time>2022-07-21T17:19:16Z</time>
      </trkpt>
      <trkpt lat="45.93967" lon="6.64065">
        <ele>576</ele>
        <time>2022-07-21T17:19:17Z</time>
      </trkpt>
      <trkpt lat="45.93973" lon="6.64061">
        <ele>575</ele>
        <time>2022-07-21T17:19:18Z</time>
      </trkpt>
      <trkpt lat="45.93981" lon="6.64043">
        <ele>575</ele>
        <time>2022-07-21T17:19:20Z</time>
      </trkpt>
      <trkpt lat="45.93987" lon="6.64032">
        <ele>574</ele>
        <time>2022-07-21T17:19:25Z</time>
      </trkpt>
      <trkpt lat="45.93996" lon="6.64016">
        <ele>574</ele>
        <time>2022-07-21T17:19:28Z</time>
      </trkpt>
      <trkpt lat="45.94199" lon="6.63842">
        <ele>576</ele>
        <time>2022-07-21T17:19:47Z</time>
      </trkpt>
      <trkpt lat="45.94244" lon="6.63822">
        <ele>576</ele>
        <time>2022-07-21T17:19:50Z</time>
      </trkpt>
      <trkpt lat="45.94303" lon="6.63805">
        <ele>575</ele>
        <time>2022-07-21T17:19:54Z</time>
      </trkpt>
      <trkpt lat="45.94331" lon="6.63787">
        <ele>574</ele>
        <time>2022-07-21T17:19:56Z</time>
      </trkpt>
      <trkpt lat="45.94459" lon="6.63663">
        <ele>570</ele>
        <time>2022-07-21T17:20:08Z</time>
      </trkpt>
      <trkpt lat="45.94466" lon="6.63662">
        <ele>570</ele>
        <time>2022-07-21T17:20:09Z</time>
      </trkpt>
      <trkpt lat="45.94474" lon="6.63664">
        <ele>570</ele>
        <time>2022-07-21T17:20:10Z</time>
      </trkpt>
      <trkpt lat="45.94481" lon="6.63666">
        <ele>569</ele>
        <time>2022-07-21T17:20:11Z</time>
      </trkpt>
      <trkpt lat="45.94489" lon="6.63664">
        <ele>569</ele>
        <time>2022-07-21T17:20:12Z</time>
      </trkpt>
      <trkpt lat="45.94495" lon="6.63657">
        <ele>569</ele>
        <time>2022-07-21T17:20:13Z</time>
      </trkpt>
      <trkpt lat="45.94498" lon="6.63646">
        <ele>569</ele>
        <time>2022-07-21T17:20:14Z</time>
      </trkpt>
      <trkpt lat="45.945" lon="6.63635">
        <ele>569</ele>
        <time>2022-07-21T17:20:15Z</time>
      </trkpt>
      <trkpt lat="45.94777" lon="6.63573">
        <ele>570</ele>
        <time>2022-07-21T17:20:37Z</time>
      </trkpt>
    </trkseg>
  </trk>
  <rte>
    <name><![CDATA[4 avr. 2019 à 23:11:12]]></name>
    <cmt><![CDATA[4 avr. 2019 à 23:11:12]]></cmt>
    <desc><![CDATA[{DC1}Heure de fin	: 
Durée totale	: 0h00:00
Moyenne globale	: -
Pente moyenne	: 0.00 %
Aire incluse	: 7.4932 ha
Détails par segments
distance  | durée    | vit.moy. | vit.max. | déniv. + | déniv -
   km     | hh:mn:ss |   km/h   |   km/h   |    m     |    m
     0.81 | 00:00:00 |      0.0 |      0.0 |        0 |        0{DC2}]]></desc>
      <rtept lat="45.60077" lon="6.18221">
        <ele>1608.6</ele>
      </rtept>
      <rtept lat="45.59468" lon="6.1822">
        <ele>1760.9</ele>
      </rtept>
      <rtept lat="45.59468" lon="6.1822">
        <ele>1760.9</ele>
      </rtept>
    </rte>
  <rte>
    <name><![CDATA[10 févr. 2019 à 15:16:12]]></name>
    <cmt><![CDATA[10 févr. 2019 à 15:16:12]]></cmt>
    <desc><![CDATA[{DC1}Heure de fin	: 00:09:21
Durée totale	: -17690439h43:48
Moyenne globale	: -
Pente moyenne	: 7.00 %
Aire incluse	: 221.0936 ha
Détails par segments
distance  | durée    | vit.moy. | vit.max. | déniv. + | déniv -
   km     | hh:mn:ss |   km/h   |   km/h   |    m     |    m
     7.48 | 00:00:00 |      0.0 |      0.0 |        0 |        0{DC2}]]></desc>
      <rtept lat="45.55203" lon="5.93805">
        <ele>376</ele>
      </rtept>
      <rtept lat="45.55177" lon="5.93873">
        <ele>369</ele>
      </rtept>
      <rtept lat="45.55176" lon="5.93942">
        <ele>367</ele>
      </rtept>
      <rtept lat="45.55105" lon="5.93942">
        <ele>367</ele>
      </rtept>
      <rtept lat="45.54993" lon="5.93908">
        <ele>371</ele>
      </rtept>
      <rtept lat="45.54929" lon="5.94099">
        <ele>370</ele>
      </rtept>
      <rtept lat="45.54908" lon="5.94204">
        <ele>367</ele>
      </rtept>
      <rtept lat="45.54991" lon="5.94287">
        <ele>365</ele>
      </rtept>
      <rtept lat="45.5506" lon="5.94384">
        <ele>361</ele>
      </rtept>
      <rtept lat="45.55147" lon="5.94384">
        <ele>357</ele>
      </rtept>
      <rtept lat="45.55129" lon="5.94607">
        <ele>358</ele>
      </rtept>
      <rtept lat="45.55029" lon="5.94809">
        <ele>355</ele>
      </rtept>
      <rtept lat="45.54884" lon="5.94886">
        <ele>346</ele>
      </rtept>
      <rtept lat="45.5477" lon="5.94931">
        <ele>342</ele>
      </rtept>
      <rtept lat="45.5468" lon="5.95004">
        <ele>339</ele>
      </rtept>
      <rtept lat="45.54596" lon="5.95133">
        <ele>340</ele>
      </rtept>
      <rtept lat="45.54446" lon="5.95195">
        <ele>343</ele>
      </rtept>
      <rtept lat="45.543" lon="5.95262">
        <ele>344</ele>
      </rtept>
      <rtept lat="45.54156" lon="5.95212">
        <ele>337</ele>
      </rtept>
      <rtept lat="45.54041" lon="5.95204">
        <ele>338</ele>
      </rtept>
      <rtept lat="45.53917" lon="5.95141">
        <ele>343</ele>
      </rtept>
      <rtept lat="45.53844" lon="5.95135">
        <ele>347</ele>
      </rtept>
      <rtept lat="45.53765" lon="5.9503">
        <ele>349</ele>
      </rtept>
      <rtept lat="45.5381" lon="5.94993">
        <ele>352</ele>
      </rtept>
      <rtept lat="45.53781" lon="5.94901">
        <ele>358</ele>
      </rtept>
      <rtept lat="45.53711" lon="5.94845">
        <ele>365</ele>
      </rtept>
      <rtept lat="45.53702" lon="5.94764">
        <ele>369</ele>
      </rtept>
      <rtept lat="45.53817" lon="5.94807">
        <ele>376</ele>
      </rtept>
      <rtept lat="45.53865" lon="5.94633">
        <ele>389</ele>
      </rtept>
      <rtept lat="45.53778" lon="5.94491">
        <ele>408</ele>
      </rtept>
      <rtept lat="45.53757" lon="5.94371">
        <ele>425</ele>
      </rtept>
      <rtept lat="45.53775" lon="5.94279">
        <ele>434</ele>
      </rtept>
      <rtept lat="45.53726" lon="5.94227">
        <ele>442</ele>
      </rtept>
      <rtept lat="45.53572" lon="5.94146">
        <ele>468</ele>
      </rtept>
      <rtept lat="45.53664" lon="5.94039">
        <ele>483</ele>
      </rtept>
      <rtept lat="45.53532" lon="5.93983">
        <ele>505</ele>
      </rtept>
      <rtept lat="45.53416" lon="5.93985">
        <ele>516</ele>
      </rtept>
      <rtept lat="45.5355" lon="5.93869">
        <ele>532</ele>
      </rtept>
      <rtept lat="45.5359" lon="5.93845">
        <ele>537</ele>
      </rtept>
      <rtept lat="45.5355" lon="5.93802">
        <ele>544</ele>
      </rtept>
      <rtept lat="45.53724" lon="5.93554">
        <ele>587</ele>
      </rtept>
      <rtept lat="45.53691" lon="5.93339">
        <ele>592</ele>
      </rtept>
      <rtept lat="45.5376" lon="5.93178">
        <ele>575</ele>
      </rtept>
      <rtept lat="45.53843" lon="5.93069">
        <ele>555</ele>
      </rtept>
      <rtept lat="45.53939" lon="5.93157">
        <ele>541</ele>
      </rtept>
      <rtept lat="45.54068" lon="5.93234">
        <ele>522</ele>
      </rtept>
      <rtept lat="45.54219" lon="5.93247">
        <ele>514</ele>
      </rtept>
      <rtept lat="45.54355" lon="5.93232">
        <ele>512</ele>
      </rtept>
      <rtept lat="45.54489" lon="5.9326">
        <ele>508</ele>
      </rtept>
      <rtept lat="45.54636" lon="5.93249">
        <ele>510</ele>
      </rtept>
      <rtept lat="45.54758" lon="5.93249">
        <ele>510</ele>
      </rtept>
      <rtept lat="45.54818" lon="5.93298">
        <ele>507</ele>
      </rtept>
      <rtept lat="45.54796" lon="5.93418">
        <ele>496</ele>
      </rtept>
      <rtept lat="45.5491" lon="5.93433">
        <ele>483</ele>
      </rtept>
      <rtept lat="45.55126" lon="5.9341">
        <ele>463</ele>
      </rtept>
      <rtept lat="45.55256" lon="5.93453">
        <ele>444</ele>
      </rtept>
      <rtept lat="45.55329" lon="5.93558">
        <ele>430</ele>
      </rtept>
      <rtept lat="45.55222" lon="5.93642">
        <ele>415</ele>
      </rtept>
      <rtept lat="45.55195" lon="5.93811">
        <ele>375</ele>
      </rtept>
    </rte>
  <rte>
    <name><![CDATA[10 févr. 2019 à 15:15:48]]></name>
    <cmt><![CDATA[10 févr. 2019 à 15:15:48]]></cmt>
    <desc><![CDATA[{DC1}Heure de fin	: 00:09:21
Durée totale	: -17690439h44:12
Moyenne globale	: -
Pente moyenne	: nan %
Aire incluse	: 0.0000 ha
Détails par segments
distance  | durée    | vit.moy. | vit.max. | déniv. + | déniv -
   km     | hh:mn:ss |   km/h   |   km/h   |    m     |    m
     0.00 | 00:00:00 |      0.0 |      0.0 |        0 |        0{DC2}]]></desc>
      <rtept lat="45.5175" lon="5.93483">
        <ele>732.3</ele>
      </rtept>
    </rte>
  <rte>
    <name><![CDATA[10 févr. 2019 à 15:06:08]]></name>
    <cmt><![CDATA[10 févr. 2019 à 15:06:08]]></cmt>
    <desc><![CDATA[{DC1}Heure de fin	: 
Durée totale	: 0h00:00
Moyenne globale	: -
Pente moyenne	: 8.03 %
Aire incluse	: 204.0794 ha
Détails par segments
distance  | durée    | vit.moy. | vit.max. | déniv. + | déniv -
   km     | hh:mn:ss |   km/h   |   km/h   |    m     |    m
    12.88 | 00:00:00 |      0.0 |      0.0 |        0 |        0{DC2}]]></desc>
      <rtept lat="45.5509" lon="5.9394">
        <ele>368</ele>
      </rtept>
      <rtept lat="45.55217" lon="5.93791">
        <ele>377</ele>
      </rtept>
    </rte>
  <rte>
    <name><![CDATA[10 févr. 2019 à 14:22:06]]></name>
    <cmt><![CDATA[10 févr. 2019 à 14:22:06]]></cmt>
    <desc><![CDATA[{DC1}Heure de fin	: 00:09:21
Durée totale	: -17690438h37:54
Moyenne globale	: -
Pente moyenne	: 5.62 %
Aire incluse	: 5.7967 ha
Détails par segments
distance  | durée    | vit.moy. | vit.max. | déniv. + | déniv -
   km     | hh:mn:ss |   km/h   |   km/h   |    m     |    m
     3.30 | 00:00:00 |      0.0 |      0.0 |        0 |        0{DC2}]]></desc>
      <rtept lat="45.55169" lon="5.93089">
        <ele>415</ele>
      </rtept>
      <rtept lat="45.5518" lon="5.93905">
        <ele>366</ele>
      </rtept>
    </rte>
  <rte>
    <name><![CDATA[10 févr. 2019 à 09:50:45]]></name>
    <cmt><![CDATA[10 févr. 2019 à 09:50:45]]></cmt>
    <desc><![CDATA[{DC1}Heure de fin	: 00:09:21
Durée totale	: -17690433h09:14
Moyenne globale	: -
Pente moyenne	: 0.00 %
Aire incluse	: 50.7119 ha
Détails par segments
distance  | durée    | vit.moy. | vit.max. | déniv. + | déniv -
   km     | hh:mn:ss |   km/h   |   km/h   |    m     |    m
     4.33 | 00:00:00 |      0.0 |      0.0 |        0 |        0{DC2}]]></desc>
      <rtept lat="45.5503" lon="5.93918">
        <ele>373.6</ele>
      </rtept>
      <rtept lat="45.55191" lon="5.93893">
        <ele>366.7</ele>
      </rtept>
    </rte>
  <rte>
    <name><![CDATA[10 févr. 2019 à 09:07:08]]></name>
    <cmt><![CDATA[10 févr. 2019 à 09:07:08]]></cmt>
    <desc><![CDATA[{DC1}Heure de fin	: 00:09:21
Durée totale	: -17690433h52:52
Moyenne globale	: -
Pente moyenne	: nan %
Aire incluse	: 0.0000 ha
Détails par segments
distance  | durée    | vit.moy. | vit.max. | déniv. + | déniv -
   km     | hh:mn:ss |   km/h   |   km/h   |    m     |    m
     0.00 | 00:00:00 |      0.0 |      0.0 |        0 |        0{DC2}]]></desc>
      <rtept lat="45.55102" lon="5.93919">
        <ele>370.1</ele>
      </rtept>
    </rte>
  <rte>
    <name><![CDATA[10 févr. 2019 à 09:02:25]]></name>
    <cmt><![CDATA[10 févr. 2019 à 09:02:25]]></cmt>
    <desc><![CDATA[{DC1}Heure de fin	: 00:09:21
Durée totale	: -17690433h57:35
Moyenne globale	: -
Pente moyenne	: nan %
Aire incluse	: 0.0000 ha
Détails par segments
distance  | durée    | vit.moy. | vit.max. | déniv. + | déniv -
   km     | hh:mn:ss |   km/h   |   km/h   |    m     |    m
     0.00 | 00:00:00 |      0.0 |      0.0 |        0 |        0{DC2}]]></desc>
      <rtept lat="45.55207" lon="5.93813">
        <ele>375.2</ele>
      </rtept>
    </rte>
  <rte>
    <name><![CDATA[10 févr. 2019 à 09:00:27]]></name>
    <cmt><![CDATA[10 févr. 2019 à 09:00:27]]></cmt>
    <desc><![CDATA[{DC1}Heure de fin	: 00:09:21
Durée totale	: -17690433h59:32
Moyenne globale	: -
Pente moyenne	: nan %
Aire incluse	: 0.0000 ha
Détails par segments
distance  | durée    | vit.moy. | vit.max. | déniv. + | déniv -
   km     | hh:mn:ss |   km/h   |   km/h   |    m     |    m
     0.00 | 00:00:00 |      0.0 |      0.0 |        0 |        0{DC2}]]></desc>
      <rtept lat="45.55244" lon="5.93858">
        <ele>366.6</ele>
      </rtept>
    </rte>
</gpx>